<?xml version="1.0" encoding="UTF-8" standalone="no" ?>
<gpx xmlns="http://www.topografix.com/GPX/1/1" xmlns:xsi="http://www.w3.org/2001/XMLSchema-instance" xsi:schemaLocation="http://www.topografix.com/GPX/1/1 http://www.topografix.com/GPX/1/1/gpx.xsd" version="1.1" creator="VisuGPX - https://www.visugpx.com">
  <metadata>
    <name>10163729-Grande Traversée du Rhône VTT - GTR</name>
    <desc><![CDATA[Grande traversee du Rhône GTR copie HW]]></desc>
  </metadata>
  <trk>
    <name><![CDATA[10163729-Grande Traversée du Rhône VTT - GTR]]></name>
    <trkseg>
      <trkpt lat="46.17611" lon="4.74253">
        <ele>185</ele>
        <time>2019-06-28T14:13:31Z</time>
      </trkpt>
      <trkpt lat="46.17595" lon="4.74249">
        <ele>184</ele>
        <time>2019-06-28T14:13:35Z</time>
      </trkpt>
      <trkpt lat="46.1755" lon="4.74247">
        <ele>183</ele>
        <time>2019-06-28T14:13:45Z</time>
      </trkpt>
      <trkpt lat="46.1755" lon="4.74198">
        <ele>184</ele>
        <time>2019-06-28T14:13:53Z</time>
      </trkpt>
      <trkpt lat="46.17555" lon="4.74128">
        <ele>185</ele>
        <time>2019-06-28T14:14:05Z</time>
      </trkpt>
      <trkpt lat="46.17573" lon="4.7406">
        <ele>185</ele>
        <time>2019-06-28T14:14:16Z</time>
      </trkpt>
      <trkpt lat="46.17643" lon="4.73852">
        <ele>189</ele>
        <time>2019-06-28T14:14:54Z</time>
      </trkpt>
      <trkpt lat="46.17742" lon="4.73305">
        <ele>201</ele>
        <time>2019-06-28T14:16:25Z</time>
      </trkpt>
      <trkpt lat="46.17749" lon="4.7325">
        <ele>203</ele>
        <time>2019-06-28T14:16:34Z</time>
      </trkpt>
      <trkpt lat="46.17752" lon="4.73137">
        <ele>206</ele>
        <time>2019-06-28T14:16:53Z</time>
      </trkpt>
      <trkpt lat="46.17759" lon="4.73099">
        <ele>206</ele>
        <time>2019-06-28T14:16:59Z</time>
      </trkpt>
      <trkpt lat="46.17737" lon="4.73095">
        <ele>206</ele>
        <time>2019-06-28T14:17:04Z</time>
      </trkpt>
      <trkpt lat="46.17712" lon="4.73096">
        <ele>206</ele>
        <time>2019-06-28T14:17:10Z</time>
      </trkpt>
      <trkpt lat="46.17706" lon="4.73089">
        <ele>206</ele>
        <time>2019-06-28T14:17:12Z</time>
      </trkpt>
      <trkpt lat="46.17685" lon="4.73019">
        <ele>204</ele>
        <time>2019-06-28T14:17:24Z</time>
      </trkpt>
      <trkpt lat="46.17793" lon="4.72716">
        <ele>207</ele>
        <time>2019-06-28T14:18:19Z</time>
      </trkpt>
      <trkpt lat="46.17832" lon="4.72655">
        <ele>209</ele>
        <time>2019-06-28T14:18:33Z</time>
      </trkpt>
      <trkpt lat="46.17875" lon="4.72573">
        <ele>212</ele>
        <time>2019-06-28T14:18:49Z</time>
      </trkpt>
      <trkpt lat="46.17877" lon="4.72563">
        <ele>212</ele>
        <time>2019-06-28T14:18:51Z</time>
      </trkpt>
      <trkpt lat="46.1787" lon="4.72482">
        <ele>211</ele>
        <time>2019-06-28T14:19:04Z</time>
      </trkpt>
      <trkpt lat="46.17878" lon="4.72338">
        <ele>210</ele>
        <time>2019-06-28T14:19:27Z</time>
      </trkpt>
      <trkpt lat="46.17884" lon="4.72262">
        <ele>209</ele>
        <time>2019-06-28T14:19:40Z</time>
      </trkpt>
      <trkpt lat="46.17888" lon="4.72245">
        <ele>209</ele>
        <time>2019-06-28T14:19:43Z</time>
      </trkpt>
      <trkpt lat="46.17895" lon="4.7224">
        <ele>209</ele>
        <time>2019-06-28T14:19:45Z</time>
      </trkpt>
      <trkpt lat="46.17981" lon="4.72026">
        <ele>211</ele>
        <time>2019-06-28T14:20:25Z</time>
      </trkpt>
      <trkpt lat="46.18071" lon="4.71812">
        <ele>213</ele>
        <time>2019-06-28T14:21:05Z</time>
      </trkpt>
      <trkpt lat="46.17995" lon="4.71807">
        <ele>207</ele>
        <time>2019-06-28T14:21:23Z</time>
      </trkpt>
      <trkpt lat="46.1798" lon="4.71808">
        <ele>207</ele>
        <time>2019-06-28T14:21:26Z</time>
      </trkpt>
      <trkpt lat="46.17977" lon="4.71709">
        <ele>206</ele>
        <time>2019-06-28T14:21:42Z</time>
      </trkpt>
      <trkpt lat="46.1797" lon="4.71687">
        <ele>206</ele>
        <time>2019-06-28T14:21:46Z</time>
      </trkpt>
      <trkpt lat="46.17886" lon="4.71621">
        <ele>208</ele>
        <time>2019-06-28T14:22:09Z</time>
      </trkpt>
      <trkpt lat="46.17822" lon="4.71532">
        <ele>210</ele>
        <time>2019-06-28T14:22:29Z</time>
      </trkpt>
      <trkpt lat="46.17804" lon="4.71496">
        <ele>210</ele>
        <time>2019-06-28T14:22:37Z</time>
      </trkpt>
      <trkpt lat="46.17771" lon="4.71443">
        <ele>210</ele>
        <time>2019-06-28T14:22:48Z</time>
      </trkpt>
      <trkpt lat="46.17754" lon="4.71406">
        <ele>211</ele>
        <time>2019-06-28T14:22:55Z</time>
      </trkpt>
      <trkpt lat="46.17748" lon="4.71397">
        <ele>211</ele>
        <time>2019-06-28T14:22:57Z</time>
      </trkpt>
      <trkpt lat="46.17742" lon="4.71393">
        <ele>211</ele>
        <time>2019-06-28T14:22:59Z</time>
      </trkpt>
      <trkpt lat="46.17707" lon="4.71381">
        <ele>212</ele>
        <time>2019-06-28T14:23:07Z</time>
      </trkpt>
      <trkpt lat="46.17697" lon="4.71382">
        <ele>212</ele>
        <time>2019-06-28T14:23:10Z</time>
      </trkpt>
      <trkpt lat="46.17692" lon="4.71387">
        <ele>212</ele>
        <time>2019-06-28T14:23:11Z</time>
      </trkpt>
      <trkpt lat="46.17686" lon="4.71473">
        <ele>209</ele>
        <time>2019-06-28T14:23:25Z</time>
      </trkpt>
      <trkpt lat="46.17677" lon="4.71487">
        <ele>208</ele>
        <time>2019-06-28T14:23:28Z</time>
      </trkpt>
      <trkpt lat="46.17665" lon="4.71494">
        <ele>208</ele>
        <time>2019-06-28T14:23:31Z</time>
      </trkpt>
      <trkpt lat="46.17632" lon="4.71494">
        <ele>209</ele>
        <time>2019-06-28T14:23:39Z</time>
      </trkpt>
      <trkpt lat="46.17607" lon="4.71497">
        <ele>210</ele>
        <time>2019-06-28T14:23:45Z</time>
      </trkpt>
      <trkpt lat="46.17586" lon="4.71507">
        <ele>211</ele>
        <time>2019-06-28T14:23:50Z</time>
      </trkpt>
      <trkpt lat="46.17505" lon="4.7152">
        <ele>212</ele>
        <time>2019-06-28T14:24:09Z</time>
      </trkpt>
      <trkpt lat="46.17473" lon="4.71523">
        <ele>213</ele>
        <time>2019-06-28T14:24:16Z</time>
      </trkpt>
      <trkpt lat="46.17442" lon="4.71536">
        <ele>213</ele>
        <time>2019-06-28T14:24:24Z</time>
      </trkpt>
      <trkpt lat="46.17411" lon="4.71533">
        <ele>214</ele>
        <time>2019-06-28T14:24:31Z</time>
      </trkpt>
      <trkpt lat="46.17342" lon="4.71508">
        <ele>217</ele>
        <time>2019-06-28T14:24:48Z</time>
      </trkpt>
      <trkpt lat="46.17311" lon="4.7148">
        <ele>218</ele>
        <time>2019-06-28T14:24:56Z</time>
      </trkpt>
      <trkpt lat="46.17305" lon="4.71487">
        <ele>218</ele>
        <time>2019-06-28T14:24:58Z</time>
      </trkpt>
      <trkpt lat="46.17262" lon="4.71426">
        <ele>221</ele>
        <time>2019-06-28T14:25:12Z</time>
      </trkpt>
      <trkpt lat="46.17249" lon="4.7144">
        <ele>221</ele>
        <time>2019-06-28T14:25:16Z</time>
      </trkpt>
      <trkpt lat="46.17232" lon="4.71453">
        <ele>221</ele>
        <time>2019-06-28T14:25:20Z</time>
      </trkpt>
      <trkpt lat="46.17215" lon="4.71372">
        <ele>226</ele>
        <time>2019-06-28T14:25:34Z</time>
      </trkpt>
      <trkpt lat="46.17207" lon="4.71345">
        <ele>228</ele>
        <time>2019-06-28T14:25:39Z</time>
      </trkpt>
      <trkpt lat="46.17181" lon="4.71345">
        <ele>229</ele>
        <time>2019-06-28T14:25:45Z</time>
      </trkpt>
      <trkpt lat="46.17173" lon="4.71347">
        <ele>229</ele>
        <time>2019-06-28T14:25:47Z</time>
      </trkpt>
      <trkpt lat="46.17083" lon="4.71396">
        <ele>231</ele>
        <time>2019-06-28T14:26:09Z</time>
      </trkpt>
      <trkpt lat="46.1705" lon="4.71394">
        <ele>233</ele>
        <time>2019-06-28T14:26:17Z</time>
      </trkpt>
      <trkpt lat="46.17044" lon="4.71371">
        <ele>234</ele>
        <time>2019-06-28T14:26:21Z</time>
      </trkpt>
      <trkpt lat="46.17044" lon="4.7132">
        <ele>236</ele>
        <time>2019-06-28T14:26:29Z</time>
      </trkpt>
      <trkpt lat="46.17018" lon="4.71245">
        <ele>239</ele>
        <time>2019-06-28T14:26:43Z</time>
      </trkpt>
      <trkpt lat="46.16929" lon="4.71254">
        <ele>241</ele>
        <time>2019-06-28T14:27:04Z</time>
      </trkpt>
      <trkpt lat="46.16872" lon="4.71289">
        <ele>239</ele>
        <time>2019-06-28T14:27:18Z</time>
      </trkpt>
      <trkpt lat="46.16855" lon="4.71297">
        <ele>238</ele>
        <time>2019-06-28T14:27:22Z</time>
      </trkpt>
      <trkpt lat="46.16852" lon="4.7132">
        <ele>239</ele>
        <time>2019-06-28T14:27:26Z</time>
      </trkpt>
      <trkpt lat="46.16856" lon="4.71425">
        <ele>236</ele>
        <time>2019-06-28T14:27:43Z</time>
      </trkpt>
      <trkpt lat="46.1678" lon="4.71539">
        <ele>231</ele>
        <time>2019-06-28T14:28:09Z</time>
      </trkpt>
      <trkpt lat="46.16737" lon="4.71563">
        <ele>229</ele>
        <time>2019-06-28T14:28:19Z</time>
      </trkpt>
      <trkpt lat="46.16717" lon="4.71566">
        <ele>227</ele>
        <time>2019-06-28T14:28:24Z</time>
      </trkpt>
      <trkpt lat="46.16683" lon="4.71564">
        <ele>225</ele>
        <time>2019-06-28T14:28:32Z</time>
      </trkpt>
      <trkpt lat="46.16671" lon="4.71569">
        <ele>224</ele>
        <time>2019-06-28T14:28:35Z</time>
      </trkpt>
      <trkpt lat="46.16674" lon="4.71626">
        <ele>221</ele>
        <time>2019-06-28T14:28:44Z</time>
      </trkpt>
      <trkpt lat="46.1667" lon="4.71664">
        <ele>218</ele>
        <time>2019-06-28T14:28:50Z</time>
      </trkpt>
      <trkpt lat="46.16656" lon="4.71743">
        <ele>214</ele>
        <time>2019-06-28T14:29:04Z</time>
      </trkpt>
      <trkpt lat="46.16652" lon="4.71801">
        <ele>212</ele>
        <time>2019-06-28T14:29:13Z</time>
      </trkpt>
      <trkpt lat="46.16673" lon="4.71962">
        <ele>209</ele>
        <time>2019-06-28T14:29:40Z</time>
      </trkpt>
      <trkpt lat="46.16639" lon="4.71965">
        <ele>208</ele>
        <time>2019-06-28T14:29:47Z</time>
      </trkpt>
      <trkpt lat="46.16635" lon="4.7204">
        <ele>207</ele>
        <time>2019-06-28T14:30:00Z</time>
      </trkpt>
      <trkpt lat="46.16541" lon="4.72049">
        <ele>204</ele>
        <time>2019-06-28T14:30:22Z</time>
      </trkpt>
      <trkpt lat="46.1651" lon="4.72043">
        <ele>203</ele>
        <time>2019-06-28T14:30:29Z</time>
      </trkpt>
      <trkpt lat="46.16506" lon="4.72039">
        <ele>203</ele>
        <time>2019-06-28T14:30:30Z</time>
      </trkpt>
      <trkpt lat="46.16503" lon="4.72034">
        <ele>203</ele>
        <time>2019-06-28T14:30:31Z</time>
      </trkpt>
      <trkpt lat="46.16505" lon="4.71967">
        <ele>204</ele>
        <time>2019-06-28T14:30:42Z</time>
      </trkpt>
      <trkpt lat="46.16511" lon="4.71877">
        <ele>205</ele>
        <time>2019-06-28T14:30:57Z</time>
      </trkpt>
      <trkpt lat="46.16519" lon="4.71813">
        <ele>206</ele>
        <time>2019-06-28T14:31:07Z</time>
      </trkpt>
      <trkpt lat="46.16454" lon="4.71767">
        <ele>204</ele>
        <time>2019-06-28T14:31:24Z</time>
      </trkpt>
      <trkpt lat="46.16444" lon="4.71763">
        <ele>204</ele>
        <time>2019-06-28T14:31:26Z</time>
      </trkpt>
      <trkpt lat="46.16401" lon="4.71764">
        <ele>204</ele>
        <time>2019-06-28T14:31:37Z</time>
      </trkpt>
      <trkpt lat="46.16384" lon="4.7176">
        <ele>205</ele>
        <time>2019-06-28T14:31:41Z</time>
      </trkpt>
      <trkpt lat="46.16345" lon="4.71757">
        <ele>207</ele>
        <time>2019-06-28T14:31:50Z</time>
      </trkpt>
      <trkpt lat="46.16337" lon="4.71762">
        <ele>207</ele>
        <time>2019-06-28T14:31:52Z</time>
      </trkpt>
      <trkpt lat="46.16321" lon="4.71784">
        <ele>207</ele>
        <time>2019-06-28T14:31:57Z</time>
      </trkpt>
      <trkpt lat="46.16311" lon="4.71811">
        <ele>206</ele>
        <time>2019-06-28T14:32:02Z</time>
      </trkpt>
      <trkpt lat="46.16291" lon="4.71833">
        <ele>207</ele>
        <time>2019-06-28T14:32:08Z</time>
      </trkpt>
      <trkpt lat="46.1628" lon="4.71833">
        <ele>208</ele>
        <time>2019-06-28T14:32:10Z</time>
      </trkpt>
      <trkpt lat="46.16253" lon="4.71817">
        <ele>212</ele>
        <time>2019-06-28T14:32:17Z</time>
      </trkpt>
      <trkpt lat="46.16183" lon="4.71768">
        <ele>217</ele>
        <time>2019-06-28T14:32:35Z</time>
      </trkpt>
      <trkpt lat="46.16082" lon="4.71773">
        <ele>220</ele>
        <time>2019-06-28T14:32:59Z</time>
      </trkpt>
      <trkpt lat="46.16071" lon="4.71958">
        <ele>215</ele>
        <time>2019-06-28T14:33:29Z</time>
      </trkpt>
      <trkpt lat="46.16061" lon="4.71959">
        <ele>215</ele>
        <time>2019-06-28T14:33:31Z</time>
      </trkpt>
      <trkpt lat="46.15973" lon="4.71945">
        <ele>217</ele>
        <time>2019-06-28T14:33:52Z</time>
      </trkpt>
      <trkpt lat="46.15986" lon="4.71882">
        <ele>218</ele>
        <time>2019-06-28T14:34:03Z</time>
      </trkpt>
      <trkpt lat="46.15987" lon="4.71847">
        <ele>219</ele>
        <time>2019-06-28T14:34:08Z</time>
      </trkpt>
      <trkpt lat="46.15982" lon="4.71794">
        <ele>220</ele>
        <time>2019-06-28T14:34:17Z</time>
      </trkpt>
      <trkpt lat="46.15979" lon="4.71787">
        <ele>220</ele>
        <time>2019-06-28T14:34:18Z</time>
      </trkpt>
      <trkpt lat="46.15962" lon="4.71782">
        <ele>220</ele>
        <time>2019-06-28T14:34:22Z</time>
      </trkpt>
      <trkpt lat="46.15914" lon="4.71777">
        <ele>220</ele>
        <time>2019-06-28T14:34:33Z</time>
      </trkpt>
      <trkpt lat="46.15887" lon="4.71771">
        <ele>220</ele>
        <time>2019-06-28T14:34:40Z</time>
      </trkpt>
      <trkpt lat="46.15903" lon="4.71735">
        <ele>221</ele>
        <time>2019-06-28T14:34:47Z</time>
      </trkpt>
      <trkpt lat="46.15914" lon="4.71697">
        <ele>220</ele>
        <time>2019-06-28T14:34:53Z</time>
      </trkpt>
      <trkpt lat="46.15923" lon="4.71659">
        <ele>220</ele>
        <time>2019-06-28T14:35:00Z</time>
      </trkpt>
      <trkpt lat="46.15925" lon="4.71632">
        <ele>220</ele>
        <time>2019-06-28T14:35:04Z</time>
      </trkpt>
      <trkpt lat="46.15907" lon="4.71529">
        <ele>220</ele>
        <time>2019-06-28T14:35:21Z</time>
      </trkpt>
      <trkpt lat="46.159" lon="4.71506">
        <ele>221</ele>
        <time>2019-06-28T14:35:26Z</time>
      </trkpt>
      <trkpt lat="46.15885" lon="4.71478">
        <ele>221</ele>
        <time>2019-06-28T14:35:31Z</time>
      </trkpt>
      <trkpt lat="46.15872" lon="4.71462">
        <ele>221</ele>
        <time>2019-06-28T14:35:35Z</time>
      </trkpt>
      <trkpt lat="46.1586" lon="4.71428">
        <ele>221</ele>
        <time>2019-06-28T14:35:41Z</time>
      </trkpt>
      <trkpt lat="46.15836" lon="4.71318">
        <ele>224</ele>
        <time>2019-06-28T14:36:00Z</time>
      </trkpt>
      <trkpt lat="46.15838" lon="4.71087">
        <ele>227</ele>
        <time>2019-06-28T14:36:37Z</time>
      </trkpt>
      <trkpt lat="46.15836" lon="4.71065">
        <ele>228</ele>
        <time>2019-06-28T14:36:41Z</time>
      </trkpt>
      <trkpt lat="46.1583" lon="4.71047">
        <ele>229</ele>
        <time>2019-06-28T14:36:44Z</time>
      </trkpt>
      <trkpt lat="46.15834" lon="4.70697">
        <ele>234</ele>
        <time>2019-06-28T14:37:41Z</time>
      </trkpt>
      <trkpt lat="46.15829" lon="4.70569">
        <ele>235</ele>
        <time>2019-06-28T14:38:02Z</time>
      </trkpt>
      <trkpt lat="46.15816" lon="4.70476">
        <ele>234</ele>
        <time>2019-06-28T14:38:17Z</time>
      </trkpt>
      <trkpt lat="46.15819" lon="4.70339">
        <ele>233</ele>
        <time>2019-06-28T14:38:39Z</time>
      </trkpt>
      <trkpt lat="46.15842" lon="4.7027">
        <ele>234</ele>
        <time>2019-06-28T14:38:52Z</time>
      </trkpt>
      <trkpt lat="46.15852" lon="4.70209">
        <ele>234</ele>
        <time>2019-06-28T14:39:02Z</time>
      </trkpt>
      <trkpt lat="46.15897" lon="4.70118">
        <ele>236</ele>
        <time>2019-06-28T14:39:20Z</time>
      </trkpt>
      <trkpt lat="46.15926" lon="4.70066">
        <ele>237</ele>
        <time>2019-06-28T14:39:31Z</time>
      </trkpt>
      <trkpt lat="46.15784" lon="4.70005">
        <ele>229</ele>
        <time>2019-06-28T14:40:05Z</time>
      </trkpt>
      <trkpt lat="46.15829" lon="4.69852">
        <ele>231</ele>
        <time>2019-06-28T14:40:32Z</time>
      </trkpt>
      <trkpt lat="46.1585" lon="4.6979">
        <ele>231</ele>
        <time>2019-06-28T14:40:43Z</time>
      </trkpt>
      <trkpt lat="46.15808" lon="4.69708">
        <ele>229</ele>
        <time>2019-06-28T14:41:00Z</time>
      </trkpt>
      <trkpt lat="46.1579" lon="4.69678">
        <ele>229</ele>
        <time>2019-06-28T14:41:06Z</time>
      </trkpt>
      <trkpt lat="46.15776" lon="4.69671">
        <ele>229</ele>
        <time>2019-06-28T14:41:10Z</time>
      </trkpt>
      <trkpt lat="46.15758" lon="4.69677">
        <ele>229</ele>
        <time>2019-06-28T14:41:14Z</time>
      </trkpt>
      <trkpt lat="46.15721" lon="4.69714">
        <ele>228</ele>
        <time>2019-06-28T14:41:24Z</time>
      </trkpt>
      <trkpt lat="46.15711" lon="4.69615">
        <ele>231</ele>
        <time>2019-06-28T14:41:41Z</time>
      </trkpt>
      <trkpt lat="46.15574" lon="4.69591">
        <ele>231</ele>
        <time>2019-06-28T14:42:13Z</time>
      </trkpt>
      <trkpt lat="46.15568" lon="4.69588">
        <ele>231</ele>
        <time>2019-06-28T14:42:14Z</time>
      </trkpt>
      <trkpt lat="46.15535" lon="4.69408">
        <ele>235</ele>
        <time>2019-06-28T14:42:44Z</time>
      </trkpt>
      <trkpt lat="46.15548" lon="4.69333">
        <ele>236</ele>
        <time>2019-06-28T14:42:57Z</time>
      </trkpt>
      <trkpt lat="46.15581" lon="4.69186">
        <ele>240</ele>
        <time>2019-06-28T14:43:22Z</time>
      </trkpt>
      <trkpt lat="46.15564" lon="4.69176">
        <ele>240</ele>
        <time>2019-06-28T14:43:26Z</time>
      </trkpt>
      <trkpt lat="46.15388" lon="4.69002">
        <ele>243</ele>
        <time>2019-06-28T14:44:16Z</time>
      </trkpt>
      <trkpt lat="46.15332" lon="4.68933">
        <ele>244</ele>
        <time>2019-06-28T14:44:33Z</time>
      </trkpt>
      <trkpt lat="46.15328" lon="4.68938">
        <ele>244</ele>
        <time>2019-06-28T14:44:34Z</time>
      </trkpt>
      <trkpt lat="46.15278" lon="4.68891">
        <ele>245</ele>
        <time>2019-06-28T14:44:48Z</time>
      </trkpt>
      <trkpt lat="46.15233" lon="4.68853">
        <ele>246</ele>
        <time>2019-06-28T14:45:01Z</time>
      </trkpt>
      <trkpt lat="46.15206" lon="4.68838">
        <ele>247</ele>
        <time>2019-06-28T14:45:07Z</time>
      </trkpt>
      <trkpt lat="46.15183" lon="4.68832">
        <ele>247</ele>
        <time>2019-06-28T14:45:13Z</time>
      </trkpt>
      <trkpt lat="46.15157" lon="4.68833">
        <ele>247</ele>
        <time>2019-06-28T14:45:19Z</time>
      </trkpt>
      <trkpt lat="46.15132" lon="4.6883">
        <ele>247</ele>
        <time>2019-06-28T14:45:25Z</time>
      </trkpt>
      <trkpt lat="46.15123" lon="4.68826">
        <ele>248</ele>
        <time>2019-06-28T14:45:27Z</time>
      </trkpt>
      <trkpt lat="46.15068" lon="4.68837">
        <ele>247</ele>
        <time>2019-06-28T14:45:40Z</time>
      </trkpt>
      <trkpt lat="46.15057" lon="4.68836">
        <ele>247</ele>
        <time>2019-06-28T14:45:42Z</time>
      </trkpt>
      <trkpt lat="46.14979" lon="4.68818">
        <ele>249</ele>
        <time>2019-06-28T14:46:01Z</time>
      </trkpt>
      <trkpt lat="46.14876" lon="4.68782">
        <ele>251</ele>
        <time>2019-06-28T14:46:26Z</time>
      </trkpt>
      <trkpt lat="46.14856" lon="4.68779">
        <ele>252</ele>
        <time>2019-06-28T14:46:30Z</time>
      </trkpt>
      <trkpt lat="46.14842" lon="4.6878">
        <ele>252</ele>
        <time>2019-06-28T14:46:34Z</time>
      </trkpt>
      <trkpt lat="46.14817" lon="4.68792">
        <ele>251</ele>
        <time>2019-06-28T14:46:40Z</time>
      </trkpt>
      <trkpt lat="46.14815" lon="4.68786">
        <ele>251</ele>
        <time>2019-06-28T14:46:41Z</time>
      </trkpt>
      <trkpt lat="46.14811" lon="4.68708">
        <ele>257</ele>
        <time>2019-06-28T14:46:54Z</time>
      </trkpt>
      <trkpt lat="46.14812" lon="4.68671">
        <ele>260</ele>
        <time>2019-06-28T14:47:00Z</time>
      </trkpt>
      <trkpt lat="46.14809" lon="4.68649">
        <ele>261</ele>
        <time>2019-06-28T14:47:03Z</time>
      </trkpt>
      <trkpt lat="46.14899" lon="4.68626">
        <ele>265</ele>
        <time>2019-06-28T14:47:24Z</time>
      </trkpt>
      <trkpt lat="46.14966" lon="4.68621">
        <ele>270</ele>
        <time>2019-06-28T14:47:40Z</time>
      </trkpt>
      <trkpt lat="46.15018" lon="4.68607">
        <ele>274</ele>
        <time>2019-06-28T14:47:53Z</time>
      </trkpt>
      <trkpt lat="46.15067" lon="4.68581">
        <ele>277</ele>
        <time>2019-06-28T14:48:05Z</time>
      </trkpt>
      <trkpt lat="46.15142" lon="4.68517">
        <ele>280</ele>
        <time>2019-06-28T14:48:25Z</time>
      </trkpt>
      <trkpt lat="46.15145" lon="4.68512">
        <ele>280</ele>
        <time>2019-06-28T14:48:26Z</time>
      </trkpt>
      <trkpt lat="46.15143" lon="4.68449">
        <ele>288</ele>
        <time>2019-06-28T14:48:36Z</time>
      </trkpt>
      <trkpt lat="46.15164" lon="4.68434">
        <ele>288</ele>
        <time>2019-06-28T14:48:42Z</time>
      </trkpt>
      <trkpt lat="46.15199" lon="4.68419">
        <ele>286</ele>
        <time>2019-06-28T14:48:50Z</time>
      </trkpt>
      <trkpt lat="46.15233" lon="4.68413">
        <ele>283</ele>
        <time>2019-06-28T14:48:58Z</time>
      </trkpt>
      <trkpt lat="46.15265" lon="4.68416">
        <ele>281</ele>
        <time>2019-06-28T14:49:06Z</time>
      </trkpt>
      <trkpt lat="46.15349" lon="4.68444">
        <ele>276</ele>
        <time>2019-06-28T14:49:26Z</time>
      </trkpt>
      <trkpt lat="46.15369" lon="4.68448">
        <ele>275</ele>
        <time>2019-06-28T14:49:31Z</time>
      </trkpt>
      <trkpt lat="46.15368" lon="4.6841">
        <ele>279</ele>
        <time>2019-06-28T14:49:37Z</time>
      </trkpt>
      <trkpt lat="46.15432" lon="4.68413">
        <ele>278</ele>
        <time>2019-06-28T14:49:52Z</time>
      </trkpt>
      <trkpt lat="46.15468" lon="4.68411">
        <ele>277</ele>
        <time>2019-06-28T14:50:00Z</time>
      </trkpt>
      <trkpt lat="46.1553" lon="4.68387">
        <ele>278</ele>
        <time>2019-06-28T14:50:15Z</time>
      </trkpt>
      <trkpt lat="46.15538" lon="4.68375">
        <ele>278</ele>
        <time>2019-06-28T14:50:18Z</time>
      </trkpt>
      <trkpt lat="46.15546" lon="4.6833">
        <ele>282</ele>
        <time>2019-06-28T14:50:25Z</time>
      </trkpt>
      <trkpt lat="46.15484" lon="4.68337">
        <ele>286</ele>
        <time>2019-06-28T14:50:40Z</time>
      </trkpt>
      <trkpt lat="46.15475" lon="4.68322">
        <ele>288</ele>
        <time>2019-06-28T14:50:43Z</time>
      </trkpt>
      <trkpt lat="46.15463" lon="4.6813">
        <ele>309</ele>
        <time>2019-06-28T14:51:14Z</time>
      </trkpt>
      <trkpt lat="46.15516" lon="4.68131">
        <ele>307</ele>
        <time>2019-06-28T14:51:27Z</time>
      </trkpt>
      <trkpt lat="46.15548" lon="4.68129">
        <ele>304</ele>
        <time>2019-06-28T14:51:34Z</time>
      </trkpt>
      <trkpt lat="46.15556" lon="4.68128">
        <ele>303</ele>
        <time>2019-06-28T14:51:36Z</time>
      </trkpt>
      <trkpt lat="46.15575" lon="4.6812">
        <ele>302</ele>
        <time>2019-06-28T14:51:41Z</time>
      </trkpt>
      <trkpt lat="46.15612" lon="4.6809">
        <ele>301</ele>
        <time>2019-06-28T14:51:51Z</time>
      </trkpt>
      <trkpt lat="46.1568" lon="4.68025">
        <ele>300</ele>
        <time>2019-06-28T14:52:10Z</time>
      </trkpt>
      <trkpt lat="46.15763" lon="4.67992">
        <ele>298</ele>
        <time>2019-06-28T14:52:30Z</time>
      </trkpt>
      <trkpt lat="46.15776" lon="4.67984">
        <ele>297</ele>
        <time>2019-06-28T14:52:33Z</time>
      </trkpt>
      <trkpt lat="46.15794" lon="4.67954">
        <ele>298</ele>
        <time>2019-06-28T14:52:39Z</time>
      </trkpt>
      <trkpt lat="46.1582" lon="4.67898">
        <ele>297</ele>
        <time>2019-06-28T14:52:50Z</time>
      </trkpt>
      <trkpt lat="46.15814" lon="4.67886">
        <ele>298</ele>
        <time>2019-06-28T14:52:53Z</time>
      </trkpt>
      <trkpt lat="46.15786" lon="4.67853">
        <ele>302</ele>
        <time>2019-06-28T14:53:01Z</time>
      </trkpt>
      <trkpt lat="46.15742" lon="4.67818">
        <ele>308</ele>
        <time>2019-06-28T14:53:13Z</time>
      </trkpt>
      <trkpt lat="46.15722" lon="4.67807">
        <ele>310</ele>
        <time>2019-06-28T14:53:18Z</time>
      </trkpt>
      <trkpt lat="46.15707" lon="4.67793">
        <ele>312</ele>
        <time>2019-06-28T14:53:22Z</time>
      </trkpt>
      <trkpt lat="46.157" lon="4.6778">
        <ele>313</ele>
        <time>2019-06-28T14:53:25Z</time>
      </trkpt>
      <trkpt lat="46.15676" lon="4.67728">
        <ele>316</ele>
        <time>2019-06-28T14:53:35Z</time>
      </trkpt>
      <trkpt lat="46.15667" lon="4.677">
        <ele>317</ele>
        <time>2019-06-28T14:53:40Z</time>
      </trkpt>
      <trkpt lat="46.15654" lon="4.67644">
        <ele>319</ele>
        <time>2019-06-28T14:53:49Z</time>
      </trkpt>
      <trkpt lat="46.15647" lon="4.67587">
        <ele>321</ele>
        <time>2019-06-28T14:53:59Z</time>
      </trkpt>
      <trkpt lat="46.15628" lon="4.67517">
        <ele>323</ele>
        <time>2019-06-28T14:54:11Z</time>
      </trkpt>
      <trkpt lat="46.15628" lon="4.67508">
        <ele>323</ele>
        <time>2019-06-28T14:54:12Z</time>
      </trkpt>
      <trkpt lat="46.1564" lon="4.67503">
        <ele>323</ele>
        <time>2019-06-28T14:54:15Z</time>
      </trkpt>
      <trkpt lat="46.15661" lon="4.67503">
        <ele>322</ele>
        <time>2019-06-28T14:54:20Z</time>
      </trkpt>
      <trkpt lat="46.15679" lon="4.67498">
        <ele>323</ele>
        <time>2019-06-28T14:54:24Z</time>
      </trkpt>
      <trkpt lat="46.15687" lon="4.67486">
        <ele>323</ele>
        <time>2019-06-28T14:54:27Z</time>
      </trkpt>
      <trkpt lat="46.15699" lon="4.67422">
        <ele>323</ele>
        <time>2019-06-28T14:54:38Z</time>
      </trkpt>
      <trkpt lat="46.15712" lon="4.67392">
        <ele>322</ele>
        <time>2019-06-28T14:54:44Z</time>
      </trkpt>
      <trkpt lat="46.1585" lon="4.6738">
        <ele>320</ele>
        <time>2019-06-28T14:55:16Z</time>
      </trkpt>
      <trkpt lat="46.15866" lon="4.67361">
        <ele>321</ele>
        <time>2019-06-28T14:55:21Z</time>
      </trkpt>
      <trkpt lat="46.15928" lon="4.67316">
        <ele>323</ele>
        <time>2019-06-28T14:55:37Z</time>
      </trkpt>
      <trkpt lat="46.15933" lon="4.67303">
        <ele>322</ele>
        <time>2019-06-28T14:55:39Z</time>
      </trkpt>
      <trkpt lat="46.15977" lon="4.66896">
        <ele>321</ele>
        <time>2019-06-28T14:56:46Z</time>
      </trkpt>
      <trkpt lat="46.16018" lon="4.66569">
        <ele>330</ele>
        <time>2019-06-28T14:57:40Z</time>
      </trkpt>
      <trkpt lat="46.16025" lon="4.66577">
        <ele>330</ele>
        <time>2019-06-28T14:57:42Z</time>
      </trkpt>
      <trkpt lat="46.16048" lon="4.66523">
        <ele>333</ele>
        <time>2019-06-28T14:57:52Z</time>
      </trkpt>
      <trkpt lat="46.16093" lon="4.66343">
        <ele>345</ele>
        <time>2019-06-28T14:58:23Z</time>
      </trkpt>
      <trkpt lat="46.16106" lon="4.66262">
        <ele>351</ele>
        <time>2019-06-28T14:58:36Z</time>
      </trkpt>
      <trkpt lat="46.16106" lon="4.66252">
        <ele>352</ele>
        <time>2019-06-28T14:58:38Z</time>
      </trkpt>
      <trkpt lat="46.16088" lon="4.66165">
        <ele>355</ele>
        <time>2019-06-28T14:58:53Z</time>
      </trkpt>
      <trkpt lat="46.16088" lon="4.66137">
        <ele>356</ele>
        <time>2019-06-28T14:58:57Z</time>
      </trkpt>
      <trkpt lat="46.16098" lon="4.66102">
        <ele>357</ele>
        <time>2019-06-28T14:59:03Z</time>
      </trkpt>
      <trkpt lat="46.16037" lon="4.66028">
        <ele>349</ele>
        <time>2019-06-28T14:59:22Z</time>
      </trkpt>
      <trkpt lat="46.16065" lon="4.65999">
        <ele>350</ele>
        <time>2019-06-28T14:59:30Z</time>
      </trkpt>
      <trkpt lat="46.16162" lon="4.65944">
        <ele>347</ele>
        <time>2019-06-28T14:59:54Z</time>
      </trkpt>
      <trkpt lat="46.16214" lon="4.65906">
        <ele>346</ele>
        <time>2019-06-28T15:00:08Z</time>
      </trkpt>
      <trkpt lat="46.16221" lon="4.65893">
        <ele>347</ele>
        <time>2019-06-28T15:00:11Z</time>
      </trkpt>
      <trkpt lat="46.16224" lon="4.65876">
        <ele>347</ele>
        <time>2019-06-28T15:00:14Z</time>
      </trkpt>
      <trkpt lat="46.1622" lon="4.65865">
        <ele>346</ele>
        <time>2019-06-28T15:00:16Z</time>
      </trkpt>
      <trkpt lat="46.16211" lon="4.65859">
        <ele>346</ele>
        <time>2019-06-28T15:00:18Z</time>
      </trkpt>
      <trkpt lat="46.16196" lon="4.65862">
        <ele>346</ele>
        <time>2019-06-28T15:00:21Z</time>
      </trkpt>
      <trkpt lat="46.16144" lon="4.65859">
        <ele>346</ele>
        <time>2019-06-28T15:00:34Z</time>
      </trkpt>
      <trkpt lat="46.16119" lon="4.65854">
        <ele>346</ele>
        <time>2019-06-28T15:00:39Z</time>
      </trkpt>
      <trkpt lat="46.16054" lon="4.65828">
        <ele>347</ele>
        <time>2019-06-28T15:00:55Z</time>
      </trkpt>
      <trkpt lat="46.16048" lon="4.65816">
        <ele>348</ele>
        <time>2019-06-28T15:00:58Z</time>
      </trkpt>
      <trkpt lat="46.16015" lon="4.65685">
        <ele>359</ele>
        <time>2019-06-28T15:01:20Z</time>
      </trkpt>
      <trkpt lat="46.16006" lon="4.65621">
        <ele>360</ele>
        <time>2019-06-28T15:01:31Z</time>
      </trkpt>
      <trkpt lat="46.15991" lon="4.65566">
        <ele>361</ele>
        <time>2019-06-28T15:01:40Z</time>
      </trkpt>
      <trkpt lat="46.15951" lon="4.65383">
        <ele>365</ele>
        <time>2019-06-28T15:02:11Z</time>
      </trkpt>
      <trkpt lat="46.15955" lon="4.65259">
        <ele>371</ele>
        <time>2019-06-28T15:02:31Z</time>
      </trkpt>
      <trkpt lat="46.15927" lon="4.65195">
        <ele>371</ele>
        <time>2019-06-28T15:02:44Z</time>
      </trkpt>
      <trkpt lat="46.15902" lon="4.65121">
        <ele>371</ele>
        <time>2019-06-28T15:02:57Z</time>
      </trkpt>
      <trkpt lat="46.15903" lon="4.64966">
        <ele>365</ele>
        <time>2019-06-28T15:03:22Z</time>
      </trkpt>
      <trkpt lat="46.1591" lon="4.64932">
        <ele>361</ele>
        <time>2019-06-28T15:03:28Z</time>
      </trkpt>
      <trkpt lat="46.15914" lon="4.64916">
        <ele>359</ele>
        <time>2019-06-28T15:03:31Z</time>
      </trkpt>
      <trkpt lat="46.15939" lon="4.64888">
        <ele>357</ele>
        <time>2019-06-28T15:03:38Z</time>
      </trkpt>
      <trkpt lat="46.15948" lon="4.64871">
        <ele>356</ele>
        <time>2019-06-28T15:03:41Z</time>
      </trkpt>
      <trkpt lat="46.1596" lon="4.64861">
        <ele>356</ele>
        <time>2019-06-28T15:03:45Z</time>
      </trkpt>
      <trkpt lat="46.15972" lon="4.64846">
        <ele>355</ele>
        <time>2019-06-28T15:03:48Z</time>
      </trkpt>
      <trkpt lat="46.15971" lon="4.64827">
        <ele>354</ele>
        <time>2019-06-28T15:03:51Z</time>
      </trkpt>
      <trkpt lat="46.15968" lon="4.64816">
        <ele>354</ele>
        <time>2019-06-28T15:03:53Z</time>
      </trkpt>
      <trkpt lat="46.15958" lon="4.64808">
        <ele>354</ele>
        <time>2019-06-28T15:03:56Z</time>
      </trkpt>
      <trkpt lat="46.15947" lon="4.64803">
        <ele>354</ele>
        <time>2019-06-28T15:03:59Z</time>
      </trkpt>
      <trkpt lat="46.15931" lon="4.64803">
        <ele>353</ele>
        <time>2019-06-28T15:04:02Z</time>
      </trkpt>
      <trkpt lat="46.15904" lon="4.64808">
        <ele>352</ele>
        <time>2019-06-28T15:04:09Z</time>
      </trkpt>
      <trkpt lat="46.15899" lon="4.64795">
        <ele>352</ele>
        <time>2019-06-28T15:04:11Z</time>
      </trkpt>
      <trkpt lat="46.15901" lon="4.64745">
        <ele>355</ele>
        <time>2019-06-28T15:04:19Z</time>
      </trkpt>
      <trkpt lat="46.159" lon="4.64677">
        <ele>361</ele>
        <time>2019-06-28T15:04:30Z</time>
      </trkpt>
      <trkpt lat="46.15896" lon="4.64611">
        <ele>364</ele>
        <time>2019-06-28T15:04:41Z</time>
      </trkpt>
      <trkpt lat="46.15884" lon="4.64561">
        <ele>365</ele>
        <time>2019-06-28T15:04:50Z</time>
      </trkpt>
      <trkpt lat="46.1587" lon="4.64434">
        <ele>365</ele>
        <time>2019-06-28T15:05:10Z</time>
      </trkpt>
      <trkpt lat="46.15816" lon="4.64451">
        <ele>362</ele>
        <time>2019-06-28T15:05:23Z</time>
      </trkpt>
      <trkpt lat="46.15794" lon="4.64454">
        <ele>361</ele>
        <time>2019-06-28T15:05:28Z</time>
      </trkpt>
      <trkpt lat="46.15784" lon="4.64453">
        <ele>360</ele>
        <time>2019-06-28T15:05:31Z</time>
      </trkpt>
      <trkpt lat="46.1576" lon="4.64444">
        <ele>359</ele>
        <time>2019-06-28T15:05:37Z</time>
      </trkpt>
      <trkpt lat="46.15724" lon="4.64421">
        <ele>358</ele>
        <time>2019-06-28T15:05:46Z</time>
      </trkpt>
      <trkpt lat="46.15655" lon="4.64398">
        <ele>355</ele>
        <time>2019-06-28T15:06:02Z</time>
      </trkpt>
      <trkpt lat="46.15647" lon="4.64398">
        <ele>355</ele>
        <time>2019-06-28T15:06:04Z</time>
      </trkpt>
      <trkpt lat="46.15638" lon="4.64403">
        <ele>354</ele>
        <time>2019-06-28T15:06:06Z</time>
      </trkpt>
      <trkpt lat="46.1563" lon="4.64412">
        <ele>354</ele>
        <time>2019-06-28T15:06:09Z</time>
      </trkpt>
      <trkpt lat="46.15602" lon="4.64458">
        <ele>352</ele>
        <time>2019-06-28T15:06:19Z</time>
      </trkpt>
      <trkpt lat="46.15583" lon="4.64475">
        <ele>351</ele>
        <time>2019-06-28T15:06:24Z</time>
      </trkpt>
      <trkpt lat="46.1549" lon="4.64517">
        <ele>347</ele>
        <time>2019-06-28T15:06:47Z</time>
      </trkpt>
      <trkpt lat="46.15385" lon="4.64576">
        <ele>341</ele>
        <time>2019-06-28T15:07:13Z</time>
      </trkpt>
      <trkpt lat="46.15297" lon="4.64598">
        <ele>335</ele>
        <time>2019-06-28T15:07:34Z</time>
      </trkpt>
      <trkpt lat="46.15233" lon="4.646">
        <ele>332</ele>
        <time>2019-06-28T15:07:49Z</time>
      </trkpt>
      <trkpt lat="46.15239" lon="4.64783">
        <ele>327</ele>
        <time>2019-06-28T15:08:18Z</time>
      </trkpt>
      <trkpt lat="46.15238" lon="4.6481">
        <ele>325</ele>
        <time>2019-06-28T15:08:23Z</time>
      </trkpt>
      <trkpt lat="46.15227" lon="4.64887">
        <ele>318</ele>
        <time>2019-06-28T15:08:35Z</time>
      </trkpt>
      <trkpt lat="46.15214" lon="4.64911">
        <ele>316</ele>
        <time>2019-06-28T15:08:40Z</time>
      </trkpt>
      <trkpt lat="46.15205" lon="4.64917">
        <ele>315</ele>
        <time>2019-06-28T15:08:43Z</time>
      </trkpt>
      <trkpt lat="46.15178" lon="4.64927">
        <ele>313</ele>
        <time>2019-06-28T15:08:49Z</time>
      </trkpt>
      <trkpt lat="46.15166" lon="4.64928">
        <ele>313</ele>
        <time>2019-06-28T15:08:52Z</time>
      </trkpt>
      <trkpt lat="46.15134" lon="4.64904">
        <ele>313</ele>
        <time>2019-06-28T15:09:00Z</time>
      </trkpt>
      <trkpt lat="46.15123" lon="4.64899">
        <ele>313</ele>
        <time>2019-06-28T15:09:03Z</time>
      </trkpt>
      <trkpt lat="46.15037" lon="4.64895">
        <ele>310</ele>
        <time>2019-06-28T15:09:23Z</time>
      </trkpt>
      <trkpt lat="46.15024" lon="4.64891">
        <ele>310</ele>
        <time>2019-06-28T15:09:26Z</time>
      </trkpt>
      <trkpt lat="46.14949" lon="4.64856">
        <ele>309</ele>
        <time>2019-06-28T15:09:45Z</time>
      </trkpt>
      <trkpt lat="46.14893" lon="4.64833">
        <ele>308</ele>
        <time>2019-06-28T15:09:58Z</time>
      </trkpt>
      <trkpt lat="46.14878" lon="4.6483">
        <ele>307</ele>
        <time>2019-06-28T15:10:02Z</time>
      </trkpt>
      <trkpt lat="46.14843" lon="4.64814">
        <ele>306</ele>
        <time>2019-06-28T15:10:10Z</time>
      </trkpt>
      <trkpt lat="46.14759" lon="4.64796">
        <ele>303</ele>
        <time>2019-06-28T15:10:30Z</time>
      </trkpt>
      <trkpt lat="46.14701" lon="4.6478">
        <ele>300</ele>
        <time>2019-06-28T15:10:44Z</time>
      </trkpt>
      <trkpt lat="46.14637" lon="4.64758">
        <ele>295</ele>
        <time>2019-06-28T15:10:59Z</time>
      </trkpt>
      <trkpt lat="46.14625" lon="4.64751">
        <ele>294</ele>
        <time>2019-06-28T15:11:02Z</time>
      </trkpt>
      <trkpt lat="46.14624" lon="4.64741">
        <ele>293</ele>
        <time>2019-06-28T15:11:04Z</time>
      </trkpt>
      <trkpt lat="46.1462" lon="4.64736">
        <ele>293</ele>
        <time>2019-06-28T15:11:05Z</time>
      </trkpt>
      <trkpt lat="46.14614" lon="4.64735">
        <ele>292</ele>
        <time>2019-06-28T15:11:07Z</time>
      </trkpt>
      <trkpt lat="46.1461" lon="4.6478">
        <ele>292</ele>
        <time>2019-06-28T15:11:14Z</time>
      </trkpt>
      <trkpt lat="46.14611" lon="4.64808">
        <ele>293</ele>
        <time>2019-06-28T15:11:19Z</time>
      </trkpt>
      <trkpt lat="46.14583" lon="4.64924">
        <ele>292</ele>
        <time>2019-06-28T15:11:39Z</time>
      </trkpt>
      <trkpt lat="46.14577" lon="4.64927">
        <ele>291</ele>
        <time>2019-06-28T15:11:40Z</time>
      </trkpt>
      <trkpt lat="46.14547" lon="4.64915">
        <ele>288</ele>
        <time>2019-06-28T15:11:47Z</time>
      </trkpt>
      <trkpt lat="46.14542" lon="4.64922">
        <ele>287</ele>
        <time>2019-06-28T15:11:49Z</time>
      </trkpt>
      <trkpt lat="46.14529" lon="4.64974">
        <ele>285</ele>
        <time>2019-06-28T15:11:58Z</time>
      </trkpt>
      <trkpt lat="46.14515" lon="4.64978">
        <ele>284</ele>
        <time>2019-06-28T15:12:01Z</time>
      </trkpt>
      <trkpt lat="46.14366" lon="4.64956">
        <ele>278</ele>
        <time>2019-06-28T15:12:36Z</time>
      </trkpt>
      <trkpt lat="46.14354" lon="4.6495">
        <ele>278</ele>
        <time>2019-06-28T15:12:39Z</time>
      </trkpt>
      <trkpt lat="46.14345" lon="4.64954">
        <ele>278</ele>
        <time>2019-06-28T15:12:41Z</time>
      </trkpt>
      <trkpt lat="46.14297" lon="4.64962">
        <ele>277</ele>
        <time>2019-06-28T15:12:53Z</time>
      </trkpt>
      <trkpt lat="46.1424" lon="4.64953">
        <ele>279</ele>
        <time>2019-06-28T15:13:06Z</time>
      </trkpt>
      <trkpt lat="46.14213" lon="4.64957">
        <ele>280</ele>
        <time>2019-06-28T15:13:12Z</time>
      </trkpt>
      <trkpt lat="46.14192" lon="4.6494">
        <ele>283</ele>
        <time>2019-06-28T15:13:18Z</time>
      </trkpt>
      <trkpt lat="46.1416" lon="4.64877">
        <ele>289</ele>
        <time>2019-06-28T15:13:31Z</time>
      </trkpt>
      <trkpt lat="46.14147" lon="4.64857">
        <ele>291</ele>
        <time>2019-06-28T15:13:35Z</time>
      </trkpt>
      <trkpt lat="46.14146" lon="4.64784">
        <ele>296</ele>
        <time>2019-06-28T15:13:47Z</time>
      </trkpt>
      <trkpt lat="46.14142" lon="4.64778">
        <ele>296</ele>
        <time>2019-06-28T15:13:48Z</time>
      </trkpt>
      <trkpt lat="46.14078" lon="4.64768">
        <ele>300</ele>
        <time>2019-06-28T15:14:03Z</time>
      </trkpt>
      <trkpt lat="46.14058" lon="4.64752">
        <ele>301</ele>
        <time>2019-06-28T15:14:09Z</time>
      </trkpt>
      <trkpt lat="46.14034" lon="4.64723">
        <ele>302</ele>
        <time>2019-06-28T15:14:16Z</time>
      </trkpt>
      <trkpt lat="46.1403" lon="4.64715">
        <ele>303</ele>
        <time>2019-06-28T15:14:17Z</time>
      </trkpt>
      <trkpt lat="46.14033" lon="4.64699">
        <ele>304</ele>
        <time>2019-06-28T15:14:20Z</time>
      </trkpt>
      <trkpt lat="46.14012" lon="4.64663">
        <ele>305</ele>
        <time>2019-06-28T15:14:28Z</time>
      </trkpt>
      <trkpt lat="46.13958" lon="4.64554">
        <ele>309</ele>
        <time>2019-06-28T15:14:49Z</time>
      </trkpt>
      <trkpt lat="46.13885" lon="4.64457">
        <ele>309</ele>
        <time>2019-06-28T15:15:13Z</time>
      </trkpt>
      <trkpt lat="46.13718" lon="4.64277">
        <ele>307</ele>
        <time>2019-06-28T15:16:01Z</time>
      </trkpt>
      <trkpt lat="46.13702" lon="4.6427">
        <ele>307</ele>
        <time>2019-06-28T15:16:05Z</time>
      </trkpt>
      <trkpt lat="46.13716" lon="4.64285">
        <ele>306</ele>
        <time>2019-06-28T15:16:09Z</time>
      </trkpt>
      <trkpt lat="46.13722" lon="4.64298">
        <ele>306</ele>
        <time>2019-06-28T15:16:12Z</time>
      </trkpt>
      <trkpt lat="46.13724" lon="4.64319">
        <ele>305</ele>
        <time>2019-06-28T15:16:15Z</time>
      </trkpt>
      <trkpt lat="46.13722" lon="4.64333">
        <ele>304</ele>
        <time>2019-06-28T15:16:18Z</time>
      </trkpt>
      <trkpt lat="46.13711" lon="4.64367">
        <ele>301</ele>
        <time>2019-06-28T15:16:24Z</time>
      </trkpt>
      <trkpt lat="46.13692" lon="4.64397">
        <ele>299</ele>
        <time>2019-06-28T15:16:30Z</time>
      </trkpt>
      <trkpt lat="46.13706" lon="4.64424">
        <ele>297</ele>
        <time>2019-06-28T15:16:36Z</time>
      </trkpt>
      <trkpt lat="46.13781" lon="4.6461">
        <ele>293</ele>
        <time>2019-06-28T15:17:10Z</time>
      </trkpt>
      <trkpt lat="46.13821" lon="4.64786">
        <ele>290</ele>
        <time>2019-06-28T15:17:40Z</time>
      </trkpt>
      <trkpt lat="46.13739" lon="4.64819">
        <ele>284</ele>
        <time>2019-06-28T15:18:00Z</time>
      </trkpt>
      <trkpt lat="46.13617" lon="4.64857">
        <ele>278</ele>
        <time>2019-06-28T15:18:29Z</time>
      </trkpt>
      <trkpt lat="46.13609" lon="4.64856">
        <ele>278</ele>
        <time>2019-06-28T15:18:31Z</time>
      </trkpt>
      <trkpt lat="46.13585" lon="4.64846">
        <ele>278</ele>
        <time>2019-06-28T15:18:37Z</time>
      </trkpt>
      <trkpt lat="46.13555" lon="4.64819">
        <ele>279</ele>
        <time>2019-06-28T15:18:45Z</time>
      </trkpt>
      <trkpt lat="46.13547" lon="4.64815">
        <ele>279</ele>
        <time>2019-06-28T15:18:47Z</time>
      </trkpt>
      <trkpt lat="46.13531" lon="4.64814">
        <ele>278</ele>
        <time>2019-06-28T15:18:51Z</time>
      </trkpt>
      <trkpt lat="46.13488" lon="4.64831">
        <ele>277</ele>
        <time>2019-06-28T15:19:02Z</time>
      </trkpt>
      <trkpt lat="46.13436" lon="4.64856">
        <ele>278</ele>
        <time>2019-06-28T15:19:14Z</time>
      </trkpt>
      <trkpt lat="46.13425" lon="4.64858">
        <ele>278</ele>
        <time>2019-06-28T15:19:17Z</time>
      </trkpt>
      <trkpt lat="46.13394" lon="4.64856">
        <ele>281</ele>
        <time>2019-06-28T15:19:24Z</time>
      </trkpt>
      <trkpt lat="46.13387" lon="4.64862">
        <ele>281</ele>
        <time>2019-06-28T15:19:26Z</time>
      </trkpt>
      <trkpt lat="46.13269" lon="4.65054">
        <ele>284</ele>
        <time>2019-06-28T15:20:08Z</time>
      </trkpt>
      <trkpt lat="46.13194" lon="4.65147">
        <ele>284</ele>
        <time>2019-06-28T15:20:31Z</time>
      </trkpt>
      <trkpt lat="46.13079" lon="4.65324">
        <ele>284</ele>
        <time>2019-06-28T15:21:10Z</time>
      </trkpt>
      <trkpt lat="46.1304" lon="4.65293">
        <ele>287</ele>
        <time>2019-06-28T15:21:20Z</time>
      </trkpt>
      <trkpt lat="46.12961" lon="4.65336">
        <ele>285</ele>
        <time>2019-06-28T15:21:40Z</time>
      </trkpt>
      <trkpt lat="46.12667" lon="4.65445">
        <ele>263</ele>
        <time>2019-06-28T15:22:51Z</time>
      </trkpt>
      <trkpt lat="46.12673" lon="4.65351">
        <ele>265</ele>
        <time>2019-06-28T15:23:06Z</time>
      </trkpt>
      <trkpt lat="46.12699" lon="4.65238">
        <ele>267</ele>
        <time>2019-06-28T15:23:26Z</time>
      </trkpt>
      <trkpt lat="46.12703" lon="4.652">
        <ele>267</ele>
        <time>2019-06-28T15:23:32Z</time>
      </trkpt>
      <trkpt lat="46.12701" lon="4.65167">
        <ele>267</ele>
        <time>2019-06-28T15:23:37Z</time>
      </trkpt>
      <trkpt lat="46.12696" lon="4.65144">
        <ele>267</ele>
        <time>2019-06-28T15:23:41Z</time>
      </trkpt>
      <trkpt lat="46.12667" lon="4.65016">
        <ele>264</ele>
        <time>2019-06-28T15:24:03Z</time>
      </trkpt>
      <trkpt lat="46.1266" lon="4.6501">
        <ele>263</ele>
        <time>2019-06-28T15:24:05Z</time>
      </trkpt>
      <trkpt lat="46.12655" lon="4.6501">
        <ele>263</ele>
        <time>2019-06-28T15:24:06Z</time>
      </trkpt>
      <trkpt lat="46.12625" lon="4.65035">
        <ele>260</ele>
        <time>2019-06-28T15:24:14Z</time>
      </trkpt>
      <trkpt lat="46.12583" lon="4.65064">
        <ele>257</ele>
        <time>2019-06-28T15:24:25Z</time>
      </trkpt>
      <trkpt lat="46.125" lon="4.65098">
        <ele>247</ele>
        <time>2019-06-28T15:24:45Z</time>
      </trkpt>
      <trkpt lat="46.12452" lon="4.6516">
        <ele>243</ele>
        <time>2019-06-28T15:25:00Z</time>
      </trkpt>
      <trkpt lat="46.12436" lon="4.65168">
        <ele>241</ele>
        <time>2019-06-28T15:25:04Z</time>
      </trkpt>
      <trkpt lat="46.12368" lon="4.65107">
        <ele>234</ele>
        <time>2019-06-28T15:25:23Z</time>
      </trkpt>
      <trkpt lat="46.12357" lon="4.65102">
        <ele>233</ele>
        <time>2019-06-28T15:25:25Z</time>
      </trkpt>
      <trkpt lat="46.12267" lon="4.65115">
        <ele>231</ele>
        <time>2019-06-28T15:25:47Z</time>
      </trkpt>
      <trkpt lat="46.12195" lon="4.65158">
        <ele>231</ele>
        <time>2019-06-28T15:26:05Z</time>
      </trkpt>
      <trkpt lat="46.12179" lon="4.65176">
        <ele>231</ele>
        <time>2019-06-28T15:26:09Z</time>
      </trkpt>
      <trkpt lat="46.12173" lon="4.65217">
        <ele>231</ele>
        <time>2019-06-28T15:26:16Z</time>
      </trkpt>
      <trkpt lat="46.12159" lon="4.6522">
        <ele>230</ele>
        <time>2019-06-28T15:26:20Z</time>
      </trkpt>
      <trkpt lat="46.1215" lon="4.65217">
        <ele>230</ele>
        <time>2019-06-28T15:26:22Z</time>
      </trkpt>
      <trkpt lat="46.12144" lon="4.65211">
        <ele>230</ele>
        <time>2019-06-28T15:26:23Z</time>
      </trkpt>
      <trkpt lat="46.12136" lon="4.65193">
        <ele>229</ele>
        <time>2019-06-28T15:26:27Z</time>
      </trkpt>
      <trkpt lat="46.12123" lon="4.65146">
        <ele>229</ele>
        <time>2019-06-28T15:26:35Z</time>
      </trkpt>
      <trkpt lat="46.12103" lon="4.65097">
        <ele>229</ele>
        <time>2019-06-28T15:26:44Z</time>
      </trkpt>
      <trkpt lat="46.12089" lon="4.65034">
        <ele>229</ele>
        <time>2019-06-28T15:26:55Z</time>
      </trkpt>
      <trkpt lat="46.1208" lon="4.65033">
        <ele>229</ele>
        <time>2019-06-28T15:26:57Z</time>
      </trkpt>
      <trkpt lat="46.12005" lon="4.65063">
        <ele>230</ele>
        <time>2019-06-28T15:27:15Z</time>
      </trkpt>
      <trkpt lat="46.11924" lon="4.65126">
        <ele>229</ele>
        <time>2019-06-28T15:27:37Z</time>
      </trkpt>
      <trkpt lat="46.11864" lon="4.65151">
        <ele>231</ele>
        <time>2019-06-28T15:27:51Z</time>
      </trkpt>
      <trkpt lat="46.11878" lon="4.65431">
        <ele>228</ele>
        <time>2019-06-28T15:28:37Z</time>
      </trkpt>
      <trkpt lat="46.11829" lon="4.65432">
        <ele>230</ele>
        <time>2019-06-28T15:28:48Z</time>
      </trkpt>
      <trkpt lat="46.11792" lon="4.65459">
        <ele>235</ele>
        <time>2019-06-28T15:28:58Z</time>
      </trkpt>
      <trkpt lat="46.11778" lon="4.65506">
        <ele>238</ele>
        <time>2019-06-28T15:29:06Z</time>
      </trkpt>
      <trkpt lat="46.11778" lon="4.65611">
        <ele>240</ele>
        <time>2019-06-28T15:29:23Z</time>
      </trkpt>
      <trkpt lat="46.11775" lon="4.65625">
        <ele>241</ele>
        <time>2019-06-28T15:29:26Z</time>
      </trkpt>
      <trkpt lat="46.11763" lon="4.65651">
        <ele>243</ele>
        <time>2019-06-28T15:29:31Z</time>
      </trkpt>
      <trkpt lat="46.11779" lon="4.65714">
        <ele>241</ele>
        <time>2019-06-28T15:29:41Z</time>
      </trkpt>
      <trkpt lat="46.1179" lon="4.65725">
        <ele>240</ele>
        <time>2019-06-28T15:29:45Z</time>
      </trkpt>
      <trkpt lat="46.11807" lon="4.65756">
        <ele>237</ele>
        <time>2019-06-28T15:29:51Z</time>
      </trkpt>
      <trkpt lat="46.11818" lon="4.65792">
        <ele>235</ele>
        <time>2019-06-28T15:29:57Z</time>
      </trkpt>
      <trkpt lat="46.11836" lon="4.65879">
        <ele>230</ele>
        <time>2019-06-28T15:30:12Z</time>
      </trkpt>
      <trkpt lat="46.11847" lon="4.65904">
        <ele>229</ele>
        <time>2019-06-28T15:30:17Z</time>
      </trkpt>
      <trkpt lat="46.11853" lon="4.65906">
        <ele>229</ele>
        <time>2019-06-28T15:30:18Z</time>
      </trkpt>
      <trkpt lat="46.11846" lon="4.65947">
        <ele>230</ele>
        <time>2019-06-28T15:30:25Z</time>
      </trkpt>
      <trkpt lat="46.11845" lon="4.65978">
        <ele>230</ele>
        <time>2019-06-28T15:30:30Z</time>
      </trkpt>
      <trkpt lat="46.11849" lon="4.66111">
        <ele>231</ele>
        <time>2019-06-28T15:30:52Z</time>
      </trkpt>
      <trkpt lat="46.11833" lon="4.66271">
        <ele>238</ele>
        <time>2019-06-28T15:31:18Z</time>
      </trkpt>
      <trkpt lat="46.11825" lon="4.66317">
        <ele>239</ele>
        <time>2019-06-28T15:31:26Z</time>
      </trkpt>
      <trkpt lat="46.11806" lon="4.66398">
        <ele>240</ele>
        <time>2019-06-28T15:31:39Z</time>
      </trkpt>
      <trkpt lat="46.11801" lon="4.66436">
        <ele>240</ele>
        <time>2019-06-28T15:31:46Z</time>
      </trkpt>
      <trkpt lat="46.11777" lon="4.66515">
        <ele>244</ele>
        <time>2019-06-28T15:32:00Z</time>
      </trkpt>
      <trkpt lat="46.11734" lon="4.66574">
        <ele>247</ele>
        <time>2019-06-28T15:32:13Z</time>
      </trkpt>
      <trkpt lat="46.11713" lon="4.66642">
        <ele>249</ele>
        <time>2019-06-28T15:32:26Z</time>
      </trkpt>
      <trkpt lat="46.11702" lon="4.66666">
        <ele>251</ele>
        <time>2019-06-28T15:32:30Z</time>
      </trkpt>
      <trkpt lat="46.11644" lon="4.66767">
        <ele>258</ele>
        <time>2019-06-28T15:32:51Z</time>
      </trkpt>
      <trkpt lat="46.11616" lon="4.6681">
        <ele>259</ele>
        <time>2019-06-28T15:33:01Z</time>
      </trkpt>
      <trkpt lat="46.11606" lon="4.66822">
        <ele>260</ele>
        <time>2019-06-28T15:33:04Z</time>
      </trkpt>
      <trkpt lat="46.1158" lon="4.66844">
        <ele>261</ele>
        <time>2019-06-28T15:33:11Z</time>
      </trkpt>
      <trkpt lat="46.11568" lon="4.66845">
        <ele>261</ele>
        <time>2019-06-28T15:33:14Z</time>
      </trkpt>
      <trkpt lat="46.11561" lon="4.66782">
        <ele>263</ele>
        <time>2019-06-28T15:33:24Z</time>
      </trkpt>
      <trkpt lat="46.11561" lon="4.66728">
        <ele>266</ele>
        <time>2019-06-28T15:33:33Z</time>
      </trkpt>
      <trkpt lat="46.11573" lon="4.66658">
        <ele>267</ele>
        <time>2019-06-28T15:33:45Z</time>
      </trkpt>
      <trkpt lat="46.11571" lon="4.66645">
        <ele>267</ele>
        <time>2019-06-28T15:33:47Z</time>
      </trkpt>
      <trkpt lat="46.11577" lon="4.66625">
        <ele>267</ele>
        <time>2019-06-28T15:33:50Z</time>
      </trkpt>
      <trkpt lat="46.11568" lon="4.66577">
        <ele>270</ele>
        <time>2019-06-28T15:33:58Z</time>
      </trkpt>
      <trkpt lat="46.11566" lon="4.6654">
        <ele>273</ele>
        <time>2019-06-28T15:34:04Z</time>
      </trkpt>
      <trkpt lat="46.11572" lon="4.66419">
        <ele>285</ele>
        <time>2019-06-28T15:34:24Z</time>
      </trkpt>
      <trkpt lat="46.11563" lon="4.66331">
        <ele>295</ele>
        <time>2019-06-28T15:34:38Z</time>
      </trkpt>
      <trkpt lat="46.1155" lon="4.6636">
        <ele>294</ele>
        <time>2019-06-28T15:34:44Z</time>
      </trkpt>
      <trkpt lat="46.11533" lon="4.66377">
        <ele>294</ele>
        <time>2019-06-28T15:34:49Z</time>
      </trkpt>
      <trkpt lat="46.1152" lon="4.66372">
        <ele>296</ele>
        <time>2019-06-28T15:34:52Z</time>
      </trkpt>
      <trkpt lat="46.11448" lon="4.66375">
        <ele>303</ele>
        <time>2019-06-28T15:35:09Z</time>
      </trkpt>
      <trkpt lat="46.11395" lon="4.66359">
        <ele>311</ele>
        <time>2019-06-28T15:35:21Z</time>
      </trkpt>
      <trkpt lat="46.11381" lon="4.66364">
        <ele>312</ele>
        <time>2019-06-28T15:35:25Z</time>
      </trkpt>
      <trkpt lat="46.11291" lon="4.66427">
        <ele>318</ele>
        <time>2019-06-28T15:35:48Z</time>
      </trkpt>
      <trkpt lat="46.11229" lon="4.66461">
        <ele>325</ele>
        <time>2019-06-28T15:36:04Z</time>
      </trkpt>
      <trkpt lat="46.11192" lon="4.66475">
        <ele>327</ele>
        <time>2019-06-28T15:36:13Z</time>
      </trkpt>
      <trkpt lat="46.11154" lon="4.66481">
        <ele>328</ele>
        <time>2019-06-28T15:36:21Z</time>
      </trkpt>
      <trkpt lat="46.1113" lon="4.66479">
        <ele>326</ele>
        <time>2019-06-28T15:36:27Z</time>
      </trkpt>
      <trkpt lat="46.11098" lon="4.66437">
        <ele>331</ele>
        <time>2019-06-28T15:36:37Z</time>
      </trkpt>
      <trkpt lat="46.11032" lon="4.66393">
        <ele>325</ele>
        <time>2019-06-28T15:36:54Z</time>
      </trkpt>
      <trkpt lat="46.11006" lon="4.6636">
        <ele>323</ele>
        <time>2019-06-28T15:37:02Z</time>
      </trkpt>
      <trkpt lat="46.10975" lon="4.66398">
        <ele>311</ele>
        <time>2019-06-28T15:37:12Z</time>
      </trkpt>
      <trkpt lat="46.10957" lon="4.66458">
        <ele>300</ele>
        <time>2019-06-28T15:37:22Z</time>
      </trkpt>
      <trkpt lat="46.10947" lon="4.66474">
        <ele>296</ele>
        <time>2019-06-28T15:37:26Z</time>
      </trkpt>
      <trkpt lat="46.10938" lon="4.66486">
        <ele>294</ele>
        <time>2019-06-28T15:37:29Z</time>
      </trkpt>
      <trkpt lat="46.10901" lon="4.66518">
        <ele>286</ele>
        <time>2019-06-28T15:37:39Z</time>
      </trkpt>
      <trkpt lat="46.10872" lon="4.66583">
        <ele>278</ele>
        <time>2019-06-28T15:37:51Z</time>
      </trkpt>
      <trkpt lat="46.10829" lon="4.66643">
        <ele>273</ele>
        <time>2019-06-28T15:38:05Z</time>
      </trkpt>
      <trkpt lat="46.1082" lon="4.66643">
        <ele>273</ele>
        <time>2019-06-28T15:38:07Z</time>
      </trkpt>
      <trkpt lat="46.10751" lon="4.66607">
        <ele>278</ele>
        <time>2019-06-28T15:38:25Z</time>
      </trkpt>
      <trkpt lat="46.10708" lon="4.66596">
        <ele>284</ele>
        <time>2019-06-28T15:38:35Z</time>
      </trkpt>
      <trkpt lat="46.10625" lon="4.66598">
        <ele>291</ele>
        <time>2019-06-28T15:38:54Z</time>
      </trkpt>
      <trkpt lat="46.10608" lon="4.66594">
        <ele>293</ele>
        <time>2019-06-28T15:38:58Z</time>
      </trkpt>
      <trkpt lat="46.10601" lon="4.66549">
        <ele>300</ele>
        <time>2019-06-28T15:39:06Z</time>
      </trkpt>
      <trkpt lat="46.10598" lon="4.66442">
        <ele>319</ele>
        <time>2019-06-28T15:39:23Z</time>
      </trkpt>
      <trkpt lat="46.10603" lon="4.6636">
        <ele>331</ele>
        <time>2019-06-28T15:39:36Z</time>
      </trkpt>
      <trkpt lat="46.10613" lon="4.663">
        <ele>340</ele>
        <time>2019-06-28T15:39:46Z</time>
      </trkpt>
      <trkpt lat="46.10613" lon="4.66284">
        <ele>343</ele>
        <time>2019-06-28T15:39:49Z</time>
      </trkpt>
      <trkpt lat="46.10633" lon="4.66229">
        <ele>349</ele>
        <time>2019-06-28T15:39:59Z</time>
      </trkpt>
      <trkpt lat="46.10646" lon="4.66182">
        <ele>356</ele>
        <time>2019-06-28T15:40:07Z</time>
      </trkpt>
      <trkpt lat="46.10669" lon="4.6613">
        <ele>361</ele>
        <time>2019-06-28T15:40:17Z</time>
      </trkpt>
      <trkpt lat="46.10673" lon="4.66084">
        <ele>366</ele>
        <time>2019-06-28T15:40:25Z</time>
      </trkpt>
      <trkpt lat="46.1069" lon="4.66067">
        <ele>368</ele>
        <time>2019-06-28T15:40:29Z</time>
      </trkpt>
      <trkpt lat="46.10684" lon="4.66006">
        <ele>377</ele>
        <time>2019-06-28T15:40:39Z</time>
      </trkpt>
      <trkpt lat="46.1068" lon="4.66003">
        <ele>378</ele>
        <time>2019-06-28T15:40:40Z</time>
      </trkpt>
      <trkpt lat="46.10668" lon="4.66015">
        <ele>376</ele>
        <time>2019-06-28T15:40:44Z</time>
      </trkpt>
      <trkpt lat="46.10656" lon="4.66023">
        <ele>373</ele>
        <time>2019-06-28T15:40:47Z</time>
      </trkpt>
      <trkpt lat="46.10613" lon="4.66039">
        <ele>366</ele>
        <time>2019-06-28T15:40:57Z</time>
      </trkpt>
      <trkpt lat="46.10588" lon="4.6603">
        <ele>364</ele>
        <time>2019-06-28T15:41:03Z</time>
      </trkpt>
      <trkpt lat="46.10596" lon="4.66017">
        <ele>365</ele>
        <time>2019-06-28T15:41:06Z</time>
      </trkpt>
      <trkpt lat="46.10616" lon="4.65968">
        <ele>373</ele>
        <time>2019-06-28T15:41:15Z</time>
      </trkpt>
      <trkpt lat="46.10603" lon="4.65921">
        <ele>375</ele>
        <time>2019-06-28T15:41:24Z</time>
      </trkpt>
      <trkpt lat="46.10576" lon="4.6587">
        <ele>375</ele>
        <time>2019-06-28T15:41:34Z</time>
      </trkpt>
      <trkpt lat="46.10513" lon="4.65793">
        <ele>373</ele>
        <time>2019-06-28T15:41:53Z</time>
      </trkpt>
      <trkpt lat="46.10494" lon="4.65765">
        <ele>375</ele>
        <time>2019-06-28T15:42:00Z</time>
      </trkpt>
      <trkpt lat="46.10458" lon="4.65726">
        <ele>376</ele>
        <time>2019-06-28T15:42:10Z</time>
      </trkpt>
      <trkpt lat="46.10438" lon="4.65699">
        <ele>376</ele>
        <time>2019-06-28T15:42:16Z</time>
      </trkpt>
      <trkpt lat="46.10414" lon="4.65624">
        <ele>380</ele>
        <time>2019-06-28T15:42:30Z</time>
      </trkpt>
      <trkpt lat="46.10411" lon="4.65596">
        <ele>383</ele>
        <time>2019-06-28T15:42:34Z</time>
      </trkpt>
      <trkpt lat="46.10413" lon="4.65566">
        <ele>387</ele>
        <time>2019-06-28T15:42:39Z</time>
      </trkpt>
      <trkpt lat="46.104" lon="4.65549">
        <ele>383</ele>
        <time>2019-06-28T15:42:43Z</time>
      </trkpt>
      <trkpt lat="46.10402" lon="4.65508">
        <ele>386</ele>
        <time>2019-06-28T15:42:50Z</time>
      </trkpt>
      <trkpt lat="46.104" lon="4.65477">
        <ele>386</ele>
        <time>2019-06-28T15:42:55Z</time>
      </trkpt>
      <trkpt lat="46.10387" lon="4.65443">
        <ele>383</ele>
        <time>2019-06-28T15:43:01Z</time>
      </trkpt>
      <trkpt lat="46.10386" lon="4.65431">
        <ele>383</ele>
        <time>2019-06-28T15:43:03Z</time>
      </trkpt>
      <trkpt lat="46.1037" lon="4.65385">
        <ele>381</ele>
        <time>2019-06-28T15:43:12Z</time>
      </trkpt>
      <trkpt lat="46.10343" lon="4.65315">
        <ele>377</ele>
        <time>2019-06-28T15:43:25Z</time>
      </trkpt>
      <trkpt lat="46.1033" lon="4.65297">
        <ele>374</ele>
        <time>2019-06-28T15:43:29Z</time>
      </trkpt>
      <trkpt lat="46.10326" lon="4.65285">
        <ele>373</ele>
        <time>2019-06-28T15:43:31Z</time>
      </trkpt>
      <trkpt lat="46.10318" lon="4.65277">
        <ele>371</ele>
        <time>2019-06-28T15:43:33Z</time>
      </trkpt>
      <trkpt lat="46.10309" lon="4.65257">
        <ele>369</ele>
        <time>2019-06-28T15:43:37Z</time>
      </trkpt>
      <trkpt lat="46.10306" lon="4.6524">
        <ele>368</ele>
        <time>2019-06-28T15:43:40Z</time>
      </trkpt>
      <trkpt lat="46.10305" lon="4.65172">
        <ele>366</ele>
        <time>2019-06-28T15:43:51Z</time>
      </trkpt>
      <trkpt lat="46.10312" lon="4.65129">
        <ele>362</ele>
        <time>2019-06-28T15:43:58Z</time>
      </trkpt>
      <trkpt lat="46.10321" lon="4.65096">
        <ele>360</ele>
        <time>2019-06-28T15:44:04Z</time>
      </trkpt>
      <trkpt lat="46.1036" lon="4.65035">
        <ele>353</ele>
        <time>2019-06-28T15:44:17Z</time>
      </trkpt>
      <trkpt lat="46.10406" lon="4.64984">
        <ele>348</ele>
        <time>2019-06-28T15:44:31Z</time>
      </trkpt>
      <trkpt lat="46.10425" lon="4.64971">
        <ele>348</ele>
        <time>2019-06-28T15:44:36Z</time>
      </trkpt>
      <trkpt lat="46.10443" lon="4.64952">
        <ele>346</ele>
        <time>2019-06-28T15:44:41Z</time>
      </trkpt>
      <trkpt lat="46.10474" lon="4.64902">
        <ele>341</ele>
        <time>2019-06-28T15:44:52Z</time>
      </trkpt>
      <trkpt lat="46.10487" lon="4.64866">
        <ele>339</ele>
        <time>2019-06-28T15:44:58Z</time>
      </trkpt>
      <trkpt lat="46.10501" lon="4.64854">
        <ele>339</ele>
        <time>2019-06-28T15:45:02Z</time>
      </trkpt>
      <trkpt lat="46.10517" lon="4.64846">
        <ele>340</ele>
        <time>2019-06-28T15:45:06Z</time>
      </trkpt>
      <trkpt lat="46.10533" lon="4.64833">
        <ele>340</ele>
        <time>2019-06-28T15:45:10Z</time>
      </trkpt>
      <trkpt lat="46.10567" lon="4.64777">
        <ele>340</ele>
        <time>2019-06-28T15:45:23Z</time>
      </trkpt>
      <trkpt lat="46.10607" lon="4.64745">
        <ele>343</ele>
        <time>2019-06-28T15:45:33Z</time>
      </trkpt>
      <trkpt lat="46.10632" lon="4.64697">
        <ele>343</ele>
        <time>2019-06-28T15:45:43Z</time>
      </trkpt>
      <trkpt lat="46.10683" lon="4.64631">
        <ele>340</ele>
        <time>2019-06-28T15:45:59Z</time>
      </trkpt>
      <trkpt lat="46.10692" lon="4.64611">
        <ele>338</ele>
        <time>2019-06-28T15:46:03Z</time>
      </trkpt>
      <trkpt lat="46.10691" lon="4.64596">
        <ele>337</ele>
        <time>2019-06-28T15:46:05Z</time>
      </trkpt>
      <trkpt lat="46.10653" lon="4.64425">
        <ele>332</ele>
        <time>2019-06-28T15:46:34Z</time>
      </trkpt>
      <trkpt lat="46.10671" lon="4.6432">
        <ele>331</ele>
        <time>2019-06-28T15:46:52Z</time>
      </trkpt>
      <trkpt lat="46.10626" lon="4.6432">
        <ele>333</ele>
        <time>2019-06-28T15:47:02Z</time>
      </trkpt>
      <trkpt lat="46.10594" lon="4.64279">
        <ele>336</ele>
        <time>2019-06-28T15:47:12Z</time>
      </trkpt>
      <trkpt lat="46.10567" lon="4.6426">
        <ele>338</ele>
        <time>2019-06-28T15:47:19Z</time>
      </trkpt>
      <trkpt lat="46.10527" lon="4.64239">
        <ele>341</ele>
        <time>2019-06-28T15:47:29Z</time>
      </trkpt>
      <trkpt lat="46.10395" lon="4.64132">
        <ele>346</ele>
        <time>2019-06-28T15:48:05Z</time>
      </trkpt>
      <trkpt lat="46.10242" lon="4.63997">
        <ele>359</ele>
        <time>2019-06-28T15:48:47Z</time>
      </trkpt>
      <trkpt lat="46.10169" lon="4.639">
        <ele>366</ele>
        <time>2019-06-28T15:49:10Z</time>
      </trkpt>
      <trkpt lat="46.10117" lon="4.63749">
        <ele>371</ele>
        <time>2019-06-28T15:49:37Z</time>
      </trkpt>
      <trkpt lat="46.10106" lon="4.63703">
        <ele>371</ele>
        <time>2019-06-28T15:49:45Z</time>
      </trkpt>
      <trkpt lat="46.10094" lon="4.63586">
        <ele>375</ele>
        <time>2019-06-28T15:50:04Z</time>
      </trkpt>
      <trkpt lat="46.10088" lon="4.63497">
        <ele>381</ele>
        <time>2019-06-28T15:50:19Z</time>
      </trkpt>
      <trkpt lat="46.1007" lon="4.63342">
        <ele>400</ele>
        <time>2019-06-28T15:50:44Z</time>
      </trkpt>
      <trkpt lat="46.10059" lon="4.63275">
        <ele>411</ele>
        <time>2019-06-28T15:50:55Z</time>
      </trkpt>
      <trkpt lat="46.10046" lon="4.63223">
        <ele>418</ele>
        <time>2019-06-28T15:51:04Z</time>
      </trkpt>
      <trkpt lat="46.10014" lon="4.63141">
        <ele>429</ele>
        <time>2019-06-28T15:51:19Z</time>
      </trkpt>
      <trkpt lat="46.09954" lon="4.6304">
        <ele>444</ele>
        <time>2019-06-28T15:51:41Z</time>
      </trkpt>
      <trkpt lat="46.09952" lon="4.63017">
        <ele>448</ele>
        <time>2019-06-28T15:51:45Z</time>
      </trkpt>
      <trkpt lat="46.0997" lon="4.63002">
        <ele>452</ele>
        <time>2019-06-28T15:51:49Z</time>
      </trkpt>
      <trkpt lat="46.0998" lon="4.62989">
        <ele>455</ele>
        <time>2019-06-28T15:51:53Z</time>
      </trkpt>
      <trkpt lat="46.09973" lon="4.62946">
        <ele>461</ele>
        <time>2019-06-28T15:52:00Z</time>
      </trkpt>
      <trkpt lat="46.09972" lon="4.62791">
        <ele>485</ele>
        <time>2019-06-28T15:52:25Z</time>
      </trkpt>
      <trkpt lat="46.09977" lon="4.62701">
        <ele>500</ele>
        <time>2019-06-28T15:52:39Z</time>
      </trkpt>
      <trkpt lat="46.09976" lon="4.62664">
        <ele>507</ele>
        <time>2019-06-28T15:52:45Z</time>
      </trkpt>
      <trkpt lat="46.0997" lon="4.62598">
        <ele>516</ele>
        <time>2019-06-28T15:52:56Z</time>
      </trkpt>
      <trkpt lat="46.0997" lon="4.62569">
        <ele>522</ele>
        <time>2019-06-28T15:53:01Z</time>
      </trkpt>
      <trkpt lat="46.09972" lon="4.62537">
        <ele>529</ele>
        <time>2019-06-28T15:53:06Z</time>
      </trkpt>
      <trkpt lat="46.09983" lon="4.62485">
        <ele>541</ele>
        <time>2019-06-28T15:53:15Z</time>
      </trkpt>
      <trkpt lat="46.09985" lon="4.6245">
        <ele>548</ele>
        <time>2019-06-28T15:53:21Z</time>
      </trkpt>
      <trkpt lat="46.09969" lon="4.62419">
        <ele>552</ele>
        <time>2019-06-28T15:53:27Z</time>
      </trkpt>
      <trkpt lat="46.09966" lon="4.62327">
        <ele>565</ele>
        <time>2019-06-28T15:53:42Z</time>
      </trkpt>
      <trkpt lat="46.09958" lon="4.62277">
        <ele>570</ele>
        <time>2019-06-28T15:53:50Z</time>
      </trkpt>
      <trkpt lat="46.09949" lon="4.62174">
        <ele>578</ele>
        <time>2019-06-28T15:54:07Z</time>
      </trkpt>
      <trkpt lat="46.09951" lon="4.62131">
        <ele>581</ele>
        <time>2019-06-28T15:54:14Z</time>
      </trkpt>
      <trkpt lat="46.09921" lon="4.62098">
        <ele>584</ele>
        <time>2019-06-28T15:54:23Z</time>
      </trkpt>
      <trkpt lat="46.09893" lon="4.62077">
        <ele>584</ele>
        <time>2019-06-28T15:54:30Z</time>
      </trkpt>
      <trkpt lat="46.09859" lon="4.62069">
        <ele>582</ele>
        <time>2019-06-28T15:54:38Z</time>
      </trkpt>
      <trkpt lat="46.09815" lon="4.62055">
        <ele>580</ele>
        <time>2019-06-28T15:54:49Z</time>
      </trkpt>
      <trkpt lat="46.09709" lon="4.61956">
        <ele>579</ele>
        <time>2019-06-28T15:55:18Z</time>
      </trkpt>
      <trkpt lat="46.09656" lon="4.61916">
        <ele>579</ele>
        <time>2019-06-28T15:55:32Z</time>
      </trkpt>
      <trkpt lat="46.0962" lon="4.61892">
        <ele>577</ele>
        <time>2019-06-28T15:55:41Z</time>
      </trkpt>
      <trkpt lat="46.09491" lon="4.6179">
        <ele>590</ele>
        <time>2019-06-28T15:56:16Z</time>
      </trkpt>
      <trkpt lat="46.09465" lon="4.61775">
        <ele>595</ele>
        <time>2019-06-28T15:56:22Z</time>
      </trkpt>
      <trkpt lat="46.09407" lon="4.61716">
        <ele>610</ele>
        <time>2019-06-28T15:56:39Z</time>
      </trkpt>
      <trkpt lat="46.09253" lon="4.61589">
        <ele>627</ele>
        <time>2019-06-28T15:57:20Z</time>
      </trkpt>
      <trkpt lat="46.09236" lon="4.61586">
        <ele>627</ele>
        <time>2019-06-28T15:57:24Z</time>
      </trkpt>
      <trkpt lat="46.09203" lon="4.61597">
        <ele>624</ele>
        <time>2019-06-28T15:57:32Z</time>
      </trkpt>
      <trkpt lat="46.09163" lon="4.61606">
        <ele>620</ele>
        <time>2019-06-28T15:57:42Z</time>
      </trkpt>
      <trkpt lat="46.09137" lon="4.61617">
        <ele>613</ele>
        <time>2019-06-28T15:57:48Z</time>
      </trkpt>
      <trkpt lat="46.09092" lon="4.61649">
        <ele>603</ele>
        <time>2019-06-28T15:58:00Z</time>
      </trkpt>
      <trkpt lat="46.09069" lon="4.61643">
        <ele>602</ele>
        <time>2019-06-28T15:58:05Z</time>
      </trkpt>
      <trkpt lat="46.09048" lon="4.61642">
        <ele>601</ele>
        <time>2019-06-28T15:58:10Z</time>
      </trkpt>
      <trkpt lat="46.09039" lon="4.61643">
        <ele>601</ele>
        <time>2019-06-28T15:58:12Z</time>
      </trkpt>
      <trkpt lat="46.09019" lon="4.61653">
        <ele>601</ele>
        <time>2019-06-28T15:58:17Z</time>
      </trkpt>
      <trkpt lat="46.08983" lon="4.61658">
        <ele>601</ele>
        <time>2019-06-28T15:58:26Z</time>
      </trkpt>
      <trkpt lat="46.08955" lon="4.61657">
        <ele>600</ele>
        <time>2019-06-28T15:58:32Z</time>
      </trkpt>
      <trkpt lat="46.08943" lon="4.61653">
        <ele>599</ele>
        <time>2019-06-28T15:58:35Z</time>
      </trkpt>
      <trkpt lat="46.08896" lon="4.61618">
        <ele>598</ele>
        <time>2019-06-28T15:58:47Z</time>
      </trkpt>
      <trkpt lat="46.08813" lon="4.61509">
        <ele>601</ele>
        <time>2019-06-28T15:59:14Z</time>
      </trkpt>
      <trkpt lat="46.08789" lon="4.61484">
        <ele>600</ele>
        <time>2019-06-28T15:59:20Z</time>
      </trkpt>
      <trkpt lat="46.08778" lon="4.61468">
        <ele>600</ele>
        <time>2019-06-28T15:59:24Z</time>
      </trkpt>
      <trkpt lat="46.08754" lon="4.61421">
        <ele>603</ele>
        <time>2019-06-28T15:59:34Z</time>
      </trkpt>
      <trkpt lat="46.08739" lon="4.61401">
        <ele>602</ele>
        <time>2019-06-28T15:59:38Z</time>
      </trkpt>
      <trkpt lat="46.08704" lon="4.61376">
        <ele>602</ele>
        <time>2019-06-28T15:59:47Z</time>
      </trkpt>
      <trkpt lat="46.08646" lon="4.61322">
        <ele>606</ele>
        <time>2019-06-28T16:00:04Z</time>
      </trkpt>
      <trkpt lat="46.08641" lon="4.61309">
        <ele>606</ele>
        <time>2019-06-28T16:00:06Z</time>
      </trkpt>
      <trkpt lat="46.08626" lon="4.61232">
        <ele>606</ele>
        <time>2019-06-28T16:00:19Z</time>
      </trkpt>
      <trkpt lat="46.08599" lon="4.61119">
        <ele>609</ele>
        <time>2019-06-28T16:00:38Z</time>
      </trkpt>
      <trkpt lat="46.08581" lon="4.61057">
        <ele>611</ele>
        <time>2019-06-28T16:00:49Z</time>
      </trkpt>
      <trkpt lat="46.08562" lon="4.61023">
        <ele>605</ele>
        <time>2019-06-28T16:00:56Z</time>
      </trkpt>
      <trkpt lat="46.08546" lon="4.61005">
        <ele>601</ele>
        <time>2019-06-28T16:01:01Z</time>
      </trkpt>
      <trkpt lat="46.08516" lon="4.60945">
        <ele>593</ele>
        <time>2019-06-28T16:01:13Z</time>
      </trkpt>
      <trkpt lat="46.08497" lon="4.60914">
        <ele>590</ele>
        <time>2019-06-28T16:01:20Z</time>
      </trkpt>
      <trkpt lat="46.08472" lon="4.60883">
        <ele>584</ele>
        <time>2019-06-28T16:01:27Z</time>
      </trkpt>
      <trkpt lat="46.08451" lon="4.60836">
        <ele>581</ele>
        <time>2019-06-28T16:01:36Z</time>
      </trkpt>
      <trkpt lat="46.08419" lon="4.60746">
        <ele>577</ele>
        <time>2019-06-28T16:01:53Z</time>
      </trkpt>
      <trkpt lat="46.08403" lon="4.60726">
        <ele>575</ele>
        <time>2019-06-28T16:01:58Z</time>
      </trkpt>
      <trkpt lat="46.08357" lon="4.60656">
        <ele>577</ele>
        <time>2019-06-28T16:02:13Z</time>
      </trkpt>
      <trkpt lat="46.08351" lon="4.6065">
        <ele>578</ele>
        <time>2019-06-28T16:02:15Z</time>
      </trkpt>
      <trkpt lat="46.08341" lon="4.60661">
        <ele>578</ele>
        <time>2019-06-28T16:02:18Z</time>
      </trkpt>
      <trkpt lat="46.08326" lon="4.60669">
        <ele>577</ele>
        <time>2019-06-28T16:02:22Z</time>
      </trkpt>
      <trkpt lat="46.08306" lon="4.60671">
        <ele>575</ele>
        <time>2019-06-28T16:02:26Z</time>
      </trkpt>
      <trkpt lat="46.08277" lon="4.60664">
        <ele>573</ele>
        <time>2019-06-28T16:02:33Z</time>
      </trkpt>
      <trkpt lat="46.0825" lon="4.60666">
        <ele>570</ele>
        <time>2019-06-28T16:02:40Z</time>
      </trkpt>
      <trkpt lat="46.0822" lon="4.60659">
        <ele>568</ele>
        <time>2019-06-28T16:02:47Z</time>
      </trkpt>
      <trkpt lat="46.08176" lon="4.60643">
        <ele>566</ele>
        <time>2019-06-28T16:02:57Z</time>
      </trkpt>
      <trkpt lat="46.08117" lon="4.60646">
        <ele>561</ele>
        <time>2019-06-28T16:03:11Z</time>
      </trkpt>
      <trkpt lat="46.08081" lon="4.60666">
        <ele>556</ele>
        <time>2019-06-28T16:03:20Z</time>
      </trkpt>
      <trkpt lat="46.08034" lon="4.60676">
        <ele>550</ele>
        <time>2019-06-28T16:03:31Z</time>
      </trkpt>
      <trkpt lat="46.08011" lon="4.60671">
        <ele>549</ele>
        <time>2019-06-28T16:03:37Z</time>
      </trkpt>
      <trkpt lat="46.07992" lon="4.60659">
        <ele>546</ele>
        <time>2019-06-28T16:03:41Z</time>
      </trkpt>
      <trkpt lat="46.0798" lon="4.60647">
        <ele>544</ele>
        <time>2019-06-28T16:03:45Z</time>
      </trkpt>
      <trkpt lat="46.07956" lon="4.60584">
        <ele>541</ele>
        <time>2019-06-28T16:03:57Z</time>
      </trkpt>
      <trkpt lat="46.07922" lon="4.60459">
        <ele>533</ele>
        <time>2019-06-28T16:04:18Z</time>
      </trkpt>
      <trkpt lat="46.07928" lon="4.6041">
        <ele>534</ele>
        <time>2019-06-28T16:04:26Z</time>
      </trkpt>
      <trkpt lat="46.07948" lon="4.60359">
        <ele>536</ele>
        <time>2019-06-28T16:04:36Z</time>
      </trkpt>
      <trkpt lat="46.07971" lon="4.60332">
        <ele>539</ele>
        <time>2019-06-28T16:04:43Z</time>
      </trkpt>
      <trkpt lat="46.07988" lon="4.60304">
        <ele>543</ele>
        <time>2019-06-28T16:04:49Z</time>
      </trkpt>
      <trkpt lat="46.08002" lon="4.60253">
        <ele>545</ele>
        <time>2019-06-28T16:04:58Z</time>
      </trkpt>
      <trkpt lat="46.08001" lon="4.60231">
        <ele>546</ele>
        <time>2019-06-28T16:05:01Z</time>
      </trkpt>
      <trkpt lat="46.07983" lon="4.60144">
        <ele>550</ele>
        <time>2019-06-28T16:05:16Z</time>
      </trkpt>
      <trkpt lat="46.07935" lon="4.60036">
        <ele>555</ele>
        <time>2019-06-28T16:05:37Z</time>
      </trkpt>
      <trkpt lat="46.07919" lon="4.59992">
        <ele>558</ele>
        <time>2019-06-28T16:05:45Z</time>
      </trkpt>
      <trkpt lat="46.07917" lon="4.59972">
        <ele>561</ele>
        <time>2019-06-28T16:05:48Z</time>
      </trkpt>
      <trkpt lat="46.07946" lon="4.59935">
        <ele>565</ele>
        <time>2019-06-28T16:05:57Z</time>
      </trkpt>
      <trkpt lat="46.07968" lon="4.59912">
        <ele>566</ele>
        <time>2019-06-28T16:06:03Z</time>
      </trkpt>
      <trkpt lat="46.07975" lon="4.59894">
        <ele>565</ele>
        <time>2019-06-28T16:06:07Z</time>
      </trkpt>
      <trkpt lat="46.0798" lon="4.59865">
        <ele>565</ele>
        <time>2019-06-28T16:06:12Z</time>
      </trkpt>
      <trkpt lat="46.0798" lon="4.59814">
        <ele>564</ele>
        <time>2019-06-28T16:06:20Z</time>
      </trkpt>
      <trkpt lat="46.07948" lon="4.59727">
        <ele>564</ele>
        <time>2019-06-28T16:06:36Z</time>
      </trkpt>
      <trkpt lat="46.07937" lon="4.59675">
        <ele>564</ele>
        <time>2019-06-28T16:06:45Z</time>
      </trkpt>
      <trkpt lat="46.07936" lon="4.5958">
        <ele>562</ele>
        <time>2019-06-28T16:07:00Z</time>
      </trkpt>
      <trkpt lat="46.07943" lon="4.59524">
        <ele>559</ele>
        <time>2019-06-28T16:07:09Z</time>
      </trkpt>
      <trkpt lat="46.07941" lon="4.5947">
        <ele>559</ele>
        <time>2019-06-28T16:07:18Z</time>
      </trkpt>
      <trkpt lat="46.07937" lon="4.59443">
        <ele>560</ele>
        <time>2019-06-28T16:07:22Z</time>
      </trkpt>
      <trkpt lat="46.0794" lon="4.59401">
        <ele>559</ele>
        <time>2019-06-28T16:07:29Z</time>
      </trkpt>
      <trkpt lat="46.07938" lon="4.59294">
        <ele>556</ele>
        <time>2019-06-28T16:07:47Z</time>
      </trkpt>
      <trkpt lat="46.07952" lon="4.59175">
        <ele>554</ele>
        <time>2019-06-28T16:08:06Z</time>
      </trkpt>
      <trkpt lat="46.07938" lon="4.59168">
        <ele>554</ele>
        <time>2019-06-28T16:08:10Z</time>
      </trkpt>
      <trkpt lat="46.0791" lon="4.59144">
        <ele>552</ele>
        <time>2019-06-28T16:08:17Z</time>
      </trkpt>
      <trkpt lat="46.07896" lon="4.59139">
        <ele>550</ele>
        <time>2019-06-28T16:08:21Z</time>
      </trkpt>
      <trkpt lat="46.07877" lon="4.59141">
        <ele>549</ele>
        <time>2019-06-28T16:08:25Z</time>
      </trkpt>
      <trkpt lat="46.07864" lon="4.59153">
        <ele>549</ele>
        <time>2019-06-28T16:08:29Z</time>
      </trkpt>
      <trkpt lat="46.07853" lon="4.59174">
        <ele>549</ele>
        <time>2019-06-28T16:08:33Z</time>
      </trkpt>
      <trkpt lat="46.07845" lon="4.59197">
        <ele>548</ele>
        <time>2019-06-28T16:08:37Z</time>
      </trkpt>
      <trkpt lat="46.07829" lon="4.59268">
        <ele>549</ele>
        <time>2019-06-28T16:08:49Z</time>
      </trkpt>
      <trkpt lat="46.07821" lon="4.59291">
        <ele>549</ele>
        <time>2019-06-28T16:08:53Z</time>
      </trkpt>
      <trkpt lat="46.07797" lon="4.59329">
        <ele>547</ele>
        <time>2019-06-28T16:09:02Z</time>
      </trkpt>
      <trkpt lat="46.07748" lon="4.59361">
        <ele>541</ele>
        <time>2019-06-28T16:09:14Z</time>
      </trkpt>
      <trkpt lat="46.07694" lon="4.59378">
        <ele>537</ele>
        <time>2019-06-28T16:09:27Z</time>
      </trkpt>
      <trkpt lat="46.07668" lon="4.59381">
        <ele>533</ele>
        <time>2019-06-28T16:09:33Z</time>
      </trkpt>
      <trkpt lat="46.07641" lon="4.59395">
        <ele>533</ele>
        <time>2019-06-28T16:09:40Z</time>
      </trkpt>
      <trkpt lat="46.07565" lon="4.59428">
        <ele>529</ele>
        <time>2019-06-28T16:09:59Z</time>
      </trkpt>
      <trkpt lat="46.0754" lon="4.59427">
        <ele>525</ele>
        <time>2019-06-28T16:10:04Z</time>
      </trkpt>
      <trkpt lat="46.0751" lon="4.59414">
        <ele>517</ele>
        <time>2019-06-28T16:10:12Z</time>
      </trkpt>
      <trkpt lat="46.07488" lon="4.59409">
        <ele>512</ele>
        <time>2019-06-28T16:10:17Z</time>
      </trkpt>
      <trkpt lat="46.07469" lon="4.59408">
        <ele>508</ele>
        <time>2019-06-28T16:10:21Z</time>
      </trkpt>
      <trkpt lat="46.07447" lon="4.59416">
        <ele>506</ele>
        <time>2019-06-28T16:10:27Z</time>
      </trkpt>
      <trkpt lat="46.07429" lon="4.59446">
        <ele>505</ele>
        <time>2019-06-28T16:10:33Z</time>
      </trkpt>
      <trkpt lat="46.07398" lon="4.59549">
        <ele>499</ele>
        <time>2019-06-28T16:10:51Z</time>
      </trkpt>
      <trkpt lat="46.07386" lon="4.59571">
        <ele>496</ele>
        <time>2019-06-28T16:10:56Z</time>
      </trkpt>
      <trkpt lat="46.07368" lon="4.59595">
        <ele>492</ele>
        <time>2019-06-28T16:11:01Z</time>
      </trkpt>
      <trkpt lat="46.07315" lon="4.59643">
        <ele>479</ele>
        <time>2019-06-28T16:11:16Z</time>
      </trkpt>
      <trkpt lat="46.07303" lon="4.59643">
        <ele>477</ele>
        <time>2019-06-28T16:11:19Z</time>
      </trkpt>
      <trkpt lat="46.07267" lon="4.59634">
        <ele>471</ele>
        <time>2019-06-28T16:11:27Z</time>
      </trkpt>
      <trkpt lat="46.07268" lon="4.59592">
        <ele>471</ele>
        <time>2019-06-28T16:11:34Z</time>
      </trkpt>
      <trkpt lat="46.07277" lon="4.59564">
        <ele>470</ele>
        <time>2019-06-28T16:11:39Z</time>
      </trkpt>
      <trkpt lat="46.07287" lon="4.59552">
        <ele>470</ele>
        <time>2019-06-28T16:11:42Z</time>
      </trkpt>
      <trkpt lat="46.07305" lon="4.59538">
        <ele>472</ele>
        <time>2019-06-28T16:11:47Z</time>
      </trkpt>
      <trkpt lat="46.07306" lon="4.59528">
        <ele>471</ele>
        <time>2019-06-28T16:11:49Z</time>
      </trkpt>
      <trkpt lat="46.07302" lon="4.59524">
        <ele>469</ele>
        <time>2019-06-28T16:11:50Z</time>
      </trkpt>
      <trkpt lat="46.07261" lon="4.59528">
        <ele>461</ele>
        <time>2019-06-28T16:11:59Z</time>
      </trkpt>
      <trkpt lat="46.07247" lon="4.59532">
        <ele>459</ele>
        <time>2019-06-28T16:12:03Z</time>
      </trkpt>
      <trkpt lat="46.07207" lon="4.59559">
        <ele>455</ele>
        <time>2019-06-28T16:12:13Z</time>
      </trkpt>
      <trkpt lat="46.07178" lon="4.59574">
        <ele>452</ele>
        <time>2019-06-28T16:12:20Z</time>
      </trkpt>
      <trkpt lat="46.07145" lon="4.59597">
        <ele>447</ele>
        <time>2019-06-28T16:12:29Z</time>
      </trkpt>
      <trkpt lat="46.07108" lon="4.59618">
        <ele>439</ele>
        <time>2019-06-28T16:12:38Z</time>
      </trkpt>
      <trkpt lat="46.07091" lon="4.59634">
        <ele>436</ele>
        <time>2019-06-28T16:12:43Z</time>
      </trkpt>
      <trkpt lat="46.07077" lon="4.59659">
        <ele>435</ele>
        <time>2019-06-28T16:12:48Z</time>
      </trkpt>
      <trkpt lat="46.06982" lon="4.59764">
        <ele>421</ele>
        <time>2019-06-28T16:13:16Z</time>
      </trkpt>
      <trkpt lat="46.06974" lon="4.59777">
        <ele>420</ele>
        <time>2019-06-28T16:13:19Z</time>
      </trkpt>
      <trkpt lat="46.06969" lon="4.59809">
        <ele>419</ele>
        <time>2019-06-28T16:13:24Z</time>
      </trkpt>
      <trkpt lat="46.06973" lon="4.59874">
        <ele>413</ele>
        <time>2019-06-28T16:13:35Z</time>
      </trkpt>
      <trkpt lat="46.06969" lon="4.59882">
        <ele>412</ele>
        <time>2019-06-28T16:13:36Z</time>
      </trkpt>
      <trkpt lat="46.06956" lon="4.59886">
        <ele>411</ele>
        <time>2019-06-28T16:13:39Z</time>
      </trkpt>
      <trkpt lat="46.06945" lon="4.59884">
        <ele>410</ele>
        <time>2019-06-28T16:13:42Z</time>
      </trkpt>
      <trkpt lat="46.06933" lon="4.59875">
        <ele>410</ele>
        <time>2019-06-28T16:13:45Z</time>
      </trkpt>
      <trkpt lat="46.06906" lon="4.59818">
        <ele>410</ele>
        <time>2019-06-28T16:13:56Z</time>
      </trkpt>
      <trkpt lat="46.06889" lon="4.59766">
        <ele>406</ele>
        <time>2019-06-28T16:14:06Z</time>
      </trkpt>
      <trkpt lat="46.06878" lon="4.59768">
        <ele>404</ele>
        <time>2019-06-28T16:14:08Z</time>
      </trkpt>
      <trkpt lat="46.06866" lon="4.598">
        <ele>401</ele>
        <time>2019-06-28T16:14:14Z</time>
      </trkpt>
      <trkpt lat="46.06864" lon="4.59841">
        <ele>400</ele>
        <time>2019-06-28T16:14:21Z</time>
      </trkpt>
      <trkpt lat="46.06789" lon="4.59877">
        <ele>381</ele>
        <time>2019-06-28T16:14:39Z</time>
      </trkpt>
      <trkpt lat="46.06764" lon="4.59902">
        <ele>376</ele>
        <time>2019-06-28T16:14:46Z</time>
      </trkpt>
      <trkpt lat="46.06751" lon="4.59924">
        <ele>373</ele>
        <time>2019-06-28T16:14:51Z</time>
      </trkpt>
      <trkpt lat="46.0672" lon="4.59943">
        <ele>365</ele>
        <time>2019-06-28T16:14:59Z</time>
      </trkpt>
      <trkpt lat="46.06705" lon="4.59946">
        <ele>362</ele>
        <time>2019-06-28T16:15:02Z</time>
      </trkpt>
      <trkpt lat="46.06696" lon="4.59945">
        <ele>360</ele>
        <time>2019-06-28T16:15:05Z</time>
      </trkpt>
      <trkpt lat="46.0666" lon="4.59921">
        <ele>354</ele>
        <time>2019-06-28T16:15:14Z</time>
      </trkpt>
      <trkpt lat="46.06601" lon="4.59914">
        <ele>344</ele>
        <time>2019-06-28T16:15:28Z</time>
      </trkpt>
      <trkpt lat="46.06594" lon="4.59916">
        <ele>343</ele>
        <time>2019-06-28T16:15:29Z</time>
      </trkpt>
      <trkpt lat="46.06588" lon="4.59905">
        <ele>342</ele>
        <time>2019-06-28T16:15:32Z</time>
      </trkpt>
      <trkpt lat="46.06586" lon="4.59855">
        <ele>343</ele>
        <time>2019-06-28T16:15:40Z</time>
      </trkpt>
      <trkpt lat="46.06526" lon="4.59797">
        <ele>329</ele>
        <time>2019-06-28T16:15:57Z</time>
      </trkpt>
      <trkpt lat="46.06519" lon="4.59795">
        <ele>327</ele>
        <time>2019-06-28T16:15:58Z</time>
      </trkpt>
      <trkpt lat="46.0651" lon="4.59808">
        <ele>325</ele>
        <time>2019-06-28T16:16:01Z</time>
      </trkpt>
      <trkpt lat="46.06501" lon="4.59835">
        <ele>324</ele>
        <time>2019-06-28T16:16:06Z</time>
      </trkpt>
      <trkpt lat="46.06486" lon="4.59902">
        <ele>322</ele>
        <time>2019-06-28T16:16:17Z</time>
      </trkpt>
      <trkpt lat="46.06424" lon="4.59918">
        <ele>311</ele>
        <time>2019-06-28T16:16:32Z</time>
      </trkpt>
      <trkpt lat="46.06374" lon="4.59929">
        <ele>305</ele>
        <time>2019-06-28T16:16:44Z</time>
      </trkpt>
      <trkpt lat="46.06354" lon="4.5993">
        <ele>302</ele>
        <time>2019-06-28T16:16:49Z</time>
      </trkpt>
      <trkpt lat="46.06309" lon="4.59942">
        <ele>297</ele>
        <time>2019-06-28T16:16:59Z</time>
      </trkpt>
      <trkpt lat="46.06306" lon="4.5994">
        <ele>297</ele>
        <time>2019-06-28T16:17:00Z</time>
      </trkpt>
      <trkpt lat="46.06306" lon="4.59935">
        <ele>297</ele>
        <time>2019-06-28T16:17:01Z</time>
      </trkpt>
      <trkpt lat="46.06321" lon="4.59815">
        <ele>298</ele>
        <time>2019-06-28T16:17:21Z</time>
      </trkpt>
      <trkpt lat="46.06318" lon="4.59796">
        <ele>298</ele>
        <time>2019-06-28T16:17:24Z</time>
      </trkpt>
      <trkpt lat="46.06254" lon="4.59669">
        <ele>299</ele>
        <time>2019-06-28T16:17:49Z</time>
      </trkpt>
      <trkpt lat="46.0624" lon="4.59631">
        <ele>299</ele>
        <time>2019-06-28T16:17:56Z</time>
      </trkpt>
      <trkpt lat="46.06234" lon="4.59595">
        <ele>299</ele>
        <time>2019-06-28T16:18:02Z</time>
      </trkpt>
      <trkpt lat="46.06209" lon="4.59629">
        <ele>297</ele>
        <time>2019-06-28T16:18:10Z</time>
      </trkpt>
      <trkpt lat="46.06175" lon="4.59648">
        <ele>294</ele>
        <time>2019-06-28T16:18:19Z</time>
      </trkpt>
      <trkpt lat="46.06128" lon="4.59642">
        <ele>299</ele>
        <time>2019-06-28T16:18:30Z</time>
      </trkpt>
      <trkpt lat="46.0612" lon="4.59631">
        <ele>301</ele>
        <time>2019-06-28T16:18:32Z</time>
      </trkpt>
      <trkpt lat="46.06118" lon="4.59624">
        <ele>301</ele>
        <time>2019-06-28T16:18:34Z</time>
      </trkpt>
      <trkpt lat="46.06119" lon="4.59579">
        <ele>302</ele>
        <time>2019-06-28T16:18:41Z</time>
      </trkpt>
      <trkpt lat="46.06116" lon="4.59567">
        <ele>302</ele>
        <time>2019-06-28T16:18:43Z</time>
      </trkpt>
      <trkpt lat="46.06111" lon="4.59566">
        <ele>303</ele>
        <time>2019-06-28T16:18:44Z</time>
      </trkpt>
      <trkpt lat="46.06082" lon="4.59634">
        <ele>307</ele>
        <time>2019-06-28T16:18:57Z</time>
      </trkpt>
      <trkpt lat="46.06073" lon="4.5967">
        <ele>308</ele>
        <time>2019-06-28T16:19:03Z</time>
      </trkpt>
      <trkpt lat="46.06062" lon="4.59644">
        <ele>312</ele>
        <time>2019-06-28T16:19:08Z</time>
      </trkpt>
      <trkpt lat="46.06058" lon="4.59607">
        <ele>313</ele>
        <time>2019-06-28T16:19:14Z</time>
      </trkpt>
      <trkpt lat="46.06035" lon="4.59547">
        <ele>320</ele>
        <time>2019-06-28T16:19:25Z</time>
      </trkpt>
      <trkpt lat="46.06022" lon="4.59492">
        <ele>325</ele>
        <time>2019-06-28T16:19:35Z</time>
      </trkpt>
      <trkpt lat="46.06017" lon="4.59438">
        <ele>325</ele>
        <time>2019-06-28T16:19:44Z</time>
      </trkpt>
      <trkpt lat="46.06012" lon="4.59268">
        <ele>333</ele>
        <time>2019-06-28T16:20:11Z</time>
      </trkpt>
      <trkpt lat="46.06012" lon="4.59183">
        <ele>337</ele>
        <time>2019-06-28T16:20:25Z</time>
      </trkpt>
      <trkpt lat="46.05992" lon="4.59109">
        <ele>342</ele>
        <time>2019-06-28T16:20:38Z</time>
      </trkpt>
      <trkpt lat="46.05989" lon="4.59007">
        <ele>342</ele>
        <time>2019-06-28T16:20:54Z</time>
      </trkpt>
      <trkpt lat="46.05984" lon="4.58973">
        <ele>342</ele>
        <time>2019-06-28T16:21:00Z</time>
      </trkpt>
      <trkpt lat="46.05971" lon="4.58937">
        <ele>342</ele>
        <time>2019-06-28T16:21:07Z</time>
      </trkpt>
      <trkpt lat="46.05951" lon="4.589">
        <ele>345</ele>
        <time>2019-06-28T16:21:14Z</time>
      </trkpt>
      <trkpt lat="46.05921" lon="4.5886">
        <ele>349</ele>
        <time>2019-06-28T16:21:24Z</time>
      </trkpt>
      <trkpt lat="46.05903" lon="4.58842">
        <ele>351</ele>
        <time>2019-06-28T16:21:29Z</time>
      </trkpt>
      <trkpt lat="46.05897" lon="4.58832">
        <ele>352</ele>
        <time>2019-06-28T16:21:31Z</time>
      </trkpt>
      <trkpt lat="46.05899" lon="4.5882">
        <ele>353</ele>
        <time>2019-06-28T16:21:33Z</time>
      </trkpt>
      <trkpt lat="46.05904" lon="4.58813">
        <ele>352</ele>
        <time>2019-06-28T16:21:35Z</time>
      </trkpt>
      <trkpt lat="46.05928" lon="4.58791">
        <ele>349</ele>
        <time>2019-06-28T16:21:41Z</time>
      </trkpt>
      <trkpt lat="46.0594" lon="4.58772">
        <ele>348</ele>
        <time>2019-06-28T16:21:45Z</time>
      </trkpt>
      <trkpt lat="46.05945" lon="4.5876">
        <ele>348</ele>
        <time>2019-06-28T16:21:48Z</time>
      </trkpt>
      <trkpt lat="46.05948" lon="4.58728">
        <ele>350</ele>
        <time>2019-06-28T16:21:53Z</time>
      </trkpt>
      <trkpt lat="46.05946" lon="4.58664">
        <ele>356</ele>
        <time>2019-06-28T16:22:03Z</time>
      </trkpt>
      <trkpt lat="46.05943" lon="4.58641">
        <ele>357</ele>
        <time>2019-06-28T16:22:07Z</time>
      </trkpt>
      <trkpt lat="46.05938" lon="4.58636">
        <ele>358</ele>
        <time>2019-06-28T16:22:09Z</time>
      </trkpt>
      <trkpt lat="46.0593" lon="4.58646">
        <ele>360</ele>
        <time>2019-06-28T16:22:11Z</time>
      </trkpt>
      <trkpt lat="46.05908" lon="4.58549">
        <ele>364</ele>
        <time>2019-06-28T16:22:28Z</time>
      </trkpt>
      <trkpt lat="46.05864" lon="4.58498">
        <ele>371</ele>
        <time>2019-06-28T16:22:41Z</time>
      </trkpt>
      <trkpt lat="46.05819" lon="4.58424">
        <ele>373</ele>
        <time>2019-06-28T16:22:57Z</time>
      </trkpt>
      <trkpt lat="46.05816" lon="4.58423">
        <ele>374</ele>
        <time>2019-06-28T16:22:57Z</time>
      </trkpt>
      <trkpt lat="46.05804" lon="4.5843">
        <ele>378</ele>
        <time>2019-06-28T16:23:00Z</time>
      </trkpt>
      <trkpt lat="46.05799" lon="4.58427">
        <ele>379</ele>
        <time>2019-06-28T16:23:02Z</time>
      </trkpt>
      <trkpt lat="46.05793" lon="4.58375">
        <ele>379</ele>
        <time>2019-06-28T16:23:10Z</time>
      </trkpt>
      <trkpt lat="46.05779" lon="4.58321">
        <ele>382</ele>
        <time>2019-06-28T16:23:20Z</time>
      </trkpt>
      <trkpt lat="46.05753" lon="4.58273">
        <ele>388</ele>
        <time>2019-06-28T16:23:29Z</time>
      </trkpt>
      <trkpt lat="46.05731" lon="4.58241">
        <ele>394</ele>
        <time>2019-06-28T16:23:37Z</time>
      </trkpt>
      <trkpt lat="46.05712" lon="4.58204">
        <ele>404</ele>
        <time>2019-06-28T16:23:44Z</time>
      </trkpt>
      <trkpt lat="46.05708" lon="4.58208">
        <ele>404</ele>
        <time>2019-06-28T16:23:45Z</time>
      </trkpt>
      <trkpt lat="46.05687" lon="4.58282">
        <ele>402</ele>
        <time>2019-06-28T16:23:58Z</time>
      </trkpt>
      <trkpt lat="46.0567" lon="4.58327">
        <ele>406</ele>
        <time>2019-06-28T16:24:07Z</time>
      </trkpt>
      <trkpt lat="46.05668" lon="4.58348">
        <ele>407</ele>
        <time>2019-06-28T16:24:10Z</time>
      </trkpt>
      <trkpt lat="46.05688" lon="4.5854">
        <ele>411</ele>
        <time>2019-06-28T16:24:42Z</time>
      </trkpt>
      <trkpt lat="46.0568" lon="4.58551">
        <ele>413</ele>
        <time>2019-06-28T16:24:44Z</time>
      </trkpt>
      <trkpt lat="46.05651" lon="4.5856">
        <ele>415</ele>
        <time>2019-06-28T16:24:51Z</time>
      </trkpt>
      <trkpt lat="46.0563" lon="4.58564">
        <ele>415</ele>
        <time>2019-06-28T16:24:56Z</time>
      </trkpt>
      <trkpt lat="46.05625" lon="4.58557">
        <ele>415</ele>
        <time>2019-06-28T16:24:58Z</time>
      </trkpt>
      <trkpt lat="46.05609" lon="4.58523">
        <ele>417</ele>
        <time>2019-06-28T16:25:04Z</time>
      </trkpt>
      <trkpt lat="46.05597" lon="4.58488">
        <ele>420</ele>
        <time>2019-06-28T16:25:11Z</time>
      </trkpt>
      <trkpt lat="46.05584" lon="4.58399">
        <ele>429</ele>
        <time>2019-06-28T16:25:25Z</time>
      </trkpt>
      <trkpt lat="46.05582" lon="4.58356">
        <ele>431</ele>
        <time>2019-06-28T16:25:32Z</time>
      </trkpt>
      <trkpt lat="46.05576" lon="4.58314">
        <ele>432</ele>
        <time>2019-06-28T16:25:39Z</time>
      </trkpt>
      <trkpt lat="46.05564" lon="4.58264">
        <ele>433</ele>
        <time>2019-06-28T16:25:48Z</time>
      </trkpt>
      <trkpt lat="46.05519" lon="4.5812">
        <ele>446</ele>
        <time>2019-06-28T16:26:13Z</time>
      </trkpt>
      <trkpt lat="46.0551" lon="4.58108">
        <ele>448</ele>
        <time>2019-06-28T16:26:16Z</time>
      </trkpt>
      <trkpt lat="46.05488" lon="4.58087">
        <ele>449</ele>
        <time>2019-06-28T16:26:22Z</time>
      </trkpt>
      <trkpt lat="46.05456" lon="4.5806">
        <ele>449</ele>
        <time>2019-06-28T16:26:31Z</time>
      </trkpt>
      <trkpt lat="46.05433" lon="4.58032">
        <ele>451</ele>
        <time>2019-06-28T16:26:38Z</time>
      </trkpt>
      <trkpt lat="46.0541" lon="4.57986">
        <ele>456</ele>
        <time>2019-06-28T16:26:47Z</time>
      </trkpt>
      <trkpt lat="46.05399" lon="4.57932">
        <ele>460</ele>
        <time>2019-06-28T16:26:56Z</time>
      </trkpt>
      <trkpt lat="46.0538" lon="4.57908">
        <ele>458</ele>
        <time>2019-06-28T16:27:02Z</time>
      </trkpt>
      <trkpt lat="46.05362" lon="4.57906">
        <ele>453</ele>
        <time>2019-06-28T16:27:07Z</time>
      </trkpt>
      <trkpt lat="46.05349" lon="4.57897">
        <ele>450</ele>
        <time>2019-06-28T16:27:10Z</time>
      </trkpt>
      <trkpt lat="46.05341" lon="4.5787">
        <ele>450</ele>
        <time>2019-06-28T16:27:15Z</time>
      </trkpt>
      <trkpt lat="46.05325" lon="4.57833">
        <ele>448</ele>
        <time>2019-06-28T16:27:22Z</time>
      </trkpt>
      <trkpt lat="46.05319" lon="4.57827">
        <ele>446</ele>
        <time>2019-06-28T16:27:23Z</time>
      </trkpt>
      <trkpt lat="46.05308" lon="4.57801">
        <ele>446</ele>
        <time>2019-06-28T16:27:28Z</time>
      </trkpt>
      <trkpt lat="46.05274" lon="4.57763">
        <ele>441</ele>
        <time>2019-06-28T16:27:38Z</time>
      </trkpt>
      <trkpt lat="46.05253" lon="4.57744">
        <ele>438</ele>
        <time>2019-06-28T16:27:44Z</time>
      </trkpt>
      <trkpt lat="46.05215" lon="4.57686">
        <ele>434</ele>
        <time>2019-06-28T16:27:57Z</time>
      </trkpt>
      <trkpt lat="46.05201" lon="4.57627">
        <ele>435</ele>
        <time>2019-06-28T16:28:07Z</time>
      </trkpt>
      <trkpt lat="46.05193" lon="4.57606">
        <ele>435</ele>
        <time>2019-06-28T16:28:11Z</time>
      </trkpt>
      <trkpt lat="46.05166" lon="4.5757">
        <ele>432</ele>
        <time>2019-06-28T16:28:20Z</time>
      </trkpt>
      <trkpt lat="46.05131" lon="4.57538">
        <ele>427</ele>
        <time>2019-06-28T16:28:29Z</time>
      </trkpt>
      <trkpt lat="46.05116" lon="4.57519">
        <ele>426</ele>
        <time>2019-06-28T16:28:34Z</time>
      </trkpt>
      <trkpt lat="46.05091" lon="4.57466">
        <ele>426</ele>
        <time>2019-06-28T16:28:44Z</time>
      </trkpt>
      <trkpt lat="46.05075" lon="4.57416">
        <ele>428</ele>
        <time>2019-06-28T16:28:53Z</time>
      </trkpt>
      <trkpt lat="46.05062" lon="4.57346">
        <ele>428</ele>
        <time>2019-06-28T16:29:05Z</time>
      </trkpt>
      <trkpt lat="46.05056" lon="4.57295">
        <ele>424</ele>
        <time>2019-06-28T16:29:14Z</time>
      </trkpt>
      <trkpt lat="46.05066" lon="4.57253">
        <ele>424</ele>
        <time>2019-06-28T16:29:21Z</time>
      </trkpt>
      <trkpt lat="46.0509" lon="4.572">
        <ele>428</ele>
        <time>2019-06-28T16:29:31Z</time>
      </trkpt>
      <trkpt lat="46.05102" lon="4.57159">
        <ele>432</ele>
        <time>2019-06-28T16:29:38Z</time>
      </trkpt>
      <trkpt lat="46.05104" lon="4.57141">
        <ele>433</ele>
        <time>2019-06-28T16:29:41Z</time>
      </trkpt>
      <trkpt lat="46.051" lon="4.57075">
        <ele>436</ele>
        <time>2019-06-28T16:29:52Z</time>
      </trkpt>
      <trkpt lat="46.05102" lon="4.57018">
        <ele>441</ele>
        <time>2019-06-28T16:30:01Z</time>
      </trkpt>
      <trkpt lat="46.05139" lon="4.56977">
        <ele>451</ele>
        <time>2019-06-28T16:30:12Z</time>
      </trkpt>
      <trkpt lat="46.05148" lon="4.56962">
        <ele>453</ele>
        <time>2019-06-28T16:30:15Z</time>
      </trkpt>
      <trkpt lat="46.05159" lon="4.56932">
        <ele>456</ele>
        <time>2019-06-28T16:30:21Z</time>
      </trkpt>
      <trkpt lat="46.05171" lon="4.5687">
        <ele>460</ele>
        <time>2019-06-28T16:30:31Z</time>
      </trkpt>
      <trkpt lat="46.05175" lon="4.56768">
        <ele>467</ele>
        <time>2019-06-28T16:30:48Z</time>
      </trkpt>
      <trkpt lat="46.0518" lon="4.56752">
        <ele>468</ele>
        <time>2019-06-28T16:30:51Z</time>
      </trkpt>
      <trkpt lat="46.05192" lon="4.56738">
        <ele>469</ele>
        <time>2019-06-28T16:30:54Z</time>
      </trkpt>
      <trkpt lat="46.05162" lon="4.56649">
        <ele>473</ele>
        <time>2019-06-28T16:31:10Z</time>
      </trkpt>
      <trkpt lat="46.05115" lon="4.56562">
        <ele>474</ele>
        <time>2019-06-28T16:31:28Z</time>
      </trkpt>
      <trkpt lat="46.05097" lon="4.56468">
        <ele>481</ele>
        <time>2019-06-28T16:31:44Z</time>
      </trkpt>
      <trkpt lat="46.05073" lon="4.56408">
        <ele>487</ele>
        <time>2019-06-28T16:31:55Z</time>
      </trkpt>
      <trkpt lat="46.05069" lon="4.56369">
        <ele>490</ele>
        <time>2019-06-28T16:32:02Z</time>
      </trkpt>
      <trkpt lat="46.05045" lon="4.56276">
        <ele>498</ele>
        <time>2019-06-28T16:32:18Z</time>
      </trkpt>
      <trkpt lat="46.05034" lon="4.56244">
        <ele>502</ele>
        <time>2019-06-28T16:32:23Z</time>
      </trkpt>
      <trkpt lat="46.05033" lon="4.56208">
        <ele>501</ele>
        <time>2019-06-28T16:32:29Z</time>
      </trkpt>
      <trkpt lat="46.05024" lon="4.5618">
        <ele>503</ele>
        <time>2019-06-28T16:32:34Z</time>
      </trkpt>
      <trkpt lat="46.05019" lon="4.56147">
        <ele>505</ele>
        <time>2019-06-28T16:32:40Z</time>
      </trkpt>
      <trkpt lat="46.05007" lon="4.56107">
        <ele>509</ele>
        <time>2019-06-28T16:32:47Z</time>
      </trkpt>
      <trkpt lat="46.05002" lon="4.56005">
        <ele>517</ele>
        <time>2019-06-28T16:33:03Z</time>
      </trkpt>
      <trkpt lat="46.04995" lon="4.5599">
        <ele>519</ele>
        <time>2019-06-28T16:33:06Z</time>
      </trkpt>
      <trkpt lat="46.04994" lon="4.55981">
        <ele>520</ele>
        <time>2019-06-28T16:33:08Z</time>
      </trkpt>
      <trkpt lat="46.04999" lon="4.55932">
        <ele>527</ele>
        <time>2019-06-28T16:33:16Z</time>
      </trkpt>
      <trkpt lat="46.04997" lon="4.55915">
        <ele>529</ele>
        <time>2019-06-28T16:33:19Z</time>
      </trkpt>
      <trkpt lat="46.05007" lon="4.55894">
        <ele>530</ele>
        <time>2019-06-28T16:33:23Z</time>
      </trkpt>
      <trkpt lat="46.05018" lon="4.55791">
        <ele>542</ele>
        <time>2019-06-28T16:33:40Z</time>
      </trkpt>
      <trkpt lat="46.0503" lon="4.55741">
        <ele>550</ele>
        <time>2019-06-28T16:33:48Z</time>
      </trkpt>
      <trkpt lat="46.0503" lon="4.55727">
        <ele>552</ele>
        <time>2019-06-28T16:33:50Z</time>
      </trkpt>
      <trkpt lat="46.05027" lon="4.55691">
        <ele>556</ele>
        <time>2019-06-28T16:33:56Z</time>
      </trkpt>
      <trkpt lat="46.05008" lon="4.55607">
        <ele>565</ele>
        <time>2019-06-28T16:34:11Z</time>
      </trkpt>
      <trkpt lat="46.05003" lon="4.55559">
        <ele>569</ele>
        <time>2019-06-28T16:34:19Z</time>
      </trkpt>
      <trkpt lat="46.04991" lon="4.55519">
        <ele>570</ele>
        <time>2019-06-28T16:34:26Z</time>
      </trkpt>
      <trkpt lat="46.04972" lon="4.55433">
        <ele>573</ele>
        <time>2019-06-28T16:34:40Z</time>
      </trkpt>
      <trkpt lat="46.04973" lon="4.55413">
        <ele>575</ele>
        <time>2019-06-28T16:34:43Z</time>
      </trkpt>
      <trkpt lat="46.0497" lon="4.55375">
        <ele>578</ele>
        <time>2019-06-28T16:34:50Z</time>
      </trkpt>
      <trkpt lat="46.04973" lon="4.55363">
        <ele>580</ele>
        <time>2019-06-28T16:34:52Z</time>
      </trkpt>
      <trkpt lat="46.04977" lon="4.55366">
        <ele>580</ele>
        <time>2019-06-28T16:34:53Z</time>
      </trkpt>
      <trkpt lat="46.04981" lon="4.55365">
        <ele>580</ele>
        <time>2019-06-28T16:34:54Z</time>
      </trkpt>
      <trkpt lat="46.04988" lon="4.55353">
        <ele>582</ele>
        <time>2019-06-28T16:34:56Z</time>
      </trkpt>
      <trkpt lat="46.04994" lon="4.55333">
        <ele>584</ele>
        <time>2019-06-28T16:35:00Z</time>
      </trkpt>
      <trkpt lat="46.05004" lon="4.5526">
        <ele>585</ele>
        <time>2019-06-28T16:35:12Z</time>
      </trkpt>
      <trkpt lat="46.05004" lon="4.55226">
        <ele>585</ele>
        <time>2019-06-28T16:35:17Z</time>
      </trkpt>
      <trkpt lat="46.04992" lon="4.55157">
        <ele>586</ele>
        <time>2019-06-28T16:35:29Z</time>
      </trkpt>
      <trkpt lat="46.04991" lon="4.55107">
        <ele>584</ele>
        <time>2019-06-28T16:35:37Z</time>
      </trkpt>
      <trkpt lat="46.04987" lon="4.55066">
        <ele>584</ele>
        <time>2019-06-28T16:35:44Z</time>
      </trkpt>
      <trkpt lat="46.04988" lon="4.55018">
        <ele>582</ele>
        <time>2019-06-28T16:35:51Z</time>
      </trkpt>
      <trkpt lat="46.04994" lon="4.54983">
        <ele>582</ele>
        <time>2019-06-28T16:35:57Z</time>
      </trkpt>
      <trkpt lat="46.05012" lon="4.54925">
        <ele>585</ele>
        <time>2019-06-28T16:36:08Z</time>
      </trkpt>
      <trkpt lat="46.05037" lon="4.54898">
        <ele>582</ele>
        <time>2019-06-28T16:36:15Z</time>
      </trkpt>
      <trkpt lat="46.05075" lon="4.54877">
        <ele>573</ele>
        <time>2019-06-28T16:36:24Z</time>
      </trkpt>
      <trkpt lat="46.05095" lon="4.54857">
        <ele>569</ele>
        <time>2019-06-28T16:36:30Z</time>
      </trkpt>
      <trkpt lat="46.05103" lon="4.54842">
        <ele>568</ele>
        <time>2019-06-28T16:36:33Z</time>
      </trkpt>
      <trkpt lat="46.05109" lon="4.54816">
        <ele>566</ele>
        <time>2019-06-28T16:36:38Z</time>
      </trkpt>
      <trkpt lat="46.05109" lon="4.54714">
        <ele>564</ele>
        <time>2019-06-28T16:36:54Z</time>
      </trkpt>
      <trkpt lat="46.05098" lon="4.54662">
        <ele>568</ele>
        <time>2019-06-28T16:37:03Z</time>
      </trkpt>
      <trkpt lat="46.05085" lon="4.54624">
        <ele>572</ele>
        <time>2019-06-28T16:37:10Z</time>
      </trkpt>
      <trkpt lat="46.05078" lon="4.54595">
        <ele>574</ele>
        <time>2019-06-28T16:37:15Z</time>
      </trkpt>
      <trkpt lat="46.05075" lon="4.54571">
        <ele>575</ele>
        <time>2019-06-28T16:37:19Z</time>
      </trkpt>
      <trkpt lat="46.05076" lon="4.54509">
        <ele>573</ele>
        <time>2019-06-28T16:37:29Z</time>
      </trkpt>
      <trkpt lat="46.05083" lon="4.54458">
        <ele>570</ele>
        <time>2019-06-28T16:37:37Z</time>
      </trkpt>
      <trkpt lat="46.05085" lon="4.54425">
        <ele>570</ele>
        <time>2019-06-28T16:37:43Z</time>
      </trkpt>
      <trkpt lat="46.0509" lon="4.54418">
        <ele>571</ele>
        <time>2019-06-28T16:37:44Z</time>
      </trkpt>
      <trkpt lat="46.05098" lon="4.54419">
        <ele>572</ele>
        <time>2019-06-28T16:37:46Z</time>
      </trkpt>
      <trkpt lat="46.05121" lon="4.54447">
        <ele>573</ele>
        <time>2019-06-28T16:37:53Z</time>
      </trkpt>
      <trkpt lat="46.05196" lon="4.54519">
        <ele>567</ele>
        <time>2019-06-28T16:38:14Z</time>
      </trkpt>
      <trkpt lat="46.0522" lon="4.54532">
        <ele>569</ele>
        <time>2019-06-28T16:38:20Z</time>
      </trkpt>
      <trkpt lat="46.05241" lon="4.54536">
        <ele>572</ele>
        <time>2019-06-28T16:38:25Z</time>
      </trkpt>
      <trkpt lat="46.05266" lon="4.54534">
        <ele>579</ele>
        <time>2019-06-28T16:38:31Z</time>
      </trkpt>
      <trkpt lat="46.05271" lon="4.54537">
        <ele>580</ele>
        <time>2019-06-28T16:38:32Z</time>
      </trkpt>
      <trkpt lat="46.05275" lon="4.54545">
        <ele>579</ele>
        <time>2019-06-28T16:38:34Z</time>
      </trkpt>
      <trkpt lat="46.05315" lon="4.54706">
        <ele>558</ele>
        <time>2019-06-28T16:39:02Z</time>
      </trkpt>
      <trkpt lat="46.05343" lon="4.54757">
        <ele>555</ele>
        <time>2019-06-28T16:39:12Z</time>
      </trkpt>
      <trkpt lat="46.05366" lon="4.54783">
        <ele>554</ele>
        <time>2019-06-28T16:39:19Z</time>
      </trkpt>
      <trkpt lat="46.05373" lon="4.54788">
        <ele>555</ele>
        <time>2019-06-28T16:39:21Z</time>
      </trkpt>
      <trkpt lat="46.054" lon="4.54798">
        <ele>559</ele>
        <time>2019-06-28T16:39:27Z</time>
      </trkpt>
      <trkpt lat="46.05408" lon="4.54813">
        <ele>557</ele>
        <time>2019-06-28T16:39:30Z</time>
      </trkpt>
      <trkpt lat="46.05415" lon="4.54904">
        <ele>557</ele>
        <time>2019-06-28T16:39:45Z</time>
      </trkpt>
      <trkpt lat="46.05428" lon="4.54957">
        <ele>558</ele>
        <time>2019-06-28T16:39:54Z</time>
      </trkpt>
      <trkpt lat="46.05438" lon="4.54977">
        <ele>559</ele>
        <time>2019-06-28T16:39:58Z</time>
      </trkpt>
      <trkpt lat="46.0546" lon="4.55001">
        <ele>563</ele>
        <time>2019-06-28T16:40:05Z</time>
      </trkpt>
      <trkpt lat="46.0548" lon="4.55017">
        <ele>566</ele>
        <time>2019-06-28T16:40:10Z</time>
      </trkpt>
      <trkpt lat="46.05514" lon="4.55035">
        <ele>570</ele>
        <time>2019-06-28T16:40:18Z</time>
      </trkpt>
      <trkpt lat="46.05526" lon="4.55036">
        <ele>570</ele>
        <time>2019-06-28T16:40:21Z</time>
      </trkpt>
      <trkpt lat="46.05548" lon="4.55025">
        <ele>574</ele>
        <time>2019-06-28T16:40:27Z</time>
      </trkpt>
      <trkpt lat="46.0557" lon="4.55008">
        <ele>578</ele>
        <time>2019-06-28T16:40:33Z</time>
      </trkpt>
      <trkpt lat="46.05581" lon="4.54966">
        <ele>587</ele>
        <time>2019-06-28T16:40:40Z</time>
      </trkpt>
      <trkpt lat="46.05586" lon="4.54956">
        <ele>589</ele>
        <time>2019-06-28T16:40:42Z</time>
      </trkpt>
      <trkpt lat="46.05584" lon="4.54941">
        <ele>592</ele>
        <time>2019-06-28T16:40:44Z</time>
      </trkpt>
      <trkpt lat="46.05591" lon="4.54902">
        <ele>598</ele>
        <time>2019-06-28T16:40:51Z</time>
      </trkpt>
      <trkpt lat="46.05587" lon="4.54883">
        <ele>600</ele>
        <time>2019-06-28T16:40:54Z</time>
      </trkpt>
      <trkpt lat="46.05586" lon="4.54851">
        <ele>604</ele>
        <time>2019-06-28T16:40:59Z</time>
      </trkpt>
      <trkpt lat="46.05597" lon="4.54809">
        <ele>608</ele>
        <time>2019-06-28T16:41:07Z</time>
      </trkpt>
      <trkpt lat="46.05603" lon="4.54691">
        <ele>620</ele>
        <time>2019-06-28T16:41:26Z</time>
      </trkpt>
      <trkpt lat="46.0561" lon="4.54653">
        <ele>623</ele>
        <time>2019-06-28T16:41:32Z</time>
      </trkpt>
      <trkpt lat="46.0561" lon="4.54627">
        <ele>625</ele>
        <time>2019-06-28T16:41:36Z</time>
      </trkpt>
      <trkpt lat="46.05603" lon="4.54546">
        <ele>636</ele>
        <time>2019-06-28T16:41:50Z</time>
      </trkpt>
      <trkpt lat="46.05595" lon="4.54492">
        <ele>645</ele>
        <time>2019-06-28T16:41:58Z</time>
      </trkpt>
      <trkpt lat="46.05593" lon="4.54431">
        <ele>652</ele>
        <time>2019-06-28T16:42:08Z</time>
      </trkpt>
      <trkpt lat="46.05602" lon="4.54298">
        <ele>664</ele>
        <time>2019-06-28T16:42:30Z</time>
      </trkpt>
      <trkpt lat="46.05623" lon="4.54093">
        <ele>689</ele>
        <time>2019-06-28T16:43:04Z</time>
      </trkpt>
      <trkpt lat="46.05629" lon="4.54052">
        <ele>696</ele>
        <time>2019-06-28T16:43:10Z</time>
      </trkpt>
      <trkpt lat="46.05641" lon="4.53997">
        <ele>706</ele>
        <time>2019-06-28T16:43:20Z</time>
      </trkpt>
      <trkpt lat="46.0565" lon="4.53972">
        <ele>710</ele>
        <time>2019-06-28T16:43:24Z</time>
      </trkpt>
      <trkpt lat="46.0566" lon="4.53964">
        <ele>710</ele>
        <time>2019-06-28T16:43:27Z</time>
      </trkpt>
      <trkpt lat="46.05699" lon="4.53953">
        <ele>709</ele>
        <time>2019-06-28T16:43:36Z</time>
      </trkpt>
      <trkpt lat="46.05742" lon="4.53935">
        <ele>711</ele>
        <time>2019-06-28T16:43:47Z</time>
      </trkpt>
      <trkpt lat="46.05766" lon="4.5392">
        <ele>715</ele>
        <time>2019-06-28T16:43:53Z</time>
      </trkpt>
      <trkpt lat="46.05825" lon="4.53865">
        <ele>726</ele>
        <time>2019-06-28T16:44:09Z</time>
      </trkpt>
      <trkpt lat="46.05836" lon="4.53861">
        <ele>727</ele>
        <time>2019-06-28T16:44:12Z</time>
      </trkpt>
      <trkpt lat="46.05849" lon="4.5386">
        <ele>728</ele>
        <time>2019-06-28T16:44:15Z</time>
      </trkpt>
      <trkpt lat="46.05867" lon="4.53846">
        <ele>732</ele>
        <time>2019-06-28T16:44:20Z</time>
      </trkpt>
      <trkpt lat="46.059" lon="4.53816">
        <ele>736</ele>
        <time>2019-06-28T16:44:29Z</time>
      </trkpt>
      <trkpt lat="46.05926" lon="4.53787">
        <ele>738</ele>
        <time>2019-06-28T16:44:36Z</time>
      </trkpt>
      <trkpt lat="46.05924" lon="4.53765">
        <ele>738</ele>
        <time>2019-06-28T16:44:40Z</time>
      </trkpt>
      <trkpt lat="46.05916" lon="4.53754">
        <ele>738</ele>
        <time>2019-06-28T16:44:43Z</time>
      </trkpt>
      <trkpt lat="46.05895" lon="4.53753">
        <ele>739</ele>
        <time>2019-06-28T16:44:48Z</time>
      </trkpt>
      <trkpt lat="46.05853" lon="4.53742">
        <ele>740</ele>
        <time>2019-06-28T16:44:58Z</time>
      </trkpt>
      <trkpt lat="46.05818" lon="4.53728">
        <ele>742</ele>
        <time>2019-06-28T16:45:06Z</time>
      </trkpt>
      <trkpt lat="46.05798" lon="4.53706">
        <ele>743</ele>
        <time>2019-06-28T16:45:12Z</time>
      </trkpt>
      <trkpt lat="46.05761" lon="4.53647">
        <ele>745</ele>
        <time>2019-06-28T16:45:25Z</time>
      </trkpt>
      <trkpt lat="46.05751" lon="4.53607">
        <ele>742</ele>
        <time>2019-06-28T16:45:32Z</time>
      </trkpt>
      <trkpt lat="46.05751" lon="4.535">
        <ele>740</ele>
        <time>2019-06-28T16:45:49Z</time>
      </trkpt>
      <trkpt lat="46.05759" lon="4.53428">
        <ele>736</ele>
        <time>2019-06-28T16:46:01Z</time>
      </trkpt>
      <trkpt lat="46.05762" lon="4.53337">
        <ele>731</ele>
        <time>2019-06-28T16:46:16Z</time>
      </trkpt>
      <trkpt lat="46.05757" lon="4.5331">
        <ele>732</ele>
        <time>2019-06-28T16:46:20Z</time>
      </trkpt>
      <trkpt lat="46.05752" lon="4.53232">
        <ele>728</ele>
        <time>2019-06-28T16:46:33Z</time>
      </trkpt>
      <trkpt lat="46.05747" lon="4.53209">
        <ele>727</ele>
        <time>2019-06-28T16:46:37Z</time>
      </trkpt>
      <trkpt lat="46.05736" lon="4.53193">
        <ele>726</ele>
        <time>2019-06-28T16:46:40Z</time>
      </trkpt>
      <trkpt lat="46.05728" lon="4.53188">
        <ele>725</ele>
        <time>2019-06-28T16:46:42Z</time>
      </trkpt>
      <trkpt lat="46.05716" lon="4.53186">
        <ele>725</ele>
        <time>2019-06-28T16:46:45Z</time>
      </trkpt>
      <trkpt lat="46.05705" lon="4.53188">
        <ele>726</ele>
        <time>2019-06-28T16:46:48Z</time>
      </trkpt>
      <trkpt lat="46.05654" lon="4.53218">
        <ele>735</ele>
        <time>2019-06-28T16:47:01Z</time>
      </trkpt>
      <trkpt lat="46.05615" lon="4.53236">
        <ele>737</ele>
        <time>2019-06-28T16:47:10Z</time>
      </trkpt>
      <trkpt lat="46.05546" lon="4.53244">
        <ele>735</ele>
        <time>2019-06-28T16:47:26Z</time>
      </trkpt>
      <trkpt lat="46.0547" lon="4.53269">
        <ele>740</ele>
        <time>2019-06-28T16:47:45Z</time>
      </trkpt>
      <trkpt lat="46.05453" lon="4.53271">
        <ele>740</ele>
        <time>2019-06-28T16:47:49Z</time>
      </trkpt>
      <trkpt lat="46.05446" lon="4.53266">
        <ele>740</ele>
        <time>2019-06-28T16:47:50Z</time>
      </trkpt>
      <trkpt lat="46.05434" lon="4.53244">
        <ele>738</ele>
        <time>2019-06-28T16:47:55Z</time>
      </trkpt>
      <trkpt lat="46.05434" lon="4.53225">
        <ele>738</ele>
        <time>2019-06-28T16:47:58Z</time>
      </trkpt>
      <trkpt lat="46.05454" lon="4.53154">
        <ele>733</ele>
        <time>2019-06-28T16:48:10Z</time>
      </trkpt>
      <trkpt lat="46.05477" lon="4.53088">
        <ele>728</ele>
        <time>2019-06-28T16:48:22Z</time>
      </trkpt>
      <trkpt lat="46.055" lon="4.53037">
        <ele>726</ele>
        <time>2019-06-28T16:48:32Z</time>
      </trkpt>
      <trkpt lat="46.05525" lon="4.52962">
        <ele>725</ele>
        <time>2019-06-28T16:48:46Z</time>
      </trkpt>
      <trkpt lat="46.0555" lon="4.52863">
        <ele>722</ele>
        <time>2019-06-28T16:49:03Z</time>
      </trkpt>
      <trkpt lat="46.05555" lon="4.52831">
        <ele>723</ele>
        <time>2019-06-28T16:49:08Z</time>
      </trkpt>
      <trkpt lat="46.05582" lon="4.52707">
        <ele>723</ele>
        <time>2019-06-28T16:49:29Z</time>
      </trkpt>
      <trkpt lat="46.05607" lon="4.52618">
        <ele>723</ele>
        <time>2019-06-28T16:49:45Z</time>
      </trkpt>
      <trkpt lat="46.05637" lon="4.52559">
        <ele>718</ele>
        <time>2019-06-28T16:49:57Z</time>
      </trkpt>
      <trkpt lat="46.05709" lon="4.5243">
        <ele>700</ele>
        <time>2019-06-28T16:50:23Z</time>
      </trkpt>
      <trkpt lat="46.05721" lon="4.52399">
        <ele>696</ele>
        <time>2019-06-28T16:50:29Z</time>
      </trkpt>
      <trkpt lat="46.05722" lon="4.52365">
        <ele>696</ele>
        <time>2019-06-28T16:50:35Z</time>
      </trkpt>
      <trkpt lat="46.0572" lon="4.52346">
        <ele>697</ele>
        <time>2019-06-28T16:50:38Z</time>
      </trkpt>
      <trkpt lat="46.05704" lon="4.52263">
        <ele>691</ele>
        <time>2019-06-28T16:50:52Z</time>
      </trkpt>
      <trkpt lat="46.05677" lon="4.52167">
        <ele>688</ele>
        <time>2019-06-28T16:51:09Z</time>
      </trkpt>
      <trkpt lat="46.05655" lon="4.5211">
        <ele>685</ele>
        <time>2019-06-28T16:51:19Z</time>
      </trkpt>
      <trkpt lat="46.05641" lon="4.52089">
        <ele>683</ele>
        <time>2019-06-28T16:51:24Z</time>
      </trkpt>
      <trkpt lat="46.05625" lon="4.52077">
        <ele>683</ele>
        <time>2019-06-28T16:51:28Z</time>
      </trkpt>
      <trkpt lat="46.0561" lon="4.5207">
        <ele>684</ele>
        <time>2019-06-28T16:51:32Z</time>
      </trkpt>
      <trkpt lat="46.05597" lon="4.52068">
        <ele>685</ele>
        <time>2019-06-28T16:51:35Z</time>
      </trkpt>
      <trkpt lat="46.05577" lon="4.52076">
        <ele>688</ele>
        <time>2019-06-28T16:51:40Z</time>
      </trkpt>
      <trkpt lat="46.05499" lon="4.52135">
        <ele>691</ele>
        <time>2019-06-28T16:52:00Z</time>
      </trkpt>
      <trkpt lat="46.05432" lon="4.52179">
        <ele>692</ele>
        <time>2019-06-28T16:52:17Z</time>
      </trkpt>
      <trkpt lat="46.0538" lon="4.52205">
        <ele>697</ele>
        <time>2019-06-28T16:52:30Z</time>
      </trkpt>
      <trkpt lat="46.05367" lon="4.52206">
        <ele>697</ele>
        <time>2019-06-28T16:52:33Z</time>
      </trkpt>
      <trkpt lat="46.05341" lon="4.52202">
        <ele>697</ele>
        <time>2019-06-28T16:52:39Z</time>
      </trkpt>
      <trkpt lat="46.05329" lon="4.52194">
        <ele>695</ele>
        <time>2019-06-28T16:52:43Z</time>
      </trkpt>
      <trkpt lat="46.0526" lon="4.52162">
        <ele>681</ele>
        <time>2019-06-28T16:52:59Z</time>
      </trkpt>
      <trkpt lat="46.05255" lon="4.52167">
        <ele>682</ele>
        <time>2019-06-28T16:53:01Z</time>
      </trkpt>
      <trkpt lat="46.05244" lon="4.52197">
        <ele>684</ele>
        <time>2019-06-28T16:53:06Z</time>
      </trkpt>
      <trkpt lat="46.05235" lon="4.52255">
        <ele>690</ele>
        <time>2019-06-28T16:53:16Z</time>
      </trkpt>
      <trkpt lat="46.05219" lon="4.52297">
        <ele>691</ele>
        <time>2019-06-28T16:53:24Z</time>
      </trkpt>
      <trkpt lat="46.05196" lon="4.52347">
        <ele>691</ele>
        <time>2019-06-28T16:53:33Z</time>
      </trkpt>
      <trkpt lat="46.05178" lon="4.52378">
        <ele>693</ele>
        <time>2019-06-28T16:53:40Z</time>
      </trkpt>
      <trkpt lat="46.05136" lon="4.52424">
        <ele>704</ele>
        <time>2019-06-28T16:53:52Z</time>
      </trkpt>
      <trkpt lat="46.05125" lon="4.52428">
        <ele>706</ele>
        <time>2019-06-28T16:53:55Z</time>
      </trkpt>
      <trkpt lat="46.05113" lon="4.52422">
        <ele>706</ele>
        <time>2019-06-28T16:53:58Z</time>
      </trkpt>
      <trkpt lat="46.05057" lon="4.52343">
        <ele>688</ele>
        <time>2019-06-28T16:54:16Z</time>
      </trkpt>
      <trkpt lat="46.05032" lon="4.52318">
        <ele>685</ele>
        <time>2019-06-28T16:54:23Z</time>
      </trkpt>
      <trkpt lat="46.05014" lon="4.52312">
        <ele>686</ele>
        <time>2019-06-28T16:54:28Z</time>
      </trkpt>
      <trkpt lat="46.0496" lon="4.5231">
        <ele>680</ele>
        <time>2019-06-28T16:54:40Z</time>
      </trkpt>
      <trkpt lat="46.04926" lon="4.52304">
        <ele>672</ele>
        <time>2019-06-28T16:54:48Z</time>
      </trkpt>
      <trkpt lat="46.04896" lon="4.52317">
        <ele>671</ele>
        <time>2019-06-28T16:54:56Z</time>
      </trkpt>
      <trkpt lat="46.04867" lon="4.52322">
        <ele>669</ele>
        <time>2019-06-28T16:55:02Z</time>
      </trkpt>
      <trkpt lat="46.04849" lon="4.52336">
        <ele>669</ele>
        <time>2019-06-28T16:55:07Z</time>
      </trkpt>
      <trkpt lat="46.0484" lon="4.52339">
        <ele>669</ele>
        <time>2019-06-28T16:55:09Z</time>
      </trkpt>
      <trkpt lat="46.04819" lon="4.52333">
        <ele>674</ele>
        <time>2019-06-28T16:55:14Z</time>
      </trkpt>
      <trkpt lat="46.04813" lon="4.52322">
        <ele>676</ele>
        <time>2019-06-28T16:55:17Z</time>
      </trkpt>
      <trkpt lat="46.04805" lon="4.52295">
        <ele>676</ele>
        <time>2019-06-28T16:55:21Z</time>
      </trkpt>
      <trkpt lat="46.04788" lon="4.52186">
        <ele>665</ele>
        <time>2019-06-28T16:55:40Z</time>
      </trkpt>
      <trkpt lat="46.04768" lon="4.52143">
        <ele>669</ele>
        <time>2019-06-28T16:55:48Z</time>
      </trkpt>
      <trkpt lat="46.04765" lon="4.52126">
        <ele>670</ele>
        <time>2019-06-28T16:55:51Z</time>
      </trkpt>
      <trkpt lat="46.04769" lon="4.52107">
        <ele>667</ele>
        <time>2019-06-28T16:55:54Z</time>
      </trkpt>
      <trkpt lat="46.04779" lon="4.52093">
        <ele>662</ele>
        <time>2019-06-28T16:55:57Z</time>
      </trkpt>
      <trkpt lat="46.04801" lon="4.5203">
        <ele>654</ele>
        <time>2019-06-28T16:56:09Z</time>
      </trkpt>
      <trkpt lat="46.04807" lon="4.51932">
        <ele>658</ele>
        <time>2019-06-28T16:56:25Z</time>
      </trkpt>
      <trkpt lat="46.04813" lon="4.51907">
        <ele>657</ele>
        <time>2019-06-28T16:56:29Z</time>
      </trkpt>
      <trkpt lat="46.04831" lon="4.51866">
        <ele>652</ele>
        <time>2019-06-28T16:56:37Z</time>
      </trkpt>
      <trkpt lat="46.04844" lon="4.5181">
        <ele>652</ele>
        <time>2019-06-28T16:56:46Z</time>
      </trkpt>
      <trkpt lat="46.04868" lon="4.51754">
        <ele>651</ele>
        <time>2019-06-28T16:56:57Z</time>
      </trkpt>
      <trkpt lat="46.04876" lon="4.51746">
        <ele>649</ele>
        <time>2019-06-28T16:56:59Z</time>
      </trkpt>
      <trkpt lat="46.04904" lon="4.51703">
        <ele>639</ele>
        <time>2019-06-28T16:57:09Z</time>
      </trkpt>
      <trkpt lat="46.04917" lon="4.51675">
        <ele>635</ele>
        <time>2019-06-28T16:57:14Z</time>
      </trkpt>
      <trkpt lat="46.04926" lon="4.51652">
        <ele>628</ele>
        <time>2019-06-28T16:57:19Z</time>
      </trkpt>
      <trkpt lat="46.04927" lon="4.51625">
        <ele>624</ele>
        <time>2019-06-28T16:57:23Z</time>
      </trkpt>
      <trkpt lat="46.04924" lon="4.5161">
        <ele>622</ele>
        <time>2019-06-28T16:57:25Z</time>
      </trkpt>
      <trkpt lat="46.04915" lon="4.51594">
        <ele>622</ele>
        <time>2019-06-28T16:57:29Z</time>
      </trkpt>
      <trkpt lat="46.04855" lon="4.51511">
        <ele>615</ele>
        <time>2019-06-28T16:57:48Z</time>
      </trkpt>
      <trkpt lat="46.04842" lon="4.51486">
        <ele>612</ele>
        <time>2019-06-28T16:57:53Z</time>
      </trkpt>
      <trkpt lat="46.04834" lon="4.51433">
        <ele>604</ele>
        <time>2019-06-28T16:58:02Z</time>
      </trkpt>
      <trkpt lat="46.04834" lon="4.51377">
        <ele>593</ele>
        <time>2019-06-28T16:58:11Z</time>
      </trkpt>
      <trkpt lat="46.04829" lon="4.51337">
        <ele>585</ele>
        <time>2019-06-28T16:58:18Z</time>
      </trkpt>
      <trkpt lat="46.0481" lon="4.51259">
        <ele>566</ele>
        <time>2019-06-28T16:58:31Z</time>
      </trkpt>
      <trkpt lat="46.04797" lon="4.51225">
        <ele>558</ele>
        <time>2019-06-28T16:58:37Z</time>
      </trkpt>
      <trkpt lat="46.04765" lon="4.51169">
        <ele>545</ele>
        <time>2019-06-28T16:58:49Z</time>
      </trkpt>
      <trkpt lat="46.04707" lon="4.51144">
        <ele>538</ele>
        <time>2019-06-28T16:59:03Z</time>
      </trkpt>
      <trkpt lat="46.04681" lon="4.51141">
        <ele>535</ele>
        <time>2019-06-28T16:59:09Z</time>
      </trkpt>
      <trkpt lat="46.04656" lon="4.51147">
        <ele>533</ele>
        <time>2019-06-28T16:59:15Z</time>
      </trkpt>
      <trkpt lat="46.04641" lon="4.51148">
        <ele>531</ele>
        <time>2019-06-28T16:59:19Z</time>
      </trkpt>
      <trkpt lat="46.04613" lon="4.5116">
        <ele>529</ele>
        <time>2019-06-28T16:59:26Z</time>
      </trkpt>
      <trkpt lat="46.04586" lon="4.51188">
        <ele>531</ele>
        <time>2019-06-28T16:59:33Z</time>
      </trkpt>
      <trkpt lat="46.04574" lon="4.51176">
        <ele>528</ele>
        <time>2019-06-28T16:59:37Z</time>
      </trkpt>
      <trkpt lat="46.04556" lon="4.51143">
        <ele>520</ele>
        <time>2019-06-28T16:59:44Z</time>
      </trkpt>
      <trkpt lat="46.04551" lon="4.51139">
        <ele>518</ele>
        <time>2019-06-28T16:59:45Z</time>
      </trkpt>
      <trkpt lat="46.04535" lon="4.51135">
        <ele>517</ele>
        <time>2019-06-28T16:59:49Z</time>
      </trkpt>
      <trkpt lat="46.04506" lon="4.51133">
        <ele>517</ele>
        <time>2019-06-28T16:59:56Z</time>
      </trkpt>
      <trkpt lat="46.04479" lon="4.51125">
        <ele>513</ele>
        <time>2019-06-28T17:00:02Z</time>
      </trkpt>
      <trkpt lat="46.044" lon="4.51126">
        <ele>507</ele>
        <time>2019-06-28T17:00:20Z</time>
      </trkpt>
      <trkpt lat="46.04391" lon="4.51129">
        <ele>507</ele>
        <time>2019-06-28T17:00:23Z</time>
      </trkpt>
      <trkpt lat="46.04361" lon="4.51125">
        <ele>504</ele>
        <time>2019-06-28T17:00:30Z</time>
      </trkpt>
      <trkpt lat="46.04347" lon="4.5112">
        <ele>502</ele>
        <time>2019-06-28T17:00:33Z</time>
      </trkpt>
      <trkpt lat="46.04278" lon="4.51085">
        <ele>498</ele>
        <time>2019-06-28T17:00:50Z</time>
      </trkpt>
      <trkpt lat="46.04277" lon="4.5108">
        <ele>498</ele>
        <time>2019-06-28T17:00:51Z</time>
      </trkpt>
      <trkpt lat="46.04277" lon="4.51076">
        <ele>498</ele>
        <time>2019-06-28T17:00:52Z</time>
      </trkpt>
      <trkpt lat="46.04284" lon="4.51071">
        <ele>498</ele>
        <time>2019-06-28T17:00:53Z</time>
      </trkpt>
      <trkpt lat="46.04312" lon="4.51062">
        <ele>494</ele>
        <time>2019-06-28T17:01:00Z</time>
      </trkpt>
      <trkpt lat="46.04315" lon="4.51056">
        <ele>494</ele>
        <time>2019-06-28T17:01:01Z</time>
      </trkpt>
      <trkpt lat="46.04299" lon="4.5102">
        <ele>496</ele>
        <time>2019-06-28T17:01:08Z</time>
      </trkpt>
      <trkpt lat="46.04301" lon="4.51001">
        <ele>496</ele>
        <time>2019-06-28T17:01:11Z</time>
      </trkpt>
      <trkpt lat="46.04314" lon="4.50988">
        <ele>494</ele>
        <time>2019-06-28T17:01:15Z</time>
      </trkpt>
      <trkpt lat="46.0432" lon="4.50969">
        <ele>495</ele>
        <time>2019-06-28T17:01:18Z</time>
      </trkpt>
      <trkpt lat="46.04307" lon="4.50918">
        <ele>503</ele>
        <time>2019-06-28T17:01:27Z</time>
      </trkpt>
      <trkpt lat="46.04307" lon="4.5091">
        <ele>504</ele>
        <time>2019-06-28T17:01:29Z</time>
      </trkpt>
      <trkpt lat="46.04312" lon="4.50895">
        <ele>507</ele>
        <time>2019-06-28T17:01:31Z</time>
      </trkpt>
      <trkpt lat="46.04387" lon="4.50857">
        <ele>506</ele>
        <time>2019-06-28T17:01:50Z</time>
      </trkpt>
      <trkpt lat="46.04423" lon="4.50829">
        <ele>507</ele>
        <time>2019-06-28T17:01:59Z</time>
      </trkpt>
      <trkpt lat="46.04439" lon="4.50813">
        <ele>504</ele>
        <time>2019-06-28T17:02:04Z</time>
      </trkpt>
      <trkpt lat="46.04476" lon="4.50748">
        <ele>501</ele>
        <time>2019-06-28T17:02:18Z</time>
      </trkpt>
      <trkpt lat="46.04484" lon="4.50721">
        <ele>502</ele>
        <time>2019-06-28T17:02:22Z</time>
      </trkpt>
      <trkpt lat="46.04491" lon="4.50707">
        <ele>502</ele>
        <time>2019-06-28T17:02:25Z</time>
      </trkpt>
      <trkpt lat="46.04503" lon="4.50696">
        <ele>500</ele>
        <time>2019-06-28T17:02:28Z</time>
      </trkpt>
      <trkpt lat="46.04526" lon="4.50688">
        <ele>496</ele>
        <time>2019-06-28T17:02:34Z</time>
      </trkpt>
      <trkpt lat="46.04537" lon="4.50681">
        <ele>495</ele>
        <time>2019-06-28T17:02:37Z</time>
      </trkpt>
      <trkpt lat="46.04571" lon="4.50648">
        <ele>494</ele>
        <time>2019-06-28T17:02:46Z</time>
      </trkpt>
      <trkpt lat="46.04601" lon="4.50606">
        <ele>490</ele>
        <time>2019-06-28T17:02:56Z</time>
      </trkpt>
      <trkpt lat="46.04618" lon="4.50557">
        <ele>488</ele>
        <time>2019-06-28T17:03:05Z</time>
      </trkpt>
      <trkpt lat="46.04623" lon="4.50535">
        <ele>488</ele>
        <time>2019-06-28T17:03:09Z</time>
      </trkpt>
      <trkpt lat="46.04625" lon="4.50515">
        <ele>489</ele>
        <time>2019-06-28T17:03:12Z</time>
      </trkpt>
      <trkpt lat="46.04624" lon="4.50494">
        <ele>492</ele>
        <time>2019-06-28T17:03:15Z</time>
      </trkpt>
      <trkpt lat="46.04629" lon="4.5047">
        <ele>492</ele>
        <time>2019-06-28T17:03:19Z</time>
      </trkpt>
      <trkpt lat="46.04634" lon="4.50457">
        <ele>491</ele>
        <time>2019-06-28T17:03:22Z</time>
      </trkpt>
      <trkpt lat="46.0467" lon="4.50409">
        <ele>483</ele>
        <time>2019-06-28T17:03:33Z</time>
      </trkpt>
      <trkpt lat="46.04689" lon="4.50359">
        <ele>476</ele>
        <time>2019-06-28T17:03:43Z</time>
      </trkpt>
      <trkpt lat="46.04692" lon="4.50342">
        <ele>475</ele>
        <time>2019-06-28T17:03:45Z</time>
      </trkpt>
      <trkpt lat="46.04684" lon="4.50293">
        <ele>472</ele>
        <time>2019-06-28T17:03:54Z</time>
      </trkpt>
      <trkpt lat="46.04676" lon="4.50274">
        <ele>471</ele>
        <time>2019-06-28T17:03:57Z</time>
      </trkpt>
      <trkpt lat="46.04655" lon="4.50246">
        <ele>474</ele>
        <time>2019-06-28T17:04:04Z</time>
      </trkpt>
      <trkpt lat="46.04645" lon="4.50228">
        <ele>476</ele>
        <time>2019-06-28T17:04:08Z</time>
      </trkpt>
      <trkpt lat="46.04636" lon="4.50186">
        <ele>475</ele>
        <time>2019-06-28T17:04:15Z</time>
      </trkpt>
      <trkpt lat="46.04642" lon="4.5008">
        <ele>465</ele>
        <time>2019-06-28T17:04:32Z</time>
      </trkpt>
      <trkpt lat="46.04614" lon="4.50022">
        <ele>468</ele>
        <time>2019-06-28T17:04:43Z</time>
      </trkpt>
      <trkpt lat="46.04619" lon="4.49963">
        <ele>456</ele>
        <time>2019-06-28T17:04:53Z</time>
      </trkpt>
      <trkpt lat="46.0462" lon="4.49903">
        <ele>445</ele>
        <time>2019-06-28T17:05:03Z</time>
      </trkpt>
      <trkpt lat="46.04611" lon="4.4974">
        <ele>427</ele>
        <time>2019-06-28T17:05:29Z</time>
      </trkpt>
      <trkpt lat="46.04622" lon="4.49717">
        <ele>423</ele>
        <time>2019-06-28T17:05:34Z</time>
      </trkpt>
      <trkpt lat="46.04625" lon="4.49702">
        <ele>421</ele>
        <time>2019-06-28T17:05:36Z</time>
      </trkpt>
      <trkpt lat="46.04612" lon="4.49665">
        <ele>421</ele>
        <time>2019-06-28T17:05:43Z</time>
      </trkpt>
      <trkpt lat="46.04605" lon="4.49628">
        <ele>418</ele>
        <time>2019-06-28T17:05:49Z</time>
      </trkpt>
      <trkpt lat="46.04579" lon="4.49572">
        <ele>417</ele>
        <time>2019-06-28T17:06:00Z</time>
      </trkpt>
      <trkpt lat="46.0456" lon="4.49499">
        <ele>418</ele>
        <time>2019-06-28T17:06:13Z</time>
      </trkpt>
      <trkpt lat="46.04555" lon="4.4945">
        <ele>418</ele>
        <time>2019-06-28T17:06:21Z</time>
      </trkpt>
      <trkpt lat="46.04555" lon="4.49414">
        <ele>416</ele>
        <time>2019-06-28T17:06:27Z</time>
      </trkpt>
      <trkpt lat="46.04562" lon="4.49349">
        <ele>405</ele>
        <time>2019-06-28T17:06:37Z</time>
      </trkpt>
      <trkpt lat="46.0456" lon="4.49325">
        <ele>403</ele>
        <time>2019-06-28T17:06:41Z</time>
      </trkpt>
      <trkpt lat="46.04551" lon="4.49296">
        <ele>401</ele>
        <time>2019-06-28T17:06:46Z</time>
      </trkpt>
      <trkpt lat="46.04538" lon="4.49275">
        <ele>400</ele>
        <time>2019-06-28T17:06:51Z</time>
      </trkpt>
      <trkpt lat="46.04488" lon="4.49227">
        <ele>396</ele>
        <time>2019-06-28T17:07:05Z</time>
      </trkpt>
      <trkpt lat="46.04452" lon="4.492">
        <ele>396</ele>
        <time>2019-06-28T17:07:15Z</time>
      </trkpt>
      <trkpt lat="46.04441" lon="4.49195">
        <ele>397</ele>
        <time>2019-06-28T17:07:17Z</time>
      </trkpt>
      <trkpt lat="46.04426" lon="4.49179">
        <ele>395</ele>
        <time>2019-06-28T17:07:22Z</time>
      </trkpt>
      <trkpt lat="46.04416" lon="4.49174">
        <ele>395</ele>
        <time>2019-06-28T17:07:24Z</time>
      </trkpt>
      <trkpt lat="46.04394" lon="4.49157">
        <ele>392</ele>
        <time>2019-06-28T17:07:30Z</time>
      </trkpt>
      <trkpt lat="46.04369" lon="4.49117">
        <ele>383</ele>
        <time>2019-06-28T17:07:39Z</time>
      </trkpt>
      <trkpt lat="46.04349" lon="4.49112">
        <ele>382</ele>
        <time>2019-06-28T17:07:43Z</time>
      </trkpt>
      <trkpt lat="46.04315" lon="4.49119">
        <ele>381</ele>
        <time>2019-06-28T17:07:51Z</time>
      </trkpt>
      <trkpt lat="46.04294" lon="4.49128">
        <ele>382</ele>
        <time>2019-06-28T17:07:56Z</time>
      </trkpt>
      <trkpt lat="46.04234" lon="4.49165">
        <ele>384</ele>
        <time>2019-06-28T17:08:12Z</time>
      </trkpt>
      <trkpt lat="46.04141" lon="4.49161">
        <ele>372</ele>
        <time>2019-06-28T17:08:33Z</time>
      </trkpt>
      <trkpt lat="46.04121" lon="4.49166">
        <ele>371</ele>
        <time>2019-06-28T17:08:38Z</time>
      </trkpt>
      <trkpt lat="46.04117" lon="4.49163">
        <ele>370</ele>
        <time>2019-06-28T17:08:39Z</time>
      </trkpt>
      <trkpt lat="46.04108" lon="4.49141">
        <ele>367</ele>
        <time>2019-06-28T17:08:43Z</time>
      </trkpt>
      <trkpt lat="46.04099" lon="4.49135">
        <ele>366</ele>
        <time>2019-06-28T17:08:46Z</time>
      </trkpt>
      <trkpt lat="46.04083" lon="4.49134">
        <ele>365</ele>
        <time>2019-06-28T17:08:49Z</time>
      </trkpt>
      <trkpt lat="46.04064" lon="4.4914">
        <ele>364</ele>
        <time>2019-06-28T17:08:54Z</time>
      </trkpt>
      <trkpt lat="46.04056" lon="4.49117">
        <ele>361</ele>
        <time>2019-06-28T17:08:58Z</time>
      </trkpt>
      <trkpt lat="46.04043" lon="4.49124">
        <ele>361</ele>
        <time>2019-06-28T17:09:01Z</time>
      </trkpt>
      <trkpt lat="46.04028" lon="4.49127">
        <ele>360</ele>
        <time>2019-06-28T17:09:05Z</time>
      </trkpt>
      <trkpt lat="46.04007" lon="4.4912">
        <ele>358</ele>
        <time>2019-06-28T17:09:10Z</time>
      </trkpt>
      <trkpt lat="46.03997" lon="4.49112">
        <ele>357</ele>
        <time>2019-06-28T17:09:13Z</time>
      </trkpt>
      <trkpt lat="46.0398" lon="4.49105">
        <ele>357</ele>
        <time>2019-06-28T17:09:17Z</time>
      </trkpt>
      <trkpt lat="46.03955" lon="4.49101">
        <ele>357</ele>
        <time>2019-06-28T17:09:23Z</time>
      </trkpt>
      <trkpt lat="46.03942" lon="4.49095">
        <ele>356</ele>
        <time>2019-06-28T17:09:26Z</time>
      </trkpt>
      <trkpt lat="46.03933" lon="4.49072">
        <ele>356</ele>
        <time>2019-06-28T17:09:30Z</time>
      </trkpt>
      <trkpt lat="46.03926" lon="4.49021">
        <ele>358</ele>
        <time>2019-06-28T17:09:39Z</time>
      </trkpt>
      <trkpt lat="46.03915" lon="4.48998">
        <ele>360</ele>
        <time>2019-06-28T17:09:43Z</time>
      </trkpt>
      <trkpt lat="46.03906" lon="4.48987">
        <ele>363</ele>
        <time>2019-06-28T17:09:46Z</time>
      </trkpt>
      <trkpt lat="46.03884" lon="4.48984">
        <ele>367</ele>
        <time>2019-06-28T17:09:51Z</time>
      </trkpt>
      <trkpt lat="46.03884" lon="4.48971">
        <ele>370</ele>
        <time>2019-06-28T17:09:53Z</time>
      </trkpt>
      <trkpt lat="46.03876" lon="4.48967">
        <ele>372</ele>
        <time>2019-06-28T17:09:55Z</time>
      </trkpt>
      <trkpt lat="46.03849" lon="4.48974">
        <ele>374</ele>
        <time>2019-06-28T17:10:01Z</time>
      </trkpt>
      <trkpt lat="46.03836" lon="4.48981">
        <ele>374</ele>
        <time>2019-06-28T17:10:05Z</time>
      </trkpt>
      <trkpt lat="46.03821" lon="4.48993">
        <ele>373</ele>
        <time>2019-06-28T17:10:09Z</time>
      </trkpt>
      <trkpt lat="46.03794" lon="4.49007">
        <ele>373</ele>
        <time>2019-06-28T17:10:15Z</time>
      </trkpt>
      <trkpt lat="46.03732" lon="4.49">
        <ele>380</ele>
        <time>2019-06-28T17:10:30Z</time>
      </trkpt>
      <trkpt lat="46.03725" lon="4.48993">
        <ele>381</ele>
        <time>2019-06-28T17:10:32Z</time>
      </trkpt>
      <trkpt lat="46.0373" lon="4.48959">
        <ele>385</ele>
        <time>2019-06-28T17:10:38Z</time>
      </trkpt>
      <trkpt lat="46.03722" lon="4.489">
        <ele>392</ele>
        <time>2019-06-28T17:10:47Z</time>
      </trkpt>
      <trkpt lat="46.0375" lon="4.48698">
        <ele>415</ele>
        <time>2019-06-28T17:11:21Z</time>
      </trkpt>
      <trkpt lat="46.03774" lon="4.48608">
        <ele>426</ele>
        <time>2019-06-28T17:11:36Z</time>
      </trkpt>
      <trkpt lat="46.0378" lon="4.48577">
        <ele>430</ele>
        <time>2019-06-28T17:11:42Z</time>
      </trkpt>
      <trkpt lat="46.03784" lon="4.48527">
        <ele>436</ele>
        <time>2019-06-28T17:11:50Z</time>
      </trkpt>
      <trkpt lat="46.03795" lon="4.48495">
        <ele>439</ele>
        <time>2019-06-28T17:11:55Z</time>
      </trkpt>
      <trkpt lat="46.03803" lon="4.48478">
        <ele>441</ele>
        <time>2019-06-28T17:11:59Z</time>
      </trkpt>
      <trkpt lat="46.03808" lon="4.48473">
        <ele>442</ele>
        <time>2019-06-28T17:12:00Z</time>
      </trkpt>
      <trkpt lat="46.03809" lon="4.48464">
        <ele>443</ele>
        <time>2019-06-28T17:12:02Z</time>
      </trkpt>
      <trkpt lat="46.038" lon="4.48464">
        <ele>443</ele>
        <time>2019-06-28T17:12:04Z</time>
      </trkpt>
      <trkpt lat="46.03799" lon="4.48395">
        <ele>452</ele>
        <time>2019-06-28T17:12:15Z</time>
      </trkpt>
      <trkpt lat="46.03796" lon="4.48373">
        <ele>452</ele>
        <time>2019-06-28T17:12:19Z</time>
      </trkpt>
      <trkpt lat="46.03768" lon="4.48246">
        <ele>464</ele>
        <time>2019-06-28T17:12:40Z</time>
      </trkpt>
      <trkpt lat="46.03749" lon="4.48186">
        <ele>467</ele>
        <time>2019-06-28T17:12:51Z</time>
      </trkpt>
      <trkpt lat="46.0374" lon="4.48148">
        <ele>467</ele>
        <time>2019-06-28T17:12:57Z</time>
      </trkpt>
      <trkpt lat="46.03739" lon="4.48106">
        <ele>466</ele>
        <time>2019-06-28T17:13:04Z</time>
      </trkpt>
      <trkpt lat="46.03749" lon="4.48066">
        <ele>466</ele>
        <time>2019-06-28T17:13:11Z</time>
      </trkpt>
      <trkpt lat="46.038" lon="4.47951">
        <ele>457</ele>
        <time>2019-06-28T17:13:33Z</time>
      </trkpt>
      <trkpt lat="46.03808" lon="4.47937">
        <ele>456</ele>
        <time>2019-06-28T17:13:36Z</time>
      </trkpt>
      <trkpt lat="46.03851" lon="4.479">
        <ele>456</ele>
        <time>2019-06-28T17:13:48Z</time>
      </trkpt>
      <trkpt lat="46.03849" lon="4.47896">
        <ele>455</ele>
        <time>2019-06-28T17:13:49Z</time>
      </trkpt>
      <trkpt lat="46.03852" lon="4.47891">
        <ele>455</ele>
        <time>2019-06-28T17:13:50Z</time>
      </trkpt>
      <trkpt lat="46.03873" lon="4.47875">
        <ele>457</ele>
        <time>2019-06-28T17:13:55Z</time>
      </trkpt>
      <trkpt lat="46.03882" lon="4.47863">
        <ele>457</ele>
        <time>2019-06-28T17:13:58Z</time>
      </trkpt>
      <trkpt lat="46.0389" lon="4.47857">
        <ele>458</ele>
        <time>2019-06-28T17:14:00Z</time>
      </trkpt>
      <trkpt lat="46.03898" lon="4.47835">
        <ele>456</ele>
        <time>2019-06-28T17:14:04Z</time>
      </trkpt>
      <trkpt lat="46.03899" lon="4.4782">
        <ele>457</ele>
        <time>2019-06-28T17:14:07Z</time>
      </trkpt>
      <trkpt lat="46.03892" lon="4.47797">
        <ele>458</ele>
        <time>2019-06-28T17:14:11Z</time>
      </trkpt>
      <trkpt lat="46.03874" lon="4.4778">
        <ele>458</ele>
        <time>2019-06-28T17:14:16Z</time>
      </trkpt>
      <trkpt lat="46.03846" lon="4.47744">
        <ele>459</ele>
        <time>2019-06-28T17:14:25Z</time>
      </trkpt>
      <trkpt lat="46.03806" lon="4.47673">
        <ele>467</ele>
        <time>2019-06-28T17:14:39Z</time>
      </trkpt>
      <trkpt lat="46.03785" lon="4.47618">
        <ele>470</ele>
        <time>2019-06-28T17:14:50Z</time>
      </trkpt>
      <trkpt lat="46.0379" lon="4.47605">
        <ele>472</ele>
        <time>2019-06-28T17:14:52Z</time>
      </trkpt>
      <trkpt lat="46.03784" lon="4.47575">
        <ele>472</ele>
        <time>2019-06-28T17:14:57Z</time>
      </trkpt>
      <trkpt lat="46.03777" lon="4.47576">
        <ele>471</ele>
        <time>2019-06-28T17:14:59Z</time>
      </trkpt>
      <trkpt lat="46.03755" lon="4.47567">
        <ele>468</ele>
        <time>2019-06-28T17:15:04Z</time>
      </trkpt>
      <trkpt lat="46.03704" lon="4.47505">
        <ele>456</ele>
        <time>2019-06-28T17:15:20Z</time>
      </trkpt>
      <trkpt lat="46.0365" lon="4.47448">
        <ele>442</ele>
        <time>2019-06-28T17:15:35Z</time>
      </trkpt>
      <trkpt lat="46.03613" lon="4.47405">
        <ele>435</ele>
        <time>2019-06-28T17:15:46Z</time>
      </trkpt>
      <trkpt lat="46.0359" lon="4.47391">
        <ele>432</ele>
        <time>2019-06-28T17:15:52Z</time>
      </trkpt>
      <trkpt lat="46.03574" lon="4.47375">
        <ele>428</ele>
        <time>2019-06-28T17:15:57Z</time>
      </trkpt>
      <trkpt lat="46.03576" lon="4.47327">
        <ele>427</ele>
        <time>2019-06-28T17:16:05Z</time>
      </trkpt>
      <trkpt lat="46.03596" lon="4.47175">
        <ele>425</ele>
        <time>2019-06-28T17:16:30Z</time>
      </trkpt>
      <trkpt lat="46.03598" lon="4.47153">
        <ele>426</ele>
        <time>2019-06-28T17:16:33Z</time>
      </trkpt>
      <trkpt lat="46.03596" lon="4.47133">
        <ele>426</ele>
        <time>2019-06-28T17:16:37Z</time>
      </trkpt>
      <trkpt lat="46.03553" lon="4.47019">
        <ele>418</ele>
        <time>2019-06-28T17:16:58Z</time>
      </trkpt>
      <trkpt lat="46.0352" lon="4.46851">
        <ele>414</ele>
        <time>2019-06-28T17:17:26Z</time>
      </trkpt>
      <trkpt lat="46.03515" lon="4.46807">
        <ele>413</ele>
        <time>2019-06-28T17:17:33Z</time>
      </trkpt>
      <trkpt lat="46.03512" lon="4.46736">
        <ele>411</ele>
        <time>2019-06-28T17:17:45Z</time>
      </trkpt>
      <trkpt lat="46.035" lon="4.46705">
        <ele>407</ele>
        <time>2019-06-28T17:17:50Z</time>
      </trkpt>
      <trkpt lat="46.03497" lon="4.46691">
        <ele>408</ele>
        <time>2019-06-28T17:17:53Z</time>
      </trkpt>
      <trkpt lat="46.03455" lon="4.46652">
        <ele>414</ele>
        <time>2019-06-28T17:18:04Z</time>
      </trkpt>
      <trkpt lat="46.03445" lon="4.46651">
        <ele>416</ele>
        <time>2019-06-28T17:18:07Z</time>
      </trkpt>
      <trkpt lat="46.03436" lon="4.46657">
        <ele>417</ele>
        <time>2019-06-28T17:18:09Z</time>
      </trkpt>
      <trkpt lat="46.03419" lon="4.46684">
        <ele>419</ele>
        <time>2019-06-28T17:18:15Z</time>
      </trkpt>
      <trkpt lat="46.03414" lon="4.46685">
        <ele>420</ele>
        <time>2019-06-28T17:18:16Z</time>
      </trkpt>
      <trkpt lat="46.03391" lon="4.46634">
        <ele>426</ele>
        <time>2019-06-28T17:18:26Z</time>
      </trkpt>
      <trkpt lat="46.0336" lon="4.46597">
        <ele>432</ele>
        <time>2019-06-28T17:18:35Z</time>
      </trkpt>
      <trkpt lat="46.03326" lon="4.46583">
        <ele>437</ele>
        <time>2019-06-28T17:18:44Z</time>
      </trkpt>
      <trkpt lat="46.03291" lon="4.46555">
        <ele>446</ele>
        <time>2019-06-28T17:18:53Z</time>
      </trkpt>
      <trkpt lat="46.03286" lon="4.46544">
        <ele>447</ele>
        <time>2019-06-28T17:18:55Z</time>
      </trkpt>
      <trkpt lat="46.03268" lon="4.46527">
        <ele>449</ele>
        <time>2019-06-28T17:19:00Z</time>
      </trkpt>
      <trkpt lat="46.03155" lon="4.464">
        <ele>471</ele>
        <time>2019-06-28T17:19:34Z</time>
      </trkpt>
      <trkpt lat="46.03146" lon="4.4637">
        <ele>475</ele>
        <time>2019-06-28T17:19:39Z</time>
      </trkpt>
      <trkpt lat="46.03142" lon="4.46369">
        <ele>476</ele>
        <time>2019-06-28T17:19:40Z</time>
      </trkpt>
      <trkpt lat="46.03138" lon="4.46379">
        <ele>475</ele>
        <time>2019-06-28T17:19:42Z</time>
      </trkpt>
      <trkpt lat="46.03135" lon="4.46381">
        <ele>476</ele>
        <time>2019-06-28T17:19:43Z</time>
      </trkpt>
      <trkpt lat="46.03118" lon="4.46369">
        <ele>479</ele>
        <time>2019-06-28T17:19:47Z</time>
      </trkpt>
      <trkpt lat="46.03088" lon="4.46364">
        <ele>483</ele>
        <time>2019-06-28T17:19:54Z</time>
      </trkpt>
      <trkpt lat="46.03058" lon="4.46347">
        <ele>483</ele>
        <time>2019-06-28T17:20:02Z</time>
      </trkpt>
      <trkpt lat="46.03036" lon="4.46293">
        <ele>488</ele>
        <time>2019-06-28T17:20:12Z</time>
      </trkpt>
      <trkpt lat="46.03023" lon="4.46277">
        <ele>490</ele>
        <time>2019-06-28T17:20:16Z</time>
      </trkpt>
      <trkpt lat="46.03001" lon="4.46256">
        <ele>493</ele>
        <time>2019-06-28T17:20:22Z</time>
      </trkpt>
      <trkpt lat="46.02989" lon="4.46252">
        <ele>494</ele>
        <time>2019-06-28T17:20:25Z</time>
      </trkpt>
      <trkpt lat="46.02976" lon="4.46251">
        <ele>495</ele>
        <time>2019-06-28T17:20:28Z</time>
      </trkpt>
      <trkpt lat="46.02917" lon="4.46271">
        <ele>496</ele>
        <time>2019-06-28T17:20:42Z</time>
      </trkpt>
      <trkpt lat="46.0291" lon="4.4627">
        <ele>496</ele>
        <time>2019-06-28T17:20:44Z</time>
      </trkpt>
      <trkpt lat="46.029" lon="4.4626">
        <ele>497</ele>
        <time>2019-06-28T17:20:46Z</time>
      </trkpt>
      <trkpt lat="46.02896" lon="4.46249">
        <ele>498</ele>
        <time>2019-06-28T17:20:48Z</time>
      </trkpt>
      <trkpt lat="46.02899" lon="4.46222">
        <ele>503</ele>
        <time>2019-06-28T17:20:53Z</time>
      </trkpt>
      <trkpt lat="46.02913" lon="4.46205">
        <ele>506</ele>
        <time>2019-06-28T17:20:57Z</time>
      </trkpt>
      <trkpt lat="46.02914" lon="4.462">
        <ele>507</ele>
        <time>2019-06-28T17:20:58Z</time>
      </trkpt>
      <trkpt lat="46.02903" lon="4.46176">
        <ele>511</ele>
        <time>2019-06-28T17:21:03Z</time>
      </trkpt>
      <trkpt lat="46.02826" lon="4.46083">
        <ele>529</ele>
        <time>2019-06-28T17:21:26Z</time>
      </trkpt>
      <trkpt lat="46.02809" lon="4.46054">
        <ele>531</ele>
        <time>2019-06-28T17:21:32Z</time>
      </trkpt>
      <trkpt lat="46.02784" lon="4.4603">
        <ele>532</ele>
        <time>2019-06-28T17:21:39Z</time>
      </trkpt>
      <trkpt lat="46.02774" lon="4.46012">
        <ele>535</ele>
        <time>2019-06-28T17:21:43Z</time>
      </trkpt>
      <trkpt lat="46.02762" lon="4.46003">
        <ele>536</ele>
        <time>2019-06-28T17:21:46Z</time>
      </trkpt>
      <trkpt lat="46.02735" lon="4.45991">
        <ele>536</ele>
        <time>2019-06-28T17:21:53Z</time>
      </trkpt>
      <trkpt lat="46.02725" lon="4.45981">
        <ele>537</ele>
        <time>2019-06-28T17:21:56Z</time>
      </trkpt>
      <trkpt lat="46.02642" lon="4.4586">
        <ele>556</ele>
        <time>2019-06-28T17:22:23Z</time>
      </trkpt>
      <trkpt lat="46.02623" lon="4.45848">
        <ele>558</ele>
        <time>2019-06-28T17:22:28Z</time>
      </trkpt>
      <trkpt lat="46.02598" lon="4.45841">
        <ele>559</ele>
        <time>2019-06-28T17:22:34Z</time>
      </trkpt>
      <trkpt lat="46.02595" lon="4.45838">
        <ele>560</ele>
        <time>2019-06-28T17:22:35Z</time>
      </trkpt>
      <trkpt lat="46.02592" lon="4.45823">
        <ele>563</ele>
        <time>2019-06-28T17:22:37Z</time>
      </trkpt>
      <trkpt lat="46.02567" lon="4.45797">
        <ele>569</ele>
        <time>2019-06-28T17:22:45Z</time>
      </trkpt>
      <trkpt lat="46.02556" lon="4.4579">
        <ele>570</ele>
        <time>2019-06-28T17:22:47Z</time>
      </trkpt>
      <trkpt lat="46.02524" lon="4.45747">
        <ele>579</ele>
        <time>2019-06-28T17:22:58Z</time>
      </trkpt>
      <trkpt lat="46.02501" lon="4.45724">
        <ele>582</ele>
        <time>2019-06-28T17:23:04Z</time>
      </trkpt>
      <trkpt lat="46.02442" lon="4.45705">
        <ele>589</ele>
        <time>2019-06-28T17:23:18Z</time>
      </trkpt>
      <trkpt lat="46.02384" lon="4.45705">
        <ele>594</ele>
        <time>2019-06-28T17:23:32Z</time>
      </trkpt>
      <trkpt lat="46.02354" lon="4.45701">
        <ele>598</ele>
        <time>2019-06-28T17:23:39Z</time>
      </trkpt>
      <trkpt lat="46.02347" lon="4.45698">
        <ele>600</ele>
        <time>2019-06-28T17:23:41Z</time>
      </trkpt>
      <trkpt lat="46.02346" lon="4.45676">
        <ele>602</ele>
        <time>2019-06-28T17:23:44Z</time>
      </trkpt>
      <trkpt lat="46.02348" lon="4.45661">
        <ele>604</ele>
        <time>2019-06-28T17:23:47Z</time>
      </trkpt>
      <trkpt lat="46.02356" lon="4.45636">
        <ele>607</ele>
        <time>2019-06-28T17:23:51Z</time>
      </trkpt>
      <trkpt lat="46.02367" lon="4.45619">
        <ele>609</ele>
        <time>2019-06-28T17:23:55Z</time>
      </trkpt>
      <trkpt lat="46.02385" lon="4.45579">
        <ele>615</ele>
        <time>2019-06-28T17:24:03Z</time>
      </trkpt>
      <trkpt lat="46.02393" lon="4.455">
        <ele>625</ele>
        <time>2019-06-28T17:24:16Z</time>
      </trkpt>
      <trkpt lat="46.02389" lon="4.45496">
        <ele>625</ele>
        <time>2019-06-28T17:24:17Z</time>
      </trkpt>
      <trkpt lat="46.02405" lon="4.45476">
        <ele>625</ele>
        <time>2019-06-28T17:24:22Z</time>
      </trkpt>
      <trkpt lat="46.02415" lon="4.45454">
        <ele>624</ele>
        <time>2019-06-28T17:24:26Z</time>
      </trkpt>
      <trkpt lat="46.02421" lon="4.45433">
        <ele>623</ele>
        <time>2019-06-28T17:24:30Z</time>
      </trkpt>
      <trkpt lat="46.02424" lon="4.45407">
        <ele>623</ele>
        <time>2019-06-28T17:24:34Z</time>
      </trkpt>
      <trkpt lat="46.02423" lon="4.4536">
        <ele>624</ele>
        <time>2019-06-28T17:24:41Z</time>
      </trkpt>
      <trkpt lat="46.02416" lon="4.4533">
        <ele>625</ele>
        <time>2019-06-28T17:24:47Z</time>
      </trkpt>
      <trkpt lat="46.02402" lon="4.45306">
        <ele>625</ele>
        <time>2019-06-28T17:24:52Z</time>
      </trkpt>
      <trkpt lat="46.02396" lon="4.45288">
        <ele>624</ele>
        <time>2019-06-28T17:24:55Z</time>
      </trkpt>
      <trkpt lat="46.02366" lon="4.45253">
        <ele>626</ele>
        <time>2019-06-28T17:25:04Z</time>
      </trkpt>
      <trkpt lat="46.02347" lon="4.45235">
        <ele>626</ele>
        <time>2019-06-28T17:25:09Z</time>
      </trkpt>
      <trkpt lat="46.02289" lon="4.45189">
        <ele>627</ele>
        <time>2019-06-28T17:25:25Z</time>
      </trkpt>
      <trkpt lat="46.02225" lon="4.45116">
        <ele>621</ele>
        <time>2019-06-28T17:25:44Z</time>
      </trkpt>
      <trkpt lat="46.02206" lon="4.45102">
        <ele>620</ele>
        <time>2019-06-28T17:25:49Z</time>
      </trkpt>
      <trkpt lat="46.02165" lon="4.45061">
        <ele>622</ele>
        <time>2019-06-28T17:26:00Z</time>
      </trkpt>
      <trkpt lat="46.02134" lon="4.45022">
        <ele>626</ele>
        <time>2019-06-28T17:26:10Z</time>
      </trkpt>
      <trkpt lat="46.02116" lon="4.44984">
        <ele>628</ele>
        <time>2019-06-28T17:26:17Z</time>
      </trkpt>
      <trkpt lat="46.02103" lon="4.44926">
        <ele>630</ele>
        <time>2019-06-28T17:26:27Z</time>
      </trkpt>
      <trkpt lat="46.02104" lon="4.44907">
        <ele>630</ele>
        <time>2019-06-28T17:26:30Z</time>
      </trkpt>
      <trkpt lat="46.02112" lon="4.44893">
        <ele>629</ele>
        <time>2019-06-28T17:26:33Z</time>
      </trkpt>
      <trkpt lat="46.0214" lon="4.44863">
        <ele>622</ele>
        <time>2019-06-28T17:26:42Z</time>
      </trkpt>
      <trkpt lat="46.02146" lon="4.4485">
        <ele>621</ele>
        <time>2019-06-28T17:26:44Z</time>
      </trkpt>
      <trkpt lat="46.02144" lon="4.44821">
        <ele>619</ele>
        <time>2019-06-28T17:26:49Z</time>
      </trkpt>
      <trkpt lat="46.02115" lon="4.4473">
        <ele>617</ele>
        <time>2019-06-28T17:27:05Z</time>
      </trkpt>
      <trkpt lat="46.02049" lon="4.44588">
        <ele>613</ele>
        <time>2019-06-28T17:27:33Z</time>
      </trkpt>
      <trkpt lat="46.02026" lon="4.4453">
        <ele>613</ele>
        <time>2019-06-28T17:27:44Z</time>
      </trkpt>
      <trkpt lat="46.02019" lon="4.44502">
        <ele>612</ele>
        <time>2019-06-28T17:27:48Z</time>
      </trkpt>
      <trkpt lat="46.02014" lon="4.44454">
        <ele>606</ele>
        <time>2019-06-28T17:27:56Z</time>
      </trkpt>
      <trkpt lat="46.02016" lon="4.44424">
        <ele>601</ele>
        <time>2019-06-28T17:28:01Z</time>
      </trkpt>
      <trkpt lat="46.02014" lon="4.44388">
        <ele>597</ele>
        <time>2019-06-28T17:28:07Z</time>
      </trkpt>
      <trkpt lat="46.02015" lon="4.44345">
        <ele>591</ele>
        <time>2019-06-28T17:28:14Z</time>
      </trkpt>
      <trkpt lat="46.02012" lon="4.44281">
        <ele>585</ele>
        <time>2019-06-28T17:28:24Z</time>
      </trkpt>
      <trkpt lat="46.02009" lon="4.44261">
        <ele>584</ele>
        <time>2019-06-28T17:28:28Z</time>
      </trkpt>
      <trkpt lat="46.0201" lon="4.44151">
        <ele>584</ele>
        <time>2019-06-28T17:28:46Z</time>
      </trkpt>
      <trkpt lat="46.02006" lon="4.4414">
        <ele>584</ele>
        <time>2019-06-28T17:28:48Z</time>
      </trkpt>
      <trkpt lat="46.01998" lon="4.44131">
        <ele>584</ele>
        <time>2019-06-28T17:28:50Z</time>
      </trkpt>
      <trkpt lat="46.01996" lon="4.44111">
        <ele>584</ele>
        <time>2019-06-28T17:28:53Z</time>
      </trkpt>
      <trkpt lat="46.01973" lon="4.44099">
        <ele>588</ele>
        <time>2019-06-28T17:28:59Z</time>
      </trkpt>
      <trkpt lat="46.01952" lon="4.44071">
        <ele>590</ele>
        <time>2019-06-28T17:29:06Z</time>
      </trkpt>
      <trkpt lat="46.01926" lon="4.44063">
        <ele>593</ele>
        <time>2019-06-28T17:29:12Z</time>
      </trkpt>
      <trkpt lat="46.01906" lon="4.44054">
        <ele>595</ele>
        <time>2019-06-28T17:29:17Z</time>
      </trkpt>
      <trkpt lat="46.01868" lon="4.4403">
        <ele>602</ele>
        <time>2019-06-28T17:29:26Z</time>
      </trkpt>
      <trkpt lat="46.01827" lon="4.44011">
        <ele>609</ele>
        <time>2019-06-28T17:29:36Z</time>
      </trkpt>
      <trkpt lat="46.01779" lon="4.4398">
        <ele>621</ele>
        <time>2019-06-28T17:29:49Z</time>
      </trkpt>
      <trkpt lat="46.01715" lon="4.43944">
        <ele>635</ele>
        <time>2019-06-28T17:30:05Z</time>
      </trkpt>
      <trkpt lat="46.01687" lon="4.43939">
        <ele>638</ele>
        <time>2019-06-28T17:30:11Z</time>
      </trkpt>
      <trkpt lat="46.01673" lon="4.43928">
        <ele>640</ele>
        <time>2019-06-28T17:30:15Z</time>
      </trkpt>
      <trkpt lat="46.01659" lon="4.43925">
        <ele>641</ele>
        <time>2019-06-28T17:30:18Z</time>
      </trkpt>
      <trkpt lat="46.01649" lon="4.43932">
        <ele>642</ele>
        <time>2019-06-28T17:30:21Z</time>
      </trkpt>
      <trkpt lat="46.01657" lon="4.43995">
        <ele>640</ele>
        <time>2019-06-28T17:30:31Z</time>
      </trkpt>
      <trkpt lat="46.01648" lon="4.44041">
        <ele>638</ele>
        <time>2019-06-28T17:30:39Z</time>
      </trkpt>
      <trkpt lat="46.01634" lon="4.44073">
        <ele>637</ele>
        <time>2019-06-28T17:30:45Z</time>
      </trkpt>
      <trkpt lat="46.01613" lon="4.44112">
        <ele>636</ele>
        <time>2019-06-28T17:30:53Z</time>
      </trkpt>
      <trkpt lat="46.01602" lon="4.44083">
        <ele>637</ele>
        <time>2019-06-28T17:30:59Z</time>
      </trkpt>
      <trkpt lat="46.01584" lon="4.44056">
        <ele>639</ele>
        <time>2019-06-28T17:31:05Z</time>
      </trkpt>
      <trkpt lat="46.01565" lon="4.44011">
        <ele>643</ele>
        <time>2019-06-28T17:31:13Z</time>
      </trkpt>
      <trkpt lat="46.01554" lon="4.43968">
        <ele>648</ele>
        <time>2019-06-28T17:31:21Z</time>
      </trkpt>
      <trkpt lat="46.01545" lon="4.43953">
        <ele>651</ele>
        <time>2019-06-28T17:31:24Z</time>
      </trkpt>
      <trkpt lat="46.01527" lon="4.43942">
        <ele>655</ele>
        <time>2019-06-28T17:31:28Z</time>
      </trkpt>
      <trkpt lat="46.01507" lon="4.43946">
        <ele>657</ele>
        <time>2019-06-28T17:31:33Z</time>
      </trkpt>
      <trkpt lat="46.01466" lon="4.43937">
        <ele>664</ele>
        <time>2019-06-28T17:31:43Z</time>
      </trkpt>
      <trkpt lat="46.01454" lon="4.43928">
        <ele>668</ele>
        <time>2019-06-28T17:31:46Z</time>
      </trkpt>
      <trkpt lat="46.01442" lon="4.43907">
        <ele>672</ele>
        <time>2019-06-28T17:31:50Z</time>
      </trkpt>
      <trkpt lat="46.01435" lon="4.43865">
        <ele>676</ele>
        <time>2019-06-28T17:31:57Z</time>
      </trkpt>
      <trkpt lat="46.01432" lon="4.43812">
        <ele>680</ele>
        <time>2019-06-28T17:32:06Z</time>
      </trkpt>
      <trkpt lat="46.01447" lon="4.43766">
        <ele>682</ele>
        <time>2019-06-28T17:32:14Z</time>
      </trkpt>
      <trkpt lat="46.01441" lon="4.43756">
        <ele>684</ele>
        <time>2019-06-28T17:32:16Z</time>
      </trkpt>
      <trkpt lat="46.01438" lon="4.43725">
        <ele>687</ele>
        <time>2019-06-28T17:32:22Z</time>
      </trkpt>
      <trkpt lat="46.0143" lon="4.43694">
        <ele>690</ele>
        <time>2019-06-28T17:32:27Z</time>
      </trkpt>
      <trkpt lat="46.01421" lon="4.43627">
        <ele>696</ele>
        <time>2019-06-28T17:32:38Z</time>
      </trkpt>
      <trkpt lat="46.01429" lon="4.43588">
        <ele>701</ele>
        <time>2019-06-28T17:32:45Z</time>
      </trkpt>
      <trkpt lat="46.01427" lon="4.43553">
        <ele>702</ele>
        <time>2019-06-28T17:32:50Z</time>
      </trkpt>
      <trkpt lat="46.01433" lon="4.43482">
        <ele>706</ele>
        <time>2019-06-28T17:33:02Z</time>
      </trkpt>
      <trkpt lat="46.01448" lon="4.43424">
        <ele>712</ele>
        <time>2019-06-28T17:33:12Z</time>
      </trkpt>
      <trkpt lat="46.01461" lon="4.43384">
        <ele>717</ele>
        <time>2019-06-28T17:33:19Z</time>
      </trkpt>
      <trkpt lat="46.01462" lon="4.4334">
        <ele>720</ele>
        <time>2019-06-28T17:33:26Z</time>
      </trkpt>
      <trkpt lat="46.01472" lon="4.43319">
        <ele>724</ele>
        <time>2019-06-28T17:33:30Z</time>
      </trkpt>
      <trkpt lat="46.01482" lon="4.43276">
        <ele>730</ele>
        <time>2019-06-28T17:33:38Z</time>
      </trkpt>
      <trkpt lat="46.01492" lon="4.43251">
        <ele>734</ele>
        <time>2019-06-28T17:33:42Z</time>
      </trkpt>
      <trkpt lat="46.01497" lon="4.43225">
        <ele>736</ele>
        <time>2019-06-28T17:33:47Z</time>
      </trkpt>
      <trkpt lat="46.0152" lon="4.43169">
        <ele>738</ele>
        <time>2019-06-28T17:33:57Z</time>
      </trkpt>
      <trkpt lat="46.01522" lon="4.4311">
        <ele>745</ele>
        <time>2019-06-28T17:34:07Z</time>
      </trkpt>
      <trkpt lat="46.0158" lon="4.43023">
        <ele>751</ele>
        <time>2019-06-28T17:34:26Z</time>
      </trkpt>
      <trkpt lat="46.01665" lon="4.42955">
        <ele>754</ele>
        <time>2019-06-28T17:34:49Z</time>
      </trkpt>
      <trkpt lat="46.01709" lon="4.42904">
        <ele>759</ele>
        <time>2019-06-28T17:35:02Z</time>
      </trkpt>
      <trkpt lat="46.01739" lon="4.42858">
        <ele>764</ele>
        <time>2019-06-28T17:35:13Z</time>
      </trkpt>
      <trkpt lat="46.0175" lon="4.42822">
        <ele>768</ele>
        <time>2019-06-28T17:35:19Z</time>
      </trkpt>
      <trkpt lat="46.01772" lon="4.42784">
        <ele>769</ele>
        <time>2019-06-28T17:35:27Z</time>
      </trkpt>
      <trkpt lat="46.01779" lon="4.4271">
        <ele>771</ele>
        <time>2019-06-28T17:35:39Z</time>
      </trkpt>
      <trkpt lat="46.01793" lon="4.42675">
        <ele>769</ele>
        <time>2019-06-28T17:35:46Z</time>
      </trkpt>
      <trkpt lat="46.01833" lon="4.42605">
        <ele>758</ele>
        <time>2019-06-28T17:36:00Z</time>
      </trkpt>
      <trkpt lat="46.01846" lon="4.4259">
        <ele>756</ele>
        <time>2019-06-28T17:36:04Z</time>
      </trkpt>
      <trkpt lat="46.01863" lon="4.42561">
        <ele>755</ele>
        <time>2019-06-28T17:36:10Z</time>
      </trkpt>
      <trkpt lat="46.01879" lon="4.42514">
        <ele>755</ele>
        <time>2019-06-28T17:36:19Z</time>
      </trkpt>
      <trkpt lat="46.01889" lon="4.42474">
        <ele>756</ele>
        <time>2019-06-28T17:36:26Z</time>
      </trkpt>
      <trkpt lat="46.01891" lon="4.42439">
        <ele>756</ele>
        <time>2019-06-28T17:36:31Z</time>
      </trkpt>
      <trkpt lat="46.01896" lon="4.42415">
        <ele>756</ele>
        <time>2019-06-28T17:36:35Z</time>
      </trkpt>
      <trkpt lat="46.01898" lon="4.42361">
        <ele>754</ele>
        <time>2019-06-28T17:36:44Z</time>
      </trkpt>
      <trkpt lat="46.01895" lon="4.42337">
        <ele>752</ele>
        <time>2019-06-28T17:36:48Z</time>
      </trkpt>
      <trkpt lat="46.01889" lon="4.42316">
        <ele>751</ele>
        <time>2019-06-28T17:36:52Z</time>
      </trkpt>
      <trkpt lat="46.01874" lon="4.42141">
        <ele>749</ele>
        <time>2019-06-28T17:37:20Z</time>
      </trkpt>
      <trkpt lat="46.0188" lon="4.42074">
        <ele>747</ele>
        <time>2019-06-28T17:37:31Z</time>
      </trkpt>
      <trkpt lat="46.01904" lon="4.42007">
        <ele>748</ele>
        <time>2019-06-28T17:37:44Z</time>
      </trkpt>
      <trkpt lat="46.01932" lon="4.41962">
        <ele>746</ele>
        <time>2019-06-28T17:37:53Z</time>
      </trkpt>
      <trkpt lat="46.02003" lon="4.41867">
        <ele>733</ele>
        <time>2019-06-28T17:38:16Z</time>
      </trkpt>
      <trkpt lat="46.02045" lon="4.41838">
        <ele>728</ele>
        <time>2019-06-28T17:38:27Z</time>
      </trkpt>
      <trkpt lat="46.0205" lon="4.41783">
        <ele>724</ele>
        <time>2019-06-28T17:38:36Z</time>
      </trkpt>
      <trkpt lat="46.02037" lon="4.41699">
        <ele>721</ele>
        <time>2019-06-28T17:38:50Z</time>
      </trkpt>
      <trkpt lat="46.02034" lon="4.41623">
        <ele>728</ele>
        <time>2019-06-28T17:39:02Z</time>
      </trkpt>
      <trkpt lat="46.02037" lon="4.41597">
        <ele>732</ele>
        <time>2019-06-28T17:39:07Z</time>
      </trkpt>
      <trkpt lat="46.02037" lon="4.41563">
        <ele>736</ele>
        <time>2019-06-28T17:39:12Z</time>
      </trkpt>
      <trkpt lat="46.02026" lon="4.41512">
        <ele>741</ele>
        <time>2019-06-28T17:39:21Z</time>
      </trkpt>
      <trkpt lat="46.02014" lon="4.41484">
        <ele>740</ele>
        <time>2019-06-28T17:39:26Z</time>
      </trkpt>
      <trkpt lat="46.01998" lon="4.41457">
        <ele>738</ele>
        <time>2019-06-28T17:39:32Z</time>
      </trkpt>
      <trkpt lat="46.01967" lon="4.41388">
        <ele>729</ele>
        <time>2019-06-28T17:39:45Z</time>
      </trkpt>
      <trkpt lat="46.01951" lon="4.41341">
        <ele>727</ele>
        <time>2019-06-28T17:39:54Z</time>
      </trkpt>
      <trkpt lat="46.01935" lon="4.41282">
        <ele>721</ele>
        <time>2019-06-28T17:40:04Z</time>
      </trkpt>
      <trkpt lat="46.01925" lon="4.41272">
        <ele>719</ele>
        <time>2019-06-28T17:40:07Z</time>
      </trkpt>
      <trkpt lat="46.01916" lon="4.41267">
        <ele>718</ele>
        <time>2019-06-28T17:40:09Z</time>
      </trkpt>
      <trkpt lat="46.01902" lon="4.41266">
        <ele>714</ele>
        <time>2019-06-28T17:40:12Z</time>
      </trkpt>
      <trkpt lat="46.01835" lon="4.41197">
        <ele>697</ele>
        <time>2019-06-28T17:40:32Z</time>
      </trkpt>
      <trkpt lat="46.0181" lon="4.41124">
        <ele>692</ele>
        <time>2019-06-28T17:40:45Z</time>
      </trkpt>
      <trkpt lat="46.01791" lon="4.41083">
        <ele>688</ele>
        <time>2019-06-28T17:40:53Z</time>
      </trkpt>
      <trkpt lat="46.01781" lon="4.41085">
        <ele>687</ele>
        <time>2019-06-28T17:40:55Z</time>
      </trkpt>
      <trkpt lat="46.01768" lon="4.41068">
        <ele>684</ele>
        <time>2019-06-28T17:40:59Z</time>
      </trkpt>
      <trkpt lat="46.0174" lon="4.40978">
        <ele>684</ele>
        <time>2019-06-28T17:41:15Z</time>
      </trkpt>
      <trkpt lat="46.01694" lon="4.40864">
        <ele>689</ele>
        <time>2019-06-28T17:41:37Z</time>
      </trkpt>
      <trkpt lat="46.01673" lon="4.40839">
        <ele>691</ele>
        <time>2019-06-28T17:41:43Z</time>
      </trkpt>
      <trkpt lat="46.01659" lon="4.40817">
        <ele>691</ele>
        <time>2019-06-28T17:41:48Z</time>
      </trkpt>
      <trkpt lat="46.01629" lon="4.40723">
        <ele>689</ele>
        <time>2019-06-28T17:42:05Z</time>
      </trkpt>
      <trkpt lat="46.01616" lon="4.40673">
        <ele>687</ele>
        <time>2019-06-28T17:42:13Z</time>
      </trkpt>
      <trkpt lat="46.01572" lon="4.40629">
        <ele>683</ele>
        <time>2019-06-28T17:42:26Z</time>
      </trkpt>
      <trkpt lat="46.0155" lon="4.40598">
        <ele>680</ele>
        <time>2019-06-28T17:42:33Z</time>
      </trkpt>
      <trkpt lat="46.01524" lon="4.40544">
        <ele>678</ele>
        <time>2019-06-28T17:42:44Z</time>
      </trkpt>
      <trkpt lat="46.01472" lon="4.4047">
        <ele>675</ele>
        <time>2019-06-28T17:43:01Z</time>
      </trkpt>
      <trkpt lat="46.01443" lon="4.40443">
        <ele>671</ele>
        <time>2019-06-28T17:43:09Z</time>
      </trkpt>
      <trkpt lat="46.01422" lon="4.40404">
        <ele>669</ele>
        <time>2019-06-28T17:43:17Z</time>
      </trkpt>
      <trkpt lat="46.01402" lon="4.40388">
        <ele>666</ele>
        <time>2019-06-28T17:43:22Z</time>
      </trkpt>
      <trkpt lat="46.01375" lon="4.4029">
        <ele>664</ele>
        <time>2019-06-28T17:43:39Z</time>
      </trkpt>
      <trkpt lat="46.0136" lon="4.40262">
        <ele>663</ele>
        <time>2019-06-28T17:43:45Z</time>
      </trkpt>
      <trkpt lat="46.0135" lon="4.40235">
        <ele>661</ele>
        <time>2019-06-28T17:43:50Z</time>
      </trkpt>
      <trkpt lat="46.01328" lon="4.4014">
        <ele>656</ele>
        <time>2019-06-28T17:44:06Z</time>
      </trkpt>
      <trkpt lat="46.01331" lon="4.40057">
        <ele>651</ele>
        <time>2019-06-28T17:44:20Z</time>
      </trkpt>
      <trkpt lat="46.01329" lon="4.40021">
        <ele>649</ele>
        <time>2019-06-28T17:44:25Z</time>
      </trkpt>
      <trkpt lat="46.01323" lon="4.4">
        <ele>647</ele>
        <time>2019-06-28T17:44:29Z</time>
      </trkpt>
      <trkpt lat="46.01253" lon="4.39919">
        <ele>639</ele>
        <time>2019-06-28T17:44:50Z</time>
      </trkpt>
      <trkpt lat="46.01227" lon="4.399">
        <ele>636</ele>
        <time>2019-06-28T17:44:57Z</time>
      </trkpt>
      <trkpt lat="46.01185" lon="4.39852">
        <ele>629</ele>
        <time>2019-06-28T17:45:09Z</time>
      </trkpt>
      <trkpt lat="46.01171" lon="4.3984">
        <ele>626</ele>
        <time>2019-06-28T17:45:13Z</time>
      </trkpt>
      <trkpt lat="46.01161" lon="4.39839">
        <ele>624</ele>
        <time>2019-06-28T17:45:16Z</time>
      </trkpt>
      <trkpt lat="46.01149" lon="4.39802">
        <ele>622</ele>
        <time>2019-06-28T17:45:22Z</time>
      </trkpt>
      <trkpt lat="46.01139" lon="4.39793">
        <ele>620</ele>
        <time>2019-06-28T17:45:25Z</time>
      </trkpt>
      <trkpt lat="46.01112" lon="4.39791">
        <ele>617</ele>
        <time>2019-06-28T17:45:31Z</time>
      </trkpt>
      <trkpt lat="46.01039" lon="4.39761">
        <ele>612</ele>
        <time>2019-06-28T17:45:49Z</time>
      </trkpt>
      <trkpt lat="46.01011" lon="4.39736">
        <ele>610</ele>
        <time>2019-06-28T17:45:57Z</time>
      </trkpt>
      <trkpt lat="46.00928" lon="4.39624">
        <ele>602</ele>
        <time>2019-06-28T17:46:23Z</time>
      </trkpt>
      <trkpt lat="46.00895" lon="4.39536">
        <ele>599</ele>
        <time>2019-06-28T17:46:39Z</time>
      </trkpt>
      <trkpt lat="46.00881" lon="4.39434">
        <ele>592</ele>
        <time>2019-06-28T17:46:56Z</time>
      </trkpt>
      <trkpt lat="46.00799" lon="4.39222">
        <ele>586</ele>
        <time>2019-06-28T17:47:36Z</time>
      </trkpt>
      <trkpt lat="46.00786" lon="4.39146">
        <ele>583</ele>
        <time>2019-06-28T17:47:48Z</time>
      </trkpt>
      <trkpt lat="46.00731" lon="4.39027">
        <ele>573</ele>
        <time>2019-06-28T17:48:12Z</time>
      </trkpt>
      <trkpt lat="46.00665" lon="4.38908">
        <ele>560</ele>
        <time>2019-06-28T17:48:36Z</time>
      </trkpt>
      <trkpt lat="46.00649" lon="4.38864">
        <ele>557</ele>
        <time>2019-06-28T17:48:44Z</time>
      </trkpt>
      <trkpt lat="46.00636" lon="4.38847">
        <ele>556</ele>
        <time>2019-06-28T17:48:48Z</time>
      </trkpt>
      <trkpt lat="46.00624" lon="4.38839">
        <ele>556</ele>
        <time>2019-06-28T17:48:51Z</time>
      </trkpt>
      <trkpt lat="46.00601" lon="4.38831">
        <ele>556</ele>
        <time>2019-06-28T17:48:57Z</time>
      </trkpt>
      <trkpt lat="46.00587" lon="4.38828">
        <ele>556</ele>
        <time>2019-06-28T17:49:00Z</time>
      </trkpt>
      <trkpt lat="46.0053" lon="4.38829">
        <ele>551</ele>
        <time>2019-06-28T17:49:14Z</time>
      </trkpt>
      <trkpt lat="46.00515" lon="4.38826">
        <ele>550</ele>
        <time>2019-06-28T17:49:17Z</time>
      </trkpt>
      <trkpt lat="46.00502" lon="4.38818">
        <ele>549</ele>
        <time>2019-06-28T17:49:20Z</time>
      </trkpt>
      <trkpt lat="46.0052" lon="4.38761">
        <ele>551</ele>
        <time>2019-06-28T17:49:31Z</time>
      </trkpt>
      <trkpt lat="46.00546" lon="4.38705">
        <ele>548</ele>
        <time>2019-06-28T17:49:42Z</time>
      </trkpt>
      <trkpt lat="46.00606" lon="4.38622">
        <ele>537</ele>
        <time>2019-06-28T17:50:01Z</time>
      </trkpt>
      <trkpt lat="46.00635" lon="4.38596">
        <ele>533</ele>
        <time>2019-06-28T17:50:09Z</time>
      </trkpt>
      <trkpt lat="46.0065" lon="4.38586">
        <ele>531</ele>
        <time>2019-06-28T17:50:13Z</time>
      </trkpt>
      <trkpt lat="46.00667" lon="4.38558">
        <ele>529</ele>
        <time>2019-06-28T17:50:19Z</time>
      </trkpt>
      <trkpt lat="46.00672" lon="4.38533">
        <ele>528</ele>
        <time>2019-06-28T17:50:23Z</time>
      </trkpt>
      <trkpt lat="46.00669" lon="4.38493">
        <ele>525</ele>
        <time>2019-06-28T17:50:30Z</time>
      </trkpt>
      <trkpt lat="46.0067" lon="4.38438">
        <ele>522</ele>
        <time>2019-06-28T17:50:39Z</time>
      </trkpt>
      <trkpt lat="46.00676" lon="4.38377">
        <ele>519</ele>
        <time>2019-06-28T17:50:49Z</time>
      </trkpt>
      <trkpt lat="46.00676" lon="4.38317">
        <ele>517</ele>
        <time>2019-06-28T17:50:58Z</time>
      </trkpt>
      <trkpt lat="46.00658" lon="4.38232">
        <ele>520</ele>
        <time>2019-06-28T17:51:13Z</time>
      </trkpt>
      <trkpt lat="46.00688" lon="4.3818">
        <ele>525</ele>
        <time>2019-06-28T17:51:24Z</time>
      </trkpt>
      <trkpt lat="46.00713" lon="4.38193">
        <ele>520</ele>
        <time>2019-06-28T17:51:30Z</time>
      </trkpt>
      <trkpt lat="46.00721" lon="4.38207">
        <ele>517</ele>
        <time>2019-06-28T17:51:33Z</time>
      </trkpt>
      <trkpt lat="46.00734" lon="4.38205">
        <ele>516</ele>
        <time>2019-06-28T17:51:36Z</time>
      </trkpt>
      <trkpt lat="46.00755" lon="4.38211">
        <ele>512</ele>
        <time>2019-06-28T17:51:41Z</time>
      </trkpt>
      <trkpt lat="46.00772" lon="4.38197">
        <ele>511</ele>
        <time>2019-06-28T17:51:45Z</time>
      </trkpt>
      <trkpt lat="46.00787" lon="4.38191">
        <ele>509</ele>
        <time>2019-06-28T17:51:49Z</time>
      </trkpt>
      <trkpt lat="46.00798" lon="4.3821">
        <ele>506</ele>
        <time>2019-06-28T17:51:53Z</time>
      </trkpt>
      <trkpt lat="46.0084" lon="4.3816">
        <ele>501</ele>
        <time>2019-06-28T17:52:06Z</time>
      </trkpt>
      <trkpt lat="46.00879" lon="4.3812">
        <ele>490</ele>
        <time>2019-06-28T17:52:17Z</time>
      </trkpt>
      <trkpt lat="46.00889" lon="4.38124">
        <ele>487</ele>
        <time>2019-06-28T17:52:19Z</time>
      </trkpt>
      <trkpt lat="46.00896" lon="4.38114">
        <ele>485</ele>
        <time>2019-06-28T17:52:22Z</time>
      </trkpt>
      <trkpt lat="46.00917" lon="4.38123">
        <ele>479</ele>
        <time>2019-06-28T17:52:27Z</time>
      </trkpt>
      <trkpt lat="46.00968" lon="4.38066">
        <ele>467</ele>
        <time>2019-06-28T17:52:42Z</time>
      </trkpt>
      <trkpt lat="46.00974" lon="4.38053">
        <ele>464</ele>
        <time>2019-06-28T17:52:44Z</time>
      </trkpt>
      <trkpt lat="46.0096" lon="4.38033">
        <ele>464</ele>
        <time>2019-06-28T17:52:49Z</time>
      </trkpt>
      <trkpt lat="46.00932" lon="4.38004">
        <ele>467</ele>
        <time>2019-06-28T17:52:57Z</time>
      </trkpt>
      <trkpt lat="46.00914" lon="4.37958">
        <ele>465</ele>
        <time>2019-06-28T17:53:06Z</time>
      </trkpt>
      <trkpt lat="46.00873" lon="4.37824">
        <ele>460</ele>
        <time>2019-06-28T17:53:29Z</time>
      </trkpt>
      <trkpt lat="46.00857" lon="4.37783">
        <ele>460</ele>
        <time>2019-06-28T17:53:37Z</time>
      </trkpt>
      <trkpt lat="46.00841" lon="4.37755">
        <ele>460</ele>
        <time>2019-06-28T17:53:43Z</time>
      </trkpt>
      <trkpt lat="46.00803" lon="4.37675">
        <ele>460</ele>
        <time>2019-06-28T17:53:59Z</time>
      </trkpt>
      <trkpt lat="46.00732" lon="4.37536">
        <ele>460</ele>
        <time>2019-06-28T17:54:27Z</time>
      </trkpt>
      <trkpt lat="46.00651" lon="4.37323">
        <ele>453</ele>
        <time>2019-06-28T17:55:06Z</time>
      </trkpt>
      <trkpt lat="46.00591" lon="4.37207">
        <ele>455</ele>
        <time>2019-06-28T17:55:29Z</time>
      </trkpt>
      <trkpt lat="46.00578" lon="4.3714">
        <ele>451</ele>
        <time>2019-06-28T17:55:41Z</time>
      </trkpt>
      <trkpt lat="46.00576" lon="4.371">
        <ele>450</ele>
        <time>2019-06-28T17:55:47Z</time>
      </trkpt>
      <trkpt lat="46.00579" lon="4.37069">
        <ele>449</ele>
        <time>2019-06-28T17:55:52Z</time>
      </trkpt>
      <trkpt lat="46.00564" lon="4.37001">
        <ele>451</ele>
        <time>2019-06-28T17:56:04Z</time>
      </trkpt>
      <trkpt lat="46.00551" lon="4.36891">
        <ele>448</ele>
        <time>2019-06-28T17:56:22Z</time>
      </trkpt>
      <trkpt lat="46.0055" lon="4.36857">
        <ele>447</ele>
        <time>2019-06-28T17:56:28Z</time>
      </trkpt>
      <trkpt lat="46.00545" lon="4.36843">
        <ele>447</ele>
        <time>2019-06-28T17:56:30Z</time>
      </trkpt>
      <trkpt lat="46.00504" lon="4.36839">
        <ele>450</ele>
        <time>2019-06-28T17:56:40Z</time>
      </trkpt>
      <trkpt lat="46.00474" lon="4.36839">
        <ele>449</ele>
        <time>2019-06-28T17:56:47Z</time>
      </trkpt>
      <trkpt lat="46.0046" lon="4.36845">
        <ele>448</ele>
        <time>2019-06-28T17:56:50Z</time>
      </trkpt>
      <trkpt lat="46.00444" lon="4.36871">
        <ele>447</ele>
        <time>2019-06-28T17:56:56Z</time>
      </trkpt>
      <trkpt lat="46.00433" lon="4.36968">
        <ele>447</ele>
        <time>2019-06-28T17:57:12Z</time>
      </trkpt>
      <trkpt lat="46.00404" lon="4.37039">
        <ele>447</ele>
        <time>2019-06-28T17:57:25Z</time>
      </trkpt>
      <trkpt lat="46.00396" lon="4.37035">
        <ele>448</ele>
        <time>2019-06-28T17:57:27Z</time>
      </trkpt>
      <trkpt lat="46.00369" lon="4.36951">
        <ele>447</ele>
        <time>2019-06-28T17:57:42Z</time>
      </trkpt>
      <trkpt lat="46.00356" lon="4.36919">
        <ele>449</ele>
        <time>2019-06-28T17:57:48Z</time>
      </trkpt>
      <trkpt lat="46.00316" lon="4.36968">
        <ele>456</ele>
        <time>2019-06-28T17:58:00Z</time>
      </trkpt>
      <trkpt lat="46.00302" lon="4.36991">
        <ele>461</ele>
        <time>2019-06-28T17:58:05Z</time>
      </trkpt>
      <trkpt lat="46.00296" lon="4.37146">
        <ele>482</ele>
        <time>2019-06-28T17:58:30Z</time>
      </trkpt>
      <trkpt lat="46.00284" lon="4.37276">
        <ele>483</ele>
        <time>2019-06-28T17:58:52Z</time>
      </trkpt>
      <trkpt lat="46.00263" lon="4.37316">
        <ele>485</ele>
        <time>2019-06-28T17:59:00Z</time>
      </trkpt>
      <trkpt lat="46.00202" lon="4.3734">
        <ele>487</ele>
        <time>2019-06-28T17:59:15Z</time>
      </trkpt>
      <trkpt lat="46.0017" lon="4.3735">
        <ele>487</ele>
        <time>2019-06-28T17:59:22Z</time>
      </trkpt>
      <trkpt lat="46.00118" lon="4.37419">
        <ele>477</ele>
        <time>2019-06-28T17:59:39Z</time>
      </trkpt>
      <trkpt lat="46.00049" lon="4.37397">
        <ele>487</ele>
        <time>2019-06-28T17:59:55Z</time>
      </trkpt>
      <trkpt lat="46.00013" lon="4.3742">
        <ele>490</ele>
        <time>2019-06-28T18:00:04Z</time>
      </trkpt>
      <trkpt lat="45.99995" lon="4.37425">
        <ele>492</ele>
        <time>2019-06-28T18:00:09Z</time>
      </trkpt>
      <trkpt lat="45.99928" lon="4.37476">
        <ele>493</ele>
        <time>2019-06-28T18:00:26Z</time>
      </trkpt>
      <trkpt lat="45.99847" lon="4.37585">
        <ele>506</ele>
        <time>2019-06-28T18:00:52Z</time>
      </trkpt>
      <trkpt lat="45.9952" lon="4.37508">
        <ele>522</ele>
        <time>2019-06-28T18:02:10Z</time>
      </trkpt>
      <trkpt lat="45.99475" lon="4.3756">
        <ele>521</ele>
        <time>2019-06-28T18:02:23Z</time>
      </trkpt>
      <trkpt lat="45.9947" lon="4.37636">
        <ele>520</ele>
        <time>2019-06-28T18:02:36Z</time>
      </trkpt>
      <trkpt lat="45.99488" lon="4.37661">
        <ele>519</ele>
        <time>2019-06-28T18:02:41Z</time>
      </trkpt>
      <trkpt lat="45.9949" lon="4.3771">
        <ele>520</ele>
        <time>2019-06-28T18:02:49Z</time>
      </trkpt>
      <trkpt lat="45.9948" lon="4.37734">
        <ele>521</ele>
        <time>2019-06-28T18:02:54Z</time>
      </trkpt>
      <trkpt lat="45.99455" lon="4.37842">
        <ele>528</ele>
        <time>2019-06-28T18:03:12Z</time>
      </trkpt>
      <trkpt lat="45.99417" lon="4.37972">
        <ele>539</ele>
        <time>2019-06-28T18:03:35Z</time>
      </trkpt>
      <trkpt lat="45.99388" lon="4.38015">
        <ele>541</ele>
        <time>2019-06-28T18:03:45Z</time>
      </trkpt>
      <trkpt lat="45.99346" lon="4.38044">
        <ele>545</ele>
        <time>2019-06-28T18:03:56Z</time>
      </trkpt>
      <trkpt lat="45.99237" lon="4.38257">
        <ele>559</ele>
        <time>2019-06-28T18:04:39Z</time>
      </trkpt>
      <trkpt lat="45.99231" lon="4.38279">
        <ele>558</ele>
        <time>2019-06-28T18:04:43Z</time>
      </trkpt>
      <trkpt lat="45.99216" lon="4.38311">
        <ele>558</ele>
        <time>2019-06-28T18:04:49Z</time>
      </trkpt>
      <trkpt lat="45.9919" lon="4.38317">
        <ele>559</ele>
        <time>2019-06-28T18:04:55Z</time>
      </trkpt>
      <trkpt lat="45.99146" lon="4.38404">
        <ele>560</ele>
        <time>2019-06-28T18:05:13Z</time>
      </trkpt>
      <trkpt lat="45.99132" lon="4.38423">
        <ele>558</ele>
        <time>2019-06-28T18:05:17Z</time>
      </trkpt>
      <trkpt lat="45.99115" lon="4.38492">
        <ele>558</ele>
        <time>2019-06-28T18:05:29Z</time>
      </trkpt>
      <trkpt lat="45.99108" lon="4.38509">
        <ele>558</ele>
        <time>2019-06-28T18:05:32Z</time>
      </trkpt>
      <trkpt lat="45.99108" lon="4.38561">
        <ele>558</ele>
        <time>2019-06-28T18:05:41Z</time>
      </trkpt>
      <trkpt lat="45.9908" lon="4.386">
        <ele>556</ele>
        <time>2019-06-28T18:05:50Z</time>
      </trkpt>
      <trkpt lat="45.99063" lon="4.3864">
        <ele>558</ele>
        <time>2019-06-28T18:05:57Z</time>
      </trkpt>
      <trkpt lat="45.99039" lon="4.38714">
        <ele>562</ele>
        <time>2019-06-28T18:06:10Z</time>
      </trkpt>
      <trkpt lat="45.99015" lon="4.3877">
        <ele>564</ele>
        <time>2019-06-28T18:06:21Z</time>
      </trkpt>
      <trkpt lat="45.98992" lon="4.38798">
        <ele>565</ele>
        <time>2019-06-28T18:06:28Z</time>
      </trkpt>
      <trkpt lat="45.98974" lon="4.38803">
        <ele>567</ele>
        <time>2019-06-28T18:06:32Z</time>
      </trkpt>
      <trkpt lat="45.98961" lon="4.38796">
        <ele>567</ele>
        <time>2019-06-28T18:06:36Z</time>
      </trkpt>
      <trkpt lat="45.98956" lon="4.38782">
        <ele>567</ele>
        <time>2019-06-28T18:06:38Z</time>
      </trkpt>
      <trkpt lat="45.98959" lon="4.38753">
        <ele>565</ele>
        <time>2019-06-28T18:06:43Z</time>
      </trkpt>
      <trkpt lat="45.9893" lon="4.38768">
        <ele>569</ele>
        <time>2019-06-28T18:06:50Z</time>
      </trkpt>
      <trkpt lat="45.98914" lon="4.38766">
        <ele>571</ele>
        <time>2019-06-28T18:06:54Z</time>
      </trkpt>
      <trkpt lat="45.98842" lon="4.38767">
        <ele>580</ele>
        <time>2019-06-28T18:07:11Z</time>
      </trkpt>
      <trkpt lat="45.98824" lon="4.38771">
        <ele>581</ele>
        <time>2019-06-28T18:07:15Z</time>
      </trkpt>
      <trkpt lat="45.98806" lon="4.38811">
        <ele>584</ele>
        <time>2019-06-28T18:07:23Z</time>
      </trkpt>
      <trkpt lat="45.98799" lon="4.38866">
        <ele>587</ele>
        <time>2019-06-28T18:07:32Z</time>
      </trkpt>
      <trkpt lat="45.98781" lon="4.38855">
        <ele>586</ele>
        <time>2019-06-28T18:07:36Z</time>
      </trkpt>
      <trkpt lat="45.98722" lon="4.38777">
        <ele>574</ele>
        <time>2019-06-28T18:07:55Z</time>
      </trkpt>
      <trkpt lat="45.98578" lon="4.38876">
        <ele>562</ele>
        <time>2019-06-28T18:08:32Z</time>
      </trkpt>
      <trkpt lat="45.98556" lon="4.38869">
        <ele>562</ele>
        <time>2019-06-28T18:08:38Z</time>
      </trkpt>
      <trkpt lat="45.98523" lon="4.38831">
        <ele>560</ele>
        <time>2019-06-28T18:08:48Z</time>
      </trkpt>
      <trkpt lat="45.98479" lon="4.38747">
        <ele>559</ele>
        <time>2019-06-28T18:09:05Z</time>
      </trkpt>
      <trkpt lat="45.98413" lon="4.38584">
        <ele>564</ele>
        <time>2019-06-28T18:09:35Z</time>
      </trkpt>
      <trkpt lat="45.98415" lon="4.38711">
        <ele>566</ele>
        <time>2019-06-28T18:09:56Z</time>
      </trkpt>
      <trkpt lat="45.98412" lon="4.38832">
        <ele>572</ele>
        <time>2019-06-28T18:10:15Z</time>
      </trkpt>
      <trkpt lat="45.98373" lon="4.38853">
        <ele>577</ele>
        <time>2019-06-28T18:10:25Z</time>
      </trkpt>
      <trkpt lat="45.98265" lon="4.3896">
        <ele>591</ele>
        <time>2019-06-28T18:10:56Z</time>
      </trkpt>
      <trkpt lat="45.98246" lon="4.38985">
        <ele>593</ele>
        <time>2019-06-28T18:11:02Z</time>
      </trkpt>
      <trkpt lat="45.98231" lon="4.39174">
        <ele>609</ele>
        <time>2019-06-28T18:11:33Z</time>
      </trkpt>
      <trkpt lat="45.98198" lon="4.39327">
        <ele>631</ele>
        <time>2019-06-28T18:11:59Z</time>
      </trkpt>
      <trkpt lat="45.98181" lon="4.39343">
        <ele>636</ele>
        <time>2019-06-28T18:12:03Z</time>
      </trkpt>
      <trkpt lat="45.98139" lon="4.394">
        <ele>647</ele>
        <time>2019-06-28T18:12:17Z</time>
      </trkpt>
      <trkpt lat="45.9812" lon="4.39438">
        <ele>653</ele>
        <time>2019-06-28T18:12:25Z</time>
      </trkpt>
      <trkpt lat="45.98117" lon="4.39504">
        <ele>661</ele>
        <time>2019-06-28T18:12:35Z</time>
      </trkpt>
      <trkpt lat="45.98125" lon="4.39518">
        <ele>663</ele>
        <time>2019-06-28T18:12:38Z</time>
      </trkpt>
      <trkpt lat="45.98107" lon="4.39527">
        <ele>666</ele>
        <time>2019-06-28T18:12:43Z</time>
      </trkpt>
      <trkpt lat="45.98095" lon="4.39539">
        <ele>669</ele>
        <time>2019-06-28T18:12:46Z</time>
      </trkpt>
      <trkpt lat="45.98021" lon="4.39593">
        <ele>680</ele>
        <time>2019-06-28T18:13:05Z</time>
      </trkpt>
      <trkpt lat="45.9801" lon="4.39622">
        <ele>684</ele>
        <time>2019-06-28T18:13:11Z</time>
      </trkpt>
      <trkpt lat="45.97994" lon="4.39678">
        <ele>690</ele>
        <time>2019-06-28T18:13:21Z</time>
      </trkpt>
      <trkpt lat="45.97981" lon="4.39783">
        <ele>702</ele>
        <time>2019-06-28T18:13:38Z</time>
      </trkpt>
      <trkpt lat="45.97997" lon="4.39838">
        <ele>711</ele>
        <time>2019-06-28T18:13:48Z</time>
      </trkpt>
      <trkpt lat="45.98045" lon="4.39878">
        <ele>717</ele>
        <time>2019-06-28T18:14:01Z</time>
      </trkpt>
      <trkpt lat="45.98065" lon="4.39944">
        <ele>724</ele>
        <time>2019-06-28T18:14:12Z</time>
      </trkpt>
      <trkpt lat="45.98066" lon="4.39968">
        <ele>726</ele>
        <time>2019-06-28T18:14:16Z</time>
      </trkpt>
      <trkpt lat="45.98082" lon="4.4006">
        <ele>739</ele>
        <time>2019-06-28T18:14:32Z</time>
      </trkpt>
      <trkpt lat="45.98039" lon="4.40114">
        <ele>736</ele>
        <time>2019-06-28T18:14:45Z</time>
      </trkpt>
      <trkpt lat="45.98012" lon="4.40139">
        <ele>733</ele>
        <time>2019-06-28T18:14:52Z</time>
      </trkpt>
      <trkpt lat="45.98003" lon="4.4016">
        <ele>733</ele>
        <time>2019-06-28T18:14:56Z</time>
      </trkpt>
      <trkpt lat="45.97988" lon="4.40179">
        <ele>737</ele>
        <time>2019-06-28T18:15:01Z</time>
      </trkpt>
      <trkpt lat="45.97977" lon="4.40183">
        <ele>739</ele>
        <time>2019-06-28T18:15:04Z</time>
      </trkpt>
      <trkpt lat="45.97944" lon="4.4016">
        <ele>740</ele>
        <time>2019-06-28T18:15:12Z</time>
      </trkpt>
      <trkpt lat="45.97932" lon="4.40134">
        <ele>740</ele>
        <time>2019-06-28T18:15:17Z</time>
      </trkpt>
      <trkpt lat="45.97923" lon="4.40105">
        <ele>739</ele>
        <time>2019-06-28T18:15:22Z</time>
      </trkpt>
      <trkpt lat="45.97894" lon="4.40064">
        <ele>736</ele>
        <time>2019-06-28T18:15:32Z</time>
      </trkpt>
      <trkpt lat="45.97875" lon="4.4005">
        <ele>735</ele>
        <time>2019-06-28T18:15:37Z</time>
      </trkpt>
      <trkpt lat="45.97864" lon="4.40109">
        <ele>740</ele>
        <time>2019-06-28T18:15:47Z</time>
      </trkpt>
      <trkpt lat="45.97822" lon="4.40198">
        <ele>743</ele>
        <time>2019-06-28T18:16:04Z</time>
      </trkpt>
      <trkpt lat="45.97795" lon="4.4025">
        <ele>747</ele>
        <time>2019-06-28T18:16:15Z</time>
      </trkpt>
      <trkpt lat="45.97772" lon="4.40279">
        <ele>749</ele>
        <time>2019-06-28T18:16:22Z</time>
      </trkpt>
      <trkpt lat="45.97749" lon="4.40325">
        <ele>754</ele>
        <time>2019-06-28T18:16:31Z</time>
      </trkpt>
      <trkpt lat="45.97589" lon="4.40614">
        <ele>762</ele>
        <time>2019-06-28T18:17:31Z</time>
      </trkpt>
      <trkpt lat="45.97575" lon="4.40655">
        <ele>764</ele>
        <time>2019-06-28T18:17:39Z</time>
      </trkpt>
      <trkpt lat="45.97566" lon="4.40737">
        <ele>762</ele>
        <time>2019-06-28T18:17:52Z</time>
      </trkpt>
      <trkpt lat="45.97585" lon="4.4086">
        <ele>768</ele>
        <time>2019-06-28T18:18:12Z</time>
      </trkpt>
      <trkpt lat="45.97594" lon="4.4087">
        <ele>772</ele>
        <time>2019-06-28T18:18:15Z</time>
      </trkpt>
      <trkpt lat="45.97608" lon="4.40906">
        <ele>778</ele>
        <time>2019-06-28T18:18:22Z</time>
      </trkpt>
      <trkpt lat="45.97615" lon="4.4098">
        <ele>786</ele>
        <time>2019-06-28T18:18:34Z</time>
      </trkpt>
      <trkpt lat="45.97627" lon="4.41031">
        <ele>795</ele>
        <time>2019-06-28T18:18:43Z</time>
      </trkpt>
      <trkpt lat="45.97642" lon="4.4107">
        <ele>801</ele>
        <time>2019-06-28T18:18:50Z</time>
      </trkpt>
      <trkpt lat="45.97665" lon="4.41148">
        <ele>803</ele>
        <time>2019-06-28T18:19:04Z</time>
      </trkpt>
      <trkpt lat="45.97678" lon="4.41175">
        <ele>805</ele>
        <time>2019-06-28T18:19:09Z</time>
      </trkpt>
      <trkpt lat="45.97742" lon="4.41284">
        <ele>813</ele>
        <time>2019-06-28T18:19:32Z</time>
      </trkpt>
      <trkpt lat="45.97777" lon="4.41324">
        <ele>812</ele>
        <time>2019-06-28T18:19:43Z</time>
      </trkpt>
      <trkpt lat="45.97806" lon="4.41343">
        <ele>810</ele>
        <time>2019-06-28T18:19:50Z</time>
      </trkpt>
      <trkpt lat="45.97827" lon="4.41353">
        <ele>809</ele>
        <time>2019-06-28T18:19:55Z</time>
      </trkpt>
      <trkpt lat="45.97854" lon="4.41372">
        <ele>805</ele>
        <time>2019-06-28T18:20:02Z</time>
      </trkpt>
      <trkpt lat="45.97912" lon="4.41389">
        <ele>804</ele>
        <time>2019-06-28T18:20:16Z</time>
      </trkpt>
      <trkpt lat="45.97951" lon="4.41413">
        <ele>803</ele>
        <time>2019-06-28T18:20:26Z</time>
      </trkpt>
      <trkpt lat="45.97977" lon="4.41437">
        <ele>803</ele>
        <time>2019-06-28T18:20:33Z</time>
      </trkpt>
      <trkpt lat="45.97992" lon="4.41465">
        <ele>803</ele>
        <time>2019-06-28T18:20:39Z</time>
      </trkpt>
      <trkpt lat="45.98004" lon="4.41497">
        <ele>803</ele>
        <time>2019-06-28T18:20:45Z</time>
      </trkpt>
      <trkpt lat="45.9801" lon="4.41523">
        <ele>803</ele>
        <time>2019-06-28T18:20:49Z</time>
      </trkpt>
      <trkpt lat="45.9801" lon="4.41539">
        <ele>803</ele>
        <time>2019-06-28T18:20:52Z</time>
      </trkpt>
      <trkpt lat="45.9803" lon="4.4163">
        <ele>803</ele>
        <time>2019-06-28T18:21:07Z</time>
      </trkpt>
      <trkpt lat="45.9803" lon="4.41665">
        <ele>802</ele>
        <time>2019-06-28T18:21:13Z</time>
      </trkpt>
      <trkpt lat="45.98038" lon="4.41685">
        <ele>802</ele>
        <time>2019-06-28T18:21:17Z</time>
      </trkpt>
      <trkpt lat="45.98037" lon="4.41721">
        <ele>800</ele>
        <time>2019-06-28T18:21:23Z</time>
      </trkpt>
      <trkpt lat="45.98049" lon="4.41804">
        <ele>799</ele>
        <time>2019-06-28T18:21:36Z</time>
      </trkpt>
      <trkpt lat="45.98064" lon="4.41857">
        <ele>800</ele>
        <time>2019-06-28T18:21:46Z</time>
      </trkpt>
      <trkpt lat="45.98132" lon="4.41903">
        <ele>807</ele>
        <time>2019-06-28T18:22:03Z</time>
      </trkpt>
      <trkpt lat="45.98138" lon="4.41924">
        <ele>808</ele>
        <time>2019-06-28T18:22:07Z</time>
      </trkpt>
      <trkpt lat="45.98145" lon="4.41968">
        <ele>805</ele>
        <time>2019-06-28T18:22:14Z</time>
      </trkpt>
      <trkpt lat="45.9816" lon="4.42024">
        <ele>805</ele>
        <time>2019-06-28T18:22:24Z</time>
      </trkpt>
      <trkpt lat="45.98187" lon="4.42092">
        <ele>803</ele>
        <time>2019-06-28T18:22:37Z</time>
      </trkpt>
      <trkpt lat="45.98216" lon="4.42135">
        <ele>799</ele>
        <time>2019-06-28T18:22:46Z</time>
      </trkpt>
      <trkpt lat="45.98249" lon="4.42165">
        <ele>798</ele>
        <time>2019-06-28T18:22:55Z</time>
      </trkpt>
      <trkpt lat="45.98318" lon="4.42191">
        <ele>798</ele>
        <time>2019-06-28T18:23:12Z</time>
      </trkpt>
      <trkpt lat="45.98422" lon="4.42284">
        <ele>800</ele>
        <time>2019-06-28T18:23:41Z</time>
      </trkpt>
      <trkpt lat="45.98445" lon="4.42302">
        <ele>801</ele>
        <time>2019-06-28T18:23:47Z</time>
      </trkpt>
      <trkpt lat="45.98488" lon="4.42323">
        <ele>805</ele>
        <time>2019-06-28T18:23:57Z</time>
      </trkpt>
      <trkpt lat="45.98457" lon="4.42331">
        <ele>799</ele>
        <time>2019-06-28T18:24:05Z</time>
      </trkpt>
      <trkpt lat="45.98372" lon="4.42342">
        <ele>788</ele>
        <time>2019-06-28T18:24:25Z</time>
      </trkpt>
      <trkpt lat="45.98395" lon="4.42361">
        <ele>784</ele>
        <time>2019-06-28T18:24:31Z</time>
      </trkpt>
      <trkpt lat="45.98463" lon="4.42387">
        <ele>786</ele>
        <time>2019-06-28T18:24:47Z</time>
      </trkpt>
      <trkpt lat="45.98551" lon="4.42471">
        <ele>787</ele>
        <time>2019-06-28T18:25:12Z</time>
      </trkpt>
      <trkpt lat="45.98595" lon="4.42481">
        <ele>790</ele>
        <time>2019-06-28T18:25:22Z</time>
      </trkpt>
      <trkpt lat="45.98674" lon="4.42452">
        <ele>784</ele>
        <time>2019-06-28T18:25:41Z</time>
      </trkpt>
      <trkpt lat="45.98681" lon="4.42455">
        <ele>784</ele>
        <time>2019-06-28T18:25:43Z</time>
      </trkpt>
      <trkpt lat="45.98698" lon="4.42478">
        <ele>782</ele>
        <time>2019-06-28T18:25:49Z</time>
      </trkpt>
      <trkpt lat="45.98741" lon="4.42492">
        <ele>779</ele>
        <time>2019-06-28T18:25:59Z</time>
      </trkpt>
      <trkpt lat="45.98775" lon="4.42543">
        <ele>777</ele>
        <time>2019-06-28T18:26:10Z</time>
      </trkpt>
      <trkpt lat="45.98782" lon="4.42574">
        <ele>775</ele>
        <time>2019-06-28T18:26:16Z</time>
      </trkpt>
      <trkpt lat="45.98777" lon="4.42621">
        <ele>771</ele>
        <time>2019-06-28T18:26:23Z</time>
      </trkpt>
      <trkpt lat="45.98767" lon="4.42661">
        <ele>767</ele>
        <time>2019-06-28T18:26:30Z</time>
      </trkpt>
      <trkpt lat="45.98761" lon="4.42858">
        <ele>761</ele>
        <time>2019-06-28T18:27:02Z</time>
      </trkpt>
      <trkpt lat="45.98764" lon="4.42928">
        <ele>763</ele>
        <time>2019-06-28T18:27:14Z</time>
      </trkpt>
      <trkpt lat="45.9875" lon="4.43055">
        <ele>762</ele>
        <time>2019-06-28T18:27:35Z</time>
      </trkpt>
      <trkpt lat="45.98737" lon="4.43097">
        <ele>760</ele>
        <time>2019-06-28T18:27:42Z</time>
      </trkpt>
      <trkpt lat="45.98747" lon="4.43101">
        <ele>762</ele>
        <time>2019-06-28T18:27:44Z</time>
      </trkpt>
      <trkpt lat="45.98691" lon="4.43166">
        <ele>750</ele>
        <time>2019-06-28T18:28:01Z</time>
      </trkpt>
      <trkpt lat="45.98652" lon="4.4323">
        <ele>751</ele>
        <time>2019-06-28T18:28:15Z</time>
      </trkpt>
      <trkpt lat="45.98577" lon="4.43374">
        <ele>749</ele>
        <time>2019-06-28T18:28:44Z</time>
      </trkpt>
      <trkpt lat="45.98573" lon="4.434">
        <ele>750</ele>
        <time>2019-06-28T18:28:49Z</time>
      </trkpt>
      <trkpt lat="45.98559" lon="4.43444">
        <ele>750</ele>
        <time>2019-06-28T18:28:56Z</time>
      </trkpt>
      <trkpt lat="45.98537" lon="4.43577">
        <ele>747</ele>
        <time>2019-06-28T18:29:19Z</time>
      </trkpt>
      <trkpt lat="45.98537" lon="4.43629">
        <ele>745</ele>
        <time>2019-06-28T18:29:27Z</time>
      </trkpt>
      <trkpt lat="45.98525" lon="4.43696">
        <ele>739</ele>
        <time>2019-06-28T18:29:38Z</time>
      </trkpt>
      <trkpt lat="45.98492" lon="4.43846">
        <ele>729</ele>
        <time>2019-06-28T18:30:04Z</time>
      </trkpt>
      <trkpt lat="45.98465" lon="4.43876">
        <ele>730</ele>
        <time>2019-06-28T18:30:12Z</time>
      </trkpt>
      <trkpt lat="45.98452" lon="4.43895">
        <ele>731</ele>
        <time>2019-06-28T18:30:16Z</time>
      </trkpt>
      <trkpt lat="45.98411" lon="4.43909">
        <ele>739</ele>
        <time>2019-06-28T18:30:26Z</time>
      </trkpt>
      <trkpt lat="45.98381" lon="4.43914">
        <ele>747</ele>
        <time>2019-06-28T18:30:33Z</time>
      </trkpt>
      <trkpt lat="45.98326" lon="4.43929">
        <ele>760</ele>
        <time>2019-06-28T18:30:46Z</time>
      </trkpt>
      <trkpt lat="45.98282" lon="4.43954">
        <ele>765</ele>
        <time>2019-06-28T18:30:57Z</time>
      </trkpt>
      <trkpt lat="45.98245" lon="4.43995">
        <ele>773</ele>
        <time>2019-06-28T18:31:08Z</time>
      </trkpt>
      <trkpt lat="45.98218" lon="4.4404">
        <ele>775</ele>
        <time>2019-06-28T18:31:18Z</time>
      </trkpt>
      <trkpt lat="45.9824" lon="4.44054">
        <ele>780</ele>
        <time>2019-06-28T18:31:23Z</time>
      </trkpt>
      <trkpt lat="45.98257" lon="4.44084">
        <ele>784</ele>
        <time>2019-06-28T18:31:30Z</time>
      </trkpt>
      <trkpt lat="45.98268" lon="4.44153">
        <ele>789</ele>
        <time>2019-06-28T18:31:41Z</time>
      </trkpt>
      <trkpt lat="45.98267" lon="4.4423">
        <ele>794</ele>
        <time>2019-06-28T18:31:54Z</time>
      </trkpt>
      <trkpt lat="45.9826" lon="4.44272">
        <ele>797</ele>
        <time>2019-06-28T18:32:01Z</time>
      </trkpt>
      <trkpt lat="45.98255" lon="4.44359">
        <ele>799</ele>
        <time>2019-06-28T18:32:15Z</time>
      </trkpt>
      <trkpt lat="45.9826" lon="4.44401">
        <ele>801</ele>
        <time>2019-06-28T18:32:22Z</time>
      </trkpt>
      <trkpt lat="45.98256" lon="4.4445">
        <ele>803</ele>
        <time>2019-06-28T18:32:30Z</time>
      </trkpt>
      <trkpt lat="45.98246" lon="4.44491">
        <ele>804</ele>
        <time>2019-06-28T18:32:37Z</time>
      </trkpt>
      <trkpt lat="45.98211" lon="4.44555">
        <ele>806</ele>
        <time>2019-06-28T18:32:50Z</time>
      </trkpt>
      <trkpt lat="45.98191" lon="4.44572">
        <ele>807</ele>
        <time>2019-06-28T18:32:55Z</time>
      </trkpt>
      <trkpt lat="45.98129" lon="4.44594">
        <ele>815</ele>
        <time>2019-06-28T18:33:10Z</time>
      </trkpt>
      <trkpt lat="45.98067" lon="4.44605">
        <ele>822</ele>
        <time>2019-06-28T18:33:25Z</time>
      </trkpt>
      <trkpt lat="45.98026" lon="4.44607">
        <ele>824</ele>
        <time>2019-06-28T18:33:34Z</time>
      </trkpt>
      <trkpt lat="45.97935" lon="4.44642">
        <ele>831</ele>
        <time>2019-06-28T18:33:56Z</time>
      </trkpt>
      <trkpt lat="45.97861" lon="4.44686">
        <ele>835</ele>
        <time>2019-06-28T18:34:15Z</time>
      </trkpt>
      <trkpt lat="45.97805" lon="4.44699">
        <ele>836</ele>
        <time>2019-06-28T18:34:28Z</time>
      </trkpt>
      <trkpt lat="45.97751" lon="4.44718">
        <ele>839</ele>
        <time>2019-06-28T18:34:41Z</time>
      </trkpt>
      <trkpt lat="45.97705" lon="4.44742">
        <ele>847</ele>
        <time>2019-06-28T18:34:53Z</time>
      </trkpt>
      <trkpt lat="45.97575" lon="4.44859">
        <ele>860</ele>
        <time>2019-06-28T18:35:29Z</time>
      </trkpt>
      <trkpt lat="45.97546" lon="4.44901">
        <ele>854</ele>
        <time>2019-06-28T18:35:38Z</time>
      </trkpt>
      <trkpt lat="45.97509" lon="4.44986">
        <ele>845</ele>
        <time>2019-06-28T18:35:54Z</time>
      </trkpt>
      <trkpt lat="45.97475" lon="4.45023">
        <ele>838</ele>
        <time>2019-06-28T18:36:04Z</time>
      </trkpt>
      <trkpt lat="45.97413" lon="4.45059">
        <ele>828</ele>
        <time>2019-06-28T18:36:20Z</time>
      </trkpt>
      <trkpt lat="45.97381" lon="4.45083">
        <ele>819</ele>
        <time>2019-06-28T18:36:28Z</time>
      </trkpt>
      <trkpt lat="45.97304" lon="4.45231">
        <ele>792</ele>
        <time>2019-06-28T18:36:58Z</time>
      </trkpt>
      <trkpt lat="45.97287" lon="4.45245">
        <ele>790</ele>
        <time>2019-06-28T18:37:03Z</time>
      </trkpt>
      <trkpt lat="45.9728" lon="4.45243">
        <ele>789</ele>
        <time>2019-06-28T18:37:05Z</time>
      </trkpt>
      <trkpt lat="45.97272" lon="4.45237">
        <ele>789</ele>
        <time>2019-06-28T18:37:07Z</time>
      </trkpt>
      <trkpt lat="45.97256" lon="4.45207">
        <ele>789</ele>
        <time>2019-06-28T18:37:13Z</time>
      </trkpt>
      <trkpt lat="45.9722" lon="4.45119">
        <ele>781</ele>
        <time>2019-06-28T18:37:30Z</time>
      </trkpt>
      <trkpt lat="45.97208" lon="4.45072">
        <ele>777</ele>
        <time>2019-06-28T18:37:38Z</time>
      </trkpt>
      <trkpt lat="45.97204" lon="4.45028">
        <ele>775</ele>
        <time>2019-06-28T18:37:45Z</time>
      </trkpt>
      <trkpt lat="45.97173" lon="4.44957">
        <ele>764</ele>
        <time>2019-06-28T18:37:58Z</time>
      </trkpt>
      <trkpt lat="45.97151" lon="4.44889">
        <ele>757</ele>
        <time>2019-06-28T18:38:11Z</time>
      </trkpt>
      <trkpt lat="45.97126" lon="4.44836">
        <ele>750</ele>
        <time>2019-06-28T18:38:21Z</time>
      </trkpt>
      <trkpt lat="45.97108" lon="4.4478">
        <ele>744</ele>
        <time>2019-06-28T18:38:31Z</time>
      </trkpt>
      <trkpt lat="45.97102" lon="4.44722">
        <ele>744</ele>
        <time>2019-06-28T18:38:41Z</time>
      </trkpt>
      <trkpt lat="45.97096" lon="4.44705">
        <ele>744</ele>
        <time>2019-06-28T18:38:44Z</time>
      </trkpt>
      <trkpt lat="45.97082" lon="4.447">
        <ele>741</ele>
        <time>2019-06-28T18:38:47Z</time>
      </trkpt>
      <trkpt lat="45.97071" lon="4.44704">
        <ele>739</ele>
        <time>2019-06-28T18:38:50Z</time>
      </trkpt>
      <trkpt lat="45.97008" lon="4.44601">
        <ele>744</ele>
        <time>2019-06-28T18:39:12Z</time>
      </trkpt>
      <trkpt lat="45.96969" lon="4.44565">
        <ele>749</ele>
        <time>2019-06-28T18:39:23Z</time>
      </trkpt>
      <trkpt lat="45.96899" lon="4.44555">
        <ele>747</ele>
        <time>2019-06-28T18:39:39Z</time>
      </trkpt>
      <trkpt lat="45.96835" lon="4.44533">
        <ele>752</ele>
        <time>2019-06-28T18:39:55Z</time>
      </trkpt>
      <trkpt lat="45.96801" lon="4.44539">
        <ele>749</ele>
        <time>2019-06-28T18:40:03Z</time>
      </trkpt>
      <trkpt lat="45.96768" lon="4.44536">
        <ele>748</ele>
        <time>2019-06-28T18:40:10Z</time>
      </trkpt>
      <trkpt lat="45.96716" lon="4.44538">
        <ele>747</ele>
        <time>2019-06-28T18:40:22Z</time>
      </trkpt>
      <trkpt lat="45.96658" lon="4.44522">
        <ele>744</ele>
        <time>2019-06-28T18:40:36Z</time>
      </trkpt>
      <trkpt lat="45.96642" lon="4.44501">
        <ele>740</ele>
        <time>2019-06-28T18:40:41Z</time>
      </trkpt>
      <trkpt lat="45.96624" lon="4.44455">
        <ele>737</ele>
        <time>2019-06-28T18:40:50Z</time>
      </trkpt>
      <trkpt lat="45.9662" lon="4.44438">
        <ele>736</ele>
        <time>2019-06-28T18:40:53Z</time>
      </trkpt>
      <trkpt lat="45.96612" lon="4.44424">
        <ele>735</ele>
        <time>2019-06-28T18:40:56Z</time>
      </trkpt>
      <trkpt lat="45.96594" lon="4.44411">
        <ele>731</ele>
        <time>2019-06-28T18:41:00Z</time>
      </trkpt>
      <trkpt lat="45.9656" lon="4.44357">
        <ele>732</ele>
        <time>2019-06-28T18:41:12Z</time>
      </trkpt>
      <trkpt lat="45.96535" lon="4.44307">
        <ele>741</ele>
        <time>2019-06-28T18:41:22Z</time>
      </trkpt>
      <trkpt lat="45.96519" lon="4.44305">
        <ele>741</ele>
        <time>2019-06-28T18:41:26Z</time>
      </trkpt>
      <trkpt lat="45.96487" lon="4.4432">
        <ele>735</ele>
        <time>2019-06-28T18:41:34Z</time>
      </trkpt>
      <trkpt lat="45.96447" lon="4.44381">
        <ele>721</ele>
        <time>2019-06-28T18:41:47Z</time>
      </trkpt>
      <trkpt lat="45.96439" lon="4.44404">
        <ele>716</ele>
        <time>2019-06-28T18:41:52Z</time>
      </trkpt>
      <trkpt lat="45.96417" lon="4.44443">
        <ele>707</ele>
        <time>2019-06-28T18:42:00Z</time>
      </trkpt>
      <trkpt lat="45.96398" lon="4.44462">
        <ele>706</ele>
        <time>2019-06-28T18:42:05Z</time>
      </trkpt>
      <trkpt lat="45.96357" lon="4.44473">
        <ele>713</ele>
        <time>2019-06-28T18:42:15Z</time>
      </trkpt>
      <trkpt lat="45.96348" lon="4.44499">
        <ele>709</ele>
        <time>2019-06-28T18:42:20Z</time>
      </trkpt>
      <trkpt lat="45.96341" lon="4.44544">
        <ele>700</ele>
        <time>2019-06-28T18:42:27Z</time>
      </trkpt>
      <trkpt lat="45.96329" lon="4.44577">
        <ele>694</ele>
        <time>2019-06-28T18:42:33Z</time>
      </trkpt>
      <trkpt lat="45.96285" lon="4.4465">
        <ele>700</ele>
        <time>2019-06-28T18:42:49Z</time>
      </trkpt>
      <trkpt lat="45.96251" lon="4.44801">
        <ele>697</ele>
        <time>2019-06-28T18:43:15Z</time>
      </trkpt>
      <trkpt lat="45.96208" lon="4.449">
        <ele>693</ele>
        <time>2019-06-28T18:43:34Z</time>
      </trkpt>
      <trkpt lat="45.96195" lon="4.44909">
        <ele>692</ele>
        <time>2019-06-28T18:43:37Z</time>
      </trkpt>
      <trkpt lat="45.9618" lon="4.44906">
        <ele>693</ele>
        <time>2019-06-28T18:43:40Z</time>
      </trkpt>
      <trkpt lat="45.96166" lon="4.44891">
        <ele>694</ele>
        <time>2019-06-28T18:43:45Z</time>
      </trkpt>
      <trkpt lat="45.96097" lon="4.44737">
        <ele>688</ele>
        <time>2019-06-28T18:44:14Z</time>
      </trkpt>
      <trkpt lat="45.9608" lon="4.44704">
        <ele>689</ele>
        <time>2019-06-28T18:44:21Z</time>
      </trkpt>
      <trkpt lat="45.96062" lon="4.44682">
        <ele>688</ele>
        <time>2019-06-28T18:44:26Z</time>
      </trkpt>
      <trkpt lat="45.96024" lon="4.44623">
        <ele>693</ele>
        <time>2019-06-28T18:44:40Z</time>
      </trkpt>
      <trkpt lat="45.96009" lon="4.44624">
        <ele>689</ele>
        <time>2019-06-28T18:44:43Z</time>
      </trkpt>
      <trkpt lat="45.95994" lon="4.44646">
        <ele>681</ele>
        <time>2019-06-28T18:44:48Z</time>
      </trkpt>
      <trkpt lat="45.95974" lon="4.44662">
        <ele>677</ele>
        <time>2019-06-28T18:44:53Z</time>
      </trkpt>
      <trkpt lat="45.95935" lon="4.44673">
        <ele>674</ele>
        <time>2019-06-28T18:45:03Z</time>
      </trkpt>
      <trkpt lat="45.95916" lon="4.44687">
        <ele>671</ele>
        <time>2019-06-28T18:45:08Z</time>
      </trkpt>
      <trkpt lat="45.95909" lon="4.44696">
        <ele>668</ele>
        <time>2019-06-28T18:45:10Z</time>
      </trkpt>
      <trkpt lat="45.95878" lon="4.44708">
        <ele>663</ele>
        <time>2019-06-28T18:45:17Z</time>
      </trkpt>
      <trkpt lat="45.95836" lon="4.4469">
        <ele>666</ele>
        <time>2019-06-28T18:45:28Z</time>
      </trkpt>
      <trkpt lat="45.9579" lon="4.44715">
        <ele>666</ele>
        <time>2019-06-28T18:45:39Z</time>
      </trkpt>
      <trkpt lat="45.95773" lon="4.44727">
        <ele>665</ele>
        <time>2019-06-28T18:45:43Z</time>
      </trkpt>
      <trkpt lat="45.95761" lon="4.44743">
        <ele>662</ele>
        <time>2019-06-28T18:45:47Z</time>
      </trkpt>
      <trkpt lat="45.95757" lon="4.44762">
        <ele>659</ele>
        <time>2019-06-28T18:45:51Z</time>
      </trkpt>
      <trkpt lat="45.95757" lon="4.44803">
        <ele>654</ele>
        <time>2019-06-28T18:45:57Z</time>
      </trkpt>
      <trkpt lat="45.95753" lon="4.44813">
        <ele>653</ele>
        <time>2019-06-28T18:45:59Z</time>
      </trkpt>
      <trkpt lat="45.95753" lon="4.44851">
        <ele>651</ele>
        <time>2019-06-28T18:46:05Z</time>
      </trkpt>
      <trkpt lat="45.95744" lon="4.44879">
        <ele>653</ele>
        <time>2019-06-28T18:46:10Z</time>
      </trkpt>
      <trkpt lat="45.9573" lon="4.44908">
        <ele>657</ele>
        <time>2019-06-28T18:46:16Z</time>
      </trkpt>
      <trkpt lat="45.95719" lon="4.44919">
        <ele>659</ele>
        <time>2019-06-28T18:46:19Z</time>
      </trkpt>
      <trkpt lat="45.95693" lon="4.44953">
        <ele>659</ele>
        <time>2019-06-28T18:46:27Z</time>
      </trkpt>
      <trkpt lat="45.95633" lon="4.44989">
        <ele>661</ele>
        <time>2019-06-28T18:46:42Z</time>
      </trkpt>
      <trkpt lat="45.9562" lon="4.45002">
        <ele>661</ele>
        <time>2019-06-28T18:46:46Z</time>
      </trkpt>
      <trkpt lat="45.95597" lon="4.45013">
        <ele>661</ele>
        <time>2019-06-28T18:46:52Z</time>
      </trkpt>
      <trkpt lat="45.95558" lon="4.45016">
        <ele>661</ele>
        <time>2019-06-28T18:47:01Z</time>
      </trkpt>
      <trkpt lat="45.95511" lon="4.45005">
        <ele>660</ele>
        <time>2019-06-28T18:47:12Z</time>
      </trkpt>
      <trkpt lat="45.95495" lon="4.44994">
        <ele>660</ele>
        <time>2019-06-28T18:47:16Z</time>
      </trkpt>
      <trkpt lat="45.95474" lon="4.45011">
        <ele>658</ele>
        <time>2019-06-28T18:47:22Z</time>
      </trkpt>
      <trkpt lat="45.95426" lon="4.45073">
        <ele>655</ele>
        <time>2019-06-28T18:47:37Z</time>
      </trkpt>
      <trkpt lat="45.9541" lon="4.45122">
        <ele>653</ele>
        <time>2019-06-28T18:47:46Z</time>
      </trkpt>
      <trkpt lat="45.95393" lon="4.45157">
        <ele>652</ele>
        <time>2019-06-28T18:47:53Z</time>
      </trkpt>
      <trkpt lat="45.9536" lon="4.45213">
        <ele>657</ele>
        <time>2019-06-28T18:48:05Z</time>
      </trkpt>
      <trkpt lat="45.95344" lon="4.45253">
        <ele>662</ele>
        <time>2019-06-28T18:48:12Z</time>
      </trkpt>
      <trkpt lat="45.95325" lon="4.45275">
        <ele>662</ele>
        <time>2019-06-28T18:48:18Z</time>
      </trkpt>
      <trkpt lat="45.95296" lon="4.45296">
        <ele>662</ele>
        <time>2019-06-28T18:48:25Z</time>
      </trkpt>
      <trkpt lat="45.95266" lon="4.45298">
        <ele>663</ele>
        <time>2019-06-28T18:48:32Z</time>
      </trkpt>
      <trkpt lat="45.95251" lon="4.45295">
        <ele>663</ele>
        <time>2019-06-28T18:48:36Z</time>
      </trkpt>
      <trkpt lat="45.95236" lon="4.45303">
        <ele>664</ele>
        <time>2019-06-28T18:48:40Z</time>
      </trkpt>
      <trkpt lat="45.95199" lon="4.45344">
        <ele>666</ele>
        <time>2019-06-28T18:48:51Z</time>
      </trkpt>
      <trkpt lat="45.95142" lon="4.454">
        <ele>661</ele>
        <time>2019-06-28T18:49:07Z</time>
      </trkpt>
      <trkpt lat="45.95126" lon="4.45413">
        <ele>659</ele>
        <time>2019-06-28T18:49:11Z</time>
      </trkpt>
      <trkpt lat="45.95117" lon="4.45425">
        <ele>658</ele>
        <time>2019-06-28T18:49:14Z</time>
      </trkpt>
      <trkpt lat="45.95099" lon="4.45442">
        <ele>656</ele>
        <time>2019-06-28T18:49:19Z</time>
      </trkpt>
      <trkpt lat="45.95091" lon="4.45474">
        <ele>655</ele>
        <time>2019-06-28T18:49:24Z</time>
      </trkpt>
      <trkpt lat="45.95091" lon="4.45498">
        <ele>654</ele>
        <time>2019-06-28T18:49:28Z</time>
      </trkpt>
      <trkpt lat="45.95075" lon="4.45542">
        <ele>648</ele>
        <time>2019-06-28T18:49:36Z</time>
      </trkpt>
      <trkpt lat="45.95056" lon="4.45578">
        <ele>642</ele>
        <time>2019-06-28T18:49:44Z</time>
      </trkpt>
      <trkpt lat="45.95021" lon="4.45604">
        <ele>636</ele>
        <time>2019-06-28T18:49:53Z</time>
      </trkpt>
      <trkpt lat="45.95012" lon="4.45606">
        <ele>635</ele>
        <time>2019-06-28T18:49:55Z</time>
      </trkpt>
      <trkpt lat="45.94998" lon="4.45615">
        <ele>633</ele>
        <time>2019-06-28T18:49:59Z</time>
      </trkpt>
      <trkpt lat="45.94983" lon="4.4564">
        <ele>630</ele>
        <time>2019-06-28T18:50:04Z</time>
      </trkpt>
      <trkpt lat="45.94961" lon="4.45692">
        <ele>624</ele>
        <time>2019-06-28T18:50:14Z</time>
      </trkpt>
      <trkpt lat="45.94937" lon="4.45721">
        <ele>621</ele>
        <time>2019-06-28T18:50:21Z</time>
      </trkpt>
      <trkpt lat="45.94911" lon="4.45738">
        <ele>621</ele>
        <time>2019-06-28T18:50:28Z</time>
      </trkpt>
      <trkpt lat="45.94878" lon="4.45777">
        <ele>620</ele>
        <time>2019-06-28T18:50:38Z</time>
      </trkpt>
      <trkpt lat="45.94861" lon="4.45777">
        <ele>621</ele>
        <time>2019-06-28T18:50:42Z</time>
      </trkpt>
      <trkpt lat="45.94839" lon="4.4577">
        <ele>622</ele>
        <time>2019-06-28T18:50:47Z</time>
      </trkpt>
      <trkpt lat="45.94785" lon="4.45765">
        <ele>624</ele>
        <time>2019-06-28T18:51:00Z</time>
      </trkpt>
      <trkpt lat="45.94691" lon="4.4574">
        <ele>629</ele>
        <time>2019-06-28T18:51:22Z</time>
      </trkpt>
      <trkpt lat="45.94641" lon="4.45732">
        <ele>629</ele>
        <time>2019-06-28T18:51:34Z</time>
      </trkpt>
      <trkpt lat="45.94609" lon="4.45742">
        <ele>629</ele>
        <time>2019-06-28T18:51:41Z</time>
      </trkpt>
      <trkpt lat="45.94582" lon="4.45763">
        <ele>631</ele>
        <time>2019-06-28T18:51:49Z</time>
      </trkpt>
      <trkpt lat="45.94557" lon="4.45795">
        <ele>630</ele>
        <time>2019-06-28T18:51:56Z</time>
      </trkpt>
      <trkpt lat="45.94532" lon="4.45841">
        <ele>629</ele>
        <time>2019-06-28T18:52:06Z</time>
      </trkpt>
      <trkpt lat="45.9451" lon="4.45894">
        <ele>627</ele>
        <time>2019-06-28T18:52:16Z</time>
      </trkpt>
      <trkpt lat="45.94498" lon="4.45958">
        <ele>629</ele>
        <time>2019-06-28T18:52:27Z</time>
      </trkpt>
      <trkpt lat="45.94487" lon="4.45989">
        <ele>629</ele>
        <time>2019-06-28T18:52:32Z</time>
      </trkpt>
      <trkpt lat="45.94427" lon="4.46088">
        <ele>631</ele>
        <time>2019-06-28T18:52:54Z</time>
      </trkpt>
      <trkpt lat="45.94404" lon="4.46098">
        <ele>631</ele>
        <time>2019-06-28T18:52:59Z</time>
      </trkpt>
      <trkpt lat="45.94359" lon="4.46131">
        <ele>632</ele>
        <time>2019-06-28T18:53:11Z</time>
      </trkpt>
      <trkpt lat="45.94323" lon="4.46163">
        <ele>633</ele>
        <time>2019-06-28T18:53:21Z</time>
      </trkpt>
      <trkpt lat="45.9424" lon="4.46217">
        <ele>632</ele>
        <time>2019-06-28T18:53:42Z</time>
      </trkpt>
      <trkpt lat="45.94197" lon="4.46248">
        <ele>630</ele>
        <time>2019-06-28T18:53:53Z</time>
      </trkpt>
      <trkpt lat="45.94152" lon="4.46331">
        <ele>627</ele>
        <time>2019-06-28T18:54:10Z</time>
      </trkpt>
      <trkpt lat="45.94123" lon="4.4635">
        <ele>624</ele>
        <time>2019-06-28T18:54:18Z</time>
      </trkpt>
      <trkpt lat="45.94106" lon="4.46367">
        <ele>623</ele>
        <time>2019-06-28T18:54:23Z</time>
      </trkpt>
      <trkpt lat="45.94088" lon="4.46401">
        <ele>621</ele>
        <time>2019-06-28T18:54:30Z</time>
      </trkpt>
      <trkpt lat="45.94075" lon="4.46456">
        <ele>619</ele>
        <time>2019-06-28T18:54:39Z</time>
      </trkpt>
      <trkpt lat="45.94069" lon="4.4647">
        <ele>618</ele>
        <time>2019-06-28T18:54:42Z</time>
      </trkpt>
      <trkpt lat="45.94056" lon="4.4649">
        <ele>617</ele>
        <time>2019-06-28T18:54:46Z</time>
      </trkpt>
      <trkpt lat="45.94033" lon="4.46509">
        <ele>615</ele>
        <time>2019-06-28T18:54:52Z</time>
      </trkpt>
      <trkpt lat="45.94012" lon="4.46519">
        <ele>614</ele>
        <time>2019-06-28T18:54:58Z</time>
      </trkpt>
      <trkpt lat="45.93984" lon="4.46537">
        <ele>612</ele>
        <time>2019-06-28T18:55:05Z</time>
      </trkpt>
      <trkpt lat="45.93965" lon="4.46541">
        <ele>612</ele>
        <time>2019-06-28T18:55:09Z</time>
      </trkpt>
      <trkpt lat="45.93881" lon="4.46591">
        <ele>610</ele>
        <time>2019-06-28T18:55:30Z</time>
      </trkpt>
      <trkpt lat="45.93851" lon="4.46603">
        <ele>610</ele>
        <time>2019-06-28T18:55:38Z</time>
      </trkpt>
      <trkpt lat="45.93828" lon="4.46616">
        <ele>609</ele>
        <time>2019-06-28T18:55:44Z</time>
      </trkpt>
      <trkpt lat="45.9379" lon="4.46633">
        <ele>604</ele>
        <time>2019-06-28T18:55:53Z</time>
      </trkpt>
      <trkpt lat="45.93765" lon="4.46648">
        <ele>601</ele>
        <time>2019-06-28T18:55:59Z</time>
      </trkpt>
      <trkpt lat="45.93744" lon="4.46656">
        <ele>598</ele>
        <time>2019-06-28T18:56:04Z</time>
      </trkpt>
      <trkpt lat="45.93717" lon="4.46689">
        <ele>594</ele>
        <time>2019-06-28T18:56:12Z</time>
      </trkpt>
      <trkpt lat="45.93716" lon="4.46697">
        <ele>593</ele>
        <time>2019-06-28T18:56:14Z</time>
      </trkpt>
      <trkpt lat="45.93729" lon="4.46682">
        <ele>595</ele>
        <time>2019-06-28T18:56:18Z</time>
      </trkpt>
      <trkpt lat="45.93742" lon="4.46674">
        <ele>597</ele>
        <time>2019-06-28T18:56:21Z</time>
      </trkpt>
      <trkpt lat="45.93753" lon="4.4668">
        <ele>597</ele>
        <time>2019-06-28T18:56:24Z</time>
      </trkpt>
      <trkpt lat="45.9378" lon="4.46749">
        <ele>593</ele>
        <time>2019-06-28T18:56:37Z</time>
      </trkpt>
      <trkpt lat="45.93793" lon="4.46764">
        <ele>593</ele>
        <time>2019-06-28T18:56:41Z</time>
      </trkpt>
      <trkpt lat="45.93816" lon="4.46776">
        <ele>594</ele>
        <time>2019-06-28T18:56:46Z</time>
      </trkpt>
      <trkpt lat="45.93841" lon="4.46777">
        <ele>596</ele>
        <time>2019-06-28T18:56:52Z</time>
      </trkpt>
      <trkpt lat="45.93866" lon="4.46768">
        <ele>600</ele>
        <time>2019-06-28T18:56:58Z</time>
      </trkpt>
      <trkpt lat="45.93885" lon="4.46766">
        <ele>601</ele>
        <time>2019-06-28T18:57:03Z</time>
      </trkpt>
      <trkpt lat="45.93911" lon="4.46772">
        <ele>602</ele>
        <time>2019-06-28T18:57:09Z</time>
      </trkpt>
      <trkpt lat="45.9394" lon="4.46788">
        <ele>598</ele>
        <time>2019-06-28T18:57:16Z</time>
      </trkpt>
      <trkpt lat="45.9399" lon="4.46839">
        <ele>590</ele>
        <time>2019-06-28T18:57:30Z</time>
      </trkpt>
      <trkpt lat="45.94015" lon="4.46845">
        <ele>587</ele>
        <time>2019-06-28T18:57:36Z</time>
      </trkpt>
      <trkpt lat="45.94045" lon="4.46819">
        <ele>585</ele>
        <time>2019-06-28T18:57:44Z</time>
      </trkpt>
      <trkpt lat="45.94122" lon="4.46798">
        <ele>579</ele>
        <time>2019-06-28T18:58:03Z</time>
      </trkpt>
      <trkpt lat="45.94168" lon="4.46813">
        <ele>573</ele>
        <time>2019-06-28T18:58:14Z</time>
      </trkpt>
      <trkpt lat="45.94183" lon="4.46823">
        <ele>572</ele>
        <time>2019-06-28T18:58:18Z</time>
      </trkpt>
      <trkpt lat="45.9422" lon="4.46837">
        <ele>571</ele>
        <time>2019-06-28T18:58:26Z</time>
      </trkpt>
      <trkpt lat="45.94224" lon="4.46847">
        <ele>569</ele>
        <time>2019-06-28T18:58:28Z</time>
      </trkpt>
      <trkpt lat="45.94238" lon="4.46864">
        <ele>567</ele>
        <time>2019-06-28T18:58:33Z</time>
      </trkpt>
      <trkpt lat="45.94283" lon="4.46899">
        <ele>559</ele>
        <time>2019-06-28T18:58:45Z</time>
      </trkpt>
      <trkpt lat="45.94336" lon="4.46921">
        <ele>554</ele>
        <time>2019-06-28T18:58:57Z</time>
      </trkpt>
      <trkpt lat="45.94322" lon="4.46955">
        <ele>549</ele>
        <time>2019-06-28T18:59:04Z</time>
      </trkpt>
      <trkpt lat="45.94315" lon="4.46979">
        <ele>545</ele>
        <time>2019-06-28T18:59:08Z</time>
      </trkpt>
      <trkpt lat="45.94286" lon="4.47045">
        <ele>530</ele>
        <time>2019-06-28T18:59:21Z</time>
      </trkpt>
      <trkpt lat="45.94272" lon="4.47062">
        <ele>526</ele>
        <time>2019-06-28T18:59:25Z</time>
      </trkpt>
      <trkpt lat="45.94266" lon="4.47074">
        <ele>524</ele>
        <time>2019-06-28T18:59:27Z</time>
      </trkpt>
      <trkpt lat="45.9429" lon="4.47114">
        <ele>513</ele>
        <time>2019-06-28T18:59:36Z</time>
      </trkpt>
      <trkpt lat="45.94309" lon="4.47124">
        <ele>510</ele>
        <time>2019-06-28T18:59:41Z</time>
      </trkpt>
      <trkpt lat="45.94308" lon="4.47136">
        <ele>507</ele>
        <time>2019-06-28T18:59:43Z</time>
      </trkpt>
      <trkpt lat="45.9427" lon="4.47183">
        <ele>497</ele>
        <time>2019-06-28T18:59:54Z</time>
      </trkpt>
      <trkpt lat="45.94262" lon="4.47187">
        <ele>496</ele>
        <time>2019-06-28T18:59:56Z</time>
      </trkpt>
      <trkpt lat="45.94274" lon="4.47198">
        <ele>493</ele>
        <time>2019-06-28T19:00:00Z</time>
      </trkpt>
      <trkpt lat="45.94286" lon="4.47205">
        <ele>491</ele>
        <time>2019-06-28T19:00:03Z</time>
      </trkpt>
      <trkpt lat="45.94316" lon="4.47212">
        <ele>488</ele>
        <time>2019-06-28T19:00:10Z</time>
      </trkpt>
      <trkpt lat="45.94356" lon="4.4719">
        <ele>487</ele>
        <time>2019-06-28T19:00:20Z</time>
      </trkpt>
      <trkpt lat="45.94418" lon="4.47148">
        <ele>481</ele>
        <time>2019-06-28T19:00:36Z</time>
      </trkpt>
      <trkpt lat="45.94522" lon="4.47128">
        <ele>456</ele>
        <time>2019-06-28T19:01:00Z</time>
      </trkpt>
      <trkpt lat="45.94613" lon="4.47075">
        <ele>443</ele>
        <time>2019-06-28T19:01:23Z</time>
      </trkpt>
      <trkpt lat="45.94575" lon="4.4715">
        <ele>438</ele>
        <time>2019-06-28T19:01:38Z</time>
      </trkpt>
      <trkpt lat="45.94546" lon="4.47189">
        <ele>439</ele>
        <time>2019-06-28T19:01:48Z</time>
      </trkpt>
      <trkpt lat="45.94436" lon="4.47311">
        <ele>435</ele>
        <time>2019-06-28T19:02:20Z</time>
      </trkpt>
      <trkpt lat="45.94363" lon="4.47426">
        <ele>429</ele>
        <time>2019-06-28T19:02:45Z</time>
      </trkpt>
      <trkpt lat="45.94336" lon="4.47442">
        <ele>431</ele>
        <time>2019-06-28T19:02:52Z</time>
      </trkpt>
      <trkpt lat="45.94255" lon="4.47564">
        <ele>425</ele>
        <time>2019-06-28T19:03:20Z</time>
      </trkpt>
      <trkpt lat="45.9417" lon="4.47617">
        <ele>427</ele>
        <time>2019-06-28T19:03:41Z</time>
      </trkpt>
      <trkpt lat="45.94138" lon="4.47658">
        <ele>420</ele>
        <time>2019-06-28T19:03:51Z</time>
      </trkpt>
      <trkpt lat="45.94068" lon="4.47727">
        <ele>419</ele>
        <time>2019-06-28T19:04:11Z</time>
      </trkpt>
      <trkpt lat="45.93966" lon="4.47862">
        <ele>409</ele>
        <time>2019-06-28T19:04:43Z</time>
      </trkpt>
      <trkpt lat="45.93921" lon="4.47913">
        <ele>406</ele>
        <time>2019-06-28T19:04:57Z</time>
      </trkpt>
      <trkpt lat="45.93869" lon="4.47982">
        <ele>403</ele>
        <time>2019-06-28T19:05:13Z</time>
      </trkpt>
      <trkpt lat="45.9388" lon="4.47976">
        <ele>403</ele>
        <time>2019-06-28T19:05:16Z</time>
      </trkpt>
      <trkpt lat="45.93902" lon="4.47955">
        <ele>404</ele>
        <time>2019-06-28T19:05:22Z</time>
      </trkpt>
      <trkpt lat="45.93916" lon="4.47949">
        <ele>404</ele>
        <time>2019-06-28T19:05:26Z</time>
      </trkpt>
      <trkpt lat="45.93934" lon="4.4793">
        <ele>405</ele>
        <time>2019-06-28T19:05:31Z</time>
      </trkpt>
      <trkpt lat="45.93996" lon="4.47883">
        <ele>404</ele>
        <time>2019-06-28T19:05:47Z</time>
      </trkpt>
      <trkpt lat="45.94031" lon="4.47892">
        <ele>406</ele>
        <time>2019-06-28T19:05:56Z</time>
      </trkpt>
      <trkpt lat="45.94172" lon="4.47984">
        <ele>423</ele>
        <time>2019-06-28T19:06:32Z</time>
      </trkpt>
      <trkpt lat="45.94193" lon="4.47991">
        <ele>427</ele>
        <time>2019-06-28T19:06:37Z</time>
      </trkpt>
      <trkpt lat="45.9421" lon="4.47992">
        <ele>431</ele>
        <time>2019-06-28T19:06:41Z</time>
      </trkpt>
      <trkpt lat="45.9427" lon="4.48028">
        <ele>438</ele>
        <time>2019-06-28T19:06:56Z</time>
      </trkpt>
      <trkpt lat="45.94325" lon="4.48046">
        <ele>440</ele>
        <time>2019-06-28T19:07:09Z</time>
      </trkpt>
      <trkpt lat="45.94387" lon="4.48079">
        <ele>442</ele>
        <time>2019-06-28T19:07:24Z</time>
      </trkpt>
      <trkpt lat="45.94413" lon="4.481">
        <ele>444</ele>
        <time>2019-06-28T19:07:31Z</time>
      </trkpt>
      <trkpt lat="45.94426" lon="4.48115">
        <ele>443</ele>
        <time>2019-06-28T19:07:35Z</time>
      </trkpt>
      <trkpt lat="45.9445" lon="4.48124">
        <ele>446</ele>
        <time>2019-06-28T19:07:41Z</time>
      </trkpt>
      <trkpt lat="45.94462" lon="4.48132">
        <ele>446</ele>
        <time>2019-06-28T19:07:44Z</time>
      </trkpt>
      <trkpt lat="45.94522" lon="4.48149">
        <ele>450</ele>
        <time>2019-06-28T19:07:58Z</time>
      </trkpt>
      <trkpt lat="45.94576" lon="4.48173">
        <ele>453</ele>
        <time>2019-06-28T19:08:12Z</time>
      </trkpt>
      <trkpt lat="45.94623" lon="4.48204">
        <ele>457</ele>
        <time>2019-06-28T19:08:24Z</time>
      </trkpt>
      <trkpt lat="45.94635" lon="4.48205">
        <ele>459</ele>
        <time>2019-06-28T19:08:27Z</time>
      </trkpt>
      <trkpt lat="45.94659" lon="4.48217">
        <ele>460</ele>
        <time>2019-06-28T19:08:32Z</time>
      </trkpt>
      <trkpt lat="45.94683" lon="4.48245">
        <ele>458</ele>
        <time>2019-06-28T19:08:40Z</time>
      </trkpt>
      <trkpt lat="45.94788" lon="4.48316">
        <ele>477</ele>
        <time>2019-06-28T19:09:07Z</time>
      </trkpt>
      <trkpt lat="45.94821" lon="4.48352">
        <ele>482</ele>
        <time>2019-06-28T19:09:16Z</time>
      </trkpt>
      <trkpt lat="45.94869" lon="4.48423">
        <ele>475</ele>
        <time>2019-06-28T19:09:33Z</time>
      </trkpt>
      <trkpt lat="45.94902" lon="4.48453">
        <ele>479</ele>
        <time>2019-06-28T19:09:42Z</time>
      </trkpt>
      <trkpt lat="45.94938" lon="4.48481">
        <ele>480</ele>
        <time>2019-06-28T19:09:51Z</time>
      </trkpt>
      <trkpt lat="45.94983" lon="4.48498">
        <ele>483</ele>
        <time>2019-06-28T19:10:02Z</time>
      </trkpt>
      <trkpt lat="45.94993" lon="4.48507">
        <ele>485</ele>
        <time>2019-06-28T19:10:05Z</time>
      </trkpt>
      <trkpt lat="45.95037" lon="4.48526">
        <ele>489</ele>
        <time>2019-06-28T19:10:16Z</time>
      </trkpt>
      <trkpt lat="45.95094" lon="4.48535">
        <ele>494</ele>
        <time>2019-06-28T19:10:29Z</time>
      </trkpt>
      <trkpt lat="45.95246" lon="4.48541">
        <ele>519</ele>
        <time>2019-06-28T19:11:04Z</time>
      </trkpt>
      <trkpt lat="45.95314" lon="4.48555">
        <ele>528</ele>
        <time>2019-06-28T19:11:21Z</time>
      </trkpt>
      <trkpt lat="45.95435" lon="4.48601">
        <ele>543</ele>
        <time>2019-06-28T19:11:50Z</time>
      </trkpt>
      <trkpt lat="45.95447" lon="4.48602">
        <ele>545</ele>
        <time>2019-06-28T19:11:53Z</time>
      </trkpt>
      <trkpt lat="45.95471" lon="4.4858">
        <ele>548</ele>
        <time>2019-06-28T19:11:59Z</time>
      </trkpt>
      <trkpt lat="45.95531" lon="4.48599">
        <ele>559</ele>
        <time>2019-06-28T19:12:14Z</time>
      </trkpt>
      <trkpt lat="45.95558" lon="4.48599">
        <ele>564</ele>
        <time>2019-06-28T19:12:20Z</time>
      </trkpt>
      <trkpt lat="45.9568" lon="4.48589">
        <ele>589</ele>
        <time>2019-06-28T19:12:48Z</time>
      </trkpt>
      <trkpt lat="45.95678" lon="4.48595">
        <ele>589</ele>
        <time>2019-06-28T19:12:49Z</time>
      </trkpt>
      <trkpt lat="45.95648" lon="4.48622">
        <ele>583</ele>
        <time>2019-06-28T19:12:58Z</time>
      </trkpt>
      <trkpt lat="45.95617" lon="4.48674">
        <ele>582</ele>
        <time>2019-06-28T19:13:09Z</time>
      </trkpt>
      <trkpt lat="45.95605" lon="4.48687">
        <ele>584</ele>
        <time>2019-06-28T19:13:12Z</time>
      </trkpt>
      <trkpt lat="45.95546" lon="4.4871">
        <ele>580</ele>
        <time>2019-06-28T19:13:27Z</time>
      </trkpt>
      <trkpt lat="45.95534" lon="4.48719">
        <ele>580</ele>
        <time>2019-06-28T19:13:30Z</time>
      </trkpt>
      <trkpt lat="45.95502" lon="4.48758">
        <ele>585</ele>
        <time>2019-06-28T19:13:40Z</time>
      </trkpt>
      <trkpt lat="45.95487" lon="4.48801">
        <ele>595</ele>
        <time>2019-06-28T19:13:47Z</time>
      </trkpt>
      <trkpt lat="45.95471" lon="4.48825">
        <ele>600</ele>
        <time>2019-06-28T19:13:53Z</time>
      </trkpt>
      <trkpt lat="45.95452" lon="4.48835">
        <ele>602</ele>
        <time>2019-06-28T19:13:58Z</time>
      </trkpt>
      <trkpt lat="45.95388" lon="4.48822">
        <ele>596</ele>
        <time>2019-06-28T19:14:13Z</time>
      </trkpt>
      <trkpt lat="45.95324" lon="4.48816">
        <ele>595</ele>
        <time>2019-06-28T19:14:28Z</time>
      </trkpt>
      <trkpt lat="45.95283" lon="4.48797">
        <ele>586</ele>
        <time>2019-06-28T19:14:38Z</time>
      </trkpt>
      <trkpt lat="45.95227" lon="4.48808">
        <ele>581</ele>
        <time>2019-06-28T19:14:51Z</time>
      </trkpt>
      <trkpt lat="45.95196" lon="4.48818">
        <ele>574</ele>
        <time>2019-06-28T19:14:58Z</time>
      </trkpt>
      <trkpt lat="45.95175" lon="4.48835">
        <ele>571</ele>
        <time>2019-06-28T19:15:04Z</time>
      </trkpt>
      <trkpt lat="45.95162" lon="4.48868">
        <ele>569</ele>
        <time>2019-06-28T19:15:10Z</time>
      </trkpt>
      <trkpt lat="45.95158" lon="4.48899">
        <ele>571</ele>
        <time>2019-06-28T19:15:15Z</time>
      </trkpt>
      <trkpt lat="45.95169" lon="4.48966">
        <ele>578</ele>
        <time>2019-06-28T19:15:26Z</time>
      </trkpt>
      <trkpt lat="45.95159" lon="4.48976">
        <ele>576</ele>
        <time>2019-06-28T19:15:29Z</time>
      </trkpt>
      <trkpt lat="45.95117" lon="4.49001">
        <ele>565</ele>
        <time>2019-06-28T19:15:40Z</time>
      </trkpt>
      <trkpt lat="45.95081" lon="4.4903">
        <ele>560</ele>
        <time>2019-06-28T19:15:49Z</time>
      </trkpt>
      <trkpt lat="45.95047" lon="4.49117">
        <ele>577</ele>
        <time>2019-06-28T19:16:06Z</time>
      </trkpt>
      <trkpt lat="45.95044" lon="4.4913">
        <ele>578</ele>
        <time>2019-06-28T19:16:08Z</time>
      </trkpt>
      <trkpt lat="45.95026" lon="4.49161">
        <ele>582</ele>
        <time>2019-06-28T19:16:14Z</time>
      </trkpt>
      <trkpt lat="45.95018" lon="4.49156">
        <ele>582</ele>
        <time>2019-06-28T19:16:16Z</time>
      </trkpt>
      <trkpt lat="45.94999" lon="4.49165">
        <ele>582</ele>
        <time>2019-06-28T19:16:21Z</time>
      </trkpt>
      <trkpt lat="45.94952" lon="4.49211">
        <ele>598</ele>
        <time>2019-06-28T19:16:34Z</time>
      </trkpt>
      <trkpt lat="45.94922" lon="4.49259">
        <ele>602</ele>
        <time>2019-06-28T19:16:45Z</time>
      </trkpt>
      <trkpt lat="45.94899" lon="4.49286">
        <ele>610</ele>
        <time>2019-06-28T19:16:52Z</time>
      </trkpt>
      <trkpt lat="45.94907" lon="4.49303">
        <ele>608</ele>
        <time>2019-06-28T19:16:55Z</time>
      </trkpt>
      <trkpt lat="45.94926" lon="4.49315">
        <ele>606</ele>
        <time>2019-06-28T19:17:00Z</time>
      </trkpt>
      <trkpt lat="45.94931" lon="4.49331">
        <ele>607</ele>
        <time>2019-06-28T19:17:03Z</time>
      </trkpt>
      <trkpt lat="45.9493" lon="4.49392">
        <ele>610</ele>
        <time>2019-06-28T19:17:13Z</time>
      </trkpt>
      <trkpt lat="45.94932" lon="4.494">
        <ele>611</ele>
        <time>2019-06-28T19:17:14Z</time>
      </trkpt>
      <trkpt lat="45.94932" lon="4.49425">
        <ele>611</ele>
        <time>2019-06-28T19:17:18Z</time>
      </trkpt>
      <trkpt lat="45.94915" lon="4.49521">
        <ele>605</ele>
        <time>2019-06-28T19:17:34Z</time>
      </trkpt>
      <trkpt lat="45.9487" lon="4.49609">
        <ele>598</ele>
        <time>2019-06-28T19:17:52Z</time>
      </trkpt>
      <trkpt lat="45.94856" lon="4.49648">
        <ele>592</ele>
        <time>2019-06-28T19:17:59Z</time>
      </trkpt>
      <trkpt lat="45.94856" lon="4.49686">
        <ele>584</ele>
        <time>2019-06-28T19:18:05Z</time>
      </trkpt>
      <trkpt lat="45.94861" lon="4.49716">
        <ele>575</ele>
        <time>2019-06-28T19:18:10Z</time>
      </trkpt>
      <trkpt lat="45.94873" lon="4.49728">
        <ele>572</ele>
        <time>2019-06-28T19:18:14Z</time>
      </trkpt>
      <trkpt lat="45.949" lon="4.49737">
        <ele>570</ele>
        <time>2019-06-28T19:18:20Z</time>
      </trkpt>
      <trkpt lat="45.94909" lon="4.49746">
        <ele>568</ele>
        <time>2019-06-28T19:18:23Z</time>
      </trkpt>
      <trkpt lat="45.94903" lon="4.49792">
        <ele>558</ele>
        <time>2019-06-28T19:18:30Z</time>
      </trkpt>
      <trkpt lat="45.94903" lon="4.49839">
        <ele>548</ele>
        <time>2019-06-28T19:18:38Z</time>
      </trkpt>
      <trkpt lat="45.94899" lon="4.49916">
        <ele>540</ele>
        <time>2019-06-28T19:18:51Z</time>
      </trkpt>
      <trkpt lat="45.9488" lon="4.49955">
        <ele>533</ele>
        <time>2019-06-28T19:18:58Z</time>
      </trkpt>
      <trkpt lat="45.94882" lon="4.50027">
        <ele>525</ele>
        <time>2019-06-28T19:19:10Z</time>
      </trkpt>
      <trkpt lat="45.94874" lon="4.50158">
        <ele>514</ele>
        <time>2019-06-28T19:19:31Z</time>
      </trkpt>
      <trkpt lat="45.94863" lon="4.50223">
        <ele>510</ele>
        <time>2019-06-28T19:19:42Z</time>
      </trkpt>
      <trkpt lat="45.94861" lon="4.50401">
        <ele>488</ele>
        <time>2019-06-28T19:20:11Z</time>
      </trkpt>
      <trkpt lat="45.94854" lon="4.50443">
        <ele>482</ele>
        <time>2019-06-28T19:20:18Z</time>
      </trkpt>
      <trkpt lat="45.94856" lon="4.50454">
        <ele>480</ele>
        <time>2019-06-28T19:20:20Z</time>
      </trkpt>
      <trkpt lat="45.94871" lon="4.50478">
        <ele>477</ele>
        <time>2019-06-28T19:20:25Z</time>
      </trkpt>
      <trkpt lat="45.94871" lon="4.50488">
        <ele>475</ele>
        <time>2019-06-28T19:20:27Z</time>
      </trkpt>
      <trkpt lat="45.94864" lon="4.5054">
        <ele>468</ele>
        <time>2019-06-28T19:20:35Z</time>
      </trkpt>
      <trkpt lat="45.94847" lon="4.50587">
        <ele>461</ele>
        <time>2019-06-28T19:20:44Z</time>
      </trkpt>
      <trkpt lat="45.94848" lon="4.50597">
        <ele>460</ele>
        <time>2019-06-28T19:20:46Z</time>
      </trkpt>
      <trkpt lat="45.94878" lon="4.50673">
        <ele>450</ele>
        <time>2019-06-28T19:21:00Z</time>
      </trkpt>
      <trkpt lat="45.94879" lon="4.5068">
        <ele>450</ele>
        <time>2019-06-28T19:21:01Z</time>
      </trkpt>
      <trkpt lat="45.94878" lon="4.50693">
        <ele>448</ele>
        <time>2019-06-28T19:21:03Z</time>
      </trkpt>
      <trkpt lat="45.94868" lon="4.50733">
        <ele>444</ele>
        <time>2019-06-28T19:21:10Z</time>
      </trkpt>
      <trkpt lat="45.94844" lon="4.50774">
        <ele>440</ele>
        <time>2019-06-28T19:21:19Z</time>
      </trkpt>
      <trkpt lat="45.9483" lon="4.50789">
        <ele>437</ele>
        <time>2019-06-28T19:21:23Z</time>
      </trkpt>
      <trkpt lat="45.94826" lon="4.50802">
        <ele>435</ele>
        <time>2019-06-28T19:21:25Z</time>
      </trkpt>
      <trkpt lat="45.94831" lon="4.50872">
        <ele>431</ele>
        <time>2019-06-28T19:21:37Z</time>
      </trkpt>
      <trkpt lat="45.94846" lon="4.51014">
        <ele>422</ele>
        <time>2019-06-28T19:22:00Z</time>
      </trkpt>
      <trkpt lat="45.94855" lon="4.51058">
        <ele>421</ele>
        <time>2019-06-28T19:22:07Z</time>
      </trkpt>
      <trkpt lat="45.94869" lon="4.51083">
        <ele>420</ele>
        <time>2019-06-28T19:22:13Z</time>
      </trkpt>
      <trkpt lat="45.94872" lon="4.51096">
        <ele>419</ele>
        <time>2019-06-28T19:22:15Z</time>
      </trkpt>
      <trkpt lat="45.94876" lon="4.51144">
        <ele>416</ele>
        <time>2019-06-28T19:22:23Z</time>
      </trkpt>
      <trkpt lat="45.94875" lon="4.51171">
        <ele>415</ele>
        <time>2019-06-28T19:22:27Z</time>
      </trkpt>
      <trkpt lat="45.94872" lon="4.51189">
        <ele>413</ele>
        <time>2019-06-28T19:22:30Z</time>
      </trkpt>
      <trkpt lat="45.94863" lon="4.51215">
        <ele>412</ele>
        <time>2019-06-28T19:22:35Z</time>
      </trkpt>
      <trkpt lat="45.94858" lon="4.51269">
        <ele>408</ele>
        <time>2019-06-28T19:22:44Z</time>
      </trkpt>
      <trkpt lat="45.94841" lon="4.51321">
        <ele>405</ele>
        <time>2019-06-28T19:22:53Z</time>
      </trkpt>
      <trkpt lat="45.94836" lon="4.51349">
        <ele>404</ele>
        <time>2019-06-28T19:22:58Z</time>
      </trkpt>
      <trkpt lat="45.94834" lon="4.51398">
        <ele>400</ele>
        <time>2019-06-28T19:23:06Z</time>
      </trkpt>
      <trkpt lat="45.94838" lon="4.51486">
        <ele>395</ele>
        <time>2019-06-28T19:23:20Z</time>
      </trkpt>
      <trkpt lat="45.94831" lon="4.51563">
        <ele>389</ele>
        <time>2019-06-28T19:23:33Z</time>
      </trkpt>
      <trkpt lat="45.9483" lon="4.5164">
        <ele>383</ele>
        <time>2019-06-28T19:23:45Z</time>
      </trkpt>
      <trkpt lat="45.94823" lon="4.51709">
        <ele>377</ele>
        <time>2019-06-28T19:23:56Z</time>
      </trkpt>
      <trkpt lat="45.94814" lon="4.51746">
        <ele>373</ele>
        <time>2019-06-28T19:24:03Z</time>
      </trkpt>
      <trkpt lat="45.94795" lon="4.51915">
        <ele>354</ele>
        <time>2019-06-28T19:24:31Z</time>
      </trkpt>
      <trkpt lat="45.94792" lon="4.51994">
        <ele>347</ele>
        <time>2019-06-28T19:24:43Z</time>
      </trkpt>
      <trkpt lat="45.94781" lon="4.52056">
        <ele>340</ele>
        <time>2019-06-28T19:24:54Z</time>
      </trkpt>
      <trkpt lat="45.94763" lon="4.52086">
        <ele>336</ele>
        <time>2019-06-28T19:25:00Z</time>
      </trkpt>
      <trkpt lat="45.94742" lon="4.5213">
        <ele>332</ele>
        <time>2019-06-28T19:25:09Z</time>
      </trkpt>
      <trkpt lat="45.94721" lon="4.52178">
        <ele>330</ele>
        <time>2019-06-28T19:25:18Z</time>
      </trkpt>
      <trkpt lat="45.94708" lon="4.52218">
        <ele>331</ele>
        <time>2019-06-28T19:25:25Z</time>
      </trkpt>
      <trkpt lat="45.947" lon="4.52233">
        <ele>331</ele>
        <time>2019-06-28T19:25:28Z</time>
      </trkpt>
      <trkpt lat="45.94695" lon="4.52236">
        <ele>330</ele>
        <time>2019-06-28T19:25:30Z</time>
      </trkpt>
      <trkpt lat="45.94707" lon="4.52244">
        <ele>331</ele>
        <time>2019-06-28T19:25:33Z</time>
      </trkpt>
      <trkpt lat="45.9471" lon="4.52256">
        <ele>331</ele>
        <time>2019-06-28T19:25:35Z</time>
      </trkpt>
      <trkpt lat="45.94712" lon="4.52301">
        <ele>332</ele>
        <time>2019-06-28T19:25:42Z</time>
      </trkpt>
      <trkpt lat="45.94707" lon="4.52334">
        <ele>332</ele>
        <time>2019-06-28T19:25:48Z</time>
      </trkpt>
      <trkpt lat="45.94684" lon="4.52439">
        <ele>338</ele>
        <time>2019-06-28T19:26:05Z</time>
      </trkpt>
      <trkpt lat="45.94665" lon="4.52471">
        <ele>341</ele>
        <time>2019-06-28T19:26:12Z</time>
      </trkpt>
      <trkpt lat="45.94652" lon="4.52502">
        <ele>345</ele>
        <time>2019-06-28T19:26:18Z</time>
      </trkpt>
      <trkpt lat="45.9464" lon="4.52513">
        <ele>344</ele>
        <time>2019-06-28T19:26:21Z</time>
      </trkpt>
      <trkpt lat="45.94596" lon="4.52527">
        <ele>341</ele>
        <time>2019-06-28T19:26:32Z</time>
      </trkpt>
      <trkpt lat="45.94589" lon="4.52539">
        <ele>342</ele>
        <time>2019-06-28T19:26:35Z</time>
      </trkpt>
      <trkpt lat="45.94566" lon="4.52552">
        <ele>340</ele>
        <time>2019-06-28T19:26:40Z</time>
      </trkpt>
      <trkpt lat="45.94552" lon="4.52577">
        <ele>341</ele>
        <time>2019-06-28T19:26:45Z</time>
      </trkpt>
      <trkpt lat="45.94546" lon="4.52599">
        <ele>342</ele>
        <time>2019-06-28T19:26:49Z</time>
      </trkpt>
      <trkpt lat="45.94537" lon="4.52654">
        <ele>347</ele>
        <time>2019-06-28T19:26:59Z</time>
      </trkpt>
      <trkpt lat="45.94534" lon="4.52704">
        <ele>348</ele>
        <time>2019-06-28T19:27:07Z</time>
      </trkpt>
      <trkpt lat="45.94536" lon="4.52745">
        <ele>349</ele>
        <time>2019-06-28T19:27:13Z</time>
      </trkpt>
      <trkpt lat="45.9454" lon="4.5275">
        <ele>349</ele>
        <time>2019-06-28T19:27:15Z</time>
      </trkpt>
      <trkpt lat="45.94547" lon="4.52747">
        <ele>349</ele>
        <time>2019-06-28T19:27:16Z</time>
      </trkpt>
      <trkpt lat="45.94558" lon="4.52733">
        <ele>349</ele>
        <time>2019-06-28T19:27:20Z</time>
      </trkpt>
      <trkpt lat="45.94574" lon="4.52701">
        <ele>352</ele>
        <time>2019-06-28T19:27:26Z</time>
      </trkpt>
      <trkpt lat="45.94583" lon="4.5267">
        <ele>357</ele>
        <time>2019-06-28T19:27:32Z</time>
      </trkpt>
      <trkpt lat="45.94588" lon="4.52683">
        <ele>354</ele>
        <time>2019-06-28T19:27:34Z</time>
      </trkpt>
      <trkpt lat="45.94584" lon="4.52722">
        <ele>350</ele>
        <time>2019-06-28T19:27:40Z</time>
      </trkpt>
      <trkpt lat="45.94542" lon="4.52875">
        <ele>332</ele>
        <time>2019-06-28T19:28:07Z</time>
      </trkpt>
      <trkpt lat="45.94533" lon="4.52899">
        <ele>331</ele>
        <time>2019-06-28T19:28:12Z</time>
      </trkpt>
      <trkpt lat="45.94518" lon="4.52929">
        <ele>330</ele>
        <time>2019-06-28T19:28:18Z</time>
      </trkpt>
      <trkpt lat="45.94513" lon="4.52933">
        <ele>331</ele>
        <time>2019-06-28T19:28:19Z</time>
      </trkpt>
      <trkpt lat="45.94508" lon="4.52948">
        <ele>330</ele>
        <time>2019-06-28T19:28:22Z</time>
      </trkpt>
      <trkpt lat="45.94498" lon="4.53002">
        <ele>322</ele>
        <time>2019-06-28T19:28:31Z</time>
      </trkpt>
      <trkpt lat="45.94488" lon="4.5309">
        <ele>310</ele>
        <time>2019-06-28T19:28:45Z</time>
      </trkpt>
      <trkpt lat="45.94476" lon="4.53151">
        <ele>302</ele>
        <time>2019-06-28T19:28:55Z</time>
      </trkpt>
      <trkpt lat="45.94468" lon="4.53218">
        <ele>292</ele>
        <time>2019-06-28T19:29:06Z</time>
      </trkpt>
      <trkpt lat="45.94467" lon="4.53242">
        <ele>288</ele>
        <time>2019-06-28T19:29:10Z</time>
      </trkpt>
      <trkpt lat="45.9447" lon="4.53257">
        <ele>286</ele>
        <time>2019-06-28T19:29:13Z</time>
      </trkpt>
      <trkpt lat="45.94468" lon="4.53302">
        <ele>283</ele>
        <time>2019-06-28T19:29:20Z</time>
      </trkpt>
      <trkpt lat="45.94462" lon="4.53318">
        <ele>282</ele>
        <time>2019-06-28T19:29:23Z</time>
      </trkpt>
      <trkpt lat="45.94463" lon="4.53327">
        <ele>281</ele>
        <time>2019-06-28T19:29:25Z</time>
      </trkpt>
      <trkpt lat="45.94455" lon="4.53344">
        <ele>280</ele>
        <time>2019-06-28T19:29:28Z</time>
      </trkpt>
      <trkpt lat="45.94426" lon="4.53371">
        <ele>280</ele>
        <time>2019-06-28T19:29:36Z</time>
      </trkpt>
      <trkpt lat="45.94418" lon="4.53389">
        <ele>279</ele>
        <time>2019-06-28T19:29:39Z</time>
      </trkpt>
      <trkpt lat="45.9442" lon="4.53422">
        <ele>277</ele>
        <time>2019-06-28T19:29:45Z</time>
      </trkpt>
      <trkpt lat="45.94435" lon="4.53427">
        <ele>277</ele>
        <time>2019-06-28T19:29:48Z</time>
      </trkpt>
      <trkpt lat="45.9446" lon="4.53494">
        <ele>275</ele>
        <time>2019-06-28T19:30:01Z</time>
      </trkpt>
      <trkpt lat="45.94477" lon="4.5355">
        <ele>274</ele>
        <time>2019-06-28T19:30:11Z</time>
      </trkpt>
      <trkpt lat="45.945" lon="4.536">
        <ele>274</ele>
        <time>2019-06-28T19:30:20Z</time>
      </trkpt>
      <trkpt lat="45.94521" lon="4.53631">
        <ele>274</ele>
        <time>2019-06-28T19:30:28Z</time>
      </trkpt>
      <trkpt lat="45.94561" lon="4.5368">
        <ele>277</ele>
        <time>2019-06-28T19:30:40Z</time>
      </trkpt>
      <trkpt lat="45.94579" lon="4.53708">
        <ele>280</ele>
        <time>2019-06-28T19:30:46Z</time>
      </trkpt>
      <trkpt lat="45.94552" lon="4.53748">
        <ele>282</ele>
        <time>2019-06-28T19:30:55Z</time>
      </trkpt>
      <trkpt lat="45.94571" lon="4.53765">
        <ele>285</ele>
        <time>2019-06-28T19:31:00Z</time>
      </trkpt>
      <trkpt lat="45.94584" lon="4.5385">
        <ele>296</ele>
        <time>2019-06-28T19:31:14Z</time>
      </trkpt>
      <trkpt lat="45.94584" lon="4.53888">
        <ele>299</ele>
        <time>2019-06-28T19:31:21Z</time>
      </trkpt>
      <trkpt lat="45.94586" lon="4.53897">
        <ele>300</ele>
        <time>2019-06-28T19:31:22Z</time>
      </trkpt>
      <trkpt lat="45.94631" lon="4.53948">
        <ele>307</ele>
        <time>2019-06-28T19:31:35Z</time>
      </trkpt>
      <trkpt lat="45.9464" lon="4.53948">
        <ele>308</ele>
        <time>2019-06-28T19:31:38Z</time>
      </trkpt>
      <trkpt lat="45.94666" lon="4.53915">
        <ele>307</ele>
        <time>2019-06-28T19:31:46Z</time>
      </trkpt>
      <trkpt lat="45.94687" lon="4.53878">
        <ele>308</ele>
        <time>2019-06-28T19:31:53Z</time>
      </trkpt>
      <trkpt lat="45.94702" lon="4.53867">
        <ele>310</ele>
        <time>2019-06-28T19:31:57Z</time>
      </trkpt>
      <trkpt lat="45.94733" lon="4.53864">
        <ele>316</ele>
        <time>2019-06-28T19:32:05Z</time>
      </trkpt>
      <trkpt lat="45.94739" lon="4.53893">
        <ele>318</ele>
        <time>2019-06-28T19:32:10Z</time>
      </trkpt>
      <trkpt lat="45.94739" lon="4.5391">
        <ele>319</ele>
        <time>2019-06-28T19:32:12Z</time>
      </trkpt>
      <trkpt lat="45.94741" lon="4.53916">
        <ele>319</ele>
        <time>2019-06-28T19:32:13Z</time>
      </trkpt>
      <trkpt lat="45.94745" lon="4.53917">
        <ele>320</ele>
        <time>2019-06-28T19:32:14Z</time>
      </trkpt>
      <trkpt lat="45.94747" lon="4.53914">
        <ele>320</ele>
        <time>2019-06-28T19:32:15Z</time>
      </trkpt>
      <trkpt lat="45.94751" lon="4.53919">
        <ele>321</ele>
        <time>2019-06-28T19:32:16Z</time>
      </trkpt>
      <trkpt lat="45.94753" lon="4.53947">
        <ele>324</ele>
        <time>2019-06-28T19:32:21Z</time>
      </trkpt>
      <trkpt lat="45.94758" lon="4.53958">
        <ele>326</ele>
        <time>2019-06-28T19:32:23Z</time>
      </trkpt>
      <trkpt lat="45.94763" lon="4.53981">
        <ele>330</ele>
        <time>2019-06-28T19:32:27Z</time>
      </trkpt>
      <trkpt lat="45.94786" lon="4.53981">
        <ele>335</ele>
        <time>2019-06-28T19:32:32Z</time>
      </trkpt>
      <trkpt lat="45.9481" lon="4.5401">
        <ele>344</ele>
        <time>2019-06-28T19:32:40Z</time>
      </trkpt>
      <trkpt lat="45.94833" lon="4.54008">
        <ele>349</ele>
        <time>2019-06-28T19:32:45Z</time>
      </trkpt>
      <trkpt lat="45.94866" lon="4.54025">
        <ele>357</ele>
        <time>2019-06-28T19:32:53Z</time>
      </trkpt>
      <trkpt lat="45.94903" lon="4.5404">
        <ele>366</ele>
        <time>2019-06-28T19:33:02Z</time>
      </trkpt>
      <trkpt lat="45.94919" lon="4.54044">
        <ele>370</ele>
        <time>2019-06-28T19:33:06Z</time>
      </trkpt>
      <trkpt lat="45.95015" lon="4.54143">
        <ele>381</ele>
        <time>2019-06-28T19:33:33Z</time>
      </trkpt>
      <trkpt lat="45.95051" lon="4.54184">
        <ele>383</ele>
        <time>2019-06-28T19:33:44Z</time>
      </trkpt>
      <trkpt lat="45.95068" lon="4.54183">
        <ele>384</ele>
        <time>2019-06-28T19:33:48Z</time>
      </trkpt>
      <trkpt lat="45.95103" lon="4.54173">
        <ele>384</ele>
        <time>2019-06-28T19:33:56Z</time>
      </trkpt>
      <trkpt lat="45.95122" lon="4.54176">
        <ele>384</ele>
        <time>2019-06-28T19:34:01Z</time>
      </trkpt>
      <trkpt lat="45.95152" lon="4.54185">
        <ele>384</ele>
        <time>2019-06-28T19:34:08Z</time>
      </trkpt>
      <trkpt lat="45.95196" lon="4.54216">
        <ele>386</ele>
        <time>2019-06-28T19:34:20Z</time>
      </trkpt>
      <trkpt lat="45.95206" lon="4.54236">
        <ele>388</ele>
        <time>2019-06-28T19:34:24Z</time>
      </trkpt>
      <trkpt lat="45.95248" lon="4.54342">
        <ele>389</ele>
        <time>2019-06-28T19:34:43Z</time>
      </trkpt>
      <trkpt lat="45.95303" lon="4.54465">
        <ele>391</ele>
        <time>2019-06-28T19:35:07Z</time>
      </trkpt>
      <trkpt lat="45.95303" lon="4.54521">
        <ele>391</ele>
        <time>2019-06-28T19:35:16Z</time>
      </trkpt>
      <trkpt lat="45.95299" lon="4.54609">
        <ele>394</ele>
        <time>2019-06-28T19:35:31Z</time>
      </trkpt>
      <trkpt lat="45.95284" lon="4.54681">
        <ele>396</ele>
        <time>2019-06-28T19:35:43Z</time>
      </trkpt>
      <trkpt lat="45.95283" lon="4.5471">
        <ele>396</ele>
        <time>2019-06-28T19:35:47Z</time>
      </trkpt>
      <trkpt lat="45.95288" lon="4.54731">
        <ele>396</ele>
        <time>2019-06-28T19:35:51Z</time>
      </trkpt>
      <trkpt lat="45.95301" lon="4.54746">
        <ele>398</ele>
        <time>2019-06-28T19:35:55Z</time>
      </trkpt>
      <trkpt lat="45.95364" lon="4.54793">
        <ele>405</ele>
        <time>2019-06-28T19:36:11Z</time>
      </trkpt>
      <trkpt lat="45.9536" lon="4.54855">
        <ele>404</ele>
        <time>2019-06-28T19:36:22Z</time>
      </trkpt>
      <trkpt lat="45.95369" lon="4.54909">
        <ele>405</ele>
        <time>2019-06-28T19:36:31Z</time>
      </trkpt>
      <trkpt lat="45.95372" lon="4.54993">
        <ele>404</ele>
        <time>2019-06-28T19:36:44Z</time>
      </trkpt>
      <trkpt lat="45.95381" lon="4.55041">
        <ele>401</ele>
        <time>2019-06-28T19:36:52Z</time>
      </trkpt>
      <trkpt lat="45.95381" lon="4.55081">
        <ele>398</ele>
        <time>2019-06-28T19:36:59Z</time>
      </trkpt>
      <trkpt lat="45.95396" lon="4.55144">
        <ele>394</ele>
        <time>2019-06-28T19:37:10Z</time>
      </trkpt>
      <trkpt lat="45.95429" lon="4.55209">
        <ele>393</ele>
        <time>2019-06-28T19:37:23Z</time>
      </trkpt>
      <trkpt lat="45.95427" lon="4.55235">
        <ele>391</ele>
        <time>2019-06-28T19:37:27Z</time>
      </trkpt>
      <trkpt lat="45.95409" lon="4.55335">
        <ele>386</ele>
        <time>2019-06-28T19:37:44Z</time>
      </trkpt>
      <trkpt lat="45.95408" lon="4.55418">
        <ele>389</ele>
        <time>2019-06-28T19:37:57Z</time>
      </trkpt>
      <trkpt lat="45.95396" lon="4.55445">
        <ele>389</ele>
        <time>2019-06-28T19:38:02Z</time>
      </trkpt>
      <trkpt lat="45.95402" lon="4.55463">
        <ele>390</ele>
        <time>2019-06-28T19:38:06Z</time>
      </trkpt>
      <trkpt lat="45.95398" lon="4.55489">
        <ele>391</ele>
        <time>2019-06-28T19:38:10Z</time>
      </trkpt>
      <trkpt lat="45.95382" lon="4.55538">
        <ele>394</ele>
        <time>2019-06-28T19:38:19Z</time>
      </trkpt>
      <trkpt lat="45.95359" lon="4.55637">
        <ele>398</ele>
        <time>2019-06-28T19:38:36Z</time>
      </trkpt>
      <trkpt lat="45.95359" lon="4.5565">
        <ele>398</ele>
        <time>2019-06-28T19:38:38Z</time>
      </trkpt>
      <trkpt lat="45.95331" lon="4.55729">
        <ele>391</ele>
        <time>2019-06-28T19:38:52Z</time>
      </trkpt>
      <trkpt lat="45.95329" lon="4.55747">
        <ele>389</ele>
        <time>2019-06-28T19:38:55Z</time>
      </trkpt>
      <trkpt lat="45.95338" lon="4.55772">
        <ele>389</ele>
        <time>2019-06-28T19:39:00Z</time>
      </trkpt>
      <trkpt lat="45.9534" lon="4.55793">
        <ele>388</ele>
        <time>2019-06-28T19:39:03Z</time>
      </trkpt>
      <trkpt lat="45.95335" lon="4.55815">
        <ele>385</ele>
        <time>2019-06-28T19:39:07Z</time>
      </trkpt>
      <trkpt lat="45.95285" lon="4.55913">
        <ele>373</ele>
        <time>2019-06-28T19:39:27Z</time>
      </trkpt>
      <trkpt lat="45.95256" lon="4.55935">
        <ele>367</ele>
        <time>2019-06-28T19:39:34Z</time>
      </trkpt>
      <trkpt lat="45.95199" lon="4.55972">
        <ele>356</ele>
        <time>2019-06-28T19:39:49Z</time>
      </trkpt>
      <trkpt lat="45.95171" lon="4.55973">
        <ele>351</ele>
        <time>2019-06-28T19:39:55Z</time>
      </trkpt>
      <trkpt lat="45.95159" lon="4.5597">
        <ele>350</ele>
        <time>2019-06-28T19:39:58Z</time>
      </trkpt>
      <trkpt lat="45.95153" lon="4.55973">
        <ele>350</ele>
        <time>2019-06-28T19:40:00Z</time>
      </trkpt>
      <trkpt lat="45.95151" lon="4.55987">
        <ele>349</ele>
        <time>2019-06-28T19:40:02Z</time>
      </trkpt>
      <trkpt lat="45.95152" lon="4.55995">
        <ele>348</ele>
        <time>2019-06-28T19:40:03Z</time>
      </trkpt>
      <trkpt lat="45.95157" lon="4.56003">
        <ele>348</ele>
        <time>2019-06-28T19:40:05Z</time>
      </trkpt>
      <trkpt lat="45.95223" lon="4.56036">
        <ele>357</ele>
        <time>2019-06-28T19:40:22Z</time>
      </trkpt>
      <trkpt lat="45.95228" lon="4.56044">
        <ele>357</ele>
        <time>2019-06-28T19:40:23Z</time>
      </trkpt>
      <trkpt lat="45.9523" lon="4.56058">
        <ele>357</ele>
        <time>2019-06-28T19:40:26Z</time>
      </trkpt>
      <trkpt lat="45.95229" lon="4.56074">
        <ele>356</ele>
        <time>2019-06-28T19:40:28Z</time>
      </trkpt>
      <trkpt lat="45.95215" lon="4.56084">
        <ele>353</ele>
        <time>2019-06-28T19:40:32Z</time>
      </trkpt>
      <trkpt lat="45.95189" lon="4.56093">
        <ele>348</ele>
        <time>2019-06-28T19:40:38Z</time>
      </trkpt>
      <trkpt lat="45.95192" lon="4.56097">
        <ele>349</ele>
        <time>2019-06-28T19:40:39Z</time>
      </trkpt>
      <trkpt lat="45.95194" lon="4.5611">
        <ele>349</ele>
        <time>2019-06-28T19:40:41Z</time>
      </trkpt>
      <trkpt lat="45.9519" lon="4.56129">
        <ele>349</ele>
        <time>2019-06-28T19:40:44Z</time>
      </trkpt>
      <trkpt lat="45.95207" lon="4.56186">
        <ele>353</ele>
        <time>2019-06-28T19:40:55Z</time>
      </trkpt>
      <trkpt lat="45.95226" lon="4.56262">
        <ele>358</ele>
        <time>2019-06-28T19:41:08Z</time>
      </trkpt>
      <trkpt lat="45.95238" lon="4.56325">
        <ele>359</ele>
        <time>2019-06-28T19:41:18Z</time>
      </trkpt>
      <trkpt lat="45.95243" lon="4.56341">
        <ele>360</ele>
        <time>2019-06-28T19:41:21Z</time>
      </trkpt>
      <trkpt lat="45.95252" lon="4.56357">
        <ele>361</ele>
        <time>2019-06-28T19:41:24Z</time>
      </trkpt>
      <trkpt lat="45.95276" lon="4.56456">
        <ele>363</ele>
        <time>2019-06-28T19:41:41Z</time>
      </trkpt>
      <trkpt lat="45.95278" lon="4.56476">
        <ele>363</ele>
        <time>2019-06-28T19:41:45Z</time>
      </trkpt>
      <trkpt lat="45.95284" lon="4.56489">
        <ele>363</ele>
        <time>2019-06-28T19:41:47Z</time>
      </trkpt>
      <trkpt lat="45.95293" lon="4.56534">
        <ele>363</ele>
        <time>2019-06-28T19:41:55Z</time>
      </trkpt>
      <trkpt lat="45.953" lon="4.56585">
        <ele>363</ele>
        <time>2019-06-28T19:42:03Z</time>
      </trkpt>
      <trkpt lat="45.95296" lon="4.5661">
        <ele>361</ele>
        <time>2019-06-28T19:42:07Z</time>
      </trkpt>
      <trkpt lat="45.95294" lon="4.56648">
        <ele>359</ele>
        <time>2019-06-28T19:42:14Z</time>
      </trkpt>
      <trkpt lat="45.95299" lon="4.56691">
        <ele>357</ele>
        <time>2019-06-28T19:42:21Z</time>
      </trkpt>
      <trkpt lat="45.95317" lon="4.56715">
        <ele>358</ele>
        <time>2019-06-28T19:42:26Z</time>
      </trkpt>
      <trkpt lat="45.95334" lon="4.56722">
        <ele>359</ele>
        <time>2019-06-28T19:42:31Z</time>
      </trkpt>
      <trkpt lat="45.95333" lon="4.56734">
        <ele>358</ele>
        <time>2019-06-28T19:42:33Z</time>
      </trkpt>
      <trkpt lat="45.95326" lon="4.56756">
        <ele>356</ele>
        <time>2019-06-28T19:42:36Z</time>
      </trkpt>
      <trkpt lat="45.95306" lon="4.5677">
        <ele>355</ele>
        <time>2019-06-28T19:42:42Z</time>
      </trkpt>
      <trkpt lat="45.95284" lon="4.56798">
        <ele>355</ele>
        <time>2019-06-28T19:42:49Z</time>
      </trkpt>
      <trkpt lat="45.95265" lon="4.56836">
        <ele>358</ele>
        <time>2019-06-28T19:42:56Z</time>
      </trkpt>
      <trkpt lat="45.95259" lon="4.56904">
        <ele>363</ele>
        <time>2019-06-28T19:43:07Z</time>
      </trkpt>
      <trkpt lat="45.95255" lon="4.57008">
        <ele>369</ele>
        <time>2019-06-28T19:43:24Z</time>
      </trkpt>
      <trkpt lat="45.95263" lon="4.5706">
        <ele>370</ele>
        <time>2019-06-28T19:43:33Z</time>
      </trkpt>
      <trkpt lat="45.9528" lon="4.5708">
        <ele>369</ele>
        <time>2019-06-28T19:43:38Z</time>
      </trkpt>
      <trkpt lat="45.95299" lon="4.57083">
        <ele>367</ele>
        <time>2019-06-28T19:43:42Z</time>
      </trkpt>
      <trkpt lat="45.95324" lon="4.57091">
        <ele>365</ele>
        <time>2019-06-28T19:43:48Z</time>
      </trkpt>
      <trkpt lat="45.95372" lon="4.57126">
        <ele>366</ele>
        <time>2019-06-28T19:44:01Z</time>
      </trkpt>
      <trkpt lat="45.9543" lon="4.57241">
        <ele>368</ele>
        <time>2019-06-28T19:44:24Z</time>
      </trkpt>
      <trkpt lat="45.95454" lon="4.57282">
        <ele>369</ele>
        <time>2019-06-28T19:44:33Z</time>
      </trkpt>
      <trkpt lat="45.95472" lon="4.57303">
        <ele>369</ele>
        <time>2019-06-28T19:44:38Z</time>
      </trkpt>
      <trkpt lat="45.95493" lon="4.57313">
        <ele>367</ele>
        <time>2019-06-28T19:44:43Z</time>
      </trkpt>
      <trkpt lat="45.95551" lon="4.57331">
        <ele>369</ele>
        <time>2019-06-28T19:44:57Z</time>
      </trkpt>
      <trkpt lat="45.95537" lon="4.57357">
        <ele>371</ele>
        <time>2019-06-28T19:45:03Z</time>
      </trkpt>
      <trkpt lat="45.95488" lon="4.57474">
        <ele>384</ele>
        <time>2019-06-28T19:45:25Z</time>
      </trkpt>
      <trkpt lat="45.9545" lon="4.5753">
        <ele>395</ele>
        <time>2019-06-28T19:45:37Z</time>
      </trkpt>
      <trkpt lat="45.9544" lon="4.57565">
        <ele>400</ele>
        <time>2019-06-28T19:45:44Z</time>
      </trkpt>
      <trkpt lat="45.9544" lon="4.57579">
        <ele>402</ele>
        <time>2019-06-28T19:45:46Z</time>
      </trkpt>
      <trkpt lat="45.95437" lon="4.57586">
        <ele>403</ele>
        <time>2019-06-28T19:45:47Z</time>
      </trkpt>
      <trkpt lat="45.95428" lon="4.57586">
        <ele>405</ele>
        <time>2019-06-28T19:45:49Z</time>
      </trkpt>
      <trkpt lat="45.95416" lon="4.5757">
        <ele>404</ele>
        <time>2019-06-28T19:45:53Z</time>
      </trkpt>
      <trkpt lat="45.95383" lon="4.57567">
        <ele>407</ele>
        <time>2019-06-28T19:46:01Z</time>
      </trkpt>
      <trkpt lat="45.95348" lon="4.57568">
        <ele>411</ele>
        <time>2019-06-28T19:46:09Z</time>
      </trkpt>
      <trkpt lat="45.95331" lon="4.57563">
        <ele>412</ele>
        <time>2019-06-28T19:46:13Z</time>
      </trkpt>
      <trkpt lat="45.95321" lon="4.57555">
        <ele>414</ele>
        <time>2019-06-28T19:46:16Z</time>
      </trkpt>
      <trkpt lat="45.95318" lon="4.57538">
        <ele>413</ele>
        <time>2019-06-28T19:46:19Z</time>
      </trkpt>
      <trkpt lat="45.95301" lon="4.57545">
        <ele>418</ele>
        <time>2019-06-28T19:46:23Z</time>
      </trkpt>
      <trkpt lat="45.95297" lon="4.57552">
        <ele>420</ele>
        <time>2019-06-28T19:46:24Z</time>
      </trkpt>
      <trkpt lat="45.95288" lon="4.57553">
        <ele>422</ele>
        <time>2019-06-28T19:46:26Z</time>
      </trkpt>
      <trkpt lat="45.95264" lon="4.57545">
        <ele>428</ele>
        <time>2019-06-28T19:46:32Z</time>
      </trkpt>
      <trkpt lat="45.95252" lon="4.57552">
        <ele>431</ele>
        <time>2019-06-28T19:46:35Z</time>
      </trkpt>
      <trkpt lat="45.95232" lon="4.5757">
        <ele>436</ele>
        <time>2019-06-28T19:46:41Z</time>
      </trkpt>
      <trkpt lat="45.95209" lon="4.57605">
        <ele>441</ele>
        <time>2019-06-28T19:46:48Z</time>
      </trkpt>
      <trkpt lat="45.9519" lon="4.57614">
        <ele>443</ele>
        <time>2019-06-28T19:46:53Z</time>
      </trkpt>
      <trkpt lat="45.95157" lon="4.57644">
        <ele>445</ele>
        <time>2019-06-28T19:47:02Z</time>
      </trkpt>
      <trkpt lat="45.95071" lon="4.57735">
        <ele>455</ele>
        <time>2019-06-28T19:47:27Z</time>
      </trkpt>
      <trkpt lat="45.95001" lon="4.57773">
        <ele>458</ele>
        <time>2019-06-28T19:47:45Z</time>
      </trkpt>
      <trkpt lat="45.94949" lon="4.57791">
        <ele>464</ele>
        <time>2019-06-28T19:47:57Z</time>
      </trkpt>
      <trkpt lat="45.94912" lon="4.57798">
        <ele>467</ele>
        <time>2019-06-28T19:48:06Z</time>
      </trkpt>
      <trkpt lat="45.9477" lon="4.57831">
        <ele>476</ele>
        <time>2019-06-28T19:48:39Z</time>
      </trkpt>
      <trkpt lat="45.94735" lon="4.57842">
        <ele>479</ele>
        <time>2019-06-28T19:48:48Z</time>
      </trkpt>
      <trkpt lat="45.94716" lon="4.57845">
        <ele>480</ele>
        <time>2019-06-28T19:48:52Z</time>
      </trkpt>
      <trkpt lat="45.94712" lon="4.57872">
        <ele>482</ele>
        <time>2019-06-28T19:48:57Z</time>
      </trkpt>
      <trkpt lat="45.94701" lon="4.57911">
        <ele>484</ele>
        <time>2019-06-28T19:49:03Z</time>
      </trkpt>
      <trkpt lat="45.94685" lon="4.57949">
        <ele>488</ele>
        <time>2019-06-28T19:49:11Z</time>
      </trkpt>
      <trkpt lat="45.94685" lon="4.58026">
        <ele>496</ele>
        <time>2019-06-28T19:49:23Z</time>
      </trkpt>
      <trkpt lat="45.94691" lon="4.5807">
        <ele>502</ele>
        <time>2019-06-28T19:49:30Z</time>
      </trkpt>
      <trkpt lat="45.94696" lon="4.58079">
        <ele>504</ele>
        <time>2019-06-28T19:49:32Z</time>
      </trkpt>
      <trkpt lat="45.94721" lon="4.58095">
        <ele>509</ele>
        <time>2019-06-28T19:49:39Z</time>
      </trkpt>
      <trkpt lat="45.9472" lon="4.58098">
        <ele>510</ele>
        <time>2019-06-28T19:49:39Z</time>
      </trkpt>
      <trkpt lat="45.94679" lon="4.58108">
        <ele>507</ele>
        <time>2019-06-28T19:49:49Z</time>
      </trkpt>
      <trkpt lat="45.94643" lon="4.58125">
        <ele>505</ele>
        <time>2019-06-28T19:49:58Z</time>
      </trkpt>
      <trkpt lat="45.94636" lon="4.58195">
        <ele>516</ele>
        <time>2019-06-28T19:50:09Z</time>
      </trkpt>
      <trkpt lat="45.94639" lon="4.58201">
        <ele>517</ele>
        <time>2019-06-28T19:50:11Z</time>
      </trkpt>
      <trkpt lat="45.94665" lon="4.58207">
        <ele>521</ele>
        <time>2019-06-28T19:50:17Z</time>
      </trkpt>
      <trkpt lat="45.9467" lon="4.58212">
        <ele>522</ele>
        <time>2019-06-28T19:50:18Z</time>
      </trkpt>
      <trkpt lat="45.94672" lon="4.58218">
        <ele>524</ele>
        <time>2019-06-28T19:50:19Z</time>
      </trkpt>
      <trkpt lat="45.94673" lon="4.58226">
        <ele>525</ele>
        <time>2019-06-28T19:50:21Z</time>
      </trkpt>
      <trkpt lat="45.94663" lon="4.58277">
        <ele>525</ele>
        <time>2019-06-28T19:50:29Z</time>
      </trkpt>
      <trkpt lat="45.94745" lon="4.58315">
        <ele>527</ele>
        <time>2019-06-28T19:50:49Z</time>
      </trkpt>
      <trkpt lat="45.94786" lon="4.58341">
        <ele>526</ele>
        <time>2019-06-28T19:51:00Z</time>
      </trkpt>
      <trkpt lat="45.94826" lon="4.58358">
        <ele>527</ele>
        <time>2019-06-28T19:51:09Z</time>
      </trkpt>
      <trkpt lat="45.9486" lon="4.58367">
        <ele>527</ele>
        <time>2019-06-28T19:51:18Z</time>
      </trkpt>
      <trkpt lat="45.94895" lon="4.5837">
        <ele>527</ele>
        <time>2019-06-28T19:51:26Z</time>
      </trkpt>
      <trkpt lat="45.94899" lon="4.58383">
        <ele>527</ele>
        <time>2019-06-28T19:51:28Z</time>
      </trkpt>
      <trkpt lat="45.94907" lon="4.58472">
        <ele>525</ele>
        <time>2019-06-28T19:51:43Z</time>
      </trkpt>
      <trkpt lat="45.94947" lon="4.58582">
        <ele>523</ele>
        <time>2019-06-28T19:52:03Z</time>
      </trkpt>
      <trkpt lat="45.94956" lon="4.58629">
        <ele>523</ele>
        <time>2019-06-28T19:52:11Z</time>
      </trkpt>
      <trkpt lat="45.94954" lon="4.58674">
        <ele>522</ele>
        <time>2019-06-28T19:52:18Z</time>
      </trkpt>
      <trkpt lat="45.94944" lon="4.58709">
        <ele>522</ele>
        <time>2019-06-28T19:52:24Z</time>
      </trkpt>
      <trkpt lat="45.94893" lon="4.58782">
        <ele>521</ele>
        <time>2019-06-28T19:52:41Z</time>
      </trkpt>
      <trkpt lat="45.94863" lon="4.58832">
        <ele>524</ele>
        <time>2019-06-28T19:52:52Z</time>
      </trkpt>
      <trkpt lat="45.94834" lon="4.58913">
        <ele>531</ele>
        <time>2019-06-28T19:53:06Z</time>
      </trkpt>
      <trkpt lat="45.9484" lon="4.5897">
        <ele>533</ele>
        <time>2019-06-28T19:53:16Z</time>
      </trkpt>
      <trkpt lat="45.94875" lon="4.5903">
        <ele>538</ele>
        <time>2019-06-28T19:53:29Z</time>
      </trkpt>
      <trkpt lat="45.9488" lon="4.59062">
        <ele>540</ele>
        <time>2019-06-28T19:53:34Z</time>
      </trkpt>
      <trkpt lat="45.94877" lon="4.59103">
        <ele>544</ele>
        <time>2019-06-28T19:53:41Z</time>
      </trkpt>
      <trkpt lat="45.94885" lon="4.59141">
        <ele>548</ele>
        <time>2019-06-28T19:53:47Z</time>
      </trkpt>
      <trkpt lat="45.94888" lon="4.59176">
        <ele>552</ele>
        <time>2019-06-28T19:53:53Z</time>
      </trkpt>
      <trkpt lat="45.9488" lon="4.59248">
        <ele>557</ele>
        <time>2019-06-28T19:54:05Z</time>
      </trkpt>
      <trkpt lat="45.9488" lon="4.59267">
        <ele>557</ele>
        <time>2019-06-28T19:54:08Z</time>
      </trkpt>
      <trkpt lat="45.94897" lon="4.59304">
        <ele>561</ele>
        <time>2019-06-28T19:54:15Z</time>
      </trkpt>
      <trkpt lat="45.94928" lon="4.59356">
        <ele>564</ele>
        <time>2019-06-28T19:54:26Z</time>
      </trkpt>
      <trkpt lat="45.94934" lon="4.59361">
        <ele>564</ele>
        <time>2019-06-28T19:54:28Z</time>
      </trkpt>
      <trkpt lat="45.94942" lon="4.59362">
        <ele>565</ele>
        <time>2019-06-28T19:54:29Z</time>
      </trkpt>
      <trkpt lat="45.94956" lon="4.59404">
        <ele>563</ele>
        <time>2019-06-28T19:54:37Z</time>
      </trkpt>
      <trkpt lat="45.94975" lon="4.59438">
        <ele>563</ele>
        <time>2019-06-28T19:54:44Z</time>
      </trkpt>
      <trkpt lat="45.94994" lon="4.59485">
        <ele>561</ele>
        <time>2019-06-28T19:54:53Z</time>
      </trkpt>
      <trkpt lat="45.95001" lon="4.59753">
        <ele>553</ele>
        <time>2019-06-28T19:55:36Z</time>
      </trkpt>
      <trkpt lat="45.95009" lon="4.59803">
        <ele>554</ele>
        <time>2019-06-28T19:55:45Z</time>
      </trkpt>
      <trkpt lat="45.9501" lon="4.59869">
        <ele>554</ele>
        <time>2019-06-28T19:55:56Z</time>
      </trkpt>
      <trkpt lat="45.95009" lon="4.60054">
        <ele>557</ele>
        <time>2019-06-28T19:56:26Z</time>
      </trkpt>
      <trkpt lat="45.95004" lon="4.60102">
        <ele>558</ele>
        <time>2019-06-28T19:56:33Z</time>
      </trkpt>
      <trkpt lat="45.94997" lon="4.60133">
        <ele>559</ele>
        <time>2019-06-28T19:56:39Z</time>
      </trkpt>
      <trkpt lat="45.95007" lon="4.60155">
        <ele>563</ele>
        <time>2019-06-28T19:56:43Z</time>
      </trkpt>
      <trkpt lat="45.95016" lon="4.60221">
        <ele>570</ele>
        <time>2019-06-28T19:56:54Z</time>
      </trkpt>
      <trkpt lat="45.9503" lon="4.60262">
        <ele>573</ele>
        <time>2019-06-28T19:57:01Z</time>
      </trkpt>
      <trkpt lat="45.95015" lon="4.60273">
        <ele>572</ele>
        <time>2019-06-28T19:57:05Z</time>
      </trkpt>
      <trkpt lat="45.95006" lon="4.60275">
        <ele>572</ele>
        <time>2019-06-28T19:57:07Z</time>
      </trkpt>
      <trkpt lat="45.95004" lon="4.60284">
        <ele>572</ele>
        <time>2019-06-28T19:57:09Z</time>
      </trkpt>
      <trkpt lat="45.94964" lon="4.60348">
        <ele>569</ele>
        <time>2019-06-28T19:57:23Z</time>
      </trkpt>
      <trkpt lat="45.94922" lon="4.60406">
        <ele>572</ele>
        <time>2019-06-28T19:57:36Z</time>
      </trkpt>
      <trkpt lat="45.94894" lon="4.60455">
        <ele>569</ele>
        <time>2019-06-28T19:57:47Z</time>
      </trkpt>
      <trkpt lat="45.94868" lon="4.60489">
        <ele>568</ele>
        <time>2019-06-28T19:57:55Z</time>
      </trkpt>
      <trkpt lat="45.9484" lon="4.60542">
        <ele>571</ele>
        <time>2019-06-28T19:58:06Z</time>
      </trkpt>
      <trkpt lat="45.9483" lon="4.60554">
        <ele>572</ele>
        <time>2019-06-28T19:58:09Z</time>
      </trkpt>
      <trkpt lat="45.9482" lon="4.6058">
        <ele>573</ele>
        <time>2019-06-28T19:58:14Z</time>
      </trkpt>
      <trkpt lat="45.94816" lon="4.60605">
        <ele>573</ele>
        <time>2019-06-28T19:58:18Z</time>
      </trkpt>
      <trkpt lat="45.94812" lon="4.60635">
        <ele>573</ele>
        <time>2019-06-28T19:58:23Z</time>
      </trkpt>
      <trkpt lat="45.94815" lon="4.6066">
        <ele>574</ele>
        <time>2019-06-28T19:58:27Z</time>
      </trkpt>
      <trkpt lat="45.94855" lon="4.6078">
        <ele>579</ele>
        <time>2019-06-28T19:58:49Z</time>
      </trkpt>
      <trkpt lat="45.9486" lon="4.60812">
        <ele>579</ele>
        <time>2019-06-28T19:58:54Z</time>
      </trkpt>
      <trkpt lat="45.94873" lon="4.60867">
        <ele>576</ele>
        <time>2019-06-28T19:59:03Z</time>
      </trkpt>
      <trkpt lat="45.94875" lon="4.60893">
        <ele>575</ele>
        <time>2019-06-28T19:59:08Z</time>
      </trkpt>
      <trkpt lat="45.94874" lon="4.60927">
        <ele>573</ele>
        <time>2019-06-28T19:59:13Z</time>
      </trkpt>
      <trkpt lat="45.94869" lon="4.6095">
        <ele>571</ele>
        <time>2019-06-28T19:59:17Z</time>
      </trkpt>
      <trkpt lat="45.94827" lon="4.6105">
        <ele>565</ele>
        <time>2019-06-28T19:59:36Z</time>
      </trkpt>
      <trkpt lat="45.94812" lon="4.61094">
        <ele>562</ele>
        <time>2019-06-28T19:59:44Z</time>
      </trkpt>
      <trkpt lat="45.94807" lon="4.61118">
        <ele>560</ele>
        <time>2019-06-28T19:59:48Z</time>
      </trkpt>
      <trkpt lat="45.94779" lon="4.61185">
        <ele>555</ele>
        <time>2019-06-28T20:00:01Z</time>
      </trkpt>
      <trkpt lat="45.94728" lon="4.61276">
        <ele>548</ele>
        <time>2019-06-28T20:00:20Z</time>
      </trkpt>
      <trkpt lat="45.94716" lon="4.61291">
        <ele>546</ele>
        <time>2019-06-28T20:00:23Z</time>
      </trkpt>
      <trkpt lat="45.94722" lon="4.61308">
        <ele>543</ele>
        <time>2019-06-28T20:00:26Z</time>
      </trkpt>
      <trkpt lat="45.94796" lon="4.61313">
        <ele>534</ele>
        <time>2019-06-28T20:00:44Z</time>
      </trkpt>
      <trkpt lat="45.94811" lon="4.61325">
        <ele>529</ele>
        <time>2019-06-28T20:00:48Z</time>
      </trkpt>
      <trkpt lat="45.94821" lon="4.61353">
        <ele>524</ele>
        <time>2019-06-28T20:00:53Z</time>
      </trkpt>
      <trkpt lat="45.94839" lon="4.61383">
        <ele>517</ele>
        <time>2019-06-28T20:00:59Z</time>
      </trkpt>
      <trkpt lat="45.94851" lon="4.61436">
        <ele>509</ele>
        <time>2019-06-28T20:01:08Z</time>
      </trkpt>
      <trkpt lat="45.94847" lon="4.61458">
        <ele>507</ele>
        <time>2019-06-28T20:01:12Z</time>
      </trkpt>
      <trkpt lat="45.94833" lon="4.61465">
        <ele>506</ele>
        <time>2019-06-28T20:01:16Z</time>
      </trkpt>
      <trkpt lat="45.94782" lon="4.61481">
        <ele>507</ele>
        <time>2019-06-28T20:01:28Z</time>
      </trkpt>
      <trkpt lat="45.94765" lon="4.615">
        <ele>504</ele>
        <time>2019-06-28T20:01:33Z</time>
      </trkpt>
      <trkpt lat="45.94715" lon="4.61567">
        <ele>495</ele>
        <time>2019-06-28T20:01:49Z</time>
      </trkpt>
      <trkpt lat="45.94699" lon="4.61582">
        <ele>493</ele>
        <time>2019-06-28T20:01:53Z</time>
      </trkpt>
      <trkpt lat="45.94694" lon="4.61593">
        <ele>491</ele>
        <time>2019-06-28T20:01:55Z</time>
      </trkpt>
      <trkpt lat="45.94676" lon="4.61618">
        <ele>488</ele>
        <time>2019-06-28T20:02:01Z</time>
      </trkpt>
      <trkpt lat="45.9464" lon="4.61643">
        <ele>484</ele>
        <time>2019-06-28T20:02:10Z</time>
      </trkpt>
      <trkpt lat="45.94608" lon="4.61677">
        <ele>479</ele>
        <time>2019-06-28T20:02:20Z</time>
      </trkpt>
      <trkpt lat="45.94529" lon="4.61717">
        <ele>478</ele>
        <time>2019-06-28T20:02:39Z</time>
      </trkpt>
      <trkpt lat="45.94502" lon="4.61734">
        <ele>478</ele>
        <time>2019-06-28T20:02:46Z</time>
      </trkpt>
      <trkpt lat="45.94468" lon="4.61748">
        <ele>478</ele>
        <time>2019-06-28T20:02:54Z</time>
      </trkpt>
      <trkpt lat="45.94362" lon="4.61735">
        <ele>480</ele>
        <time>2019-06-28T20:03:19Z</time>
      </trkpt>
      <trkpt lat="45.94342" lon="4.61745">
        <ele>476</ele>
        <time>2019-06-28T20:03:24Z</time>
      </trkpt>
      <trkpt lat="45.9432" lon="4.61744">
        <ele>475</ele>
        <time>2019-06-28T20:03:29Z</time>
      </trkpt>
      <trkpt lat="45.94314" lon="4.61749">
        <ele>473</ele>
        <time>2019-06-28T20:03:31Z</time>
      </trkpt>
      <trkpt lat="45.94307" lon="4.61798">
        <ele>465</ele>
        <time>2019-06-28T20:03:39Z</time>
      </trkpt>
      <trkpt lat="45.943" lon="4.61802">
        <ele>464</ele>
        <time>2019-06-28T20:03:41Z</time>
      </trkpt>
      <trkpt lat="45.94183" lon="4.61788">
        <ele>460</ele>
        <time>2019-06-28T20:04:08Z</time>
      </trkpt>
      <trkpt lat="45.94135" lon="4.6178">
        <ele>462</ele>
        <time>2019-06-28T20:04:20Z</time>
      </trkpt>
      <trkpt lat="45.94129" lon="4.6179">
        <ele>460</ele>
        <time>2019-06-28T20:04:22Z</time>
      </trkpt>
      <trkpt lat="45.94126" lon="4.61809">
        <ele>458</ele>
        <time>2019-06-28T20:04:25Z</time>
      </trkpt>
      <trkpt lat="45.94113" lon="4.6181">
        <ele>458</ele>
        <time>2019-06-28T20:04:28Z</time>
      </trkpt>
      <trkpt lat="45.94097" lon="4.61807">
        <ele>459</ele>
        <time>2019-06-28T20:04:32Z</time>
      </trkpt>
      <trkpt lat="45.94081" lon="4.61798">
        <ele>460</ele>
        <time>2019-06-28T20:04:36Z</time>
      </trkpt>
      <trkpt lat="45.94063" lon="4.61784">
        <ele>461</ele>
        <time>2019-06-28T20:04:40Z</time>
      </trkpt>
      <trkpt lat="45.94035" lon="4.6174">
        <ele>464</ele>
        <time>2019-06-28T20:04:50Z</time>
      </trkpt>
      <trkpt lat="45.94012" lon="4.61713">
        <ele>463</ele>
        <time>2019-06-28T20:04:57Z</time>
      </trkpt>
      <trkpt lat="45.93993" lon="4.61667">
        <ele>463</ele>
        <time>2019-06-28T20:05:06Z</time>
      </trkpt>
      <trkpt lat="45.9396" lon="4.61628">
        <ele>456</ele>
        <time>2019-06-28T20:05:16Z</time>
      </trkpt>
      <trkpt lat="45.93943" lon="4.61604">
        <ele>452</ele>
        <time>2019-06-28T20:05:21Z</time>
      </trkpt>
      <trkpt lat="45.93927" lon="4.61587">
        <ele>450</ele>
        <time>2019-06-28T20:05:26Z</time>
      </trkpt>
      <trkpt lat="45.93897" lon="4.61603">
        <ele>446</ele>
        <time>2019-06-28T20:05:33Z</time>
      </trkpt>
      <trkpt lat="45.93857" lon="4.61632">
        <ele>440</ele>
        <time>2019-06-28T20:05:44Z</time>
      </trkpt>
      <trkpt lat="45.93854" lon="4.61619">
        <ele>440</ele>
        <time>2019-06-28T20:05:46Z</time>
      </trkpt>
      <trkpt lat="45.938" lon="4.61629">
        <ele>432</ele>
        <time>2019-06-28T20:05:59Z</time>
      </trkpt>
      <trkpt lat="45.9377" lon="4.61639">
        <ele>427</ele>
        <time>2019-06-28T20:06:06Z</time>
      </trkpt>
      <trkpt lat="45.93745" lon="4.6164">
        <ele>424</ele>
        <time>2019-06-28T20:06:12Z</time>
      </trkpt>
      <trkpt lat="45.93693" lon="4.61634">
        <ele>418</ele>
        <time>2019-06-28T20:06:24Z</time>
      </trkpt>
      <trkpt lat="45.93665" lon="4.61644">
        <ele>415</ele>
        <time>2019-06-28T20:06:31Z</time>
      </trkpt>
      <trkpt lat="45.93642" lon="4.6164">
        <ele>412</ele>
        <time>2019-06-28T20:06:36Z</time>
      </trkpt>
      <trkpt lat="45.93611" lon="4.61629">
        <ele>407</ele>
        <time>2019-06-28T20:06:44Z</time>
      </trkpt>
      <trkpt lat="45.93592" lon="4.61626">
        <ele>404</ele>
        <time>2019-06-28T20:06:48Z</time>
      </trkpt>
      <trkpt lat="45.93575" lon="4.61627">
        <ele>401</ele>
        <time>2019-06-28T20:06:52Z</time>
      </trkpt>
      <trkpt lat="45.93556" lon="4.61609">
        <ele>397</ele>
        <time>2019-06-28T20:06:57Z</time>
      </trkpt>
      <trkpt lat="45.93552" lon="4.61587">
        <ele>395</ele>
        <time>2019-06-28T20:07:01Z</time>
      </trkpt>
      <trkpt lat="45.93556" lon="4.61553">
        <ele>392</ele>
        <time>2019-06-28T20:07:07Z</time>
      </trkpt>
      <trkpt lat="45.93554" lon="4.61533">
        <ele>390</ele>
        <time>2019-06-28T20:07:10Z</time>
      </trkpt>
      <trkpt lat="45.93569" lon="4.61441">
        <ele>384</ele>
        <time>2019-06-28T20:07:25Z</time>
      </trkpt>
      <trkpt lat="45.93577" lon="4.61424">
        <ele>383</ele>
        <time>2019-06-28T20:07:29Z</time>
      </trkpt>
      <trkpt lat="45.93586" lon="4.6137">
        <ele>383</ele>
        <time>2019-06-28T20:07:38Z</time>
      </trkpt>
      <trkpt lat="45.93585" lon="4.61356">
        <ele>383</ele>
        <time>2019-06-28T20:07:40Z</time>
      </trkpt>
      <trkpt lat="45.93571" lon="4.61346">
        <ele>382</ele>
        <time>2019-06-28T20:07:44Z</time>
      </trkpt>
      <trkpt lat="45.93486" lon="4.61311">
        <ele>389</ele>
        <time>2019-06-28T20:08:04Z</time>
      </trkpt>
      <trkpt lat="45.93451" lon="4.61324">
        <ele>391</ele>
        <time>2019-06-28T20:08:13Z</time>
      </trkpt>
      <trkpt lat="45.93443" lon="4.61324">
        <ele>391</ele>
        <time>2019-06-28T20:08:15Z</time>
      </trkpt>
      <trkpt lat="45.93426" lon="4.61332">
        <ele>391</ele>
        <time>2019-06-28T20:08:19Z</time>
      </trkpt>
      <trkpt lat="45.93407" lon="4.61336">
        <ele>392</ele>
        <time>2019-06-28T20:08:23Z</time>
      </trkpt>
      <trkpt lat="45.93395" lon="4.61324">
        <ele>395</ele>
        <time>2019-06-28T20:08:27Z</time>
      </trkpt>
      <trkpt lat="45.93382" lon="4.61302">
        <ele>400</ele>
        <time>2019-06-28T20:08:31Z</time>
      </trkpt>
      <trkpt lat="45.93367" lon="4.61293">
        <ele>403</ele>
        <time>2019-06-28T20:08:35Z</time>
      </trkpt>
      <trkpt lat="45.93353" lon="4.61296">
        <ele>403</ele>
        <time>2019-06-28T20:08:38Z</time>
      </trkpt>
      <trkpt lat="45.93344" lon="4.61304">
        <ele>402</ele>
        <time>2019-06-28T20:08:41Z</time>
      </trkpt>
      <trkpt lat="45.933" lon="4.61324">
        <ele>402</ele>
        <time>2019-06-28T20:08:52Z</time>
      </trkpt>
      <trkpt lat="45.93261" lon="4.61323">
        <ele>405</ele>
        <time>2019-06-28T20:09:01Z</time>
      </trkpt>
      <trkpt lat="45.93232" lon="4.61331">
        <ele>405</ele>
        <time>2019-06-28T20:09:08Z</time>
      </trkpt>
      <trkpt lat="45.93067" lon="4.61358">
        <ele>410</ele>
        <time>2019-06-28T20:09:46Z</time>
      </trkpt>
      <trkpt lat="45.93039" lon="4.61351">
        <ele>414</ele>
        <time>2019-06-28T20:09:53Z</time>
      </trkpt>
      <trkpt lat="45.93009" lon="4.61326">
        <ele>420</ele>
        <time>2019-06-28T20:10:01Z</time>
      </trkpt>
      <trkpt lat="45.9299" lon="4.61323">
        <ele>422</ele>
        <time>2019-06-28T20:10:06Z</time>
      </trkpt>
      <trkpt lat="45.9295" lon="4.61328">
        <ele>425</ele>
        <time>2019-06-28T20:10:15Z</time>
      </trkpt>
      <trkpt lat="45.92899" lon="4.6132">
        <ele>428</ele>
        <time>2019-06-28T20:10:27Z</time>
      </trkpt>
      <trkpt lat="45.92866" lon="4.61306">
        <ele>428</ele>
        <time>2019-06-28T20:10:35Z</time>
      </trkpt>
      <trkpt lat="45.92822" lon="4.61276">
        <ele>429</ele>
        <time>2019-06-28T20:10:46Z</time>
      </trkpt>
      <trkpt lat="45.92756" lon="4.61216">
        <ele>431</ele>
        <time>2019-06-28T20:11:05Z</time>
      </trkpt>
      <trkpt lat="45.92704" lon="4.61164">
        <ele>429</ele>
        <time>2019-06-28T20:11:19Z</time>
      </trkpt>
      <trkpt lat="45.92651" lon="4.61106">
        <ele>425</ele>
        <time>2019-06-28T20:11:35Z</time>
      </trkpt>
      <trkpt lat="45.92622" lon="4.61081">
        <ele>423</ele>
        <time>2019-06-28T20:11:43Z</time>
      </trkpt>
      <trkpt lat="45.926" lon="4.61075">
        <ele>421</ele>
        <time>2019-06-28T20:11:48Z</time>
      </trkpt>
      <trkpt lat="45.92589" lon="4.61076">
        <ele>420</ele>
        <time>2019-06-28T20:11:51Z</time>
      </trkpt>
      <trkpt lat="45.92557" lon="4.6112">
        <ele>417</ele>
        <time>2019-06-28T20:12:01Z</time>
      </trkpt>
      <trkpt lat="45.92549" lon="4.61123">
        <ele>417</ele>
        <time>2019-06-28T20:12:03Z</time>
      </trkpt>
      <trkpt lat="45.92542" lon="4.61121">
        <ele>417</ele>
        <time>2019-06-28T20:12:05Z</time>
      </trkpt>
      <trkpt lat="45.92525" lon="4.61083">
        <ele>419</ele>
        <time>2019-06-28T20:12:12Z</time>
      </trkpt>
      <trkpt lat="45.925" lon="4.6101">
        <ele>417</ele>
        <time>2019-06-28T20:12:25Z</time>
      </trkpt>
      <trkpt lat="45.92492" lon="4.60995">
        <ele>417</ele>
        <time>2019-06-28T20:12:28Z</time>
      </trkpt>
      <trkpt lat="45.92487" lon="4.60991">
        <ele>417</ele>
        <time>2019-06-28T20:12:30Z</time>
      </trkpt>
      <trkpt lat="45.92482" lon="4.60991">
        <ele>417</ele>
        <time>2019-06-28T20:12:31Z</time>
      </trkpt>
      <trkpt lat="45.92447" lon="4.61015">
        <ele>418</ele>
        <time>2019-06-28T20:12:40Z</time>
      </trkpt>
      <trkpt lat="45.92423" lon="4.6105">
        <ele>420</ele>
        <time>2019-06-28T20:12:48Z</time>
      </trkpt>
      <trkpt lat="45.92415" lon="4.61073">
        <ele>421</ele>
        <time>2019-06-28T20:12:52Z</time>
      </trkpt>
      <trkpt lat="45.92389" lon="4.61119">
        <ele>422</ele>
        <time>2019-06-28T20:13:02Z</time>
      </trkpt>
      <trkpt lat="45.92358" lon="4.612">
        <ele>416</ele>
        <time>2019-06-28T20:13:17Z</time>
      </trkpt>
      <trkpt lat="45.92326" lon="4.61231">
        <ele>414</ele>
        <time>2019-06-28T20:13:26Z</time>
      </trkpt>
      <trkpt lat="45.92314" lon="4.61253">
        <ele>413</ele>
        <time>2019-06-28T20:13:30Z</time>
      </trkpt>
      <trkpt lat="45.92281" lon="4.61301">
        <ele>412</ele>
        <time>2019-06-28T20:13:41Z</time>
      </trkpt>
      <trkpt lat="45.9224" lon="4.61398">
        <ele>408</ele>
        <time>2019-06-28T20:14:00Z</time>
      </trkpt>
      <trkpt lat="45.92224" lon="4.61428">
        <ele>407</ele>
        <time>2019-06-28T20:14:06Z</time>
      </trkpt>
      <trkpt lat="45.92205" lon="4.61455">
        <ele>406</ele>
        <time>2019-06-28T20:14:12Z</time>
      </trkpt>
      <trkpt lat="45.92147" lon="4.61533">
        <ele>398</ele>
        <time>2019-06-28T20:14:31Z</time>
      </trkpt>
      <trkpt lat="45.92132" lon="4.61544">
        <ele>397</ele>
        <time>2019-06-28T20:14:34Z</time>
      </trkpt>
      <trkpt lat="45.92099" lon="4.61559">
        <ele>395</ele>
        <time>2019-06-28T20:14:43Z</time>
      </trkpt>
      <trkpt lat="45.92084" lon="4.61569">
        <ele>393</ele>
        <time>2019-06-28T20:14:46Z</time>
      </trkpt>
      <trkpt lat="45.92062" lon="4.61596">
        <ele>390</ele>
        <time>2019-06-28T20:14:53Z</time>
      </trkpt>
      <trkpt lat="45.92044" lon="4.6163">
        <ele>387</ele>
        <time>2019-06-28T20:15:00Z</time>
      </trkpt>
      <trkpt lat="45.92027" lon="4.6165">
        <ele>386</ele>
        <time>2019-06-28T20:15:05Z</time>
      </trkpt>
      <trkpt lat="45.92011" lon="4.61654">
        <ele>386</ele>
        <time>2019-06-28T20:15:09Z</time>
      </trkpt>
      <trkpt lat="45.91999" lon="4.6167">
        <ele>385</ele>
        <time>2019-06-28T20:15:13Z</time>
      </trkpt>
      <trkpt lat="45.91985" lon="4.61695">
        <ele>381</ele>
        <time>2019-06-28T20:15:18Z</time>
      </trkpt>
      <trkpt lat="45.91977" lon="4.6173">
        <ele>377</ele>
        <time>2019-06-28T20:15:24Z</time>
      </trkpt>
      <trkpt lat="45.91973" lon="4.6177">
        <ele>373</ele>
        <time>2019-06-28T20:15:31Z</time>
      </trkpt>
      <trkpt lat="45.91947" lon="4.61814">
        <ele>370</ele>
        <time>2019-06-28T20:15:40Z</time>
      </trkpt>
      <trkpt lat="45.91924" lon="4.61845">
        <ele>367</ele>
        <time>2019-06-28T20:15:47Z</time>
      </trkpt>
      <trkpt lat="45.91896" lon="4.61876">
        <ele>365</ele>
        <time>2019-06-28T20:15:56Z</time>
      </trkpt>
      <trkpt lat="45.91853" lon="4.61902">
        <ele>361</ele>
        <time>2019-06-28T20:16:07Z</time>
      </trkpt>
      <trkpt lat="45.91828" lon="4.61922">
        <ele>359</ele>
        <time>2019-06-28T20:16:13Z</time>
      </trkpt>
      <trkpt lat="45.91778" lon="4.61951">
        <ele>355</ele>
        <time>2019-06-28T20:16:26Z</time>
      </trkpt>
      <trkpt lat="45.91774" lon="4.61956">
        <ele>354</ele>
        <time>2019-06-28T20:16:27Z</time>
      </trkpt>
      <trkpt lat="45.91771" lon="4.61971">
        <ele>352</ele>
        <time>2019-06-28T20:16:30Z</time>
      </trkpt>
      <trkpt lat="45.91827" lon="4.62023">
        <ele>350</ele>
        <time>2019-06-28T20:16:45Z</time>
      </trkpt>
      <trkpt lat="45.91854" lon="4.62052">
        <ele>349</ele>
        <time>2019-06-28T20:16:53Z</time>
      </trkpt>
      <trkpt lat="45.91873" lon="4.62076">
        <ele>348</ele>
        <time>2019-06-28T20:16:59Z</time>
      </trkpt>
      <trkpt lat="45.91882" lon="4.62092">
        <ele>348</ele>
        <time>2019-06-28T20:17:02Z</time>
      </trkpt>
      <trkpt lat="45.91881" lon="4.62098">
        <ele>348</ele>
        <time>2019-06-28T20:17:03Z</time>
      </trkpt>
      <trkpt lat="45.9187" lon="4.62114">
        <ele>347</ele>
        <time>2019-06-28T20:17:07Z</time>
      </trkpt>
      <trkpt lat="45.91835" lon="4.62158">
        <ele>342</ele>
        <time>2019-06-28T20:17:18Z</time>
      </trkpt>
      <trkpt lat="45.91817" lon="4.62172">
        <ele>341</ele>
        <time>2019-06-28T20:17:23Z</time>
      </trkpt>
      <trkpt lat="45.91768" lon="4.62178">
        <ele>340</ele>
        <time>2019-06-28T20:17:34Z</time>
      </trkpt>
      <trkpt lat="45.91724" lon="4.62187">
        <ele>338</ele>
        <time>2019-06-28T20:17:44Z</time>
      </trkpt>
      <trkpt lat="45.91677" lon="4.62191">
        <ele>337</ele>
        <time>2019-06-28T20:17:55Z</time>
      </trkpt>
      <trkpt lat="45.91622" lon="4.62201">
        <ele>337</ele>
        <time>2019-06-28T20:18:08Z</time>
      </trkpt>
      <trkpt lat="45.91599" lon="4.62211">
        <ele>337</ele>
        <time>2019-06-28T20:18:14Z</time>
      </trkpt>
      <trkpt lat="45.91483" lon="4.62306">
        <ele>337</ele>
        <time>2019-06-28T20:18:45Z</time>
      </trkpt>
      <trkpt lat="45.91432" lon="4.62342">
        <ele>338</ele>
        <time>2019-06-28T20:18:58Z</time>
      </trkpt>
      <trkpt lat="45.91407" lon="4.62353">
        <ele>338</ele>
        <time>2019-06-28T20:19:05Z</time>
      </trkpt>
      <trkpt lat="45.91367" lon="4.62366">
        <ele>336</ele>
        <time>2019-06-28T20:19:14Z</time>
      </trkpt>
      <trkpt lat="45.91361" lon="4.62364">
        <ele>335</ele>
        <time>2019-06-28T20:19:16Z</time>
      </trkpt>
      <trkpt lat="45.91358" lon="4.62347">
        <ele>335</ele>
        <time>2019-06-28T20:19:18Z</time>
      </trkpt>
      <trkpt lat="45.91373" lon="4.62262">
        <ele>336</ele>
        <time>2019-06-28T20:19:33Z</time>
      </trkpt>
      <trkpt lat="45.91384" lon="4.6211">
        <ele>338</ele>
        <time>2019-06-28T20:19:57Z</time>
      </trkpt>
      <trkpt lat="45.91397" lon="4.61986">
        <ele>345</ele>
        <time>2019-06-28T20:20:18Z</time>
      </trkpt>
      <trkpt lat="45.91413" lon="4.61921">
        <ele>351</ele>
        <time>2019-06-28T20:20:29Z</time>
      </trkpt>
      <trkpt lat="45.91434" lon="4.61859">
        <ele>356</ele>
        <time>2019-06-28T20:20:40Z</time>
      </trkpt>
      <trkpt lat="45.91433" lon="4.61846">
        <ele>357</ele>
        <time>2019-06-28T20:20:42Z</time>
      </trkpt>
      <trkpt lat="45.914" lon="4.61753">
        <ele>354</ele>
        <time>2019-06-28T20:20:59Z</time>
      </trkpt>
      <trkpt lat="45.91402" lon="4.61747">
        <ele>354</ele>
        <time>2019-06-28T20:21:00Z</time>
      </trkpt>
      <trkpt lat="45.91406" lon="4.61746">
        <ele>354</ele>
        <time>2019-06-28T20:21:01Z</time>
      </trkpt>
      <trkpt lat="45.9142" lon="4.61734">
        <ele>354</ele>
        <time>2019-06-28T20:21:05Z</time>
      </trkpt>
      <trkpt lat="45.91469" lon="4.61708">
        <ele>357</ele>
        <time>2019-06-28T20:21:17Z</time>
      </trkpt>
      <trkpt lat="45.91479" lon="4.61696">
        <ele>357</ele>
        <time>2019-06-28T20:21:20Z</time>
      </trkpt>
      <trkpt lat="45.91484" lon="4.61677">
        <ele>357</ele>
        <time>2019-06-28T20:21:24Z</time>
      </trkpt>
      <trkpt lat="45.91529" lon="4.61658">
        <ele>360</ele>
        <time>2019-06-28T20:21:35Z</time>
      </trkpt>
      <trkpt lat="45.9154" lon="4.61649">
        <ele>360</ele>
        <time>2019-06-28T20:21:38Z</time>
      </trkpt>
      <trkpt lat="45.91529" lon="4.61638">
        <ele>357</ele>
        <time>2019-06-28T20:21:41Z</time>
      </trkpt>
      <trkpt lat="45.91525" lon="4.6163">
        <ele>356</ele>
        <time>2019-06-28T20:21:42Z</time>
      </trkpt>
      <trkpt lat="45.91517" lon="4.61606">
        <ele>353</ele>
        <time>2019-06-28T20:21:47Z</time>
      </trkpt>
      <trkpt lat="45.91514" lon="4.61586">
        <ele>350</ele>
        <time>2019-06-28T20:21:50Z</time>
      </trkpt>
      <trkpt lat="45.91513" lon="4.61473">
        <ele>347</ele>
        <time>2019-06-28T20:22:08Z</time>
      </trkpt>
      <trkpt lat="45.91506" lon="4.61415">
        <ele>349</ele>
        <time>2019-06-28T20:22:18Z</time>
      </trkpt>
      <trkpt lat="45.91505" lon="4.61367">
        <ele>352</ele>
        <time>2019-06-28T20:22:26Z</time>
      </trkpt>
      <trkpt lat="45.91502" lon="4.6135">
        <ele>353</ele>
        <time>2019-06-28T20:22:29Z</time>
      </trkpt>
      <trkpt lat="45.91485" lon="4.61296">
        <ele>357</ele>
        <time>2019-06-28T20:22:38Z</time>
      </trkpt>
      <trkpt lat="45.91463" lon="4.61253">
        <ele>360</ele>
        <time>2019-06-28T20:22:47Z</time>
      </trkpt>
      <trkpt lat="45.91457" lon="4.61236">
        <ele>360</ele>
        <time>2019-06-28T20:22:50Z</time>
      </trkpt>
      <trkpt lat="45.91396" lon="4.61131">
        <ele>359</ele>
        <time>2019-06-28T20:23:12Z</time>
      </trkpt>
      <trkpt lat="45.91341" lon="4.60998">
        <ele>362</ele>
        <time>2019-06-28T20:23:37Z</time>
      </trkpt>
      <trkpt lat="45.91306" lon="4.60901">
        <ele>363</ele>
        <time>2019-06-28T20:23:55Z</time>
      </trkpt>
      <trkpt lat="45.91299" lon="4.60856">
        <ele>363</ele>
        <time>2019-06-28T20:24:03Z</time>
      </trkpt>
      <trkpt lat="45.91298" lon="4.60817">
        <ele>363</ele>
        <time>2019-06-28T20:24:09Z</time>
      </trkpt>
      <trkpt lat="45.91294" lon="4.60815">
        <ele>363</ele>
        <time>2019-06-28T20:24:10Z</time>
      </trkpt>
      <trkpt lat="45.91289" lon="4.60817">
        <ele>363</ele>
        <time>2019-06-28T20:24:11Z</time>
      </trkpt>
      <trkpt lat="45.91172" lon="4.60909">
        <ele>354</ele>
        <time>2019-06-28T20:24:42Z</time>
      </trkpt>
      <trkpt lat="45.91156" lon="4.60933">
        <ele>352</ele>
        <time>2019-06-28T20:24:48Z</time>
      </trkpt>
      <trkpt lat="45.91133" lon="4.60981">
        <ele>350</ele>
        <time>2019-06-28T20:24:57Z</time>
      </trkpt>
      <trkpt lat="45.91124" lon="4.60988">
        <ele>350</ele>
        <time>2019-06-28T20:25:00Z</time>
      </trkpt>
      <trkpt lat="45.91092" lon="4.60993">
        <ele>349</ele>
        <time>2019-06-28T20:25:07Z</time>
      </trkpt>
      <trkpt lat="45.9108" lon="4.61">
        <ele>348</ele>
        <time>2019-06-28T20:25:10Z</time>
      </trkpt>
      <trkpt lat="45.91063" lon="4.61027">
        <ele>346</ele>
        <time>2019-06-28T20:25:16Z</time>
      </trkpt>
      <trkpt lat="45.91047" lon="4.61078">
        <ele>343</ele>
        <time>2019-06-28T20:25:25Z</time>
      </trkpt>
      <trkpt lat="45.91038" lon="4.61095">
        <ele>341</ele>
        <time>2019-06-28T20:25:29Z</time>
      </trkpt>
      <trkpt lat="45.90959" lon="4.61182">
        <ele>329</ele>
        <time>2019-06-28T20:25:52Z</time>
      </trkpt>
      <trkpt lat="45.90939" lon="4.61211">
        <ele>326</ele>
        <time>2019-06-28T20:25:58Z</time>
      </trkpt>
      <trkpt lat="45.90886" lon="4.6133">
        <ele>314</ele>
        <time>2019-06-28T20:26:21Z</time>
      </trkpt>
      <trkpt lat="45.90856" lon="4.61372">
        <ele>308</ele>
        <time>2019-06-28T20:26:31Z</time>
      </trkpt>
      <trkpt lat="45.90785" lon="4.61407">
        <ele>304</ele>
        <time>2019-06-28T20:26:49Z</time>
      </trkpt>
      <trkpt lat="45.90717" lon="4.61453">
        <ele>302</ele>
        <time>2019-06-28T20:27:06Z</time>
      </trkpt>
      <trkpt lat="45.90638" lon="4.61488">
        <ele>297</ele>
        <time>2019-06-28T20:27:26Z</time>
      </trkpt>
      <trkpt lat="45.90603" lon="4.61511">
        <ele>295</ele>
        <time>2019-06-28T20:27:35Z</time>
      </trkpt>
      <trkpt lat="45.9055" lon="4.61532">
        <ele>294</ele>
        <time>2019-06-28T20:27:47Z</time>
      </trkpt>
      <trkpt lat="45.9053" lon="4.61535">
        <ele>295</ele>
        <time>2019-06-28T20:27:52Z</time>
      </trkpt>
      <trkpt lat="45.90515" lon="4.61543">
        <ele>294</ele>
        <time>2019-06-28T20:27:56Z</time>
      </trkpt>
      <trkpt lat="45.90505" lon="4.61533">
        <ele>296</ele>
        <time>2019-06-28T20:27:59Z</time>
      </trkpt>
      <trkpt lat="45.90486" lon="4.61527">
        <ele>296</ele>
        <time>2019-06-28T20:28:03Z</time>
      </trkpt>
      <trkpt lat="45.90461" lon="4.61511">
        <ele>298</ele>
        <time>2019-06-28T20:28:10Z</time>
      </trkpt>
      <trkpt lat="45.90452" lon="4.61497">
        <ele>299</ele>
        <time>2019-06-28T20:28:13Z</time>
      </trkpt>
      <trkpt lat="45.90445" lon="4.61472">
        <ele>301</ele>
        <time>2019-06-28T20:28:17Z</time>
      </trkpt>
      <trkpt lat="45.90441" lon="4.61427">
        <ele>303</ele>
        <time>2019-06-28T20:28:24Z</time>
      </trkpt>
      <trkpt lat="45.90437" lon="4.61408">
        <ele>304</ele>
        <time>2019-06-28T20:28:28Z</time>
      </trkpt>
      <trkpt lat="45.90426" lon="4.61388">
        <ele>305</ele>
        <time>2019-06-28T20:28:32Z</time>
      </trkpt>
      <trkpt lat="45.90406" lon="4.61335">
        <ele>308</ele>
        <time>2019-06-28T20:28:42Z</time>
      </trkpt>
      <trkpt lat="45.90388" lon="4.61333">
        <ele>308</ele>
        <time>2019-06-28T20:28:46Z</time>
      </trkpt>
      <trkpt lat="45.90337" lon="4.61346">
        <ele>305</ele>
        <time>2019-06-28T20:28:58Z</time>
      </trkpt>
      <trkpt lat="45.90326" lon="4.61342">
        <ele>304</ele>
        <time>2019-06-28T20:29:01Z</time>
      </trkpt>
      <trkpt lat="45.90302" lon="4.61319">
        <ele>303</ele>
        <time>2019-06-28T20:29:07Z</time>
      </trkpt>
      <trkpt lat="45.90284" lon="4.6129">
        <ele>304</ele>
        <time>2019-06-28T20:29:14Z</time>
      </trkpt>
      <trkpt lat="45.90228" lon="4.61166">
        <ele>304</ele>
        <time>2019-06-28T20:29:38Z</time>
      </trkpt>
      <trkpt lat="45.90177" lon="4.61088">
        <ele>303</ele>
        <time>2019-06-28T20:29:55Z</time>
      </trkpt>
      <trkpt lat="45.90144" lon="4.61029">
        <ele>302</ele>
        <time>2019-06-28T20:30:07Z</time>
      </trkpt>
      <trkpt lat="45.90129" lon="4.60966">
        <ele>302</ele>
        <time>2019-06-28T20:30:18Z</time>
      </trkpt>
      <trkpt lat="45.9012" lon="4.60952">
        <ele>302</ele>
        <time>2019-06-28T20:30:21Z</time>
      </trkpt>
      <trkpt lat="45.90089" lon="4.60925">
        <ele>302</ele>
        <time>2019-06-28T20:30:30Z</time>
      </trkpt>
      <trkpt lat="45.90078" lon="4.60904">
        <ele>302</ele>
        <time>2019-06-28T20:30:34Z</time>
      </trkpt>
      <trkpt lat="45.90072" lon="4.60877">
        <ele>302</ele>
        <time>2019-06-28T20:30:39Z</time>
      </trkpt>
      <trkpt lat="45.9006" lon="4.60856">
        <ele>302</ele>
        <time>2019-06-28T20:30:43Z</time>
      </trkpt>
      <trkpt lat="45.90043" lon="4.60843">
        <ele>301</ele>
        <time>2019-06-28T20:30:48Z</time>
      </trkpt>
      <trkpt lat="45.90048" lon="4.60776">
        <ele>302</ele>
        <time>2019-06-28T20:30:58Z</time>
      </trkpt>
      <trkpt lat="45.90045" lon="4.60766">
        <ele>302</ele>
        <time>2019-06-28T20:31:00Z</time>
      </trkpt>
      <trkpt lat="45.90038" lon="4.60766">
        <ele>302</ele>
        <time>2019-06-28T20:31:02Z</time>
      </trkpt>
      <trkpt lat="45.90002" lon="4.6078">
        <ele>300</ele>
        <time>2019-06-28T20:31:11Z</time>
      </trkpt>
      <trkpt lat="45.89984" lon="4.60782">
        <ele>299</ele>
        <time>2019-06-28T20:31:15Z</time>
      </trkpt>
      <trkpt lat="45.89949" lon="4.6078">
        <ele>298</ele>
        <time>2019-06-28T20:31:23Z</time>
      </trkpt>
      <trkpt lat="45.89904" lon="4.60785">
        <ele>296</ele>
        <time>2019-06-28T20:31:34Z</time>
      </trkpt>
      <trkpt lat="45.8972" lon="4.60824">
        <ele>290</ele>
        <time>2019-06-28T20:32:17Z</time>
      </trkpt>
      <trkpt lat="45.89576" lon="4.60851">
        <ele>282</ele>
        <time>2019-06-28T20:32:51Z</time>
      </trkpt>
      <trkpt lat="45.89523" lon="4.6086">
        <ele>280</ele>
        <time>2019-06-28T20:33:03Z</time>
      </trkpt>
      <trkpt lat="45.89514" lon="4.60856">
        <ele>280</ele>
        <time>2019-06-28T20:33:06Z</time>
      </trkpt>
      <trkpt lat="45.89509" lon="4.60846">
        <ele>281</ele>
        <time>2019-06-28T20:33:08Z</time>
      </trkpt>
      <trkpt lat="45.89496" lon="4.60778">
        <ele>281</ele>
        <time>2019-06-28T20:33:19Z</time>
      </trkpt>
      <trkpt lat="45.89472" lon="4.6071">
        <ele>277</ele>
        <time>2019-06-28T20:33:31Z</time>
      </trkpt>
      <trkpt lat="45.89451" lon="4.60676">
        <ele>274</ele>
        <time>2019-06-28T20:33:39Z</time>
      </trkpt>
      <trkpt lat="45.89494" lon="4.60627">
        <ele>275</ele>
        <time>2019-06-28T20:33:52Z</time>
      </trkpt>
      <trkpt lat="45.89469" lon="4.60558">
        <ele>272</ele>
        <time>2019-06-28T20:34:04Z</time>
      </trkpt>
      <trkpt lat="45.89473" lon="4.6043">
        <ele>275</ele>
        <time>2019-06-28T20:34:25Z</time>
      </trkpt>
      <trkpt lat="45.89468" lon="4.60372">
        <ele>278</ele>
        <time>2019-06-28T20:34:35Z</time>
      </trkpt>
      <trkpt lat="45.89461" lon="4.60327">
        <ele>280</ele>
        <time>2019-06-28T20:34:42Z</time>
      </trkpt>
      <trkpt lat="45.89454" lon="4.60306">
        <ele>280</ele>
        <time>2019-06-28T20:34:46Z</time>
      </trkpt>
      <trkpt lat="45.89454" lon="4.603">
        <ele>280</ele>
        <time>2019-06-28T20:34:47Z</time>
      </trkpt>
      <trkpt lat="45.8946" lon="4.60298">
        <ele>280</ele>
        <time>2019-06-28T20:34:48Z</time>
      </trkpt>
      <trkpt lat="45.89478" lon="4.60299">
        <ele>281</ele>
        <time>2019-06-28T20:34:52Z</time>
      </trkpt>
      <trkpt lat="45.89529" lon="4.60306">
        <ele>284</ele>
        <time>2019-06-28T20:35:04Z</time>
      </trkpt>
      <trkpt lat="45.89549" lon="4.60304">
        <ele>285</ele>
        <time>2019-06-28T20:35:09Z</time>
      </trkpt>
      <trkpt lat="45.89594" lon="4.60292">
        <ele>289</ele>
        <time>2019-06-28T20:35:20Z</time>
      </trkpt>
      <trkpt lat="45.89675" lon="4.60275">
        <ele>294</ele>
        <time>2019-06-28T20:35:39Z</time>
      </trkpt>
      <trkpt lat="45.8968" lon="4.6027">
        <ele>295</ele>
        <time>2019-06-28T20:35:40Z</time>
      </trkpt>
      <trkpt lat="45.89675" lon="4.60084">
        <ele>299</ele>
        <time>2019-06-28T20:36:11Z</time>
      </trkpt>
      <trkpt lat="45.89692" lon="4.6002">
        <ele>301</ele>
        <time>2019-06-28T20:36:22Z</time>
      </trkpt>
      <trkpt lat="45.89716" lon="4.59949">
        <ele>303</ele>
        <time>2019-06-28T20:36:35Z</time>
      </trkpt>
      <trkpt lat="45.89724" lon="4.59943">
        <ele>305</ele>
        <time>2019-06-28T20:36:37Z</time>
      </trkpt>
      <trkpt lat="45.89771" lon="4.59925">
        <ele>312</ele>
        <time>2019-06-28T20:36:48Z</time>
      </trkpt>
      <trkpt lat="45.89776" lon="4.59919">
        <ele>312</ele>
        <time>2019-06-28T20:36:50Z</time>
      </trkpt>
      <trkpt lat="45.89788" lon="4.59885">
        <ele>310</ele>
        <time>2019-06-28T20:36:56Z</time>
      </trkpt>
      <trkpt lat="45.89804" lon="4.59866">
        <ele>309</ele>
        <time>2019-06-28T20:37:01Z</time>
      </trkpt>
      <trkpt lat="45.8982" lon="4.59856">
        <ele>310</ele>
        <time>2019-06-28T20:37:05Z</time>
      </trkpt>
      <trkpt lat="45.89867" lon="4.5984">
        <ele>311</ele>
        <time>2019-06-28T20:37:16Z</time>
      </trkpt>
      <trkpt lat="45.89922" lon="4.59799">
        <ele>310</ele>
        <time>2019-06-28T20:37:30Z</time>
      </trkpt>
      <trkpt lat="45.89936" lon="4.59783">
        <ele>308</ele>
        <time>2019-06-28T20:37:35Z</time>
      </trkpt>
      <trkpt lat="45.89927" lon="4.59761">
        <ele>305</ele>
        <time>2019-06-28T20:37:39Z</time>
      </trkpt>
      <trkpt lat="45.89884" lon="4.59685">
        <ele>298</ele>
        <time>2019-06-28T20:37:55Z</time>
      </trkpt>
      <trkpt lat="45.89874" lon="4.59657">
        <ele>296</ele>
        <time>2019-06-28T20:38:00Z</time>
      </trkpt>
      <trkpt lat="45.89868" lon="4.59652">
        <ele>295</ele>
        <time>2019-06-28T20:38:01Z</time>
      </trkpt>
      <trkpt lat="45.89858" lon="4.59654">
        <ele>295</ele>
        <time>2019-06-28T20:38:04Z</time>
      </trkpt>
      <trkpt lat="45.89849" lon="4.5965">
        <ele>294</ele>
        <time>2019-06-28T20:38:06Z</time>
      </trkpt>
      <trkpt lat="45.89831" lon="4.5963">
        <ele>291</ele>
        <time>2019-06-28T20:38:11Z</time>
      </trkpt>
      <trkpt lat="45.89833" lon="4.59592">
        <ele>289</ele>
        <time>2019-06-28T20:38:17Z</time>
      </trkpt>
      <trkpt lat="45.89831" lon="4.59569">
        <ele>287</ele>
        <time>2019-06-28T20:38:21Z</time>
      </trkpt>
      <trkpt lat="45.89862" lon="4.59501">
        <ele>284</ele>
        <time>2019-06-28T20:38:34Z</time>
      </trkpt>
      <trkpt lat="45.89766" lon="4.59403">
        <ele>273</ele>
        <time>2019-06-28T20:39:02Z</time>
      </trkpt>
      <trkpt lat="45.89749" lon="4.5939">
        <ele>270</ele>
        <time>2019-06-28T20:39:06Z</time>
      </trkpt>
      <trkpt lat="45.89726" lon="4.59387">
        <ele>265</ele>
        <time>2019-06-28T20:39:12Z</time>
      </trkpt>
      <trkpt lat="45.89706" lon="4.5939">
        <ele>261</ele>
        <time>2019-06-28T20:39:17Z</time>
      </trkpt>
      <trkpt lat="45.89664" lon="4.59435">
        <ele>258</ele>
        <time>2019-06-28T20:39:29Z</time>
      </trkpt>
      <trkpt lat="45.8963" lon="4.59424">
        <ele>249</ele>
        <time>2019-06-28T20:39:37Z</time>
      </trkpt>
      <trkpt lat="45.89613" lon="4.59429">
        <ele>247</ele>
        <time>2019-06-28T20:39:41Z</time>
      </trkpt>
      <trkpt lat="45.89587" lon="4.59452">
        <ele>244</ele>
        <time>2019-06-28T20:39:48Z</time>
      </trkpt>
      <trkpt lat="45.8958" lon="4.59465">
        <ele>244</ele>
        <time>2019-06-28T20:39:51Z</time>
      </trkpt>
      <trkpt lat="45.89576" lon="4.59466">
        <ele>244</ele>
        <time>2019-06-28T20:39:52Z</time>
      </trkpt>
      <trkpt lat="45.89575" lon="4.59462">
        <ele>243</ele>
        <time>2019-06-28T20:39:52Z</time>
      </trkpt>
      <trkpt lat="45.89588" lon="4.59439">
        <ele>243</ele>
        <time>2019-06-28T20:39:57Z</time>
      </trkpt>
      <trkpt lat="45.89573" lon="4.59417">
        <ele>238</ele>
        <time>2019-06-28T20:40:02Z</time>
      </trkpt>
      <trkpt lat="45.89583" lon="4.59395">
        <ele>238</ele>
        <time>2019-06-28T20:40:06Z</time>
      </trkpt>
      <trkpt lat="45.89621" lon="4.59275">
        <ele>236</ele>
        <time>2019-06-28T20:40:28Z</time>
      </trkpt>
      <trkpt lat="45.8964" lon="4.59196">
        <ele>234</ele>
        <time>2019-06-28T20:40:41Z</time>
      </trkpt>
      <trkpt lat="45.89657" lon="4.59137">
        <ele>233</ele>
        <time>2019-06-28T20:40:52Z</time>
      </trkpt>
      <trkpt lat="45.89654" lon="4.59133">
        <ele>233</ele>
        <time>2019-06-28T20:40:53Z</time>
      </trkpt>
      <trkpt lat="45.89646" lon="4.59131">
        <ele>233</ele>
        <time>2019-06-28T20:40:55Z</time>
      </trkpt>
      <trkpt lat="45.89639" lon="4.59135">
        <ele>233</ele>
        <time>2019-06-28T20:40:56Z</time>
      </trkpt>
      <trkpt lat="45.89625" lon="4.59151">
        <ele>233</ele>
        <time>2019-06-28T20:41:01Z</time>
      </trkpt>
      <trkpt lat="45.89617" lon="4.59149">
        <ele>233</ele>
        <time>2019-06-28T20:41:03Z</time>
      </trkpt>
      <trkpt lat="45.89592" lon="4.59126">
        <ele>233</ele>
        <time>2019-06-28T20:41:09Z</time>
      </trkpt>
      <trkpt lat="45.89555" lon="4.5913">
        <ele>233</ele>
        <time>2019-06-28T20:41:18Z</time>
      </trkpt>
      <trkpt lat="45.89533" lon="4.59113">
        <ele>233</ele>
        <time>2019-06-28T20:41:24Z</time>
      </trkpt>
      <trkpt lat="45.8952" lon="4.59095">
        <ele>233</ele>
        <time>2019-06-28T20:41:28Z</time>
      </trkpt>
      <trkpt lat="45.89495" lon="4.59039">
        <ele>233</ele>
        <time>2019-06-28T20:41:39Z</time>
      </trkpt>
      <trkpt lat="45.89436" lon="4.58881">
        <ele>236</ele>
        <time>2019-06-28T20:42:08Z</time>
      </trkpt>
      <trkpt lat="45.89431" lon="4.58859">
        <ele>238</ele>
        <time>2019-06-28T20:42:12Z</time>
      </trkpt>
      <trkpt lat="45.89425" lon="4.58849">
        <ele>239</ele>
        <time>2019-06-28T20:42:14Z</time>
      </trkpt>
      <trkpt lat="45.89415" lon="4.58847">
        <ele>240</ele>
        <time>2019-06-28T20:42:16Z</time>
      </trkpt>
      <trkpt lat="45.89376" lon="4.5886">
        <ele>242</ele>
        <time>2019-06-28T20:42:26Z</time>
      </trkpt>
      <trkpt lat="45.89365" lon="4.58866">
        <ele>243</ele>
        <time>2019-06-28T20:42:29Z</time>
      </trkpt>
      <trkpt lat="45.89362" lon="4.5887">
        <ele>243</ele>
        <time>2019-06-28T20:42:29Z</time>
      </trkpt>
      <trkpt lat="45.89353" lon="4.58863">
        <ele>244</ele>
        <time>2019-06-28T20:42:32Z</time>
      </trkpt>
      <trkpt lat="45.89344" lon="4.58832">
        <ele>246</ele>
        <time>2019-06-28T20:42:37Z</time>
      </trkpt>
      <trkpt lat="45.89303" lon="4.58783">
        <ele>253</ele>
        <time>2019-06-28T20:42:50Z</time>
      </trkpt>
      <trkpt lat="45.89293" lon="4.58774">
        <ele>255</ele>
        <time>2019-06-28T20:42:53Z</time>
      </trkpt>
      <trkpt lat="45.89284" lon="4.58772">
        <ele>257</ele>
        <time>2019-06-28T20:42:55Z</time>
      </trkpt>
      <trkpt lat="45.89273" lon="4.5875">
        <ele>260</ele>
        <time>2019-06-28T20:42:59Z</time>
      </trkpt>
      <trkpt lat="45.89267" lon="4.58745">
        <ele>260</ele>
        <time>2019-06-28T20:43:01Z</time>
      </trkpt>
      <trkpt lat="45.89259" lon="4.58747">
        <ele>262</ele>
        <time>2019-06-28T20:43:03Z</time>
      </trkpt>
      <trkpt lat="45.89241" lon="4.58762">
        <ele>265</ele>
        <time>2019-06-28T20:43:07Z</time>
      </trkpt>
      <trkpt lat="45.89222" lon="4.58774">
        <ele>267</ele>
        <time>2019-06-28T20:43:12Z</time>
      </trkpt>
      <trkpt lat="45.89197" lon="4.58772">
        <ele>270</ele>
        <time>2019-06-28T20:43:18Z</time>
      </trkpt>
      <trkpt lat="45.89151" lon="4.58744">
        <ele>277</ele>
        <time>2019-06-28T20:43:30Z</time>
      </trkpt>
      <trkpt lat="45.89132" lon="4.58727">
        <ele>278</ele>
        <time>2019-06-28T20:43:35Z</time>
      </trkpt>
      <trkpt lat="45.89097" lon="4.58703">
        <ele>280</ele>
        <time>2019-06-28T20:43:44Z</time>
      </trkpt>
      <trkpt lat="45.89059" lon="4.58685">
        <ele>282</ele>
        <time>2019-06-28T20:43:53Z</time>
      </trkpt>
      <trkpt lat="45.88937" lon="4.58619">
        <ele>283</ele>
        <time>2019-06-28T20:44:24Z</time>
      </trkpt>
      <trkpt lat="45.88899" lon="4.58602">
        <ele>284</ele>
        <time>2019-06-28T20:44:33Z</time>
      </trkpt>
      <trkpt lat="45.8887" lon="4.58585">
        <ele>285</ele>
        <time>2019-06-28T20:44:40Z</time>
      </trkpt>
      <trkpt lat="45.88784" lon="4.58559">
        <ele>286</ele>
        <time>2019-06-28T20:45:01Z</time>
      </trkpt>
      <trkpt lat="45.88726" lon="4.58538">
        <ele>287</ele>
        <time>2019-06-28T20:45:15Z</time>
      </trkpt>
      <trkpt lat="45.88721" lon="4.58537">
        <ele>287</ele>
        <time>2019-06-28T20:45:16Z</time>
      </trkpt>
      <trkpt lat="45.88717" lon="4.58542">
        <ele>287</ele>
        <time>2019-06-28T20:45:17Z</time>
      </trkpt>
      <trkpt lat="45.88693" lon="4.58614">
        <ele>286</ele>
        <time>2019-06-28T20:45:30Z</time>
      </trkpt>
      <trkpt lat="45.88679" lon="4.58625">
        <ele>287</ele>
        <time>2019-06-28T20:45:34Z</time>
      </trkpt>
      <trkpt lat="45.88616" lon="4.58661">
        <ele>288</ele>
        <time>2019-06-28T20:45:50Z</time>
      </trkpt>
      <trkpt lat="45.88534" lon="4.58628">
        <ele>296</ele>
        <time>2019-06-28T20:46:10Z</time>
      </trkpt>
      <trkpt lat="45.88525" lon="4.58577">
        <ele>300</ele>
        <time>2019-06-28T20:46:18Z</time>
      </trkpt>
      <trkpt lat="45.88495" lon="4.58566">
        <ele>305</ele>
        <time>2019-06-28T20:46:26Z</time>
      </trkpt>
      <trkpt lat="45.88476" lon="4.5854">
        <ele>309</ele>
        <time>2019-06-28T20:46:32Z</time>
      </trkpt>
      <trkpt lat="45.88442" lon="4.58511">
        <ele>315</ele>
        <time>2019-06-28T20:46:41Z</time>
      </trkpt>
      <trkpt lat="45.88422" lon="4.58499">
        <ele>317</ele>
        <time>2019-06-28T20:46:46Z</time>
      </trkpt>
      <trkpt lat="45.88401" lon="4.5847">
        <ele>321</ele>
        <time>2019-06-28T20:46:53Z</time>
      </trkpt>
      <trkpt lat="45.88381" lon="4.58462">
        <ele>325</ele>
        <time>2019-06-28T20:46:58Z</time>
      </trkpt>
      <trkpt lat="45.88338" lon="4.58437">
        <ele>335</ele>
        <time>2019-06-28T20:47:09Z</time>
      </trkpt>
      <trkpt lat="45.88309" lon="4.58427">
        <ele>338</ele>
        <time>2019-06-28T20:47:15Z</time>
      </trkpt>
      <trkpt lat="45.8827" lon="4.58407">
        <ele>341</ele>
        <time>2019-06-28T20:47:25Z</time>
      </trkpt>
      <trkpt lat="45.88247" lon="4.58404">
        <ele>342</ele>
        <time>2019-06-28T20:47:31Z</time>
      </trkpt>
      <trkpt lat="45.88216" lon="4.58406">
        <ele>345</ele>
        <time>2019-06-28T20:47:38Z</time>
      </trkpt>
      <trkpt lat="45.88173" lon="4.58419">
        <ele>350</ele>
        <time>2019-06-28T20:47:48Z</time>
      </trkpt>
      <trkpt lat="45.88156" lon="4.58416">
        <ele>352</ele>
        <time>2019-06-28T20:47:52Z</time>
      </trkpt>
      <trkpt lat="45.88075" lon="4.58378">
        <ele>363</ele>
        <time>2019-06-28T20:48:12Z</time>
      </trkpt>
      <trkpt lat="45.8797" lon="4.58336">
        <ele>375</ele>
        <time>2019-06-28T20:48:37Z</time>
      </trkpt>
      <trkpt lat="45.87933" lon="4.58315">
        <ele>379</ele>
        <time>2019-06-28T20:48:47Z</time>
      </trkpt>
      <trkpt lat="45.87894" lon="4.58311">
        <ele>381</ele>
        <time>2019-06-28T20:48:56Z</time>
      </trkpt>
      <trkpt lat="45.87856" lon="4.58315">
        <ele>382</ele>
        <time>2019-06-28T20:49:05Z</time>
      </trkpt>
      <trkpt lat="45.87823" lon="4.58322">
        <ele>383</ele>
        <time>2019-06-28T20:49:13Z</time>
      </trkpt>
      <trkpt lat="45.87803" lon="4.58316">
        <ele>384</ele>
        <time>2019-06-28T20:49:17Z</time>
      </trkpt>
      <trkpt lat="45.87754" lon="4.58284">
        <ele>383</ele>
        <time>2019-06-28T20:49:30Z</time>
      </trkpt>
      <trkpt lat="45.87675" lon="4.58244">
        <ele>387</ele>
        <time>2019-06-28T20:49:49Z</time>
      </trkpt>
      <trkpt lat="45.87635" lon="4.58213">
        <ele>390</ele>
        <time>2019-06-28T20:50:00Z</time>
      </trkpt>
      <trkpt lat="45.87597" lon="4.58208">
        <ele>395</ele>
        <time>2019-06-28T20:50:09Z</time>
      </trkpt>
      <trkpt lat="45.87559" lon="4.58199">
        <ele>399</ele>
        <time>2019-06-28T20:50:18Z</time>
      </trkpt>
      <trkpt lat="45.87523" lon="4.58185">
        <ele>402</ele>
        <time>2019-06-28T20:50:27Z</time>
      </trkpt>
      <trkpt lat="45.87496" lon="4.58158">
        <ele>403</ele>
        <time>2019-06-28T20:50:34Z</time>
      </trkpt>
      <trkpt lat="45.87448" lon="4.58118">
        <ele>405</ele>
        <time>2019-06-28T20:50:47Z</time>
      </trkpt>
      <trkpt lat="45.87363" lon="4.58069">
        <ele>405</ele>
        <time>2019-06-28T20:51:09Z</time>
      </trkpt>
      <trkpt lat="45.87319" lon="4.58047">
        <ele>404</ele>
        <time>2019-06-28T20:51:20Z</time>
      </trkpt>
      <trkpt lat="45.8724" lon="4.58015">
        <ele>404</ele>
        <time>2019-06-28T20:51:39Z</time>
      </trkpt>
      <trkpt lat="45.87179" lon="4.58003">
        <ele>403</ele>
        <time>2019-06-28T20:51:53Z</time>
      </trkpt>
      <trkpt lat="45.87154" lon="4.57974">
        <ele>400</ele>
        <time>2019-06-28T20:52:01Z</time>
      </trkpt>
      <trkpt lat="45.87065" lon="4.57923">
        <ele>394</ele>
        <time>2019-06-28T20:52:23Z</time>
      </trkpt>
      <trkpt lat="45.8703" lon="4.57917">
        <ele>392</ele>
        <time>2019-06-28T20:52:31Z</time>
      </trkpt>
      <trkpt lat="45.86942" lon="4.57813">
        <ele>376</ele>
        <time>2019-06-28T20:52:58Z</time>
      </trkpt>
      <trkpt lat="45.86937" lon="4.578">
        <ele>375</ele>
        <time>2019-06-28T20:53:00Z</time>
      </trkpt>
      <trkpt lat="45.86838" lon="4.57822">
        <ele>372</ele>
        <time>2019-06-28T20:53:24Z</time>
      </trkpt>
      <trkpt lat="45.86801" lon="4.57818">
        <ele>371</ele>
        <time>2019-06-28T20:53:32Z</time>
      </trkpt>
      <trkpt lat="45.86724" lon="4.57799">
        <ele>368</ele>
        <time>2019-06-28T20:53:51Z</time>
      </trkpt>
      <trkpt lat="45.86719" lon="4.5779">
        <ele>368</ele>
        <time>2019-06-28T20:53:52Z</time>
      </trkpt>
      <trkpt lat="45.86708" lon="4.57738">
        <ele>368</ele>
        <time>2019-06-28T20:54:01Z</time>
      </trkpt>
      <trkpt lat="45.86706" lon="4.57732">
        <ele>368</ele>
        <time>2019-06-28T20:54:02Z</time>
      </trkpt>
      <trkpt lat="45.86702" lon="4.57731">
        <ele>368</ele>
        <time>2019-06-28T20:54:03Z</time>
      </trkpt>
      <trkpt lat="45.86693" lon="4.57733">
        <ele>368</ele>
        <time>2019-06-28T20:54:05Z</time>
      </trkpt>
      <trkpt lat="45.86653" lon="4.5773">
        <ele>369</ele>
        <time>2019-06-28T20:54:15Z</time>
      </trkpt>
      <trkpt lat="45.86566" lon="4.57717">
        <ele>370</ele>
        <time>2019-06-28T20:54:35Z</time>
      </trkpt>
      <trkpt lat="45.86485" lon="4.57737">
        <ele>370</ele>
        <time>2019-06-28T20:54:54Z</time>
      </trkpt>
      <trkpt lat="45.86427" lon="4.57732">
        <ele>372</ele>
        <time>2019-06-28T20:55:08Z</time>
      </trkpt>
      <trkpt lat="45.86399" lon="4.57724">
        <ele>372</ele>
        <time>2019-06-28T20:55:15Z</time>
      </trkpt>
      <trkpt lat="45.86393" lon="4.5772">
        <ele>372</ele>
        <time>2019-06-28T20:55:16Z</time>
      </trkpt>
      <trkpt lat="45.86273" lon="4.57551">
        <ele>372</ele>
        <time>2019-06-28T20:55:55Z</time>
      </trkpt>
      <trkpt lat="45.86205" lon="4.57436">
        <ele>372</ele>
        <time>2019-06-28T20:56:20Z</time>
      </trkpt>
      <trkpt lat="45.86199" lon="4.57431">
        <ele>372</ele>
        <time>2019-06-28T20:56:22Z</time>
      </trkpt>
      <trkpt lat="45.86148" lon="4.57508">
        <ele>370</ele>
        <time>2019-06-28T20:56:39Z</time>
      </trkpt>
      <trkpt lat="45.86129" lon="4.57551">
        <ele>368</ele>
        <time>2019-06-28T20:56:47Z</time>
      </trkpt>
      <trkpt lat="45.86057" lon="4.57674">
        <ele>364</ele>
        <time>2019-06-28T20:57:13Z</time>
      </trkpt>
      <trkpt lat="45.86007" lon="4.57803">
        <ele>361</ele>
        <time>2019-06-28T20:57:37Z</time>
      </trkpt>
      <trkpt lat="45.85986" lon="4.57833">
        <ele>360</ele>
        <time>2019-06-28T20:57:44Z</time>
      </trkpt>
      <trkpt lat="45.85986" lon="4.57843">
        <ele>360</ele>
        <time>2019-06-28T20:57:46Z</time>
      </trkpt>
      <trkpt lat="45.85993" lon="4.57878">
        <ele>360</ele>
        <time>2019-06-28T20:57:52Z</time>
      </trkpt>
      <trkpt lat="45.86009" lon="4.58041">
        <ele>358</ele>
        <time>2019-06-28T20:58:19Z</time>
      </trkpt>
      <trkpt lat="45.86015" lon="4.58123">
        <ele>355</ele>
        <time>2019-06-28T20:58:32Z</time>
      </trkpt>
      <trkpt lat="45.86018" lon="4.5823">
        <ele>352</ele>
        <time>2019-06-28T20:58:49Z</time>
      </trkpt>
      <trkpt lat="45.86012" lon="4.58475">
        <ele>347</ele>
        <time>2019-06-28T20:59:29Z</time>
      </trkpt>
      <trkpt lat="45.86017" lon="4.58629">
        <ele>339</ele>
        <time>2019-06-28T20:59:54Z</time>
      </trkpt>
      <trkpt lat="45.86016" lon="4.58656">
        <ele>337</ele>
        <time>2019-06-28T20:59:59Z</time>
      </trkpt>
      <trkpt lat="45.86013" lon="4.58676">
        <ele>336</ele>
        <time>2019-06-28T21:00:02Z</time>
      </trkpt>
      <trkpt lat="45.8601" lon="4.58745">
        <ele>336</ele>
        <time>2019-06-28T21:00:13Z</time>
      </trkpt>
      <trkpt lat="45.85994" lon="4.58833">
        <ele>332</ele>
        <time>2019-06-28T21:00:28Z</time>
      </trkpt>
      <trkpt lat="45.85996" lon="4.58897">
        <ele>331</ele>
        <time>2019-06-28T21:00:38Z</time>
      </trkpt>
      <trkpt lat="45.85994" lon="4.58945">
        <ele>331</ele>
        <time>2019-06-28T21:00:46Z</time>
      </trkpt>
      <trkpt lat="45.85986" lon="4.58993">
        <ele>330</ele>
        <time>2019-06-28T21:00:54Z</time>
      </trkpt>
      <trkpt lat="45.85972" lon="4.59011">
        <ele>330</ele>
        <time>2019-06-28T21:00:59Z</time>
      </trkpt>
      <trkpt lat="45.85961" lon="4.59018">
        <ele>331</ele>
        <time>2019-06-28T21:01:02Z</time>
      </trkpt>
      <trkpt lat="45.85937" lon="4.59044">
        <ele>330</ele>
        <time>2019-06-28T21:01:09Z</time>
      </trkpt>
      <trkpt lat="45.85899" lon="4.59119">
        <ele>329</ele>
        <time>2019-06-28T21:01:24Z</time>
      </trkpt>
      <trkpt lat="45.8582" lon="4.59249">
        <ele>321</ele>
        <time>2019-06-28T21:01:52Z</time>
      </trkpt>
      <trkpt lat="45.85789" lon="4.59263">
        <ele>316</ele>
        <time>2019-06-28T21:01:59Z</time>
      </trkpt>
      <trkpt lat="45.85755" lon="4.59274">
        <ele>312</ele>
        <time>2019-06-28T21:02:07Z</time>
      </trkpt>
      <trkpt lat="45.85692" lon="4.59279">
        <ele>302</ele>
        <time>2019-06-28T21:02:22Z</time>
      </trkpt>
      <trkpt lat="45.85668" lon="4.5931">
        <ele>296</ele>
        <time>2019-06-28T21:02:30Z</time>
      </trkpt>
      <trkpt lat="45.85658" lon="4.59312">
        <ele>295</ele>
        <time>2019-06-28T21:02:32Z</time>
      </trkpt>
      <trkpt lat="45.85624" lon="4.5931">
        <ele>293</ele>
        <time>2019-06-28T21:02:40Z</time>
      </trkpt>
      <trkpt lat="45.85592" lon="4.59321">
        <ele>290</ele>
        <time>2019-06-28T21:02:48Z</time>
      </trkpt>
      <trkpt lat="45.85587" lon="4.59327">
        <ele>289</ele>
        <time>2019-06-28T21:02:49Z</time>
      </trkpt>
      <trkpt lat="45.85558" lon="4.59401">
        <ele>283</ele>
        <time>2019-06-28T21:03:03Z</time>
      </trkpt>
      <trkpt lat="45.85542" lon="4.59449">
        <ele>284</ele>
        <time>2019-06-28T21:03:12Z</time>
      </trkpt>
      <trkpt lat="45.85527" lon="4.59456">
        <ele>283</ele>
        <time>2019-06-28T21:03:15Z</time>
      </trkpt>
      <trkpt lat="45.85496" lon="4.59464">
        <ele>283</ele>
        <time>2019-06-28T21:03:23Z</time>
      </trkpt>
      <trkpt lat="45.85491" lon="4.59596">
        <ele>287</ele>
        <time>2019-06-28T21:03:44Z</time>
      </trkpt>
      <trkpt lat="45.85483" lon="4.59587">
        <ele>286</ele>
        <time>2019-06-28T21:03:47Z</time>
      </trkpt>
      <trkpt lat="45.85444" lon="4.59571">
        <ele>286</ele>
        <time>2019-06-28T21:03:56Z</time>
      </trkpt>
      <trkpt lat="45.85369" lon="4.59507">
        <ele>284</ele>
        <time>2019-06-28T21:04:16Z</time>
      </trkpt>
      <trkpt lat="45.85331" lon="4.59481">
        <ele>281</ele>
        <time>2019-06-28T21:04:26Z</time>
      </trkpt>
      <trkpt lat="45.85271" lon="4.59484">
        <ele>280</ele>
        <time>2019-06-28T21:04:40Z</time>
      </trkpt>
      <trkpt lat="45.85183" lon="4.5943">
        <ele>275</ele>
        <time>2019-06-28T21:05:03Z</time>
      </trkpt>
      <trkpt lat="45.85161" lon="4.59422">
        <ele>274</ele>
        <time>2019-06-28T21:05:08Z</time>
      </trkpt>
      <trkpt lat="45.85143" lon="4.5941">
        <ele>273</ele>
        <time>2019-06-28T21:05:13Z</time>
      </trkpt>
      <trkpt lat="45.85165" lon="4.59326">
        <ele>272</ele>
        <time>2019-06-28T21:05:27Z</time>
      </trkpt>
      <trkpt lat="45.85173" lon="4.59312">
        <ele>272</ele>
        <time>2019-06-28T21:05:30Z</time>
      </trkpt>
      <trkpt lat="45.85202" lon="4.59274">
        <ele>274</ele>
        <time>2019-06-28T21:05:39Z</time>
      </trkpt>
      <trkpt lat="45.85212" lon="4.59269">
        <ele>274</ele>
        <time>2019-06-28T21:05:42Z</time>
      </trkpt>
      <trkpt lat="45.85293" lon="4.59162">
        <ele>285</ele>
        <time>2019-06-28T21:06:07Z</time>
      </trkpt>
      <trkpt lat="45.85332" lon="4.5911">
        <ele>291</ele>
        <time>2019-06-28T21:06:20Z</time>
      </trkpt>
      <trkpt lat="45.85367" lon="4.59055">
        <ele>294</ele>
        <time>2019-06-28T21:06:32Z</time>
      </trkpt>
      <trkpt lat="45.85382" lon="4.59008">
        <ele>296</ele>
        <time>2019-06-28T21:06:40Z</time>
      </trkpt>
      <trkpt lat="45.85405" lon="4.58968">
        <ele>299</ele>
        <time>2019-06-28T21:06:49Z</time>
      </trkpt>
      <trkpt lat="45.85439" lon="4.58801">
        <ele>321</ele>
        <time>2019-06-28T21:07:17Z</time>
      </trkpt>
      <trkpt lat="45.85434" lon="4.58762">
        <ele>328</ele>
        <time>2019-06-28T21:07:24Z</time>
      </trkpt>
      <trkpt lat="45.85429" lon="4.58742">
        <ele>331</ele>
        <time>2019-06-28T21:07:27Z</time>
      </trkpt>
      <trkpt lat="45.85402" lon="4.58692">
        <ele>335</ele>
        <time>2019-06-28T21:07:37Z</time>
      </trkpt>
      <trkpt lat="45.85364" lon="4.58633">
        <ele>337</ele>
        <time>2019-06-28T21:07:50Z</time>
      </trkpt>
      <trkpt lat="45.85346" lon="4.58592">
        <ele>340</ele>
        <time>2019-06-28T21:07:58Z</time>
      </trkpt>
      <trkpt lat="45.85329" lon="4.5853">
        <ele>342</ele>
        <time>2019-06-28T21:08:09Z</time>
      </trkpt>
      <trkpt lat="45.85315" lon="4.58496">
        <ele>343</ele>
        <time>2019-06-28T21:08:16Z</time>
      </trkpt>
      <trkpt lat="45.85287" lon="4.58434">
        <ele>344</ele>
        <time>2019-06-28T21:08:28Z</time>
      </trkpt>
      <trkpt lat="45.85268" lon="4.58406">
        <ele>344</ele>
        <time>2019-06-28T21:08:34Z</time>
      </trkpt>
      <trkpt lat="45.85265" lon="4.58384">
        <ele>344</ele>
        <time>2019-06-28T21:08:38Z</time>
      </trkpt>
      <trkpt lat="45.85262" lon="4.58316">
        <ele>345</ele>
        <time>2019-06-28T21:08:49Z</time>
      </trkpt>
      <trkpt lat="45.85246" lon="4.58303">
        <ele>344</ele>
        <time>2019-06-28T21:08:53Z</time>
      </trkpt>
      <trkpt lat="45.85269" lon="4.58182">
        <ele>346</ele>
        <time>2019-06-28T21:09:13Z</time>
      </trkpt>
      <trkpt lat="45.85177" lon="4.58161">
        <ele>336</ele>
        <time>2019-06-28T21:09:35Z</time>
      </trkpt>
      <trkpt lat="45.8515" lon="4.58152">
        <ele>335</ele>
        <time>2019-06-28T21:09:42Z</time>
      </trkpt>
      <trkpt lat="45.85115" lon="4.58151">
        <ele>333</ele>
        <time>2019-06-28T21:09:50Z</time>
      </trkpt>
      <trkpt lat="45.85096" lon="4.58153">
        <ele>333</ele>
        <time>2019-06-28T21:09:54Z</time>
      </trkpt>
      <trkpt lat="45.85069" lon="4.58161">
        <ele>332</ele>
        <time>2019-06-28T21:10:01Z</time>
      </trkpt>
      <trkpt lat="45.85035" lon="4.58173">
        <ele>330</ele>
        <time>2019-06-28T21:10:09Z</time>
      </trkpt>
      <trkpt lat="45.85004" lon="4.58189">
        <ele>329</ele>
        <time>2019-06-28T21:10:16Z</time>
      </trkpt>
      <trkpt lat="45.84997" lon="4.58202">
        <ele>329</ele>
        <time>2019-06-28T21:10:19Z</time>
      </trkpt>
      <trkpt lat="45.84995" lon="4.58214">
        <ele>329</ele>
        <time>2019-06-28T21:10:21Z</time>
      </trkpt>
      <trkpt lat="45.8501" lon="4.58238">
        <ele>330</ele>
        <time>2019-06-28T21:10:26Z</time>
      </trkpt>
      <trkpt lat="45.84991" lon="4.58271">
        <ele>327</ele>
        <time>2019-06-28T21:10:33Z</time>
      </trkpt>
      <trkpt lat="45.84974" lon="4.58341">
        <ele>320</ele>
        <time>2019-06-28T21:10:45Z</time>
      </trkpt>
      <trkpt lat="45.84968" lon="4.58357">
        <ele>317</ele>
        <time>2019-06-28T21:10:48Z</time>
      </trkpt>
      <trkpt lat="45.84959" lon="4.5837">
        <ele>315</ele>
        <time>2019-06-28T21:10:51Z</time>
      </trkpt>
      <trkpt lat="45.84918" lon="4.58385">
        <ele>311</ele>
        <time>2019-06-28T21:11:01Z</time>
      </trkpt>
      <trkpt lat="45.84908" lon="4.58391">
        <ele>309</ele>
        <time>2019-06-28T21:11:04Z</time>
      </trkpt>
      <trkpt lat="45.84873" lon="4.58466">
        <ele>297</ele>
        <time>2019-06-28T21:11:18Z</time>
      </trkpt>
      <trkpt lat="45.84861" lon="4.5848">
        <ele>294</ele>
        <time>2019-06-28T21:11:22Z</time>
      </trkpt>
      <trkpt lat="45.84825" lon="4.58511">
        <ele>288</ele>
        <time>2019-06-28T21:11:32Z</time>
      </trkpt>
      <trkpt lat="45.848" lon="4.58548">
        <ele>283</ele>
        <time>2019-06-28T21:11:40Z</time>
      </trkpt>
      <trkpt lat="45.84762" lon="4.58591">
        <ele>277</ele>
        <time>2019-06-28T21:11:52Z</time>
      </trkpt>
      <trkpt lat="45.84716" lon="4.58629">
        <ele>275</ele>
        <time>2019-06-28T21:12:04Z</time>
      </trkpt>
      <trkpt lat="45.8469" lon="4.58657">
        <ele>273</ele>
        <time>2019-06-28T21:12:12Z</time>
      </trkpt>
      <trkpt lat="45.84616" lon="4.58777">
        <ele>264</ele>
        <time>2019-06-28T21:12:38Z</time>
      </trkpt>
      <trkpt lat="45.84603" lon="4.58764">
        <ele>264</ele>
        <time>2019-06-28T21:12:41Z</time>
      </trkpt>
      <trkpt lat="45.84584" lon="4.58726">
        <ele>265</ele>
        <time>2019-06-28T21:12:49Z</time>
      </trkpt>
      <trkpt lat="45.84569" lon="4.58723">
        <ele>265</ele>
        <time>2019-06-28T21:12:52Z</time>
      </trkpt>
      <trkpt lat="45.8446" lon="4.58758">
        <ele>260</ele>
        <time>2019-06-28T21:13:19Z</time>
      </trkpt>
      <trkpt lat="45.84411" lon="4.58656">
        <ele>255</ele>
        <time>2019-06-28T21:13:39Z</time>
      </trkpt>
      <trkpt lat="45.84384" lon="4.58609">
        <ele>253</ele>
        <time>2019-06-28T21:13:49Z</time>
      </trkpt>
      <trkpt lat="45.84368" lon="4.58601">
        <ele>251</ele>
        <time>2019-06-28T21:13:53Z</time>
      </trkpt>
      <trkpt lat="45.84349" lon="4.58602">
        <ele>248</ele>
        <time>2019-06-28T21:13:57Z</time>
      </trkpt>
      <trkpt lat="45.84332" lon="4.5861">
        <ele>246</ele>
        <time>2019-06-28T21:14:01Z</time>
      </trkpt>
      <trkpt lat="45.8432" lon="4.58632">
        <ele>244</ele>
        <time>2019-06-28T21:14:06Z</time>
      </trkpt>
      <trkpt lat="45.84305" lon="4.58596">
        <ele>244</ele>
        <time>2019-06-28T21:14:13Z</time>
      </trkpt>
      <trkpt lat="45.8429" lon="4.58576">
        <ele>243</ele>
        <time>2019-06-28T21:14:17Z</time>
      </trkpt>
      <trkpt lat="45.84192" lon="4.58597">
        <ele>238</ele>
        <time>2019-06-28T21:14:40Z</time>
      </trkpt>
      <trkpt lat="45.84165" lon="4.58612">
        <ele>238</ele>
        <time>2019-06-28T21:14:47Z</time>
      </trkpt>
      <trkpt lat="45.84148" lon="4.58599">
        <ele>239</ele>
        <time>2019-06-28T21:14:52Z</time>
      </trkpt>
      <trkpt lat="45.84099" lon="4.58611">
        <ele>242</ele>
        <time>2019-06-28T21:15:03Z</time>
      </trkpt>
      <trkpt lat="45.84064" lon="4.58649">
        <ele>246</ele>
        <time>2019-06-28T21:15:14Z</time>
      </trkpt>
      <trkpt lat="45.84037" lon="4.58664">
        <ele>252</ele>
        <time>2019-06-28T21:15:20Z</time>
      </trkpt>
      <trkpt lat="45.83979" lon="4.58652">
        <ele>260</ele>
        <time>2019-06-28T21:15:34Z</time>
      </trkpt>
      <trkpt lat="45.83952" lon="4.58642">
        <ele>260</ele>
        <time>2019-06-28T21:15:41Z</time>
      </trkpt>
      <trkpt lat="45.83906" lon="4.58614">
        <ele>261</ele>
        <time>2019-06-28T21:15:52Z</time>
      </trkpt>
      <trkpt lat="45.83866" lon="4.58577">
        <ele>265</ele>
        <time>2019-06-28T21:16:03Z</time>
      </trkpt>
      <trkpt lat="45.83822" lon="4.58553">
        <ele>269</ele>
        <time>2019-06-28T21:16:14Z</time>
      </trkpt>
      <trkpt lat="45.83776" lon="4.58552">
        <ele>273</ele>
        <time>2019-06-28T21:16:25Z</time>
      </trkpt>
      <trkpt lat="45.83781" lon="4.58599">
        <ele>277</ele>
        <time>2019-06-28T21:16:33Z</time>
      </trkpt>
      <trkpt lat="45.83778" lon="4.58696">
        <ele>281</ele>
        <time>2019-06-28T21:16:49Z</time>
      </trkpt>
      <trkpt lat="45.83778" lon="4.5876">
        <ele>282</ele>
        <time>2019-06-28T21:16:59Z</time>
      </trkpt>
      <trkpt lat="45.83781" lon="4.58819">
        <ele>283</ele>
        <time>2019-06-28T21:17:09Z</time>
      </trkpt>
      <trkpt lat="45.8374" lon="4.58821">
        <ele>285</ele>
        <time>2019-06-28T21:17:18Z</time>
      </trkpt>
      <trkpt lat="45.8372" lon="4.58825">
        <ele>287</ele>
        <time>2019-06-28T21:17:23Z</time>
      </trkpt>
      <trkpt lat="45.83698" lon="4.58824">
        <ele>288</ele>
        <time>2019-06-28T21:17:28Z</time>
      </trkpt>
      <trkpt lat="45.8367" lon="4.58814">
        <ele>289</ele>
        <time>2019-06-28T21:17:35Z</time>
      </trkpt>
      <trkpt lat="45.83598" lon="4.58818">
        <ele>292</ele>
        <time>2019-06-28T21:17:52Z</time>
      </trkpt>
      <trkpt lat="45.83562" lon="4.58808">
        <ele>294</ele>
        <time>2019-06-28T21:18:00Z</time>
      </trkpt>
      <trkpt lat="45.8353" lon="4.58805">
        <ele>296</ele>
        <time>2019-06-28T21:18:08Z</time>
      </trkpt>
      <trkpt lat="45.83497" lon="4.58798">
        <ele>297</ele>
        <time>2019-06-28T21:18:16Z</time>
      </trkpt>
      <trkpt lat="45.83495" lon="4.58816">
        <ele>298</ele>
        <time>2019-06-28T21:18:18Z</time>
      </trkpt>
      <trkpt lat="45.83515" lon="4.59002">
        <ele>298</ele>
        <time>2019-06-28T21:18:49Z</time>
      </trkpt>
      <trkpt lat="45.83439" lon="4.59167">
        <ele>291</ele>
        <time>2019-06-28T21:19:21Z</time>
      </trkpt>
      <trkpt lat="45.83307" lon="4.59433">
        <ele>292</ele>
        <time>2019-06-28T21:20:14Z</time>
      </trkpt>
      <trkpt lat="45.8329" lon="4.59473">
        <ele>292</ele>
        <time>2019-06-28T21:20:22Z</time>
      </trkpt>
      <trkpt lat="45.83236" lon="4.59509">
        <ele>292</ele>
        <time>2019-06-28T21:20:36Z</time>
      </trkpt>
      <trkpt lat="45.83137" lon="4.59538">
        <ele>282</ele>
        <time>2019-06-28T21:21:00Z</time>
      </trkpt>
      <trkpt lat="45.82976" lon="4.59528">
        <ele>267</ele>
        <time>2019-06-28T21:21:37Z</time>
      </trkpt>
      <trkpt lat="45.82951" lon="4.5954">
        <ele>267</ele>
        <time>2019-06-28T21:21:43Z</time>
      </trkpt>
      <trkpt lat="45.82933" lon="4.59557">
        <ele>268</ele>
        <time>2019-06-28T21:21:48Z</time>
      </trkpt>
      <trkpt lat="45.8292" lon="4.59471">
        <ele>269</ele>
        <time>2019-06-28T21:22:03Z</time>
      </trkpt>
      <trkpt lat="45.82903" lon="4.59188">
        <ele>292</ele>
        <time>2019-06-28T21:22:49Z</time>
      </trkpt>
      <trkpt lat="45.8287" lon="4.58961">
        <ele>298</ele>
        <time>2019-06-28T21:23:27Z</time>
      </trkpt>
      <trkpt lat="45.82859" lon="4.5875">
        <ele>298</ele>
        <time>2019-06-28T21:24:01Z</time>
      </trkpt>
      <trkpt lat="45.82836" lon="4.58407">
        <ele>302</ele>
        <time>2019-06-28T21:24:57Z</time>
      </trkpt>
      <trkpt lat="45.82792" lon="4.58362">
        <ele>300</ele>
        <time>2019-06-28T21:25:10Z</time>
      </trkpt>
      <trkpt lat="45.82747" lon="4.58311">
        <ele>299</ele>
        <time>2019-06-28T21:25:23Z</time>
      </trkpt>
      <trkpt lat="45.82666" lon="4.58025">
        <ele>308</ele>
        <time>2019-06-28T21:26:13Z</time>
      </trkpt>
      <trkpt lat="45.82664" lon="4.57957">
        <ele>310</ele>
        <time>2019-06-28T21:26:24Z</time>
      </trkpt>
      <trkpt lat="45.82668" lon="4.57807">
        <ele>314</ele>
        <time>2019-06-28T21:26:49Z</time>
      </trkpt>
      <trkpt lat="45.82676" lon="4.57722">
        <ele>314</ele>
        <time>2019-06-28T21:27:03Z</time>
      </trkpt>
      <trkpt lat="45.82684" lon="4.57673">
        <ele>315</ele>
        <time>2019-06-28T21:27:11Z</time>
      </trkpt>
      <trkpt lat="45.82689" lon="4.57582">
        <ele>317</ele>
        <time>2019-06-28T21:27:26Z</time>
      </trkpt>
      <trkpt lat="45.82687" lon="4.57516">
        <ele>320</ele>
        <time>2019-06-28T21:27:37Z</time>
      </trkpt>
      <trkpt lat="45.8269" lon="4.5741">
        <ele>326</ele>
        <time>2019-06-28T21:27:54Z</time>
      </trkpt>
      <trkpt lat="45.82686" lon="4.57273">
        <ele>338</ele>
        <time>2019-06-28T21:28:16Z</time>
      </trkpt>
      <trkpt lat="45.82656" lon="4.57141">
        <ele>347</ele>
        <time>2019-06-28T21:28:39Z</time>
      </trkpt>
      <trkpt lat="45.82651" lon="4.57091">
        <ele>348</ele>
        <time>2019-06-28T21:28:47Z</time>
      </trkpt>
      <trkpt lat="45.82642" lon="4.56936">
        <ele>354</ele>
        <time>2019-06-28T21:29:12Z</time>
      </trkpt>
      <trkpt lat="45.82654" lon="4.56814">
        <ele>364</ele>
        <time>2019-06-28T21:29:32Z</time>
      </trkpt>
      <trkpt lat="45.8267" lon="4.5674">
        <ele>371</ele>
        <time>2019-06-28T21:29:45Z</time>
      </trkpt>
      <trkpt lat="45.8269" lon="4.56697">
        <ele>377</ele>
        <time>2019-06-28T21:29:53Z</time>
      </trkpt>
      <trkpt lat="45.82722" lon="4.56659">
        <ele>385</ele>
        <time>2019-06-28T21:30:03Z</time>
      </trkpt>
      <trkpt lat="45.82741" lon="4.56643">
        <ele>390</ele>
        <time>2019-06-28T21:30:08Z</time>
      </trkpt>
      <trkpt lat="45.82784" lon="4.56643">
        <ele>397</ele>
        <time>2019-06-28T21:30:18Z</time>
      </trkpt>
      <trkpt lat="45.82815" lon="4.56651">
        <ele>402</ele>
        <time>2019-06-28T21:30:26Z</time>
      </trkpt>
      <trkpt lat="45.82882" lon="4.56663">
        <ele>410</ele>
        <time>2019-06-28T21:30:41Z</time>
      </trkpt>
      <trkpt lat="45.82931" lon="4.56664">
        <ele>416</ele>
        <time>2019-06-28T21:30:53Z</time>
      </trkpt>
      <trkpt lat="45.82987" lon="4.5665">
        <ele>424</ele>
        <time>2019-06-28T21:31:06Z</time>
      </trkpt>
      <trkpt lat="45.83044" lon="4.56606">
        <ele>434</ele>
        <time>2019-06-28T21:31:21Z</time>
      </trkpt>
      <trkpt lat="45.83061" lon="4.56584">
        <ele>438</ele>
        <time>2019-06-28T21:31:27Z</time>
      </trkpt>
      <trkpt lat="45.83095" lon="4.56504">
        <ele>447</ele>
        <time>2019-06-28T21:31:42Z</time>
      </trkpt>
      <trkpt lat="45.83104" lon="4.5643">
        <ele>448</ele>
        <time>2019-06-28T21:31:54Z</time>
      </trkpt>
      <trkpt lat="45.83103" lon="4.56362">
        <ele>453</ele>
        <time>2019-06-28T21:32:05Z</time>
      </trkpt>
      <trkpt lat="45.83111" lon="4.56329">
        <ele>455</ele>
        <time>2019-06-28T21:32:11Z</time>
      </trkpt>
      <trkpt lat="45.83133" lon="4.56287">
        <ele>459</ele>
        <time>2019-06-28T21:32:19Z</time>
      </trkpt>
      <trkpt lat="45.8317" lon="4.56241">
        <ele>463</ele>
        <time>2019-06-28T21:32:31Z</time>
      </trkpt>
      <trkpt lat="45.83189" lon="4.56226">
        <ele>462</ele>
        <time>2019-06-28T21:32:36Z</time>
      </trkpt>
      <trkpt lat="45.83215" lon="4.56194">
        <ele>462</ele>
        <time>2019-06-28T21:32:44Z</time>
      </trkpt>
      <trkpt lat="45.83256" lon="4.56121">
        <ele>459</ele>
        <time>2019-06-28T21:32:59Z</time>
      </trkpt>
      <trkpt lat="45.83259" lon="4.56096">
        <ele>459</ele>
        <time>2019-06-28T21:33:03Z</time>
      </trkpt>
      <trkpt lat="45.83255" lon="4.56067">
        <ele>459</ele>
        <time>2019-06-28T21:33:08Z</time>
      </trkpt>
      <trkpt lat="45.83226" lon="4.55979">
        <ele>463</ele>
        <time>2019-06-28T21:33:24Z</time>
      </trkpt>
      <trkpt lat="45.83202" lon="4.55873">
        <ele>457</ele>
        <time>2019-06-28T21:33:42Z</time>
      </trkpt>
      <trkpt lat="45.83168" lon="4.55776">
        <ele>452</ele>
        <time>2019-06-28T21:34:00Z</time>
      </trkpt>
      <trkpt lat="45.8316" lon="4.5572">
        <ele>450</ele>
        <time>2019-06-28T21:34:09Z</time>
      </trkpt>
      <trkpt lat="45.83147" lon="4.55661">
        <ele>450</ele>
        <time>2019-06-28T21:34:19Z</time>
      </trkpt>
      <trkpt lat="45.83134" lon="4.55621">
        <ele>451</ele>
        <time>2019-06-28T21:34:26Z</time>
      </trkpt>
      <trkpt lat="45.83092" lon="4.55527">
        <ele>455</ele>
        <time>2019-06-28T21:34:44Z</time>
      </trkpt>
      <trkpt lat="45.83072" lon="4.55455">
        <ele>454</ele>
        <time>2019-06-28T21:34:57Z</time>
      </trkpt>
      <trkpt lat="45.83052" lon="4.55293">
        <ele>453</ele>
        <time>2019-06-28T21:35:24Z</time>
      </trkpt>
      <trkpt lat="45.83044" lon="4.55288">
        <ele>453</ele>
        <time>2019-06-28T21:35:26Z</time>
      </trkpt>
      <trkpt lat="45.8303" lon="4.55292">
        <ele>454</ele>
        <time>2019-06-28T21:35:29Z</time>
      </trkpt>
      <trkpt lat="45.83017" lon="4.55305">
        <ele>456</ele>
        <time>2019-06-28T21:35:33Z</time>
      </trkpt>
      <trkpt lat="45.82942" lon="4.55344">
        <ele>461</ele>
        <time>2019-06-28T21:35:52Z</time>
      </trkpt>
      <trkpt lat="45.82881" lon="4.55396">
        <ele>466</ele>
        <time>2019-06-28T21:36:08Z</time>
      </trkpt>
      <trkpt lat="45.82798" lon="4.55493">
        <ele>468</ele>
        <time>2019-06-28T21:36:33Z</time>
      </trkpt>
      <trkpt lat="45.8272" lon="4.55567">
        <ele>470</ele>
        <time>2019-06-28T21:36:55Z</time>
      </trkpt>
      <trkpt lat="45.82697" lon="4.55585">
        <ele>472</ele>
        <time>2019-06-28T21:37:01Z</time>
      </trkpt>
      <trkpt lat="45.82664" lon="4.55622">
        <ele>474</ele>
        <time>2019-06-28T21:37:11Z</time>
      </trkpt>
      <trkpt lat="45.82607" lon="4.55749">
        <ele>476</ele>
        <time>2019-06-28T21:37:35Z</time>
      </trkpt>
      <trkpt lat="45.82551" lon="4.55862">
        <ele>472</ele>
        <time>2019-06-28T21:37:58Z</time>
      </trkpt>
      <trkpt lat="45.82503" lon="4.55922">
        <ele>473</ele>
        <time>2019-06-28T21:38:13Z</time>
      </trkpt>
      <trkpt lat="45.82476" lon="4.55948">
        <ele>471</ele>
        <time>2019-06-28T21:38:20Z</time>
      </trkpt>
      <trkpt lat="45.82446" lon="4.55968">
        <ele>470</ele>
        <time>2019-06-28T21:38:28Z</time>
      </trkpt>
      <trkpt lat="45.82397" lon="4.56029">
        <ele>464</ele>
        <time>2019-06-28T21:38:43Z</time>
      </trkpt>
      <trkpt lat="45.82366" lon="4.56058">
        <ele>461</ele>
        <time>2019-06-28T21:38:52Z</time>
      </trkpt>
      <trkpt lat="45.82351" lon="4.56093">
        <ele>456</ele>
        <time>2019-06-28T21:38:59Z</time>
      </trkpt>
      <trkpt lat="45.82281" lon="4.56157">
        <ele>445</ele>
        <time>2019-06-28T21:39:18Z</time>
      </trkpt>
      <trkpt lat="45.82168" lon="4.56017">
        <ele>449</ele>
        <time>2019-06-28T21:39:53Z</time>
      </trkpt>
      <trkpt lat="45.82055" lon="4.55892">
        <ele>442</ele>
        <time>2019-06-28T21:40:26Z</time>
      </trkpt>
      <trkpt lat="45.82039" lon="4.55878">
        <ele>440</ele>
        <time>2019-06-28T21:40:31Z</time>
      </trkpt>
      <trkpt lat="45.8203" lon="4.55882">
        <ele>437</ele>
        <time>2019-06-28T21:40:33Z</time>
      </trkpt>
      <trkpt lat="45.82004" lon="4.55913">
        <ele>428</ele>
        <time>2019-06-28T21:40:41Z</time>
      </trkpt>
      <trkpt lat="45.81998" lon="4.55914">
        <ele>427</ele>
        <time>2019-06-28T21:40:42Z</time>
      </trkpt>
      <trkpt lat="45.81922" lon="4.55887">
        <ele>413</ele>
        <time>2019-06-28T21:41:00Z</time>
      </trkpt>
      <trkpt lat="45.81904" lon="4.55931">
        <ele>408</ele>
        <time>2019-06-28T21:41:09Z</time>
      </trkpt>
      <trkpt lat="45.81888" lon="4.56046">
        <ele>400</ele>
        <time>2019-06-28T21:41:28Z</time>
      </trkpt>
      <trkpt lat="45.81854" lon="4.56081">
        <ele>392</ele>
        <time>2019-06-28T21:41:38Z</time>
      </trkpt>
      <trkpt lat="45.81822" lon="4.56123">
        <ele>385</ele>
        <time>2019-06-28T21:41:48Z</time>
      </trkpt>
      <trkpt lat="45.81785" lon="4.56185">
        <ele>376</ele>
        <time>2019-06-28T21:42:01Z</time>
      </trkpt>
      <trkpt lat="45.81774" lon="4.56189">
        <ele>375</ele>
        <time>2019-06-28T21:42:04Z</time>
      </trkpt>
      <trkpt lat="45.81783" lon="4.56119">
        <ele>379</ele>
        <time>2019-06-28T21:42:15Z</time>
      </trkpt>
      <trkpt lat="45.81786" lon="4.56075">
        <ele>383</ele>
        <time>2019-06-28T21:42:22Z</time>
      </trkpt>
      <trkpt lat="45.81776" lon="4.55995">
        <ele>384</ele>
        <time>2019-06-28T21:42:36Z</time>
      </trkpt>
      <trkpt lat="45.81787" lon="4.55938">
        <ele>383</ele>
        <time>2019-06-28T21:42:45Z</time>
      </trkpt>
      <trkpt lat="45.81831" lon="4.55797">
        <ele>388</ele>
        <time>2019-06-28T21:43:10Z</time>
      </trkpt>
      <trkpt lat="45.81832" lon="4.557">
        <ele>391</ele>
        <time>2019-06-28T21:43:26Z</time>
      </trkpt>
      <trkpt lat="45.81824" lon="4.55685">
        <ele>393</ele>
        <time>2019-06-28T21:43:29Z</time>
      </trkpt>
      <trkpt lat="45.81712" lon="4.55694">
        <ele>391</ele>
        <time>2019-06-28T21:43:55Z</time>
      </trkpt>
      <trkpt lat="45.81705" lon="4.55685">
        <ele>392</ele>
        <time>2019-06-28T21:43:58Z</time>
      </trkpt>
      <trkpt lat="45.81674" lon="4.55705">
        <ele>387</ele>
        <time>2019-06-28T21:44:06Z</time>
      </trkpt>
      <trkpt lat="45.81645" lon="4.55704">
        <ele>382</ele>
        <time>2019-06-28T21:44:12Z</time>
      </trkpt>
      <trkpt lat="45.81607" lon="4.55655">
        <ele>378</ele>
        <time>2019-06-28T21:44:24Z</time>
      </trkpt>
      <trkpt lat="45.81598" lon="4.55618">
        <ele>374</ele>
        <time>2019-06-28T21:44:31Z</time>
      </trkpt>
      <trkpt lat="45.81601" lon="4.55576">
        <ele>374</ele>
        <time>2019-06-28T21:44:38Z</time>
      </trkpt>
      <trkpt lat="45.81607" lon="4.55536">
        <ele>376</ele>
        <time>2019-06-28T21:44:44Z</time>
      </trkpt>
      <trkpt lat="45.81606" lon="4.555">
        <ele>377</ele>
        <time>2019-06-28T21:44:50Z</time>
      </trkpt>
      <trkpt lat="45.81577" lon="4.55458">
        <ele>370</ele>
        <time>2019-06-28T21:45:00Z</time>
      </trkpt>
      <trkpt lat="45.81573" lon="4.55432">
        <ele>370</ele>
        <time>2019-06-28T21:45:04Z</time>
      </trkpt>
      <trkpt lat="45.81583" lon="4.55391">
        <ele>374</ele>
        <time>2019-06-28T21:45:11Z</time>
      </trkpt>
      <trkpt lat="45.81594" lon="4.55367">
        <ele>378</ele>
        <time>2019-06-28T21:45:16Z</time>
      </trkpt>
      <trkpt lat="45.81607" lon="4.5535">
        <ele>382</ele>
        <time>2019-06-28T21:45:20Z</time>
      </trkpt>
      <trkpt lat="45.81624" lon="4.55288">
        <ele>385</ele>
        <time>2019-06-28T21:45:31Z</time>
      </trkpt>
      <trkpt lat="45.81637" lon="4.55175">
        <ele>382</ele>
        <time>2019-06-28T21:45:49Z</time>
      </trkpt>
      <trkpt lat="45.81644" lon="4.55084">
        <ele>381</ele>
        <time>2019-06-28T21:46:04Z</time>
      </trkpt>
      <trkpt lat="45.81642" lon="4.55049">
        <ele>379</ele>
        <time>2019-06-28T21:46:10Z</time>
      </trkpt>
      <trkpt lat="45.81629" lon="4.5499">
        <ele>372</ele>
        <time>2019-06-28T21:46:20Z</time>
      </trkpt>
      <trkpt lat="45.81628" lon="4.54972">
        <ele>371</ele>
        <time>2019-06-28T21:46:23Z</time>
      </trkpt>
      <trkpt lat="45.81634" lon="4.54944">
        <ele>371</ele>
        <time>2019-06-28T21:46:28Z</time>
      </trkpt>
      <trkpt lat="45.8163" lon="4.54939">
        <ele>369</ele>
        <time>2019-06-28T21:46:29Z</time>
      </trkpt>
      <trkpt lat="45.81621" lon="4.54949">
        <ele>368</ele>
        <time>2019-06-28T21:46:32Z</time>
      </trkpt>
      <trkpt lat="45.81613" lon="4.54984">
        <ele>367</ele>
        <time>2019-06-28T21:46:38Z</time>
      </trkpt>
      <trkpt lat="45.81611" lon="4.55021">
        <ele>367</ele>
        <time>2019-06-28T21:46:44Z</time>
      </trkpt>
      <trkpt lat="45.81605" lon="4.55026">
        <ele>366</ele>
        <time>2019-06-28T21:46:45Z</time>
      </trkpt>
      <trkpt lat="45.81602" lon="4.55018">
        <ele>365</ele>
        <time>2019-06-28T21:46:47Z</time>
      </trkpt>
      <trkpt lat="45.81601" lon="4.55001">
        <ele>364</ele>
        <time>2019-06-28T21:46:50Z</time>
      </trkpt>
      <trkpt lat="45.81606" lon="4.54959">
        <ele>364</ele>
        <time>2019-06-28T21:46:56Z</time>
      </trkpt>
      <trkpt lat="45.81617" lon="4.54924">
        <ele>366</ele>
        <time>2019-06-28T21:47:03Z</time>
      </trkpt>
      <trkpt lat="45.81646" lon="4.54879">
        <ele>368</ele>
        <time>2019-06-28T21:47:13Z</time>
      </trkpt>
      <trkpt lat="45.81651" lon="4.54844">
        <ele>366</ele>
        <time>2019-06-28T21:47:19Z</time>
      </trkpt>
      <trkpt lat="45.81649" lon="4.54821">
        <ele>364</ele>
        <time>2019-06-28T21:47:22Z</time>
      </trkpt>
      <trkpt lat="45.81644" lon="4.54809">
        <ele>363</ele>
        <time>2019-06-28T21:47:25Z</time>
      </trkpt>
      <trkpt lat="45.81617" lon="4.54823">
        <ele>359</ele>
        <time>2019-06-28T21:47:31Z</time>
      </trkpt>
      <trkpt lat="45.81599" lon="4.54836">
        <ele>356</ele>
        <time>2019-06-28T21:47:36Z</time>
      </trkpt>
      <trkpt lat="45.81595" lon="4.54834">
        <ele>355</ele>
        <time>2019-06-28T21:47:37Z</time>
      </trkpt>
      <trkpt lat="45.81598" lon="4.54812">
        <ele>356</ele>
        <time>2019-06-28T21:47:41Z</time>
      </trkpt>
      <trkpt lat="45.81615" lon="4.54744">
        <ele>358</ele>
        <time>2019-06-28T21:47:52Z</time>
      </trkpt>
      <trkpt lat="45.81628" lon="4.54724">
        <ele>358</ele>
        <time>2019-06-28T21:47:57Z</time>
      </trkpt>
      <trkpt lat="45.81629" lon="4.54683">
        <ele>356</ele>
        <time>2019-06-28T21:48:03Z</time>
      </trkpt>
      <trkpt lat="45.81609" lon="4.54674">
        <ele>357</ele>
        <time>2019-06-28T21:48:08Z</time>
      </trkpt>
      <trkpt lat="45.81546" lon="4.54668">
        <ele>365</ele>
        <time>2019-06-28T21:48:23Z</time>
      </trkpt>
      <trkpt lat="45.81525" lon="4.54648">
        <ele>371</ele>
        <time>2019-06-28T21:48:29Z</time>
      </trkpt>
      <trkpt lat="45.81523" lon="4.54687">
        <ele>369</ele>
        <time>2019-06-28T21:48:35Z</time>
      </trkpt>
      <trkpt lat="45.81516" lon="4.54729">
        <ele>368</ele>
        <time>2019-06-28T21:48:42Z</time>
      </trkpt>
      <trkpt lat="45.81506" lon="4.54754">
        <ele>369</ele>
        <time>2019-06-28T21:48:47Z</time>
      </trkpt>
      <trkpt lat="45.81477" lon="4.54784">
        <ele>371</ele>
        <time>2019-06-28T21:48:55Z</time>
      </trkpt>
      <trkpt lat="45.8143" lon="4.54864">
        <ele>375</ele>
        <time>2019-06-28T21:49:12Z</time>
      </trkpt>
      <trkpt lat="45.81392" lon="4.5496">
        <ele>377</ele>
        <time>2019-06-28T21:49:30Z</time>
      </trkpt>
      <trkpt lat="45.81338" lon="4.5506">
        <ele>380</ele>
        <time>2019-06-28T21:49:51Z</time>
      </trkpt>
      <trkpt lat="45.81258" lon="4.5513">
        <ele>383</ele>
        <time>2019-06-28T21:50:13Z</time>
      </trkpt>
      <trkpt lat="45.81205" lon="4.55149">
        <ele>388</ele>
        <time>2019-06-28T21:50:26Z</time>
      </trkpt>
      <trkpt lat="45.81178" lon="4.55142">
        <ele>393</ele>
        <time>2019-06-28T21:50:32Z</time>
      </trkpt>
      <trkpt lat="45.81144" lon="4.55141">
        <ele>397</ele>
        <time>2019-06-28T21:50:40Z</time>
      </trkpt>
      <trkpt lat="45.81107" lon="4.55177">
        <ele>397</ele>
        <time>2019-06-28T21:50:50Z</time>
      </trkpt>
      <trkpt lat="45.81019" lon="4.55226">
        <ele>404</ele>
        <time>2019-06-28T21:51:13Z</time>
      </trkpt>
      <trkpt lat="45.80975" lon="4.55291">
        <ele>405</ele>
        <time>2019-06-28T21:51:27Z</time>
      </trkpt>
      <trkpt lat="45.80978" lon="4.55349">
        <ele>399</ele>
        <time>2019-06-28T21:51:37Z</time>
      </trkpt>
      <trkpt lat="45.8096" lon="4.55397">
        <ele>396</ele>
        <time>2019-06-28T21:51:46Z</time>
      </trkpt>
      <trkpt lat="45.8094" lon="4.55425">
        <ele>395</ele>
        <time>2019-06-28T21:51:52Z</time>
      </trkpt>
      <trkpt lat="45.8092" lon="4.55444">
        <ele>396</ele>
        <time>2019-06-28T21:51:58Z</time>
      </trkpt>
      <trkpt lat="45.80871" lon="4.55536">
        <ele>396</ele>
        <time>2019-06-28T21:52:17Z</time>
      </trkpt>
      <trkpt lat="45.80851" lon="4.55524">
        <ele>399</ele>
        <time>2019-06-28T21:52:22Z</time>
      </trkpt>
      <trkpt lat="45.80679" lon="4.55511">
        <ele>415</ele>
        <time>2019-06-28T21:53:02Z</time>
      </trkpt>
      <trkpt lat="45.80614" lon="4.5551">
        <ele>416</ele>
        <time>2019-06-28T21:53:17Z</time>
      </trkpt>
      <trkpt lat="45.8059" lon="4.55649">
        <ele>412</ele>
        <time>2019-06-28T21:53:40Z</time>
      </trkpt>
      <trkpt lat="45.80576" lon="4.55715">
        <ele>412</ele>
        <time>2019-06-28T21:53:52Z</time>
      </trkpt>
      <trkpt lat="45.80554" lon="4.55784">
        <ele>411</ele>
        <time>2019-06-28T21:54:04Z</time>
      </trkpt>
      <trkpt lat="45.80534" lon="4.55857">
        <ele>409</ele>
        <time>2019-06-28T21:54:17Z</time>
      </trkpt>
      <trkpt lat="45.80517" lon="4.55905">
        <ele>407</ele>
        <time>2019-06-28T21:54:25Z</time>
      </trkpt>
      <trkpt lat="45.80512" lon="4.55976">
        <ele>403</ele>
        <time>2019-06-28T21:54:37Z</time>
      </trkpt>
      <trkpt lat="45.80498" lon="4.56098">
        <ele>402</ele>
        <time>2019-06-28T21:54:57Z</time>
      </trkpt>
      <trkpt lat="45.80476" lon="4.56182">
        <ele>398</ele>
        <time>2019-06-28T21:55:12Z</time>
      </trkpt>
      <trkpt lat="45.80468" lon="4.56262">
        <ele>394</ele>
        <time>2019-06-28T21:55:25Z</time>
      </trkpt>
      <trkpt lat="45.80472" lon="4.56327">
        <ele>392</ele>
        <time>2019-06-28T21:55:36Z</time>
      </trkpt>
      <trkpt lat="45.80478" lon="4.56367">
        <ele>392</ele>
        <time>2019-06-28T21:55:42Z</time>
      </trkpt>
      <trkpt lat="45.80504" lon="4.56437">
        <ele>394</ele>
        <time>2019-06-28T21:55:55Z</time>
      </trkpt>
      <trkpt lat="45.80532" lon="4.56532">
        <ele>399</ele>
        <time>2019-06-28T21:56:12Z</time>
      </trkpt>
      <trkpt lat="45.80534" lon="4.56626">
        <ele>402</ele>
        <time>2019-06-28T21:56:27Z</time>
      </trkpt>
      <trkpt lat="45.80529" lon="4.56756">
        <ele>401</ele>
        <time>2019-06-28T21:56:48Z</time>
      </trkpt>
      <trkpt lat="45.8053" lon="4.56808">
        <ele>399</ele>
        <time>2019-06-28T21:56:57Z</time>
      </trkpt>
      <trkpt lat="45.80535" lon="4.56883">
        <ele>394</ele>
        <time>2019-06-28T21:57:09Z</time>
      </trkpt>
      <trkpt lat="45.80554" lon="4.56934">
        <ele>392</ele>
        <time>2019-06-28T21:57:19Z</time>
      </trkpt>
      <trkpt lat="45.80563" lon="4.56973">
        <ele>389</ele>
        <time>2019-06-28T21:57:25Z</time>
      </trkpt>
      <trkpt lat="45.8056" lon="4.5705">
        <ele>382</ele>
        <time>2019-06-28T21:57:38Z</time>
      </trkpt>
      <trkpt lat="45.80555" lon="4.57077">
        <ele>380</ele>
        <time>2019-06-28T21:57:42Z</time>
      </trkpt>
      <trkpt lat="45.80536" lon="4.57115">
        <ele>375</ele>
        <time>2019-06-28T21:57:50Z</time>
      </trkpt>
      <trkpt lat="45.80491" lon="4.57231">
        <ele>365</ele>
        <time>2019-06-28T21:58:12Z</time>
      </trkpt>
      <trkpt lat="45.80437" lon="4.57402">
        <ele>355</ele>
        <time>2019-06-28T21:58:42Z</time>
      </trkpt>
      <trkpt lat="45.80439" lon="4.57523">
        <ele>348</ele>
        <time>2019-06-28T21:59:02Z</time>
      </trkpt>
      <trkpt lat="45.80422" lon="4.57602">
        <ele>343</ele>
        <time>2019-06-28T21:59:15Z</time>
      </trkpt>
      <trkpt lat="45.80414" lon="4.57655">
        <ele>340</ele>
        <time>2019-06-28T21:59:24Z</time>
      </trkpt>
      <trkpt lat="45.80405" lon="4.57762">
        <ele>336</ele>
        <time>2019-06-28T21:59:42Z</time>
      </trkpt>
      <trkpt lat="45.80411" lon="4.57913">
        <ele>332</ele>
        <time>2019-06-28T22:00:06Z</time>
      </trkpt>
      <trkpt lat="45.80421" lon="4.57963">
        <ele>332</ele>
        <time>2019-06-28T22:00:15Z</time>
      </trkpt>
      <trkpt lat="45.80441" lon="4.58002">
        <ele>331</ele>
        <time>2019-06-28T22:00:23Z</time>
      </trkpt>
      <trkpt lat="45.80483" lon="4.58072">
        <ele>330</ele>
        <time>2019-06-28T22:00:38Z</time>
      </trkpt>
      <trkpt lat="45.80598" lon="4.58235">
        <ele>325</ele>
        <time>2019-06-28T22:01:16Z</time>
      </trkpt>
      <trkpt lat="45.80625" lon="4.58283">
        <ele>324</ele>
        <time>2019-06-28T22:01:26Z</time>
      </trkpt>
      <trkpt lat="45.80645" lon="4.58331">
        <ele>324</ele>
        <time>2019-06-28T22:01:35Z</time>
      </trkpt>
      <trkpt lat="45.80663" lon="4.58357">
        <ele>323</ele>
        <time>2019-06-28T22:01:41Z</time>
      </trkpt>
      <trkpt lat="45.8068" lon="4.58407">
        <ele>324</ele>
        <time>2019-06-28T22:01:50Z</time>
      </trkpt>
      <trkpt lat="45.80698" lon="4.58475">
        <ele>321</ele>
        <time>2019-06-28T22:02:02Z</time>
      </trkpt>
      <trkpt lat="45.80701" lon="4.58496">
        <ele>320</ele>
        <time>2019-06-28T22:02:05Z</time>
      </trkpt>
      <trkpt lat="45.80703" lon="4.58541">
        <ele>318</ele>
        <time>2019-06-28T22:02:12Z</time>
      </trkpt>
      <trkpt lat="45.80702" lon="4.58619">
        <ele>315</ele>
        <time>2019-06-28T22:02:25Z</time>
      </trkpt>
      <trkpt lat="45.80707" lon="4.5865">
        <ele>313</ele>
        <time>2019-06-28T22:02:30Z</time>
      </trkpt>
      <trkpt lat="45.80711" lon="4.58657">
        <ele>312</ele>
        <time>2019-06-28T22:02:32Z</time>
      </trkpt>
      <trkpt lat="45.80696" lon="4.58689">
        <ele>311</ele>
        <time>2019-06-28T22:02:38Z</time>
      </trkpt>
      <trkpt lat="45.80615" lon="4.58764">
        <ele>306</ele>
        <time>2019-06-28T22:03:00Z</time>
      </trkpt>
      <trkpt lat="45.80579" lon="4.58788">
        <ele>303</ele>
        <time>2019-06-28T22:03:10Z</time>
      </trkpt>
      <trkpt lat="45.80549" lon="4.58805">
        <ele>302</ele>
        <time>2019-06-28T22:03:17Z</time>
      </trkpt>
      <trkpt lat="45.80525" lon="4.58815">
        <ele>301</ele>
        <time>2019-06-28T22:03:23Z</time>
      </trkpt>
      <trkpt lat="45.80484" lon="4.58842">
        <ele>299</ele>
        <time>2019-06-28T22:03:34Z</time>
      </trkpt>
      <trkpt lat="45.80438" lon="4.58878">
        <ele>295</ele>
        <time>2019-06-28T22:03:46Z</time>
      </trkpt>
      <trkpt lat="45.80411" lon="4.58892">
        <ele>294</ele>
        <time>2019-06-28T22:03:53Z</time>
      </trkpt>
      <trkpt lat="45.80386" lon="4.58901">
        <ele>292</ele>
        <time>2019-06-28T22:03:59Z</time>
      </trkpt>
      <trkpt lat="45.80292" lon="4.58907">
        <ele>286</ele>
        <time>2019-06-28T22:04:21Z</time>
      </trkpt>
      <trkpt lat="45.80254" lon="4.58891">
        <ele>283</ele>
        <time>2019-06-28T22:04:30Z</time>
      </trkpt>
      <trkpt lat="45.80224" lon="4.58892">
        <ele>279</ele>
        <time>2019-06-28T22:04:37Z</time>
      </trkpt>
      <trkpt lat="45.80148" lon="4.58887">
        <ele>268</ele>
        <time>2019-06-28T22:04:55Z</time>
      </trkpt>
      <trkpt lat="45.8013" lon="4.58891">
        <ele>265</ele>
        <time>2019-06-28T22:04:59Z</time>
      </trkpt>
      <trkpt lat="45.80088" lon="4.58921">
        <ele>259</ele>
        <time>2019-06-28T22:05:10Z</time>
      </trkpt>
      <trkpt lat="45.80064" lon="4.58935">
        <ele>257</ele>
        <time>2019-06-28T22:05:16Z</time>
      </trkpt>
      <trkpt lat="45.80024" lon="4.58998">
        <ele>255</ele>
        <time>2019-06-28T22:05:30Z</time>
      </trkpt>
      <trkpt lat="45.80016" lon="4.58991">
        <ele>255</ele>
        <time>2019-06-28T22:05:32Z</time>
      </trkpt>
      <trkpt lat="45.8001" lon="4.58978">
        <ele>255</ele>
        <time>2019-06-28T22:05:34Z</time>
      </trkpt>
      <trkpt lat="45.80008" lon="4.58937">
        <ele>255</ele>
        <time>2019-06-28T22:05:41Z</time>
      </trkpt>
      <trkpt lat="45.8" lon="4.58942">
        <ele>255</ele>
        <time>2019-06-28T22:05:43Z</time>
      </trkpt>
      <trkpt lat="45.79967" lon="4.58928">
        <ele>254</ele>
        <time>2019-06-28T22:05:51Z</time>
      </trkpt>
      <trkpt lat="45.79955" lon="4.5893">
        <ele>254</ele>
        <time>2019-06-28T22:05:54Z</time>
      </trkpt>
      <trkpt lat="45.79951" lon="4.58912">
        <ele>255</ele>
        <time>2019-06-28T22:05:57Z</time>
      </trkpt>
      <trkpt lat="45.79939" lon="4.58893">
        <ele>258</ele>
        <time>2019-06-28T22:06:01Z</time>
      </trkpt>
      <trkpt lat="45.79868" lon="4.58856">
        <ele>263</ele>
        <time>2019-06-28T22:06:19Z</time>
      </trkpt>
      <trkpt lat="45.79833" lon="4.58851">
        <ele>263</ele>
        <time>2019-06-28T22:06:27Z</time>
      </trkpt>
      <trkpt lat="45.79815" lon="4.58859">
        <ele>260</ele>
        <time>2019-06-28T22:06:32Z</time>
      </trkpt>
      <trkpt lat="45.79779" lon="4.58919">
        <ele>251</ele>
        <time>2019-06-28T22:06:44Z</time>
      </trkpt>
      <trkpt lat="45.79714" lon="4.59036">
        <ele>253</ele>
        <time>2019-06-28T22:07:09Z</time>
      </trkpt>
      <trkpt lat="45.79693" lon="4.59036">
        <ele>254</ele>
        <time>2019-06-28T22:07:14Z</time>
      </trkpt>
      <trkpt lat="45.79668" lon="4.59031">
        <ele>254</ele>
        <time>2019-06-28T22:07:20Z</time>
      </trkpt>
      <trkpt lat="45.79659" lon="4.59038">
        <ele>255</ele>
        <time>2019-06-28T22:07:22Z</time>
      </trkpt>
      <trkpt lat="45.79642" lon="4.59068">
        <ele>258</ele>
        <time>2019-06-28T22:07:28Z</time>
      </trkpt>
      <trkpt lat="45.79623" lon="4.59093">
        <ele>261</ele>
        <time>2019-06-28T22:07:34Z</time>
      </trkpt>
      <trkpt lat="45.7959" lon="4.59133">
        <ele>267</ele>
        <time>2019-06-28T22:07:44Z</time>
      </trkpt>
      <trkpt lat="45.79572" lon="4.59143">
        <ele>271</ele>
        <time>2019-06-28T22:07:49Z</time>
      </trkpt>
      <trkpt lat="45.79548" lon="4.59181">
        <ele>278</ele>
        <time>2019-06-28T22:07:57Z</time>
      </trkpt>
      <trkpt lat="45.79495" lon="4.59204">
        <ele>289</ele>
        <time>2019-06-28T22:08:10Z</time>
      </trkpt>
      <trkpt lat="45.79465" lon="4.59208">
        <ele>293</ele>
        <time>2019-06-28T22:08:17Z</time>
      </trkpt>
      <trkpt lat="45.79445" lon="4.59215">
        <ele>296</ele>
        <time>2019-06-28T22:08:22Z</time>
      </trkpt>
      <trkpt lat="45.79389" lon="4.59242">
        <ele>303</ele>
        <time>2019-06-28T22:08:36Z</time>
      </trkpt>
      <trkpt lat="45.79372" lon="4.59247">
        <ele>304</ele>
        <time>2019-06-28T22:08:40Z</time>
      </trkpt>
      <trkpt lat="45.79352" lon="4.59244">
        <ele>305</ele>
        <time>2019-06-28T22:08:45Z</time>
      </trkpt>
      <trkpt lat="45.79329" lon="4.59248">
        <ele>307</ele>
        <time>2019-06-28T22:08:50Z</time>
      </trkpt>
      <trkpt lat="45.79285" lon="4.59297">
        <ele>312</ele>
        <time>2019-06-28T22:09:03Z</time>
      </trkpt>
      <trkpt lat="45.79269" lon="4.5931">
        <ele>313</ele>
        <time>2019-06-28T22:09:07Z</time>
      </trkpt>
      <trkpt lat="45.79256" lon="4.59314">
        <ele>314</ele>
        <time>2019-06-28T22:09:10Z</time>
      </trkpt>
      <trkpt lat="45.79212" lon="4.5932">
        <ele>319</ele>
        <time>2019-06-28T22:09:21Z</time>
      </trkpt>
      <trkpt lat="45.7917" lon="4.59333">
        <ele>325</ele>
        <time>2019-06-28T22:09:31Z</time>
      </trkpt>
      <trkpt lat="45.7915" lon="4.59334">
        <ele>327</ele>
        <time>2019-06-28T22:09:35Z</time>
      </trkpt>
      <trkpt lat="45.7913" lon="4.59327">
        <ele>328</ele>
        <time>2019-06-28T22:09:40Z</time>
      </trkpt>
      <trkpt lat="45.79102" lon="4.59322">
        <ele>331</ele>
        <time>2019-06-28T22:09:47Z</time>
      </trkpt>
      <trkpt lat="45.79083" lon="4.59323">
        <ele>333</ele>
        <time>2019-06-28T22:09:51Z</time>
      </trkpt>
      <trkpt lat="45.79068" lon="4.59332">
        <ele>336</ele>
        <time>2019-06-28T22:09:55Z</time>
      </trkpt>
      <trkpt lat="45.79049" lon="4.59334">
        <ele>339</ele>
        <time>2019-06-28T22:10:00Z</time>
      </trkpt>
      <trkpt lat="45.79036" lon="4.59342">
        <ele>341</ele>
        <time>2019-06-28T22:10:03Z</time>
      </trkpt>
      <trkpt lat="45.78975" lon="4.59416">
        <ele>353</ele>
        <time>2019-06-28T22:10:21Z</time>
      </trkpt>
      <trkpt lat="45.78899" lon="4.59444">
        <ele>367</ele>
        <time>2019-06-28T22:10:40Z</time>
      </trkpt>
      <trkpt lat="45.78864" lon="4.59464">
        <ele>377</ele>
        <time>2019-06-28T22:10:49Z</time>
      </trkpt>
      <trkpt lat="45.7884" lon="4.59469">
        <ele>383</ele>
        <time>2019-06-28T22:10:54Z</time>
      </trkpt>
      <trkpt lat="45.78827" lon="4.59468">
        <ele>385</ele>
        <time>2019-06-28T22:10:57Z</time>
      </trkpt>
      <trkpt lat="45.7879" lon="4.59449">
        <ele>388</ele>
        <time>2019-06-28T22:11:06Z</time>
      </trkpt>
      <trkpt lat="45.78757" lon="4.59417">
        <ele>386</ele>
        <time>2019-06-28T22:11:16Z</time>
      </trkpt>
      <trkpt lat="45.78739" lon="4.59406">
        <ele>385</ele>
        <time>2019-06-28T22:11:20Z</time>
      </trkpt>
      <trkpt lat="45.78684" lon="4.59381">
        <ele>383</ele>
        <time>2019-06-28T22:11:34Z</time>
      </trkpt>
      <trkpt lat="45.78615" lon="4.59345">
        <ele>379</ele>
        <time>2019-06-28T22:11:51Z</time>
      </trkpt>
      <trkpt lat="45.78609" lon="4.5934">
        <ele>378</ele>
        <time>2019-06-28T22:11:53Z</time>
      </trkpt>
      <trkpt lat="45.78605" lon="4.59322">
        <ele>377</ele>
        <time>2019-06-28T22:11:56Z</time>
      </trkpt>
      <trkpt lat="45.78604" lon="4.59301">
        <ele>377</ele>
        <time>2019-06-28T22:11:59Z</time>
      </trkpt>
      <trkpt lat="45.78627" lon="4.59205">
        <ele>364</ele>
        <time>2019-06-28T22:12:16Z</time>
      </trkpt>
      <trkpt lat="45.78625" lon="4.59195">
        <ele>363</ele>
        <time>2019-06-28T22:12:17Z</time>
      </trkpt>
      <trkpt lat="45.7857" lon="4.59137">
        <ele>367</ele>
        <time>2019-06-28T22:12:33Z</time>
      </trkpt>
      <trkpt lat="45.78554" lon="4.59124">
        <ele>367</ele>
        <time>2019-06-28T22:12:38Z</time>
      </trkpt>
      <trkpt lat="45.78514" lon="4.59096">
        <ele>367</ele>
        <time>2019-06-28T22:12:48Z</time>
      </trkpt>
      <trkpt lat="45.785" lon="4.5909">
        <ele>368</ele>
        <time>2019-06-28T22:12:51Z</time>
      </trkpt>
      <trkpt lat="45.78458" lon="4.59058">
        <ele>360</ele>
        <time>2019-06-28T22:13:02Z</time>
      </trkpt>
      <trkpt lat="45.7839" lon="4.59021">
        <ele>353</ele>
        <time>2019-06-28T22:13:19Z</time>
      </trkpt>
      <trkpt lat="45.78374" lon="4.59009">
        <ele>349</ele>
        <time>2019-06-28T22:13:24Z</time>
      </trkpt>
      <trkpt lat="45.78367" lon="4.58999">
        <ele>347</ele>
        <time>2019-06-28T22:13:26Z</time>
      </trkpt>
      <trkpt lat="45.78357" lon="4.59005">
        <ele>348</ele>
        <time>2019-06-28T22:13:29Z</time>
      </trkpt>
      <trkpt lat="45.78231" lon="4.59033">
        <ele>351</ele>
        <time>2019-06-28T22:13:58Z</time>
      </trkpt>
      <trkpt lat="45.782" lon="4.59033">
        <ele>351</ele>
        <time>2019-06-28T22:14:06Z</time>
      </trkpt>
      <trkpt lat="45.78155" lon="4.59024">
        <ele>348</ele>
        <time>2019-06-28T22:14:16Z</time>
      </trkpt>
      <trkpt lat="45.78109" lon="4.59035">
        <ele>349</ele>
        <time>2019-06-28T22:14:27Z</time>
      </trkpt>
      <trkpt lat="45.78095" lon="4.59035">
        <ele>349</ele>
        <time>2019-06-28T22:14:30Z</time>
      </trkpt>
      <trkpt lat="45.78068" lon="4.59051">
        <ele>352</ele>
        <time>2019-06-28T22:14:37Z</time>
      </trkpt>
      <trkpt lat="45.78031" lon="4.5909">
        <ele>359</ele>
        <time>2019-06-28T22:14:48Z</time>
      </trkpt>
      <trkpt lat="45.78019" lon="4.59092">
        <ele>359</ele>
        <time>2019-06-28T22:14:51Z</time>
      </trkpt>
      <trkpt lat="45.78009" lon="4.59088">
        <ele>358</ele>
        <time>2019-06-28T22:14:53Z</time>
      </trkpt>
      <trkpt lat="45.77963" lon="4.59052">
        <ele>359</ele>
        <time>2019-06-28T22:15:05Z</time>
      </trkpt>
      <trkpt lat="45.77912" lon="4.59035">
        <ele>364</ele>
        <time>2019-06-28T22:15:18Z</time>
      </trkpt>
      <trkpt lat="45.77865" lon="4.59016">
        <ele>367</ele>
        <time>2019-06-28T22:15:29Z</time>
      </trkpt>
      <trkpt lat="45.77804" lon="4.5901">
        <ele>372</ele>
        <time>2019-06-28T22:15:43Z</time>
      </trkpt>
      <trkpt lat="45.77779" lon="4.59032">
        <ele>378</ele>
        <time>2019-06-28T22:15:50Z</time>
      </trkpt>
      <trkpt lat="45.7773" lon="4.59046">
        <ele>384</ele>
        <time>2019-06-28T22:16:02Z</time>
      </trkpt>
      <trkpt lat="45.77692" lon="4.59063">
        <ele>389</ele>
        <time>2019-06-28T22:16:11Z</time>
      </trkpt>
      <trkpt lat="45.77668" lon="4.5907">
        <ele>391</ele>
        <time>2019-06-28T22:16:17Z</time>
      </trkpt>
      <trkpt lat="45.77615" lon="4.59096">
        <ele>398</ele>
        <time>2019-06-28T22:16:30Z</time>
      </trkpt>
      <trkpt lat="45.77602" lon="4.59091">
        <ele>397</ele>
        <time>2019-06-28T22:16:33Z</time>
      </trkpt>
      <trkpt lat="45.77562" lon="4.59054">
        <ele>398</ele>
        <time>2019-06-28T22:16:44Z</time>
      </trkpt>
      <trkpt lat="45.77496" lon="4.59012">
        <ele>404</ele>
        <time>2019-06-28T22:17:01Z</time>
      </trkpt>
      <trkpt lat="45.77417" lon="4.58985">
        <ele>412</ele>
        <time>2019-06-28T22:17:20Z</time>
      </trkpt>
      <trkpt lat="45.77402" lon="4.58977">
        <ele>413</ele>
        <time>2019-06-28T22:17:24Z</time>
      </trkpt>
      <trkpt lat="45.77377" lon="4.58975">
        <ele>415</ele>
        <time>2019-06-28T22:17:30Z</time>
      </trkpt>
      <trkpt lat="45.77324" lon="4.58996">
        <ele>422</ele>
        <time>2019-06-28T22:17:42Z</time>
      </trkpt>
      <trkpt lat="45.77304" lon="4.58997">
        <ele>424</ele>
        <time>2019-06-28T22:17:47Z</time>
      </trkpt>
      <trkpt lat="45.77224" lon="4.58978">
        <ele>431</ele>
        <time>2019-06-28T22:18:06Z</time>
      </trkpt>
      <trkpt lat="45.77196" lon="4.58981">
        <ele>434</ele>
        <time>2019-06-28T22:18:13Z</time>
      </trkpt>
      <trkpt lat="45.7713" lon="4.59007">
        <ele>441</ele>
        <time>2019-06-28T22:18:29Z</time>
      </trkpt>
      <trkpt lat="45.77115" lon="4.59009">
        <ele>443</ele>
        <time>2019-06-28T22:18:32Z</time>
      </trkpt>
      <trkpt lat="45.77071" lon="4.5904">
        <ele>451</ele>
        <time>2019-06-28T22:18:44Z</time>
      </trkpt>
      <trkpt lat="45.77054" lon="4.59062">
        <ele>454</ele>
        <time>2019-06-28T22:18:49Z</time>
      </trkpt>
      <trkpt lat="45.77024" lon="4.59083">
        <ele>455</ele>
        <time>2019-06-28T22:18:57Z</time>
      </trkpt>
      <trkpt lat="45.76984" lon="4.59097">
        <ele>458</ele>
        <time>2019-06-28T22:19:06Z</time>
      </trkpt>
      <trkpt lat="45.76972" lon="4.5913">
        <ele>458</ele>
        <time>2019-06-28T22:19:12Z</time>
      </trkpt>
      <trkpt lat="45.76954" lon="4.59224">
        <ele>459</ele>
        <time>2019-06-28T22:19:28Z</time>
      </trkpt>
      <trkpt lat="45.76954" lon="4.59321">
        <ele>464</ele>
        <time>2019-06-28T22:19:44Z</time>
      </trkpt>
      <trkpt lat="45.76959" lon="4.59368">
        <ele>467</ele>
        <time>2019-06-28T22:19:52Z</time>
      </trkpt>
      <trkpt lat="45.76979" lon="4.59454">
        <ele>478</ele>
        <time>2019-06-28T22:20:07Z</time>
      </trkpt>
      <trkpt lat="45.76987" lon="4.59551">
        <ele>486</ele>
        <time>2019-06-28T22:20:22Z</time>
      </trkpt>
      <trkpt lat="45.7699" lon="4.59622">
        <ele>491</ele>
        <time>2019-06-28T22:20:34Z</time>
      </trkpt>
      <trkpt lat="45.76983" lon="4.59662">
        <ele>492</ele>
        <time>2019-06-28T22:20:41Z</time>
      </trkpt>
      <trkpt lat="45.76964" lon="4.59733">
        <ele>495</ele>
        <time>2019-06-28T22:20:53Z</time>
      </trkpt>
      <trkpt lat="45.76944" lon="4.59748">
        <ele>495</ele>
        <time>2019-06-28T22:20:58Z</time>
      </trkpt>
      <trkpt lat="45.7687" lon="4.59757">
        <ele>505</ele>
        <time>2019-06-28T22:21:16Z</time>
      </trkpt>
      <trkpt lat="45.76834" lon="4.59737">
        <ele>509</ele>
        <time>2019-06-28T22:21:25Z</time>
      </trkpt>
      <trkpt lat="45.76796" lon="4.59698">
        <ele>504</ele>
        <time>2019-06-28T22:21:36Z</time>
      </trkpt>
      <trkpt lat="45.76756" lon="4.59691">
        <ele>507</ele>
        <time>2019-06-28T22:21:45Z</time>
      </trkpt>
      <trkpt lat="45.76723" lon="4.59699">
        <ele>511</ele>
        <time>2019-06-28T22:21:53Z</time>
      </trkpt>
      <trkpt lat="45.7669" lon="4.59743">
        <ele>522</ele>
        <time>2019-06-28T22:22:03Z</time>
      </trkpt>
      <trkpt lat="45.76652" lon="4.59754">
        <ele>525</ele>
        <time>2019-06-28T22:22:12Z</time>
      </trkpt>
      <trkpt lat="45.76605" lon="4.59744">
        <ele>526</ele>
        <time>2019-06-28T22:22:24Z</time>
      </trkpt>
      <trkpt lat="45.76557" lon="4.59766">
        <ele>535</ele>
        <time>2019-06-28T22:22:35Z</time>
      </trkpt>
      <trkpt lat="45.7652" lon="4.59764">
        <ele>539</ele>
        <time>2019-06-28T22:22:44Z</time>
      </trkpt>
      <trkpt lat="45.76525" lon="4.59789">
        <ele>544</ele>
        <time>2019-06-28T22:22:48Z</time>
      </trkpt>
      <trkpt lat="45.76477" lon="4.59831">
        <ele>560</ele>
        <time>2019-06-28T22:23:01Z</time>
      </trkpt>
      <trkpt lat="45.76415" lon="4.59858">
        <ele>571</ele>
        <time>2019-06-28T22:23:16Z</time>
      </trkpt>
      <trkpt lat="45.76387" lon="4.59877">
        <ele>571</ele>
        <time>2019-06-28T22:23:24Z</time>
      </trkpt>
      <trkpt lat="45.76369" lon="4.59923">
        <ele>575</ele>
        <time>2019-06-28T22:23:32Z</time>
      </trkpt>
      <trkpt lat="45.76371" lon="4.59957">
        <ele>579</ele>
        <time>2019-06-28T22:23:38Z</time>
      </trkpt>
      <trkpt lat="45.7634" lon="4.60149">
        <ele>594</ele>
        <time>2019-06-28T22:24:10Z</time>
      </trkpt>
      <trkpt lat="45.7633" lon="4.60184">
        <ele>599</ele>
        <time>2019-06-28T22:24:16Z</time>
      </trkpt>
      <trkpt lat="45.76317" lon="4.60335">
        <ele>620</ele>
        <time>2019-06-28T22:24:41Z</time>
      </trkpt>
      <trkpt lat="45.76293" lon="4.60489">
        <ele>628</ele>
        <time>2019-06-28T22:25:07Z</time>
      </trkpt>
      <trkpt lat="45.7628" lon="4.60531">
        <ele>633</ele>
        <time>2019-06-28T22:25:14Z</time>
      </trkpt>
      <trkpt lat="45.76245" lon="4.60715">
        <ele>644</ele>
        <time>2019-06-28T22:25:45Z</time>
      </trkpt>
      <trkpt lat="45.76236" lon="4.60787">
        <ele>649</ele>
        <time>2019-06-28T22:25:57Z</time>
      </trkpt>
      <trkpt lat="45.76231" lon="4.60866">
        <ele>652</ele>
        <time>2019-06-28T22:26:10Z</time>
      </trkpt>
      <trkpt lat="45.76219" lon="4.60907">
        <ele>656</ele>
        <time>2019-06-28T22:26:17Z</time>
      </trkpt>
      <trkpt lat="45.76117" lon="4.60986">
        <ele>669</ele>
        <time>2019-06-28T22:26:44Z</time>
      </trkpt>
      <trkpt lat="45.76089" lon="4.61018">
        <ele>667</ele>
        <time>2019-06-28T22:26:53Z</time>
      </trkpt>
      <trkpt lat="45.76065" lon="4.61027">
        <ele>670</ele>
        <time>2019-06-28T22:26:59Z</time>
      </trkpt>
      <trkpt lat="45.76027" lon="4.61033">
        <ele>678</ele>
        <time>2019-06-28T22:27:07Z</time>
      </trkpt>
      <trkpt lat="45.75975" lon="4.6108">
        <ele>684</ele>
        <time>2019-06-28T22:27:22Z</time>
      </trkpt>
      <trkpt lat="45.75952" lon="4.61114">
        <ele>688</ele>
        <time>2019-06-28T22:27:30Z</time>
      </trkpt>
      <trkpt lat="45.75924" lon="4.61137">
        <ele>695</ele>
        <time>2019-06-28T22:27:37Z</time>
      </trkpt>
      <trkpt lat="45.75899" lon="4.61181">
        <ele>697</ele>
        <time>2019-06-28T22:27:46Z</time>
      </trkpt>
      <trkpt lat="45.75868" lon="4.61258">
        <ele>697</ele>
        <time>2019-06-28T22:28:01Z</time>
      </trkpt>
      <trkpt lat="45.75812" lon="4.61337">
        <ele>699</ele>
        <time>2019-06-28T22:28:19Z</time>
      </trkpt>
      <trkpt lat="45.7577" lon="4.61369">
        <ele>705</ele>
        <time>2019-06-28T22:28:30Z</time>
      </trkpt>
      <trkpt lat="45.75742" lon="4.61399">
        <ele>713</ele>
        <time>2019-06-28T22:28:38Z</time>
      </trkpt>
      <trkpt lat="45.75727" lon="4.61445">
        <ele>720</ele>
        <time>2019-06-28T22:28:47Z</time>
      </trkpt>
      <trkpt lat="45.75718" lon="4.61494">
        <ele>725</ele>
        <time>2019-06-28T22:28:55Z</time>
      </trkpt>
      <trkpt lat="45.75714" lon="4.61532">
        <ele>728</ele>
        <time>2019-06-28T22:29:01Z</time>
      </trkpt>
      <trkpt lat="45.75712" lon="4.61632">
        <ele>733</ele>
        <time>2019-06-28T22:29:17Z</time>
      </trkpt>
      <trkpt lat="45.75705" lon="4.61661">
        <ele>736</ele>
        <time>2019-06-28T22:29:22Z</time>
      </trkpt>
      <trkpt lat="45.75697" lon="4.61673">
        <ele>740</ele>
        <time>2019-06-28T22:29:25Z</time>
      </trkpt>
      <trkpt lat="45.75689" lon="4.6167">
        <ele>742</ele>
        <time>2019-06-28T22:29:27Z</time>
      </trkpt>
      <trkpt lat="45.75661" lon="4.61602">
        <ele>749</ele>
        <time>2019-06-28T22:29:40Z</time>
      </trkpt>
      <trkpt lat="45.75654" lon="4.61598">
        <ele>750</ele>
        <time>2019-06-28T22:29:42Z</time>
      </trkpt>
      <trkpt lat="45.75648" lon="4.61603">
        <ele>752</ele>
        <time>2019-06-28T22:29:43Z</time>
      </trkpt>
      <trkpt lat="45.75638" lon="4.61659">
        <ele>756</ele>
        <time>2019-06-28T22:29:53Z</time>
      </trkpt>
      <trkpt lat="45.75634" lon="4.61672">
        <ele>757</ele>
        <time>2019-06-28T22:29:55Z</time>
      </trkpt>
      <trkpt lat="45.7562" lon="4.61698">
        <ele>759</ele>
        <time>2019-06-28T22:30:00Z</time>
      </trkpt>
      <trkpt lat="45.75624" lon="4.61764">
        <ele>756</ele>
        <time>2019-06-28T22:30:11Z</time>
      </trkpt>
      <trkpt lat="45.75606" lon="4.6179">
        <ele>757</ele>
        <time>2019-06-28T22:30:17Z</time>
      </trkpt>
      <trkpt lat="45.756" lon="4.61793">
        <ele>757</ele>
        <time>2019-06-28T22:30:19Z</time>
      </trkpt>
      <trkpt lat="45.75594" lon="4.61792">
        <ele>757</ele>
        <time>2019-06-28T22:30:20Z</time>
      </trkpt>
      <trkpt lat="45.75587" lon="4.61784">
        <ele>758</ele>
        <time>2019-06-28T22:30:22Z</time>
      </trkpt>
      <trkpt lat="45.75534" lon="4.61703">
        <ele>763</ele>
        <time>2019-06-28T22:30:40Z</time>
      </trkpt>
      <trkpt lat="45.75521" lon="4.61689">
        <ele>765</ele>
        <time>2019-06-28T22:30:44Z</time>
      </trkpt>
      <trkpt lat="45.75476" lon="4.61652">
        <ele>771</ele>
        <time>2019-06-28T22:30:56Z</time>
      </trkpt>
      <trkpt lat="45.75433" lon="4.61636">
        <ele>774</ele>
        <time>2019-06-28T22:31:07Z</time>
      </trkpt>
      <trkpt lat="45.75415" lon="4.61627">
        <ele>776</ele>
        <time>2019-06-28T22:31:11Z</time>
      </trkpt>
      <trkpt lat="45.75368" lon="4.61596">
        <ele>780</ele>
        <time>2019-06-28T22:31:23Z</time>
      </trkpt>
      <trkpt lat="45.75349" lon="4.61587">
        <ele>781</ele>
        <time>2019-06-28T22:31:28Z</time>
      </trkpt>
      <trkpt lat="45.75315" lon="4.6158">
        <ele>781</ele>
        <time>2019-06-28T22:31:36Z</time>
      </trkpt>
      <trkpt lat="45.75298" lon="4.61574">
        <ele>780</ele>
        <time>2019-06-28T22:31:40Z</time>
      </trkpt>
      <trkpt lat="45.75287" lon="4.61545">
        <ele>780</ele>
        <time>2019-06-28T22:31:45Z</time>
      </trkpt>
      <trkpt lat="45.75276" lon="4.61491">
        <ele>781</ele>
        <time>2019-06-28T22:31:54Z</time>
      </trkpt>
      <trkpt lat="45.75272" lon="4.61381">
        <ele>776</ele>
        <time>2019-06-28T22:32:12Z</time>
      </trkpt>
      <trkpt lat="45.75263" lon="4.61308">
        <ele>771</ele>
        <time>2019-06-28T22:32:24Z</time>
      </trkpt>
      <trkpt lat="45.75238" lon="4.61199">
        <ele>761</ele>
        <time>2019-06-28T22:32:43Z</time>
      </trkpt>
      <trkpt lat="45.75229" lon="4.61182">
        <ele>760</ele>
        <time>2019-06-28T22:32:47Z</time>
      </trkpt>
      <trkpt lat="45.75178" lon="4.61123">
        <ele>756</ele>
        <time>2019-06-28T22:33:02Z</time>
      </trkpt>
      <trkpt lat="45.75175" lon="4.61114">
        <ele>756</ele>
        <time>2019-06-28T22:33:04Z</time>
      </trkpt>
      <trkpt lat="45.75152" lon="4.61074">
        <ele>756</ele>
        <time>2019-06-28T22:33:12Z</time>
      </trkpt>
      <trkpt lat="45.75136" lon="4.61032">
        <ele>752</ele>
        <time>2019-06-28T22:33:20Z</time>
      </trkpt>
      <trkpt lat="45.75104" lon="4.61023">
        <ele>752</ele>
        <time>2019-06-28T22:33:27Z</time>
      </trkpt>
      <trkpt lat="45.75018" lon="4.61035">
        <ele>753</ele>
        <time>2019-06-28T22:33:48Z</time>
      </trkpt>
      <trkpt lat="45.74989" lon="4.61046">
        <ele>752</ele>
        <time>2019-06-28T22:33:55Z</time>
      </trkpt>
      <trkpt lat="45.74977" lon="4.61053">
        <ele>752</ele>
        <time>2019-06-28T22:33:58Z</time>
      </trkpt>
      <trkpt lat="45.74947" lon="4.61057">
        <ele>750</ele>
        <time>2019-06-28T22:34:05Z</time>
      </trkpt>
      <trkpt lat="45.74933" lon="4.61065">
        <ele>749</ele>
        <time>2019-06-28T22:34:08Z</time>
      </trkpt>
      <trkpt lat="45.74892" lon="4.61106">
        <ele>744</ele>
        <time>2019-06-28T22:34:20Z</time>
      </trkpt>
      <trkpt lat="45.74867" lon="4.61139">
        <ele>739</ele>
        <time>2019-06-28T22:34:28Z</time>
      </trkpt>
      <trkpt lat="45.74853" lon="4.6115">
        <ele>738</ele>
        <time>2019-06-28T22:34:32Z</time>
      </trkpt>
      <trkpt lat="45.74831" lon="4.61162">
        <ele>737</ele>
        <time>2019-06-28T22:34:37Z</time>
      </trkpt>
      <trkpt lat="45.74821" lon="4.61158">
        <ele>737</ele>
        <time>2019-06-28T22:34:39Z</time>
      </trkpt>
      <trkpt lat="45.74802" lon="4.61145">
        <ele>737</ele>
        <time>2019-06-28T22:34:44Z</time>
      </trkpt>
      <trkpt lat="45.74789" lon="4.61146">
        <ele>736</ele>
        <time>2019-06-28T22:34:47Z</time>
      </trkpt>
      <trkpt lat="45.74781" lon="4.61167">
        <ele>738</ele>
        <time>2019-06-28T22:34:51Z</time>
      </trkpt>
      <trkpt lat="45.74771" lon="4.61147">
        <ele>736</ele>
        <time>2019-06-28T22:34:55Z</time>
      </trkpt>
      <trkpt lat="45.74693" lon="4.61058">
        <ele>731</ele>
        <time>2019-06-28T22:35:19Z</time>
      </trkpt>
      <trkpt lat="45.74654" lon="4.61003">
        <ele>725</ele>
        <time>2019-06-28T22:35:31Z</time>
      </trkpt>
      <trkpt lat="45.74613" lon="4.60917">
        <ele>724</ele>
        <time>2019-06-28T22:35:48Z</time>
      </trkpt>
      <trkpt lat="45.74601" lon="4.60905">
        <ele>726</ele>
        <time>2019-06-28T22:35:52Z</time>
      </trkpt>
      <trkpt lat="45.74559" lon="4.60821">
        <ele>727</ele>
        <time>2019-06-28T22:36:09Z</time>
      </trkpt>
      <trkpt lat="45.74535" lon="4.6076">
        <ele>727</ele>
        <time>2019-06-28T22:36:20Z</time>
      </trkpt>
      <trkpt lat="45.74493" lon="4.6071">
        <ele>736</ele>
        <time>2019-06-28T22:36:33Z</time>
      </trkpt>
      <trkpt lat="45.74456" lon="4.60693">
        <ele>746</ele>
        <time>2019-06-28T22:36:42Z</time>
      </trkpt>
      <trkpt lat="45.74358" lon="4.60621">
        <ele>766</ele>
        <time>2019-06-28T22:37:08Z</time>
      </trkpt>
      <trkpt lat="45.74323" lon="4.60586">
        <ele>771</ele>
        <time>2019-06-28T22:37:18Z</time>
      </trkpt>
      <trkpt lat="45.74251" lon="4.60567">
        <ele>785</ele>
        <time>2019-06-28T22:37:35Z</time>
      </trkpt>
      <trkpt lat="45.74234" lon="4.6055">
        <ele>789</ele>
        <time>2019-06-28T22:37:39Z</time>
      </trkpt>
      <trkpt lat="45.74222" lon="4.60524">
        <ele>789</ele>
        <time>2019-06-28T22:37:45Z</time>
      </trkpt>
      <trkpt lat="45.74206" lon="4.60508">
        <ele>793</ele>
        <time>2019-06-28T22:37:49Z</time>
      </trkpt>
      <trkpt lat="45.74167" lon="4.60443">
        <ele>802</ele>
        <time>2019-06-28T22:38:03Z</time>
      </trkpt>
      <trkpt lat="45.74151" lon="4.60406">
        <ele>806</ele>
        <time>2019-06-28T22:38:10Z</time>
      </trkpt>
      <trkpt lat="45.74125" lon="4.60369">
        <ele>816</ele>
        <time>2019-06-28T22:38:19Z</time>
      </trkpt>
      <trkpt lat="45.74082" lon="4.6037">
        <ele>829</ele>
        <time>2019-06-28T22:38:29Z</time>
      </trkpt>
      <trkpt lat="45.74053" lon="4.60355">
        <ele>834</ele>
        <time>2019-06-28T22:38:36Z</time>
      </trkpt>
      <trkpt lat="45.74037" lon="4.60361">
        <ele>836</ele>
        <time>2019-06-28T22:38:40Z</time>
      </trkpt>
      <trkpt lat="45.74022" lon="4.60358">
        <ele>839</ele>
        <time>2019-06-28T22:38:43Z</time>
      </trkpt>
      <trkpt lat="45.7397" lon="4.60321">
        <ele>840</ele>
        <time>2019-06-28T22:38:57Z</time>
      </trkpt>
      <trkpt lat="45.73868" lon="4.60258">
        <ele>832</ele>
        <time>2019-06-28T22:39:23Z</time>
      </trkpt>
      <trkpt lat="45.73802" lon="4.60221">
        <ele>827</ele>
        <time>2019-06-28T22:39:39Z</time>
      </trkpt>
      <trkpt lat="45.73782" lon="4.60316">
        <ele>829</ele>
        <time>2019-06-28T22:39:56Z</time>
      </trkpt>
      <trkpt lat="45.73777" lon="4.60371">
        <ele>826</ele>
        <time>2019-06-28T22:40:05Z</time>
      </trkpt>
      <trkpt lat="45.73759" lon="4.60408">
        <ele>822</ele>
        <time>2019-06-28T22:40:12Z</time>
      </trkpt>
      <trkpt lat="45.73705" lon="4.60463">
        <ele>821</ele>
        <time>2019-06-28T22:40:27Z</time>
      </trkpt>
      <trkpt lat="45.73684" lon="4.6049">
        <ele>819</ele>
        <time>2019-06-28T22:40:34Z</time>
      </trkpt>
      <trkpt lat="45.73631" lon="4.60543">
        <ele>814</ele>
        <time>2019-06-28T22:40:49Z</time>
      </trkpt>
      <trkpt lat="45.73585" lon="4.6057">
        <ele>813</ele>
        <time>2019-06-28T22:41:01Z</time>
      </trkpt>
      <trkpt lat="45.73561" lon="4.60595">
        <ele>810</ele>
        <time>2019-06-28T22:41:08Z</time>
      </trkpt>
      <trkpt lat="45.73505" lon="4.60613">
        <ele>806</ele>
        <time>2019-06-28T22:41:21Z</time>
      </trkpt>
      <trkpt lat="45.73464" lon="4.60641">
        <ele>799</ele>
        <time>2019-06-28T22:41:32Z</time>
      </trkpt>
      <trkpt lat="45.7342" lon="4.60661">
        <ele>793</ele>
        <time>2019-06-28T22:41:42Z</time>
      </trkpt>
      <trkpt lat="45.73393" lon="4.60658">
        <ele>789</ele>
        <time>2019-06-28T22:41:49Z</time>
      </trkpt>
      <trkpt lat="45.73354" lon="4.60634">
        <ele>788</ele>
        <time>2019-06-28T22:41:59Z</time>
      </trkpt>
      <trkpt lat="45.73264" lon="4.60601">
        <ele>774</ele>
        <time>2019-06-28T22:42:20Z</time>
      </trkpt>
      <trkpt lat="45.73225" lon="4.60581">
        <ele>770</ele>
        <time>2019-06-28T22:42:30Z</time>
      </trkpt>
      <trkpt lat="45.73192" lon="4.60572">
        <ele>764</ele>
        <time>2019-06-28T22:42:38Z</time>
      </trkpt>
      <trkpt lat="45.73151" lon="4.60569">
        <ele>757</ele>
        <time>2019-06-28T22:42:48Z</time>
      </trkpt>
      <trkpt lat="45.73105" lon="4.60569">
        <ele>753</ele>
        <time>2019-06-28T22:42:58Z</time>
      </trkpt>
      <trkpt lat="45.73087" lon="4.60557">
        <ele>752</ele>
        <time>2019-06-28T22:43:03Z</time>
      </trkpt>
      <trkpt lat="45.73066" lon="4.60525">
        <ele>756</ele>
        <time>2019-06-28T22:43:10Z</time>
      </trkpt>
      <trkpt lat="45.73048" lon="4.60513">
        <ele>759</ele>
        <time>2019-06-28T22:43:15Z</time>
      </trkpt>
      <trkpt lat="45.73029" lon="4.60526">
        <ele>760</ele>
        <time>2019-06-28T22:43:20Z</time>
      </trkpt>
      <trkpt lat="45.73001" lon="4.6058">
        <ele>760</ele>
        <time>2019-06-28T22:43:31Z</time>
      </trkpt>
      <trkpt lat="45.73031" lon="4.60705">
        <ele>751</ele>
        <time>2019-06-28T22:43:52Z</time>
      </trkpt>
      <trkpt lat="45.73053" lon="4.60769">
        <ele>746</ele>
        <time>2019-06-28T22:44:04Z</time>
      </trkpt>
      <trkpt lat="45.73002" lon="4.60875">
        <ele>760</ele>
        <time>2019-06-28T22:44:25Z</time>
      </trkpt>
      <trkpt lat="45.72959" lon="4.60892">
        <ele>757</ele>
        <time>2019-06-28T22:44:35Z</time>
      </trkpt>
      <trkpt lat="45.72929" lon="4.60873">
        <ele>760</ele>
        <time>2019-06-28T22:44:43Z</time>
      </trkpt>
      <trkpt lat="45.72902" lon="4.60833">
        <ele>764</ele>
        <time>2019-06-28T22:44:52Z</time>
      </trkpt>
      <trkpt lat="45.72877" lon="4.60812">
        <ele>760</ele>
        <time>2019-06-28T22:44:59Z</time>
      </trkpt>
      <trkpt lat="45.72823" lon="4.60787">
        <ele>755</ele>
        <time>2019-06-28T22:45:12Z</time>
      </trkpt>
      <trkpt lat="45.72795" lon="4.60786">
        <ele>753</ele>
        <time>2019-06-28T22:45:18Z</time>
      </trkpt>
      <trkpt lat="45.72682" lon="4.6082">
        <ele>743</ele>
        <time>2019-06-28T22:45:45Z</time>
      </trkpt>
      <trkpt lat="45.72655" lon="4.60854">
        <ele>736</ele>
        <time>2019-06-28T22:45:54Z</time>
      </trkpt>
      <trkpt lat="45.72595" lon="4.60894">
        <ele>725</ele>
        <time>2019-06-28T22:46:09Z</time>
      </trkpt>
      <trkpt lat="45.72533" lon="4.60967">
        <ele>705</ele>
        <time>2019-06-28T22:46:28Z</time>
      </trkpt>
      <trkpt lat="45.72522" lon="4.60995">
        <ele>702</ele>
        <time>2019-06-28T22:46:33Z</time>
      </trkpt>
      <trkpt lat="45.72508" lon="4.61084">
        <ele>697</ele>
        <time>2019-06-28T22:46:48Z</time>
      </trkpt>
      <trkpt lat="45.72498" lon="4.61129">
        <ele>691</ele>
        <time>2019-06-28T22:46:56Z</time>
      </trkpt>
      <trkpt lat="45.72496" lon="4.61179">
        <ele>687</ele>
        <time>2019-06-28T22:47:04Z</time>
      </trkpt>
      <trkpt lat="45.72489" lon="4.61203">
        <ele>683</ele>
        <time>2019-06-28T22:47:08Z</time>
      </trkpt>
      <trkpt lat="45.72465" lon="4.61237">
        <ele>677</ele>
        <time>2019-06-28T22:47:16Z</time>
      </trkpt>
      <trkpt lat="45.72418" lon="4.61289">
        <ele>672</ele>
        <time>2019-06-28T22:47:30Z</time>
      </trkpt>
      <trkpt lat="45.72429" lon="4.6125">
        <ele>673</ele>
        <time>2019-06-28T22:47:37Z</time>
      </trkpt>
      <trkpt lat="45.72447" lon="4.61102">
        <ele>675</ele>
        <time>2019-06-28T22:48:01Z</time>
      </trkpt>
      <trkpt lat="45.72444" lon="4.61063">
        <ele>674</ele>
        <time>2019-06-28T22:48:08Z</time>
      </trkpt>
      <trkpt lat="45.72452" lon="4.60991">
        <ele>675</ele>
        <time>2019-06-28T22:48:20Z</time>
      </trkpt>
      <trkpt lat="45.72457" lon="4.60898">
        <ele>675</ele>
        <time>2019-06-28T22:48:35Z</time>
      </trkpt>
      <trkpt lat="45.72475" lon="4.60755">
        <ele>688</ele>
        <time>2019-06-28T22:48:59Z</time>
      </trkpt>
      <trkpt lat="45.72472" lon="4.60714">
        <ele>696</ele>
        <time>2019-06-28T22:49:05Z</time>
      </trkpt>
      <trkpt lat="45.72455" lon="4.60711">
        <ele>695</ele>
        <time>2019-06-28T22:49:09Z</time>
      </trkpt>
      <trkpt lat="45.72422" lon="4.60719">
        <ele>689</ele>
        <time>2019-06-28T22:49:17Z</time>
      </trkpt>
      <trkpt lat="45.72337" lon="4.60729">
        <ele>682</ele>
        <time>2019-06-28T22:49:37Z</time>
      </trkpt>
      <trkpt lat="45.72296" lon="4.60709">
        <ele>681</ele>
        <time>2019-06-28T22:49:47Z</time>
      </trkpt>
      <trkpt lat="45.72186" lon="4.60621">
        <ele>681</ele>
        <time>2019-06-28T22:50:17Z</time>
      </trkpt>
      <trkpt lat="45.72165" lon="4.60592">
        <ele>679</ele>
        <time>2019-06-28T22:50:23Z</time>
      </trkpt>
      <trkpt lat="45.72155" lon="4.60561">
        <ele>680</ele>
        <time>2019-06-28T22:50:29Z</time>
      </trkpt>
      <trkpt lat="45.7213" lon="4.60444">
        <ele>680</ele>
        <time>2019-06-28T22:50:49Z</time>
      </trkpt>
      <trkpt lat="45.72111" lon="4.60409">
        <ele>675</ele>
        <time>2019-06-28T22:50:56Z</time>
      </trkpt>
      <trkpt lat="45.72106" lon="4.60395">
        <ele>673</ele>
        <time>2019-06-28T22:50:59Z</time>
      </trkpt>
      <trkpt lat="45.72123" lon="4.60288">
        <ele>681</ele>
        <time>2019-06-28T22:51:17Z</time>
      </trkpt>
      <trkpt lat="45.72123" lon="4.60256">
        <ele>683</ele>
        <time>2019-06-28T22:51:22Z</time>
      </trkpt>
      <trkpt lat="45.72094" lon="4.60195">
        <ele>684</ele>
        <time>2019-06-28T22:51:34Z</time>
      </trkpt>
      <trkpt lat="45.72082" lon="4.60136">
        <ele>694</ele>
        <time>2019-06-28T22:51:44Z</time>
      </trkpt>
      <trkpt lat="45.72073" lon="4.6012">
        <ele>698</ele>
        <time>2019-06-28T22:51:47Z</time>
      </trkpt>
      <trkpt lat="45.72034" lon="4.60117">
        <ele>694</ele>
        <time>2019-06-28T22:51:56Z</time>
      </trkpt>
      <trkpt lat="45.7196" lon="4.60121">
        <ele>683</ele>
        <time>2019-06-28T22:52:14Z</time>
      </trkpt>
      <trkpt lat="45.71924" lon="4.60112">
        <ele>680</ele>
        <time>2019-06-28T22:52:22Z</time>
      </trkpt>
      <trkpt lat="45.71904" lon="4.60078">
        <ele>681</ele>
        <time>2019-06-28T22:52:29Z</time>
      </trkpt>
      <trkpt lat="45.71894" lon="4.60036">
        <ele>680</ele>
        <time>2019-06-28T22:52:37Z</time>
      </trkpt>
      <trkpt lat="45.71888" lon="4.59912">
        <ele>681</ele>
        <time>2019-06-28T22:52:57Z</time>
      </trkpt>
      <trkpt lat="45.71909" lon="4.59796">
        <ele>687</ele>
        <time>2019-06-28T22:53:16Z</time>
      </trkpt>
      <trkpt lat="45.71906" lon="4.59753">
        <ele>686</ele>
        <time>2019-06-28T22:53:23Z</time>
      </trkpt>
      <trkpt lat="45.719" lon="4.59715">
        <ele>688</ele>
        <time>2019-06-28T22:53:30Z</time>
      </trkpt>
      <trkpt lat="45.71882" lon="4.59668">
        <ele>690</ele>
        <time>2019-06-28T22:53:39Z</time>
      </trkpt>
      <trkpt lat="45.71865" lon="4.5966">
        <ele>690</ele>
        <time>2019-06-28T22:53:43Z</time>
      </trkpt>
      <trkpt lat="45.71844" lon="4.59658">
        <ele>689</ele>
        <time>2019-06-28T22:53:48Z</time>
      </trkpt>
      <trkpt lat="45.71798" lon="4.59673">
        <ele>693</ele>
        <time>2019-06-28T22:53:59Z</time>
      </trkpt>
      <trkpt lat="45.71744" lon="4.59702">
        <ele>696</ele>
        <time>2019-06-28T22:54:12Z</time>
      </trkpt>
      <trkpt lat="45.71704" lon="4.59713">
        <ele>697</ele>
        <time>2019-06-28T22:54:22Z</time>
      </trkpt>
      <trkpt lat="45.71538" lon="4.5981">
        <ele>681</ele>
        <time>2019-06-28T22:55:03Z</time>
      </trkpt>
      <trkpt lat="45.71517" lon="4.59806">
        <ele>681</ele>
        <time>2019-06-28T22:55:08Z</time>
      </trkpt>
      <trkpt lat="45.71491" lon="4.59778">
        <ele>683</ele>
        <time>2019-06-28T22:55:16Z</time>
      </trkpt>
      <trkpt lat="45.71472" lon="4.59744">
        <ele>685</ele>
        <time>2019-06-28T22:55:23Z</time>
      </trkpt>
      <trkpt lat="45.71457" lon="4.59728">
        <ele>684</ele>
        <time>2019-06-28T22:55:27Z</time>
      </trkpt>
      <trkpt lat="45.71435" lon="4.59691">
        <ele>683</ele>
        <time>2019-06-28T22:55:35Z</time>
      </trkpt>
      <trkpt lat="45.7142" lon="4.59645">
        <ele>682</ele>
        <time>2019-06-28T22:55:44Z</time>
      </trkpt>
      <trkpt lat="45.71412" lon="4.59595">
        <ele>680</ele>
        <time>2019-06-28T22:55:52Z</time>
      </trkpt>
      <trkpt lat="45.71421" lon="4.59489">
        <ele>686</ele>
        <time>2019-06-28T22:56:09Z</time>
      </trkpt>
      <trkpt lat="45.71413" lon="4.59307">
        <ele>685</ele>
        <time>2019-06-28T22:56:39Z</time>
      </trkpt>
      <trkpt lat="45.71423" lon="4.59236">
        <ele>690</ele>
        <time>2019-06-28T22:56:51Z</time>
      </trkpt>
      <trkpt lat="45.71422" lon="4.59199">
        <ele>692</ele>
        <time>2019-06-28T22:56:57Z</time>
      </trkpt>
      <trkpt lat="45.71417" lon="4.59182">
        <ele>691</ele>
        <time>2019-06-28T22:57:00Z</time>
      </trkpt>
      <trkpt lat="45.71378" lon="4.59152">
        <ele>691</ele>
        <time>2019-06-28T22:57:10Z</time>
      </trkpt>
      <trkpt lat="45.71362" lon="4.59127">
        <ele>698</ele>
        <time>2019-06-28T22:57:16Z</time>
      </trkpt>
      <trkpt lat="45.71333" lon="4.59118">
        <ele>699</ele>
        <time>2019-06-28T22:57:23Z</time>
      </trkpt>
      <trkpt lat="45.71306" lon="4.59123">
        <ele>700</ele>
        <time>2019-06-28T22:57:29Z</time>
      </trkpt>
      <trkpt lat="45.71286" lon="4.59133">
        <ele>698</ele>
        <time>2019-06-28T22:57:34Z</time>
      </trkpt>
      <trkpt lat="45.71251" lon="4.59143">
        <ele>698</ele>
        <time>2019-06-28T22:57:42Z</time>
      </trkpt>
      <trkpt lat="45.71163" lon="4.59191">
        <ele>699</ele>
        <time>2019-06-28T22:58:04Z</time>
      </trkpt>
      <trkpt lat="45.71142" lon="4.59213">
        <ele>689</ele>
        <time>2019-06-28T22:58:11Z</time>
      </trkpt>
      <trkpt lat="45.7112" lon="4.59244">
        <ele>677</ele>
        <time>2019-06-28T22:58:18Z</time>
      </trkpt>
      <trkpt lat="45.71097" lon="4.59244">
        <ele>674</ele>
        <time>2019-06-28T22:58:23Z</time>
      </trkpt>
      <trkpt lat="45.71073" lon="4.59188">
        <ele>685</ele>
        <time>2019-06-28T22:58:34Z</time>
      </trkpt>
      <trkpt lat="45.71024" lon="4.59153">
        <ele>684</ele>
        <time>2019-06-28T22:58:47Z</time>
      </trkpt>
      <trkpt lat="45.71011" lon="4.59147">
        <ele>683</ele>
        <time>2019-06-28T22:58:50Z</time>
      </trkpt>
      <trkpt lat="45.7087" lon="4.58978">
        <ele>702</ele>
        <time>2019-06-28T22:59:33Z</time>
      </trkpt>
      <trkpt lat="45.70822" lon="4.58935">
        <ele>701</ele>
        <time>2019-06-28T22:59:46Z</time>
      </trkpt>
      <trkpt lat="45.70811" lon="4.58917">
        <ele>702</ele>
        <time>2019-06-28T22:59:50Z</time>
      </trkpt>
      <trkpt lat="45.70802" lon="4.58907">
        <ele>703</ele>
        <time>2019-06-28T22:59:53Z</time>
      </trkpt>
      <trkpt lat="45.70792" lon="4.58911">
        <ele>704</ele>
        <time>2019-06-28T22:59:55Z</time>
      </trkpt>
      <trkpt lat="45.70788" lon="4.5892">
        <ele>704</ele>
        <time>2019-06-28T22:59:57Z</time>
      </trkpt>
      <trkpt lat="45.70801" lon="4.58966">
        <ele>704</ele>
        <time>2019-06-28T23:00:05Z</time>
      </trkpt>
      <trkpt lat="45.70821" lon="4.58999">
        <ele>701</ele>
        <time>2019-06-28T23:00:12Z</time>
      </trkpt>
      <trkpt lat="45.70825" lon="4.59023">
        <ele>702</ele>
        <time>2019-06-28T23:00:16Z</time>
      </trkpt>
      <trkpt lat="45.70803" lon="4.59033">
        <ele>706</ele>
        <time>2019-06-28T23:00:21Z</time>
      </trkpt>
      <trkpt lat="45.70788" lon="4.59033">
        <ele>708</ele>
        <time>2019-06-28T23:00:25Z</time>
      </trkpt>
      <trkpt lat="45.70774" lon="4.59045">
        <ele>711</ele>
        <time>2019-06-28T23:00:29Z</time>
      </trkpt>
      <trkpt lat="45.70766" lon="4.59038">
        <ele>712</ele>
        <time>2019-06-28T23:00:31Z</time>
      </trkpt>
      <trkpt lat="45.70739" lon="4.58929">
        <ele>711</ele>
        <time>2019-06-28T23:00:50Z</time>
      </trkpt>
      <trkpt lat="45.70725" lon="4.5892">
        <ele>713</ele>
        <time>2019-06-28T23:00:53Z</time>
      </trkpt>
      <trkpt lat="45.70711" lon="4.58903">
        <ele>717</ele>
        <time>2019-06-28T23:00:58Z</time>
      </trkpt>
      <trkpt lat="45.70715" lon="4.58821">
        <ele>715</ele>
        <time>2019-06-28T23:01:11Z</time>
      </trkpt>
      <trkpt lat="45.70709" lon="4.58753">
        <ele>717</ele>
        <time>2019-06-28T23:01:22Z</time>
      </trkpt>
      <trkpt lat="45.70689" lon="4.58656">
        <ele>719</ele>
        <time>2019-06-28T23:01:39Z</time>
      </trkpt>
      <trkpt lat="45.70683" lon="4.58545">
        <ele>716</ele>
        <time>2019-06-28T23:01:57Z</time>
      </trkpt>
      <trkpt lat="45.70677" lon="4.58509">
        <ele>717</ele>
        <time>2019-06-28T23:02:03Z</time>
      </trkpt>
      <trkpt lat="45.7068" lon="4.58408">
        <ele>722</ele>
        <time>2019-06-28T23:02:19Z</time>
      </trkpt>
      <trkpt lat="45.70692" lon="4.58302">
        <ele>727</ele>
        <time>2019-06-28T23:02:37Z</time>
      </trkpt>
      <trkpt lat="45.70694" lon="4.58234">
        <ele>730</ele>
        <time>2019-06-28T23:02:48Z</time>
      </trkpt>
      <trkpt lat="45.70666" lon="4.58106">
        <ele>739</ele>
        <time>2019-06-28T23:03:10Z</time>
      </trkpt>
      <trkpt lat="45.7064" lon="4.58026">
        <ele>744</ele>
        <time>2019-06-28T23:03:24Z</time>
      </trkpt>
      <trkpt lat="45.70608" lon="4.57964">
        <ele>749</ele>
        <time>2019-06-28T23:03:37Z</time>
      </trkpt>
      <trkpt lat="45.70589" lon="4.5792">
        <ele>752</ele>
        <time>2019-06-28T23:03:45Z</time>
      </trkpt>
      <trkpt lat="45.70574" lon="4.57898">
        <ele>755</ele>
        <time>2019-06-28T23:03:50Z</time>
      </trkpt>
      <trkpt lat="45.70558" lon="4.57865">
        <ele>759</ele>
        <time>2019-06-28T23:03:57Z</time>
      </trkpt>
      <trkpt lat="45.7051" lon="4.57783">
        <ele>770</ele>
        <time>2019-06-28T23:04:14Z</time>
      </trkpt>
      <trkpt lat="45.70474" lon="4.57707">
        <ele>777</ele>
        <time>2019-06-28T23:04:29Z</time>
      </trkpt>
      <trkpt lat="45.70417" lon="4.57703">
        <ele>780</ele>
        <time>2019-06-28T23:04:43Z</time>
      </trkpt>
      <trkpt lat="45.70385" lon="4.57696">
        <ele>774</ele>
        <time>2019-06-28T23:04:50Z</time>
      </trkpt>
      <trkpt lat="45.70379" lon="4.57681">
        <ele>773</ele>
        <time>2019-06-28T23:04:53Z</time>
      </trkpt>
      <trkpt lat="45.70299" lon="4.5757">
        <ele>769</ele>
        <time>2019-06-28T23:05:19Z</time>
      </trkpt>
      <trkpt lat="45.70282" lon="4.5754">
        <ele>767</ele>
        <time>2019-06-28T23:05:25Z</time>
      </trkpt>
      <trkpt lat="45.70271" lon="4.57503">
        <ele>767</ele>
        <time>2019-06-28T23:05:32Z</time>
      </trkpt>
      <trkpt lat="45.70244" lon="4.57255">
        <ele>764</ele>
        <time>2019-06-28T23:06:13Z</time>
      </trkpt>
      <trkpt lat="45.70249" lon="4.57137">
        <ele>775</ele>
        <time>2019-06-28T23:06:32Z</time>
      </trkpt>
      <trkpt lat="45.70249" lon="4.57103">
        <ele>778</ele>
        <time>2019-06-28T23:06:38Z</time>
      </trkpt>
      <trkpt lat="45.70244" lon="4.57048">
        <ele>783</ele>
        <time>2019-06-28T23:06:47Z</time>
      </trkpt>
      <trkpt lat="45.70236" lon="4.57009">
        <ele>786</ele>
        <time>2019-06-28T23:06:53Z</time>
      </trkpt>
      <trkpt lat="45.70214" lon="4.56928">
        <ele>791</ele>
        <time>2019-06-28T23:07:07Z</time>
      </trkpt>
      <trkpt lat="45.70205" lon="4.56871">
        <ele>797</ele>
        <time>2019-06-28T23:07:17Z</time>
      </trkpt>
      <trkpt lat="45.70188" lon="4.56817">
        <ele>802</ele>
        <time>2019-06-28T23:07:27Z</time>
      </trkpt>
      <trkpt lat="45.70159" lon="4.56777">
        <ele>808</ele>
        <time>2019-06-28T23:07:36Z</time>
      </trkpt>
      <trkpt lat="45.70128" lon="4.56755">
        <ele>816</ele>
        <time>2019-06-28T23:07:44Z</time>
      </trkpt>
      <trkpt lat="45.70106" lon="4.5679">
        <ele>810</ele>
        <time>2019-06-28T23:07:52Z</time>
      </trkpt>
      <trkpt lat="45.70075" lon="4.56871">
        <ele>798</ele>
        <time>2019-06-28T23:08:07Z</time>
      </trkpt>
      <trkpt lat="45.70025" lon="4.56943">
        <ele>793</ele>
        <time>2019-06-28T23:08:23Z</time>
      </trkpt>
      <trkpt lat="45.7" lon="4.56964">
        <ele>793</ele>
        <time>2019-06-28T23:08:30Z</time>
      </trkpt>
      <trkpt lat="45.69988" lon="4.56981">
        <ele>792</ele>
        <time>2019-06-28T23:08:34Z</time>
      </trkpt>
      <trkpt lat="45.69933" lon="4.57004">
        <ele>806</ele>
        <time>2019-06-28T23:08:47Z</time>
      </trkpt>
      <trkpt lat="45.69866" lon="4.57182">
        <ele>789</ele>
        <time>2019-06-28T23:09:20Z</time>
      </trkpt>
      <trkpt lat="45.69838" lon="4.57285">
        <ele>774</ele>
        <time>2019-06-28T23:09:38Z</time>
      </trkpt>
      <trkpt lat="45.69828" lon="4.573">
        <ele>773</ele>
        <time>2019-06-28T23:09:42Z</time>
      </trkpt>
      <trkpt lat="45.69763" lon="4.57322">
        <ele>785</ele>
        <time>2019-06-28T23:09:57Z</time>
      </trkpt>
      <trkpt lat="45.69739" lon="4.5737">
        <ele>779</ele>
        <time>2019-06-28T23:10:07Z</time>
      </trkpt>
      <trkpt lat="45.69689" lon="4.57453">
        <ele>774</ele>
        <time>2019-06-28T23:10:25Z</time>
      </trkpt>
      <trkpt lat="45.69659" lon="4.57495">
        <ele>772</ele>
        <time>2019-06-28T23:10:35Z</time>
      </trkpt>
      <trkpt lat="45.69625" lon="4.57527">
        <ele>773</ele>
        <time>2019-06-28T23:10:44Z</time>
      </trkpt>
      <trkpt lat="45.6958" lon="4.57562">
        <ele>775</ele>
        <time>2019-06-28T23:10:56Z</time>
      </trkpt>
      <trkpt lat="45.6954" lon="4.57562">
        <ele>779</ele>
        <time>2019-06-28T23:11:06Z</time>
      </trkpt>
      <trkpt lat="45.69495" lon="4.57557">
        <ele>784</ele>
        <time>2019-06-28T23:11:16Z</time>
      </trkpt>
      <trkpt lat="45.69483" lon="4.57582">
        <ele>782</ele>
        <time>2019-06-28T23:11:21Z</time>
      </trkpt>
      <trkpt lat="45.69457" lon="4.57595">
        <ele>783</ele>
        <time>2019-06-28T23:11:27Z</time>
      </trkpt>
      <trkpt lat="45.69433" lon="4.57602">
        <ele>785</ele>
        <time>2019-06-28T23:11:33Z</time>
      </trkpt>
      <trkpt lat="45.69384" lon="4.57682">
        <ele>785</ele>
        <time>2019-06-28T23:11:51Z</time>
      </trkpt>
      <trkpt lat="45.69335" lon="4.57727">
        <ele>787</ele>
        <time>2019-06-28T23:12:04Z</time>
      </trkpt>
      <trkpt lat="45.69256" lon="4.57823">
        <ele>779</ele>
        <time>2019-06-28T23:12:28Z</time>
      </trkpt>
      <trkpt lat="45.69223" lon="4.57846">
        <ele>777</ele>
        <time>2019-06-28T23:12:37Z</time>
      </trkpt>
      <trkpt lat="45.69167" lon="4.57858">
        <ele>774</ele>
        <time>2019-06-28T23:12:50Z</time>
      </trkpt>
      <trkpt lat="45.69149" lon="4.57858">
        <ele>772</ele>
        <time>2019-06-28T23:12:54Z</time>
      </trkpt>
      <trkpt lat="45.69126" lon="4.5787">
        <ele>769</ele>
        <time>2019-06-28T23:13:00Z</time>
      </trkpt>
      <trkpt lat="45.69115" lon="4.57897">
        <ele>768</ele>
        <time>2019-06-28T23:13:05Z</time>
      </trkpt>
      <trkpt lat="45.6911" lon="4.57937">
        <ele>767</ele>
        <time>2019-06-28T23:13:12Z</time>
      </trkpt>
      <trkpt lat="45.69102" lon="4.57964">
        <ele>765</ele>
        <time>2019-06-28T23:13:17Z</time>
      </trkpt>
      <trkpt lat="45.69081" lon="4.57983">
        <ele>763</ele>
        <time>2019-06-28T23:13:22Z</time>
      </trkpt>
      <trkpt lat="45.69042" lon="4.57988">
        <ele>757</ele>
        <time>2019-06-28T23:13:32Z</time>
      </trkpt>
      <trkpt lat="45.6903" lon="4.57994">
        <ele>755</ele>
        <time>2019-06-28T23:13:35Z</time>
      </trkpt>
      <trkpt lat="45.69006" lon="4.57998">
        <ele>751</ele>
        <time>2019-06-28T23:13:40Z</time>
      </trkpt>
      <trkpt lat="45.68987" lon="4.58005">
        <ele>747</ele>
        <time>2019-06-28T23:13:45Z</time>
      </trkpt>
      <trkpt lat="45.68963" lon="4.58049">
        <ele>741</ele>
        <time>2019-06-28T23:13:54Z</time>
      </trkpt>
      <trkpt lat="45.68944" lon="4.58101">
        <ele>736</ele>
        <time>2019-06-28T23:14:03Z</time>
      </trkpt>
      <trkpt lat="45.68922" lon="4.58122">
        <ele>731</ele>
        <time>2019-06-28T23:14:10Z</time>
      </trkpt>
      <trkpt lat="45.68905" lon="4.58115">
        <ele>728</ele>
        <time>2019-06-28T23:14:14Z</time>
      </trkpt>
      <trkpt lat="45.68891" lon="4.58085">
        <ele>726</ele>
        <time>2019-06-28T23:14:20Z</time>
      </trkpt>
      <trkpt lat="45.6888" lon="4.58016">
        <ele>726</ele>
        <time>2019-06-28T23:14:31Z</time>
      </trkpt>
      <trkpt lat="45.68862" lon="4.57926">
        <ele>724</ele>
        <time>2019-06-28T23:14:46Z</time>
      </trkpt>
      <trkpt lat="45.68836" lon="4.57904">
        <ele>723</ele>
        <time>2019-06-28T23:14:53Z</time>
      </trkpt>
      <trkpt lat="45.68819" lon="4.5793">
        <ele>724</ele>
        <time>2019-06-28T23:14:59Z</time>
      </trkpt>
      <trkpt lat="45.688" lon="4.57978">
        <ele>725</ele>
        <time>2019-06-28T23:15:08Z</time>
      </trkpt>
      <trkpt lat="45.68788" lon="4.5799">
        <ele>727</ele>
        <time>2019-06-28T23:15:12Z</time>
      </trkpt>
      <trkpt lat="45.68771" lon="4.57999">
        <ele>729</ele>
        <time>2019-06-28T23:15:16Z</time>
      </trkpt>
      <trkpt lat="45.6876" lon="4.58048">
        <ele>726</ele>
        <time>2019-06-28T23:15:24Z</time>
      </trkpt>
      <trkpt lat="45.68738" lon="4.58087">
        <ele>726</ele>
        <time>2019-06-28T23:15:33Z</time>
      </trkpt>
      <trkpt lat="45.68746" lon="4.58139">
        <ele>725</ele>
        <time>2019-06-28T23:15:41Z</time>
      </trkpt>
      <trkpt lat="45.6874" lon="4.58179">
        <ele>728</ele>
        <time>2019-06-28T23:15:48Z</time>
      </trkpt>
      <trkpt lat="45.68722" lon="4.58234">
        <ele>734</ele>
        <time>2019-06-28T23:15:58Z</time>
      </trkpt>
      <trkpt lat="45.68659" lon="4.5835">
        <ele>737</ele>
        <time>2019-06-28T23:16:22Z</time>
      </trkpt>
      <trkpt lat="45.68659" lon="4.58321">
        <ele>742</ele>
        <time>2019-06-28T23:16:26Z</time>
      </trkpt>
      <trkpt lat="45.68686" lon="4.58211">
        <ele>743</ele>
        <time>2019-06-28T23:16:46Z</time>
      </trkpt>
      <trkpt lat="45.68678" lon="4.58153">
        <ele>744</ele>
        <time>2019-06-28T23:16:55Z</time>
      </trkpt>
      <trkpt lat="45.68675" lon="4.58143">
        <ele>745</ele>
        <time>2019-06-28T23:16:57Z</time>
      </trkpt>
      <trkpt lat="45.68667" lon="4.58142">
        <ele>747</ele>
        <time>2019-06-28T23:16:59Z</time>
      </trkpt>
      <trkpt lat="45.6866" lon="4.58148">
        <ele>748</ele>
        <time>2019-06-28T23:17:01Z</time>
      </trkpt>
      <trkpt lat="45.68648" lon="4.58168">
        <ele>751</ele>
        <time>2019-06-28T23:17:05Z</time>
      </trkpt>
      <trkpt lat="45.6863" lon="4.58184">
        <ele>754</ele>
        <time>2019-06-28T23:17:10Z</time>
      </trkpt>
      <trkpt lat="45.68613" lon="4.58186">
        <ele>757</ele>
        <time>2019-06-28T23:17:14Z</time>
      </trkpt>
      <trkpt lat="45.68551" lon="4.58212">
        <ele>766</ele>
        <time>2019-06-28T23:17:29Z</time>
      </trkpt>
      <trkpt lat="45.68544" lon="4.58212">
        <ele>766</ele>
        <time>2019-06-28T23:17:31Z</time>
      </trkpt>
      <trkpt lat="45.68536" lon="4.58205">
        <ele>767</ele>
        <time>2019-06-28T23:17:33Z</time>
      </trkpt>
      <trkpt lat="45.68515" lon="4.5816">
        <ele>770</ele>
        <time>2019-06-28T23:17:42Z</time>
      </trkpt>
      <trkpt lat="45.68488" lon="4.5824">
        <ele>770</ele>
        <time>2019-06-28T23:17:56Z</time>
      </trkpt>
      <trkpt lat="45.68448" lon="4.58285">
        <ele>764</ele>
        <time>2019-06-28T23:18:08Z</time>
      </trkpt>
      <trkpt lat="45.68425" lon="4.58301">
        <ele>761</ele>
        <time>2019-06-28T23:18:14Z</time>
      </trkpt>
      <trkpt lat="45.684" lon="4.5831">
        <ele>758</ele>
        <time>2019-06-28T23:18:20Z</time>
      </trkpt>
      <trkpt lat="45.68387" lon="4.58328">
        <ele>755</ele>
        <time>2019-06-28T23:18:24Z</time>
      </trkpt>
      <trkpt lat="45.68352" lon="4.58363">
        <ele>754</ele>
        <time>2019-06-28T23:18:34Z</time>
      </trkpt>
      <trkpt lat="45.68231" lon="4.5833">
        <ele>735</ele>
        <time>2019-06-28T23:19:03Z</time>
      </trkpt>
      <trkpt lat="45.68212" lon="4.58282">
        <ele>736</ele>
        <time>2019-06-28T23:19:12Z</time>
      </trkpt>
      <trkpt lat="45.68106" lon="4.58111">
        <ele>738</ele>
        <time>2019-06-28T23:19:49Z</time>
      </trkpt>
      <trkpt lat="45.68029" lon="4.58035">
        <ele>738</ele>
        <time>2019-06-28T23:20:11Z</time>
      </trkpt>
      <trkpt lat="45.68015" lon="4.58027">
        <ele>737</ele>
        <time>2019-06-28T23:20:15Z</time>
      </trkpt>
      <trkpt lat="45.68009" lon="4.58012">
        <ele>740</ele>
        <time>2019-06-28T23:20:17Z</time>
      </trkpt>
      <trkpt lat="45.67989" lon="4.58005">
        <ele>740</ele>
        <time>2019-06-28T23:20:22Z</time>
      </trkpt>
      <trkpt lat="45.67966" lon="4.57988">
        <ele>744</ele>
        <time>2019-06-28T23:20:28Z</time>
      </trkpt>
      <trkpt lat="45.6792" lon="4.57977">
        <ele>746</ele>
        <time>2019-06-28T23:20:39Z</time>
      </trkpt>
      <trkpt lat="45.67878" lon="4.57986">
        <ele>744</ele>
        <time>2019-06-28T23:20:49Z</time>
      </trkpt>
      <trkpt lat="45.67825" lon="4.57983">
        <ele>746</ele>
        <time>2019-06-28T23:21:02Z</time>
      </trkpt>
      <trkpt lat="45.67789" lon="4.57988">
        <ele>744</ele>
        <time>2019-06-28T23:21:10Z</time>
      </trkpt>
      <trkpt lat="45.67759" lon="4.57976">
        <ele>749</ele>
        <time>2019-06-28T23:21:17Z</time>
      </trkpt>
      <trkpt lat="45.67688" lon="4.57929">
        <ele>759</ele>
        <time>2019-06-28T23:21:36Z</time>
      </trkpt>
      <trkpt lat="45.67667" lon="4.57899">
        <ele>764</ele>
        <time>2019-06-28T23:21:42Z</time>
      </trkpt>
      <trkpt lat="45.67644" lon="4.57875">
        <ele>766</ele>
        <time>2019-06-28T23:21:49Z</time>
      </trkpt>
      <trkpt lat="45.67632" lon="4.57852">
        <ele>769</ele>
        <time>2019-06-28T23:21:54Z</time>
      </trkpt>
      <trkpt lat="45.67625" lon="4.57825">
        <ele>772</ele>
        <time>2019-06-28T23:21:58Z</time>
      </trkpt>
      <trkpt lat="45.67611" lon="4.57742">
        <ele>773</ele>
        <time>2019-06-28T23:22:12Z</time>
      </trkpt>
      <trkpt lat="45.67593" lon="4.57673">
        <ele>770</ele>
        <time>2019-06-28T23:22:24Z</time>
      </trkpt>
      <trkpt lat="45.67586" lon="4.57649">
        <ele>767</ele>
        <time>2019-06-28T23:22:29Z</time>
      </trkpt>
      <trkpt lat="45.67563" lon="4.57591">
        <ele>761</ele>
        <time>2019-06-28T23:22:40Z</time>
      </trkpt>
      <trkpt lat="45.67549" lon="4.57566">
        <ele>759</ele>
        <time>2019-06-28T23:22:45Z</time>
      </trkpt>
      <trkpt lat="45.67531" lon="4.5754">
        <ele>758</ele>
        <time>2019-06-28T23:22:51Z</time>
      </trkpt>
      <trkpt lat="45.67485" lon="4.575">
        <ele>753</ele>
        <time>2019-06-28T23:23:03Z</time>
      </trkpt>
      <trkpt lat="45.67352" lon="4.57353">
        <ele>711</ele>
        <time>2019-06-28T23:23:43Z</time>
      </trkpt>
      <trkpt lat="45.6732" lon="4.57325">
        <ele>704</ele>
        <time>2019-06-28T23:23:51Z</time>
      </trkpt>
      <trkpt lat="45.67302" lon="4.57303">
        <ele>701</ele>
        <time>2019-06-28T23:23:57Z</time>
      </trkpt>
      <trkpt lat="45.67265" lon="4.57272">
        <ele>694</ele>
        <time>2019-06-28T23:24:07Z</time>
      </trkpt>
      <trkpt lat="45.67205" lon="4.57235">
        <ele>685</ele>
        <time>2019-06-28T23:24:22Z</time>
      </trkpt>
      <trkpt lat="45.67194" lon="4.57217">
        <ele>684</ele>
        <time>2019-06-28T23:24:26Z</time>
      </trkpt>
      <trkpt lat="45.6718" lon="4.57211">
        <ele>684</ele>
        <time>2019-06-28T23:24:29Z</time>
      </trkpt>
      <trkpt lat="45.67167" lon="4.57219">
        <ele>682</ele>
        <time>2019-06-28T23:24:33Z</time>
      </trkpt>
      <trkpt lat="45.67149" lon="4.57235">
        <ele>682</ele>
        <time>2019-06-28T23:24:38Z</time>
      </trkpt>
      <trkpt lat="45.67134" lon="4.5724">
        <ele>683</ele>
        <time>2019-06-28T23:24:41Z</time>
      </trkpt>
      <trkpt lat="45.67077" lon="4.57246">
        <ele>688</ele>
        <time>2019-06-28T23:24:55Z</time>
      </trkpt>
      <trkpt lat="45.66997" lon="4.5727">
        <ele>701</ele>
        <time>2019-06-28T23:25:14Z</time>
      </trkpt>
      <trkpt lat="45.66974" lon="4.57248">
        <ele>709</ele>
        <time>2019-06-28T23:25:20Z</time>
      </trkpt>
      <trkpt lat="45.66969" lon="4.5724">
        <ele>711</ele>
        <time>2019-06-28T23:25:22Z</time>
      </trkpt>
      <trkpt lat="45.66977" lon="4.57175">
        <ele>711</ele>
        <time>2019-06-28T23:25:33Z</time>
      </trkpt>
      <trkpt lat="45.66973" lon="4.57166">
        <ele>712</ele>
        <time>2019-06-28T23:25:34Z</time>
      </trkpt>
      <trkpt lat="45.66967" lon="4.57163">
        <ele>714</ele>
        <time>2019-06-28T23:25:36Z</time>
      </trkpt>
      <trkpt lat="45.66955" lon="4.57166">
        <ele>717</ele>
        <time>2019-06-28T23:25:39Z</time>
      </trkpt>
      <trkpt lat="45.66942" lon="4.5718">
        <ele>720</ele>
        <time>2019-06-28T23:25:43Z</time>
      </trkpt>
      <trkpt lat="45.66917" lon="4.57244">
        <ele>724</ele>
        <time>2019-06-28T23:25:55Z</time>
      </trkpt>
      <trkpt lat="45.66915" lon="4.57243">
        <ele>724</ele>
        <time>2019-06-28T23:25:55Z</time>
      </trkpt>
      <trkpt lat="45.66919" lon="4.57206">
        <ele>725</ele>
        <time>2019-06-28T23:26:01Z</time>
      </trkpt>
      <trkpt lat="45.66916" lon="4.57195">
        <ele>726</ele>
        <time>2019-06-28T23:26:03Z</time>
      </trkpt>
      <trkpt lat="45.66893" lon="4.57146">
        <ele>731</ele>
        <time>2019-06-28T23:26:13Z</time>
      </trkpt>
      <trkpt lat="45.66883" lon="4.5714">
        <ele>733</ele>
        <time>2019-06-28T23:26:15Z</time>
      </trkpt>
      <trkpt lat="45.66871" lon="4.57144">
        <ele>735</ele>
        <time>2019-06-28T23:26:18Z</time>
      </trkpt>
      <trkpt lat="45.66858" lon="4.57152">
        <ele>737</ele>
        <time>2019-06-28T23:26:21Z</time>
      </trkpt>
      <trkpt lat="45.66855" lon="4.57157">
        <ele>737</ele>
        <time>2019-06-28T23:26:23Z</time>
      </trkpt>
      <trkpt lat="45.66862" lon="4.57182">
        <ele>734</ele>
        <time>2019-06-28T23:26:27Z</time>
      </trkpt>
      <trkpt lat="45.66869" lon="4.57194">
        <ele>733</ele>
        <time>2019-06-28T23:26:29Z</time>
      </trkpt>
      <trkpt lat="45.66879" lon="4.57202">
        <ele>731</ele>
        <time>2019-06-28T23:26:32Z</time>
      </trkpt>
      <trkpt lat="45.66881" lon="4.57211">
        <ele>730</ele>
        <time>2019-06-28T23:26:34Z</time>
      </trkpt>
      <trkpt lat="45.66878" lon="4.57226">
        <ele>730</ele>
        <time>2019-06-28T23:26:36Z</time>
      </trkpt>
      <trkpt lat="45.66856" lon="4.57248">
        <ele>731</ele>
        <time>2019-06-28T23:26:42Z</time>
      </trkpt>
      <trkpt lat="45.66826" lon="4.57294">
        <ele>724</ele>
        <time>2019-06-28T23:26:53Z</time>
      </trkpt>
      <trkpt lat="45.66804" lon="4.57293">
        <ele>724</ele>
        <time>2019-06-28T23:26:58Z</time>
      </trkpt>
      <trkpt lat="45.66797" lon="4.57295">
        <ele>723</ele>
        <time>2019-06-28T23:27:00Z</time>
      </trkpt>
      <trkpt lat="45.66775" lon="4.57311">
        <ele>718</ele>
        <time>2019-06-28T23:27:05Z</time>
      </trkpt>
      <trkpt lat="45.66767" lon="4.57313">
        <ele>718</ele>
        <time>2019-06-28T23:27:07Z</time>
      </trkpt>
      <trkpt lat="45.66722" lon="4.57306">
        <ele>718</ele>
        <time>2019-06-28T23:27:18Z</time>
      </trkpt>
      <trkpt lat="45.66636" lon="4.57298">
        <ele>719</ele>
        <time>2019-06-28T23:27:38Z</time>
      </trkpt>
      <trkpt lat="45.6662" lon="4.573">
        <ele>719</ele>
        <time>2019-06-28T23:27:42Z</time>
      </trkpt>
      <trkpt lat="45.66612" lon="4.57304">
        <ele>718</ele>
        <time>2019-06-28T23:27:44Z</time>
      </trkpt>
      <trkpt lat="45.66605" lon="4.57311">
        <ele>717</ele>
        <time>2019-06-28T23:27:46Z</time>
      </trkpt>
      <trkpt lat="45.66606" lon="4.57314">
        <ele>716</ele>
        <time>2019-06-28T23:27:46Z</time>
      </trkpt>
      <trkpt lat="45.66612" lon="4.5731">
        <ele>717</ele>
        <time>2019-06-28T23:27:48Z</time>
      </trkpt>
      <trkpt lat="45.66622" lon="4.57309">
        <ele>717</ele>
        <time>2019-06-28T23:27:50Z</time>
      </trkpt>
      <trkpt lat="45.6663" lon="4.57312">
        <ele>716</ele>
        <time>2019-06-28T23:27:52Z</time>
      </trkpt>
      <trkpt lat="45.66666" lon="4.57337">
        <ele>709</ele>
        <time>2019-06-28T23:28:01Z</time>
      </trkpt>
      <trkpt lat="45.66682" lon="4.57343">
        <ele>707</ele>
        <time>2019-06-28T23:28:05Z</time>
      </trkpt>
      <trkpt lat="45.66698" lon="4.57345">
        <ele>707</ele>
        <time>2019-06-28T23:28:09Z</time>
      </trkpt>
      <trkpt lat="45.6676" lon="4.57371">
        <ele>703</ele>
        <time>2019-06-28T23:28:24Z</time>
      </trkpt>
      <trkpt lat="45.6678" lon="4.57384">
        <ele>701</ele>
        <time>2019-06-28T23:28:29Z</time>
      </trkpt>
      <trkpt lat="45.66793" lon="4.574">
        <ele>698</ele>
        <time>2019-06-28T23:28:33Z</time>
      </trkpt>
      <trkpt lat="45.66804" lon="4.57401">
        <ele>699</ele>
        <time>2019-06-28T23:28:36Z</time>
      </trkpt>
      <trkpt lat="45.66842" lon="4.57391">
        <ele>703</ele>
        <time>2019-06-28T23:28:45Z</time>
      </trkpt>
      <trkpt lat="45.66846" lon="4.57403">
        <ele>700</ele>
        <time>2019-06-28T23:28:47Z</time>
      </trkpt>
      <trkpt lat="45.66856" lon="4.57412">
        <ele>698</ele>
        <time>2019-06-28T23:28:50Z</time>
      </trkpt>
      <trkpt lat="45.66879" lon="4.57416">
        <ele>697</ele>
        <time>2019-06-28T23:28:55Z</time>
      </trkpt>
      <trkpt lat="45.66887" lon="4.57429">
        <ele>693</ele>
        <time>2019-06-28T23:28:58Z</time>
      </trkpt>
      <trkpt lat="45.66864" lon="4.5745">
        <ele>686</ele>
        <time>2019-06-28T23:29:04Z</time>
      </trkpt>
      <trkpt lat="45.66861" lon="4.57458">
        <ele>683</ele>
        <time>2019-06-28T23:29:06Z</time>
      </trkpt>
      <trkpt lat="45.66865" lon="4.57466">
        <ele>681</ele>
        <time>2019-06-28T23:29:07Z</time>
      </trkpt>
      <trkpt lat="45.66849" lon="4.57467">
        <ele>680</ele>
        <time>2019-06-28T23:29:11Z</time>
      </trkpt>
      <trkpt lat="45.66834" lon="4.57471">
        <ele>678</ele>
        <time>2019-06-28T23:29:15Z</time>
      </trkpt>
      <trkpt lat="45.66828" lon="4.57482">
        <ele>674</ele>
        <time>2019-06-28T23:29:17Z</time>
      </trkpt>
      <trkpt lat="45.66781" lon="4.57543">
        <ele>654</ele>
        <time>2019-06-28T23:29:32Z</time>
      </trkpt>
      <trkpt lat="45.66763" lon="4.57558">
        <ele>650</ele>
        <time>2019-06-28T23:29:37Z</time>
      </trkpt>
      <trkpt lat="45.66699" lon="4.57581">
        <ele>647</ele>
        <time>2019-06-28T23:29:52Z</time>
      </trkpt>
      <trkpt lat="45.66685" lon="4.57592">
        <ele>646</ele>
        <time>2019-06-28T23:29:56Z</time>
      </trkpt>
      <trkpt lat="45.66671" lon="4.57654">
        <ele>637</ele>
        <time>2019-06-28T23:30:06Z</time>
      </trkpt>
      <trkpt lat="45.6666" lon="4.5769">
        <ele>633</ele>
        <time>2019-06-28T23:30:13Z</time>
      </trkpt>
      <trkpt lat="45.6665" lon="4.57712">
        <ele>633</ele>
        <time>2019-06-28T23:30:17Z</time>
      </trkpt>
      <trkpt lat="45.6663" lon="4.5774">
        <ele>635</ele>
        <time>2019-06-28T23:30:24Z</time>
      </trkpt>
      <trkpt lat="45.66625" lon="4.57751">
        <ele>635</ele>
        <time>2019-06-28T23:30:26Z</time>
      </trkpt>
      <trkpt lat="45.66614" lon="4.57846">
        <ele>635</ele>
        <time>2019-06-28T23:30:42Z</time>
      </trkpt>
      <trkpt lat="45.66615" lon="4.57866">
        <ele>634</ele>
        <time>2019-06-28T23:30:45Z</time>
      </trkpt>
      <trkpt lat="45.66616" lon="4.57874">
        <ele>633</ele>
        <time>2019-06-28T23:30:46Z</time>
      </trkpt>
      <trkpt lat="45.66639" lon="4.57893">
        <ele>628</ele>
        <time>2019-06-28T23:30:52Z</time>
      </trkpt>
      <trkpt lat="45.66637" lon="4.5791">
        <ele>628</ele>
        <time>2019-06-28T23:30:55Z</time>
      </trkpt>
      <trkpt lat="45.66631" lon="4.57923">
        <ele>627</ele>
        <time>2019-06-28T23:30:58Z</time>
      </trkpt>
      <trkpt lat="45.66612" lon="4.57946">
        <ele>627</ele>
        <time>2019-06-28T23:31:03Z</time>
      </trkpt>
      <trkpt lat="45.66593" lon="4.57961">
        <ele>627</ele>
        <time>2019-06-28T23:31:09Z</time>
      </trkpt>
      <trkpt lat="45.66584" lon="4.57972">
        <ele>626</ele>
        <time>2019-06-28T23:31:11Z</time>
      </trkpt>
      <trkpt lat="45.66578" lon="4.57984">
        <ele>625</ele>
        <time>2019-06-28T23:31:14Z</time>
      </trkpt>
      <trkpt lat="45.66534" lon="4.58112">
        <ele>610</ele>
        <time>2019-06-28T23:31:37Z</time>
      </trkpt>
      <trkpt lat="45.66535" lon="4.58126">
        <ele>607</ele>
        <time>2019-06-28T23:31:39Z</time>
      </trkpt>
      <trkpt lat="45.66547" lon="4.58129">
        <ele>604</ele>
        <time>2019-06-28T23:31:42Z</time>
      </trkpt>
      <trkpt lat="45.66556" lon="4.58143">
        <ele>600</ele>
        <time>2019-06-28T23:31:45Z</time>
      </trkpt>
      <trkpt lat="45.66558" lon="4.58183">
        <ele>593</ele>
        <time>2019-06-28T23:31:52Z</time>
      </trkpt>
      <trkpt lat="45.66555" lon="4.58199">
        <ele>591</ele>
        <time>2019-06-28T23:31:55Z</time>
      </trkpt>
      <trkpt lat="45.66548" lon="4.58207">
        <ele>590</ele>
        <time>2019-06-28T23:31:57Z</time>
      </trkpt>
      <trkpt lat="45.66541" lon="4.5821">
        <ele>590</ele>
        <time>2019-06-28T23:31:58Z</time>
      </trkpt>
      <trkpt lat="45.66536" lon="4.5821">
        <ele>591</ele>
        <time>2019-06-28T23:31:59Z</time>
      </trkpt>
      <trkpt lat="45.66511" lon="4.58194">
        <ele>598</ele>
        <time>2019-06-28T23:32:06Z</time>
      </trkpt>
      <trkpt lat="45.66496" lon="4.582">
        <ele>599</ele>
        <time>2019-06-28T23:32:10Z</time>
      </trkpt>
      <trkpt lat="45.66454" lon="4.58262">
        <ele>592</ele>
        <time>2019-06-28T23:32:24Z</time>
      </trkpt>
      <trkpt lat="45.66437" lon="4.58275">
        <ele>592</ele>
        <time>2019-06-28T23:32:28Z</time>
      </trkpt>
      <trkpt lat="45.66424" lon="4.58281">
        <ele>593</ele>
        <time>2019-06-28T23:32:31Z</time>
      </trkpt>
      <trkpt lat="45.66417" lon="4.58292">
        <ele>591</ele>
        <time>2019-06-28T23:32:34Z</time>
      </trkpt>
      <trkpt lat="45.66379" lon="4.58497">
        <ele>555</ele>
        <time>2019-06-28T23:33:08Z</time>
      </trkpt>
      <trkpt lat="45.66369" lon="4.58584">
        <ele>546</ele>
        <time>2019-06-28T23:33:23Z</time>
      </trkpt>
      <trkpt lat="45.66356" lon="4.58669">
        <ele>534</ele>
        <time>2019-06-28T23:33:37Z</time>
      </trkpt>
      <trkpt lat="45.6636" lon="4.58743">
        <ele>519</ele>
        <time>2019-06-28T23:33:49Z</time>
      </trkpt>
      <trkpt lat="45.6634" lon="4.58744">
        <ele>518</ele>
        <time>2019-06-28T23:33:54Z</time>
      </trkpt>
      <trkpt lat="45.66325" lon="4.58738">
        <ele>521</ele>
        <time>2019-06-28T23:33:57Z</time>
      </trkpt>
      <trkpt lat="45.66303" lon="4.58696">
        <ele>531</ele>
        <time>2019-06-28T23:34:06Z</time>
      </trkpt>
      <trkpt lat="45.66261" lon="4.58647">
        <ele>539</ele>
        <time>2019-06-28T23:34:19Z</time>
      </trkpt>
      <trkpt lat="45.66242" lon="4.58631">
        <ele>542</ele>
        <time>2019-06-28T23:34:24Z</time>
      </trkpt>
      <trkpt lat="45.66222" lon="4.58605">
        <ele>546</ele>
        <time>2019-06-28T23:34:30Z</time>
      </trkpt>
      <trkpt lat="45.66161" lon="4.58604">
        <ele>542</ele>
        <time>2019-06-28T23:34:44Z</time>
      </trkpt>
      <trkpt lat="45.66125" lon="4.58568">
        <ele>550</ele>
        <time>2019-06-28T23:34:55Z</time>
      </trkpt>
      <trkpt lat="45.66109" lon="4.58623">
        <ele>548</ele>
        <time>2019-06-28T23:35:04Z</time>
      </trkpt>
      <trkpt lat="45.66111" lon="4.58641">
        <ele>546</ele>
        <time>2019-06-28T23:35:07Z</time>
      </trkpt>
      <trkpt lat="45.661" lon="4.58665">
        <ele>546</ele>
        <time>2019-06-28T23:35:12Z</time>
      </trkpt>
      <trkpt lat="45.66059" lon="4.58712">
        <ele>554</ele>
        <time>2019-06-28T23:35:24Z</time>
      </trkpt>
      <trkpt lat="45.66121" lon="4.58733">
        <ele>549</ele>
        <time>2019-06-28T23:35:39Z</time>
      </trkpt>
      <trkpt lat="45.66179" lon="4.58822">
        <ele>560</ele>
        <time>2019-06-28T23:35:59Z</time>
      </trkpt>
      <trkpt lat="45.66144" lon="4.58827">
        <ele>564</ele>
        <time>2019-06-28T23:36:07Z</time>
      </trkpt>
      <trkpt lat="45.66112" lon="4.58847">
        <ele>568</ele>
        <time>2019-06-28T23:36:15Z</time>
      </trkpt>
      <trkpt lat="45.66086" lon="4.58872">
        <ele>573</ele>
        <time>2019-06-28T23:36:23Z</time>
      </trkpt>
      <trkpt lat="45.66079" lon="4.58894">
        <ele>576</ele>
        <time>2019-06-28T23:36:27Z</time>
      </trkpt>
      <trkpt lat="45.66107" lon="4.58922">
        <ele>578</ele>
        <time>2019-06-28T23:36:35Z</time>
      </trkpt>
      <trkpt lat="45.66106" lon="4.58948">
        <ele>580</ele>
        <time>2019-06-28T23:36:39Z</time>
      </trkpt>
      <trkpt lat="45.6609" lon="4.59">
        <ele>588</ele>
        <time>2019-06-28T23:36:48Z</time>
      </trkpt>
      <trkpt lat="45.66049" lon="4.59058">
        <ele>590</ele>
        <time>2019-06-28T23:37:02Z</time>
      </trkpt>
      <trkpt lat="45.66016" lon="4.59119">
        <ele>598</ele>
        <time>2019-06-28T23:37:14Z</time>
      </trkpt>
      <trkpt lat="45.65987" lon="4.59188">
        <ele>609</ele>
        <time>2019-06-28T23:37:27Z</time>
      </trkpt>
      <trkpt lat="45.65961" lon="4.592">
        <ele>610</ele>
        <time>2019-06-28T23:37:34Z</time>
      </trkpt>
      <trkpt lat="45.65901" lon="4.59235">
        <ele>610</ele>
        <time>2019-06-28T23:37:49Z</time>
      </trkpt>
      <trkpt lat="45.65852" lon="4.59257">
        <ele>607</ele>
        <time>2019-06-28T23:38:01Z</time>
      </trkpt>
      <trkpt lat="45.65791" lon="4.59295">
        <ele>611</ele>
        <time>2019-06-28T23:38:16Z</time>
      </trkpt>
      <trkpt lat="45.65749" lon="4.59301">
        <ele>611</ele>
        <time>2019-06-28T23:38:26Z</time>
      </trkpt>
      <trkpt lat="45.65719" lon="4.59273">
        <ele>613</ele>
        <time>2019-06-28T23:38:35Z</time>
      </trkpt>
      <trkpt lat="45.65676" lon="4.592">
        <ele>617</ele>
        <time>2019-06-28T23:38:50Z</time>
      </trkpt>
      <trkpt lat="45.65656" lon="4.5918">
        <ele>621</ele>
        <time>2019-06-28T23:38:56Z</time>
      </trkpt>
      <trkpt lat="45.65635" lon="4.59143">
        <ele>627</ele>
        <time>2019-06-28T23:39:04Z</time>
      </trkpt>
      <trkpt lat="45.65648" lon="4.59078">
        <ele>626</ele>
        <time>2019-06-28T23:39:15Z</time>
      </trkpt>
      <trkpt lat="45.65609" lon="4.59131">
        <ele>635</ele>
        <time>2019-06-28T23:39:27Z</time>
      </trkpt>
      <trkpt lat="45.65624" lon="4.59185">
        <ele>631</ele>
        <time>2019-06-28T23:39:37Z</time>
      </trkpt>
      <trkpt lat="45.65623" lon="4.59259">
        <ele>635</ele>
        <time>2019-06-28T23:39:49Z</time>
      </trkpt>
      <trkpt lat="45.65632" lon="4.59342">
        <ele>639</ele>
        <time>2019-06-28T23:40:02Z</time>
      </trkpt>
      <trkpt lat="45.65641" lon="4.59397">
        <ele>643</ele>
        <time>2019-06-28T23:40:12Z</time>
      </trkpt>
      <trkpt lat="45.65685" lon="4.59466">
        <ele>645</ele>
        <time>2019-06-28T23:40:27Z</time>
      </trkpt>
      <trkpt lat="45.65716" lon="4.5952">
        <ele>651</ele>
        <time>2019-06-28T23:40:38Z</time>
      </trkpt>
      <trkpt lat="45.65723" lon="4.59545">
        <ele>654</ele>
        <time>2019-06-28T23:40:43Z</time>
      </trkpt>
      <trkpt lat="45.65713" lon="4.59586">
        <ele>659</ele>
        <time>2019-06-28T23:40:50Z</time>
      </trkpt>
      <trkpt lat="45.657" lon="4.59616">
        <ele>661</ele>
        <time>2019-06-28T23:40:56Z</time>
      </trkpt>
      <trkpt lat="45.65699" lon="4.59628">
        <ele>661</ele>
        <time>2019-06-28T23:40:58Z</time>
      </trkpt>
      <trkpt lat="45.65681" lon="4.59619">
        <ele>661</ele>
        <time>2019-06-28T23:41:02Z</time>
      </trkpt>
      <trkpt lat="45.65673" lon="4.59618">
        <ele>661</ele>
        <time>2019-06-28T23:41:04Z</time>
      </trkpt>
      <trkpt lat="45.65642" lon="4.59636">
        <ele>666</ele>
        <time>2019-06-28T23:41:12Z</time>
      </trkpt>
      <trkpt lat="45.65616" lon="4.59645">
        <ele>671</ele>
        <time>2019-06-28T23:41:18Z</time>
      </trkpt>
      <trkpt lat="45.65587" lon="4.59596">
        <ele>676</ele>
        <time>2019-06-28T23:41:28Z</time>
      </trkpt>
      <trkpt lat="45.65565" lon="4.59581">
        <ele>681</ele>
        <time>2019-06-28T23:41:34Z</time>
      </trkpt>
      <trkpt lat="45.65543" lon="4.59571">
        <ele>685</ele>
        <time>2019-06-28T23:41:39Z</time>
      </trkpt>
      <trkpt lat="45.65522" lon="4.59551">
        <ele>689</ele>
        <time>2019-06-28T23:41:45Z</time>
      </trkpt>
      <trkpt lat="45.65492" lon="4.59517">
        <ele>697</ele>
        <time>2019-06-28T23:41:54Z</time>
      </trkpt>
      <trkpt lat="45.65478" lon="4.59475">
        <ele>700</ele>
        <time>2019-06-28T23:42:02Z</time>
      </trkpt>
      <trkpt lat="45.654" lon="4.59333">
        <ele>708</ele>
        <time>2019-06-28T23:42:31Z</time>
      </trkpt>
      <trkpt lat="45.65326" lon="4.59265">
        <ele>715</ele>
        <time>2019-06-28T23:42:52Z</time>
      </trkpt>
      <trkpt lat="45.65281" lon="4.59255">
        <ele>718</ele>
        <time>2019-06-28T23:43:03Z</time>
      </trkpt>
      <trkpt lat="45.65209" lon="4.5926">
        <ele>723</ele>
        <time>2019-06-28T23:43:19Z</time>
      </trkpt>
      <trkpt lat="45.65196" lon="4.59219">
        <ele>728</ele>
        <time>2019-06-28T23:43:27Z</time>
      </trkpt>
      <trkpt lat="45.65109" lon="4.59227">
        <ele>732</ele>
        <time>2019-06-28T23:43:47Z</time>
      </trkpt>
      <trkpt lat="45.65072" lon="4.59252">
        <ele>728</ele>
        <time>2019-06-28T23:43:57Z</time>
      </trkpt>
      <trkpt lat="45.65036" lon="4.59252">
        <ele>725</ele>
        <time>2019-06-28T23:44:05Z</time>
      </trkpt>
      <trkpt lat="45.64996" lon="4.59215">
        <ele>726</ele>
        <time>2019-06-28T23:44:16Z</time>
      </trkpt>
      <trkpt lat="45.64936" lon="4.59118">
        <ele>735</ele>
        <time>2019-06-28T23:44:37Z</time>
      </trkpt>
      <trkpt lat="45.64911" lon="4.59115">
        <ele>735</ele>
        <time>2019-06-28T23:44:43Z</time>
      </trkpt>
      <trkpt lat="45.64882" lon="4.59139">
        <ele>734</ele>
        <time>2019-06-28T23:44:51Z</time>
      </trkpt>
      <trkpt lat="45.6481" lon="4.59164">
        <ele>742</ele>
        <time>2019-06-28T23:45:08Z</time>
      </trkpt>
      <trkpt lat="45.64796" lon="4.59185">
        <ele>743</ele>
        <time>2019-06-28T23:45:13Z</time>
      </trkpt>
      <trkpt lat="45.64775" lon="4.5925">
        <ele>740</ele>
        <time>2019-06-28T23:45:25Z</time>
      </trkpt>
      <trkpt lat="45.6476" lon="4.59262">
        <ele>744</ele>
        <time>2019-06-28T23:45:29Z</time>
      </trkpt>
      <trkpt lat="45.64706" lon="4.59218">
        <ele>759</ele>
        <time>2019-06-28T23:45:43Z</time>
      </trkpt>
      <trkpt lat="45.64653" lon="4.59137">
        <ele>777</ele>
        <time>2019-06-28T23:46:01Z</time>
      </trkpt>
      <trkpt lat="45.6463" lon="4.59182">
        <ele>776</ele>
        <time>2019-06-28T23:46:10Z</time>
      </trkpt>
      <trkpt lat="45.6463" lon="4.59237">
        <ele>772</ele>
        <time>2019-06-28T23:46:19Z</time>
      </trkpt>
      <trkpt lat="45.64621" lon="4.59303">
        <ele>772</ele>
        <time>2019-06-28T23:46:30Z</time>
      </trkpt>
      <trkpt lat="45.64591" lon="4.59346">
        <ele>778</ele>
        <time>2019-06-28T23:46:40Z</time>
      </trkpt>
      <trkpt lat="45.64549" lon="4.59367">
        <ele>786</ele>
        <time>2019-06-28T23:46:51Z</time>
      </trkpt>
      <trkpt lat="45.64515" lon="4.5937">
        <ele>793</ele>
        <time>2019-06-28T23:46:59Z</time>
      </trkpt>
      <trkpt lat="45.64476" lon="4.59401">
        <ele>799</ele>
        <time>2019-06-28T23:47:09Z</time>
      </trkpt>
      <trkpt lat="45.64418" lon="4.59465">
        <ele>812</ele>
        <time>2019-06-28T23:47:26Z</time>
      </trkpt>
      <trkpt lat="45.64387" lon="4.5954">
        <ele>820</ele>
        <time>2019-06-28T23:47:40Z</time>
      </trkpt>
      <trkpt lat="45.64352" lon="4.59681">
        <ele>829</ele>
        <time>2019-06-28T23:48:05Z</time>
      </trkpt>
      <trkpt lat="45.64321" lon="4.59692">
        <ele>836</ele>
        <time>2019-06-28T23:48:12Z</time>
      </trkpt>
      <trkpt lat="45.64292" lon="4.59717">
        <ele>836</ele>
        <time>2019-06-28T23:48:20Z</time>
      </trkpt>
      <trkpt lat="45.64256" lon="4.59727">
        <ele>839</ele>
        <time>2019-06-28T23:48:29Z</time>
      </trkpt>
      <trkpt lat="45.64235" lon="4.59718">
        <ele>842</ele>
        <time>2019-06-28T23:48:34Z</time>
      </trkpt>
      <trkpt lat="45.6421" lon="4.59718">
        <ele>844</ele>
        <time>2019-06-28T23:48:40Z</time>
      </trkpt>
      <trkpt lat="45.64175" lon="4.59732">
        <ele>840</ele>
        <time>2019-06-28T23:48:48Z</time>
      </trkpt>
      <trkpt lat="45.64146" lon="4.59725">
        <ele>844</ele>
        <time>2019-06-28T23:48:55Z</time>
      </trkpt>
      <trkpt lat="45.64052" lon="4.59722">
        <ele>850</ele>
        <time>2019-06-28T23:49:17Z</time>
      </trkpt>
      <trkpt lat="45.63998" lon="4.5973">
        <ele>848</ele>
        <time>2019-06-28T23:49:30Z</time>
      </trkpt>
      <trkpt lat="45.6396" lon="4.59732">
        <ele>847</ele>
        <time>2019-06-28T23:49:39Z</time>
      </trkpt>
      <trkpt lat="45.63737" lon="4.59677">
        <ele>852</ele>
        <time>2019-06-28T23:50:31Z</time>
      </trkpt>
      <trkpt lat="45.63702" lon="4.59675">
        <ele>854</ele>
        <time>2019-06-28T23:50:40Z</time>
      </trkpt>
      <trkpt lat="45.63652" lon="4.59684">
        <ele>856</ele>
        <time>2019-06-28T23:50:51Z</time>
      </trkpt>
      <trkpt lat="45.63612" lon="4.597">
        <ele>858</ele>
        <time>2019-06-28T23:51:01Z</time>
      </trkpt>
      <trkpt lat="45.63603" lon="4.597">
        <ele>859</ele>
        <time>2019-06-28T23:51:03Z</time>
      </trkpt>
      <trkpt lat="45.63578" lon="4.59678">
        <ele>861</ele>
        <time>2019-06-28T23:51:10Z</time>
      </trkpt>
      <trkpt lat="45.63566" lon="4.59639">
        <ele>862</ele>
        <time>2019-06-28T23:51:17Z</time>
      </trkpt>
      <trkpt lat="45.63557" lon="4.5962">
        <ele>862</ele>
        <time>2019-06-28T23:51:21Z</time>
      </trkpt>
      <trkpt lat="45.63534" lon="4.59588">
        <ele>860</ele>
        <time>2019-06-28T23:51:28Z</time>
      </trkpt>
      <trkpt lat="45.63526" lon="4.59569">
        <ele>859</ele>
        <time>2019-06-28T23:51:32Z</time>
      </trkpt>
      <trkpt lat="45.63522" lon="4.59553">
        <ele>859</ele>
        <time>2019-06-28T23:51:35Z</time>
      </trkpt>
      <trkpt lat="45.63516" lon="4.59491">
        <ele>858</ele>
        <time>2019-06-28T23:51:45Z</time>
      </trkpt>
      <trkpt lat="45.63507" lon="4.59466">
        <ele>856</ele>
        <time>2019-06-28T23:51:50Z</time>
      </trkpt>
      <trkpt lat="45.63502" lon="4.59467">
        <ele>855</ele>
        <time>2019-06-28T23:51:51Z</time>
      </trkpt>
      <trkpt lat="45.63491" lon="4.59498">
        <ele>854</ele>
        <time>2019-06-28T23:51:56Z</time>
      </trkpt>
      <trkpt lat="45.63478" lon="4.59515">
        <ele>854</ele>
        <time>2019-06-28T23:52:00Z</time>
      </trkpt>
      <trkpt lat="45.63469" lon="4.59525">
        <ele>854</ele>
        <time>2019-06-28T23:52:03Z</time>
      </trkpt>
      <trkpt lat="45.63449" lon="4.59536">
        <ele>854</ele>
        <time>2019-06-28T23:52:08Z</time>
      </trkpt>
      <trkpt lat="45.63441" lon="4.59522">
        <ele>852</ele>
        <time>2019-06-28T23:52:11Z</time>
      </trkpt>
      <trkpt lat="45.63338" lon="4.59464">
        <ele>845</ele>
        <time>2019-06-28T23:52:37Z</time>
      </trkpt>
      <trkpt lat="45.63224" lon="4.59388">
        <ele>842</ele>
        <time>2019-06-28T23:53:06Z</time>
      </trkpt>
      <trkpt lat="45.63182" lon="4.59363">
        <ele>841</ele>
        <time>2019-06-28T23:53:17Z</time>
      </trkpt>
      <trkpt lat="45.6318" lon="4.59353">
        <ele>840</ele>
        <time>2019-06-28T23:53:19Z</time>
      </trkpt>
      <trkpt lat="45.632" lon="4.59307">
        <ele>834</ele>
        <time>2019-06-28T23:53:27Z</time>
      </trkpt>
      <trkpt lat="45.6321" lon="4.59295">
        <ele>832</ele>
        <time>2019-06-28T23:53:31Z</time>
      </trkpt>
      <trkpt lat="45.63251" lon="4.59265">
        <ele>826</ele>
        <time>2019-06-28T23:53:41Z</time>
      </trkpt>
      <trkpt lat="45.63335" lon="4.59229">
        <ele>821</ele>
        <time>2019-06-28T23:54:02Z</time>
      </trkpt>
      <trkpt lat="45.63356" lon="4.59189">
        <ele>824</ele>
        <time>2019-06-28T23:54:10Z</time>
      </trkpt>
      <trkpt lat="45.63365" lon="4.59163">
        <ele>825</ele>
        <time>2019-06-28T23:54:15Z</time>
      </trkpt>
      <trkpt lat="45.6337" lon="4.59137">
        <ele>826</ele>
        <time>2019-06-28T23:54:19Z</time>
      </trkpt>
      <trkpt lat="45.63369" lon="4.59046">
        <ele>824</ele>
        <time>2019-06-28T23:54:34Z</time>
      </trkpt>
      <trkpt lat="45.63384" lon="4.58955">
        <ele>824</ele>
        <time>2019-06-28T23:54:49Z</time>
      </trkpt>
      <trkpt lat="45.63392" lon="4.5895">
        <ele>826</ele>
        <time>2019-06-28T23:54:51Z</time>
      </trkpt>
      <trkpt lat="45.63464" lon="4.58925">
        <ele>841</ele>
        <time>2019-06-28T23:55:09Z</time>
      </trkpt>
      <trkpt lat="45.63481" lon="4.58924">
        <ele>845</ele>
        <time>2019-06-28T23:55:13Z</time>
      </trkpt>
      <trkpt lat="45.63489" lon="4.58864">
        <ele>847</ele>
        <time>2019-06-28T23:55:22Z</time>
      </trkpt>
      <trkpt lat="45.63496" lon="4.58832">
        <ele>849</ele>
        <time>2019-06-28T23:55:28Z</time>
      </trkpt>
      <trkpt lat="45.63476" lon="4.58764">
        <ele>848</ele>
        <time>2019-06-28T23:55:40Z</time>
      </trkpt>
      <trkpt lat="45.634" lon="4.58398">
        <ele>832</ele>
        <time>2019-06-28T23:56:42Z</time>
      </trkpt>
      <trkpt lat="45.63386" lon="4.58297">
        <ele>835</ele>
        <time>2019-06-28T23:56:59Z</time>
      </trkpt>
      <trkpt lat="45.63385" lon="4.58222">
        <ele>835</ele>
        <time>2019-06-28T23:57:11Z</time>
      </trkpt>
      <trkpt lat="45.63376" lon="4.58198">
        <ele>834</ele>
        <time>2019-06-28T23:57:16Z</time>
      </trkpt>
      <trkpt lat="45.63352" lon="4.58159">
        <ele>831</ele>
        <time>2019-06-28T23:57:24Z</time>
      </trkpt>
      <trkpt lat="45.63326" lon="4.58139">
        <ele>827</ele>
        <time>2019-06-28T23:57:31Z</time>
      </trkpt>
      <trkpt lat="45.63284" lon="4.58063">
        <ele>815</ele>
        <time>2019-06-28T23:57:47Z</time>
      </trkpt>
      <trkpt lat="45.63259" lon="4.5804">
        <ele>810</ele>
        <time>2019-06-28T23:57:54Z</time>
      </trkpt>
      <trkpt lat="45.63198" lon="4.57864">
        <ele>791</ele>
        <time>2019-06-28T23:58:26Z</time>
      </trkpt>
      <trkpt lat="45.63152" lon="4.57682">
        <ele>772</ele>
        <time>2019-06-28T23:58:58Z</time>
      </trkpt>
      <trkpt lat="45.63149" lon="4.57609">
        <ele>768</ele>
        <time>2019-06-28T23:59:10Z</time>
      </trkpt>
      <trkpt lat="45.6314" lon="4.57573">
        <ele>765</ele>
        <time>2019-06-28T23:59:16Z</time>
      </trkpt>
      <trkpt lat="45.63134" lon="4.57567">
        <ele>765</ele>
        <time>2019-06-28T23:59:18Z</time>
      </trkpt>
      <trkpt lat="45.63115" lon="4.57565">
        <ele>764</ele>
        <time>2019-06-28T23:59:22Z</time>
      </trkpt>
      <trkpt lat="45.63096" lon="4.57555">
        <ele>763</ele>
        <time>2019-06-28T23:59:27Z</time>
      </trkpt>
      <trkpt lat="45.63051" lon="4.57605">
        <ele>762</ele>
        <time>2019-06-28T23:59:40Z</time>
      </trkpt>
      <trkpt lat="45.63021" lon="4.57652">
        <ele>763</ele>
        <time>2019-06-28T23:59:50Z</time>
      </trkpt>
      <trkpt lat="45.62945" lon="4.57732">
        <ele>764</ele>
        <time>2019-06-29T00:00:13Z</time>
      </trkpt>
      <trkpt lat="45.62922" lon="4.57769">
        <ele>763</ele>
        <time>2019-06-29T00:00:21Z</time>
      </trkpt>
      <trkpt lat="45.62908" lon="4.5782">
        <ele>761</ele>
        <time>2019-06-29T00:00:30Z</time>
      </trkpt>
      <trkpt lat="45.62897" lon="4.57955">
        <ele>757</ele>
        <time>2019-06-29T00:00:52Z</time>
      </trkpt>
      <trkpt lat="45.62904" lon="4.58109">
        <ele>752</ele>
        <time>2019-06-29T00:01:17Z</time>
      </trkpt>
      <trkpt lat="45.62916" lon="4.58209">
        <ele>751</ele>
        <time>2019-06-29T00:01:34Z</time>
      </trkpt>
      <trkpt lat="45.629" lon="4.58264">
        <ele>750</ele>
        <time>2019-06-29T00:01:43Z</time>
      </trkpt>
      <trkpt lat="45.6289" lon="4.58276">
        <ele>749</ele>
        <time>2019-06-29T00:01:46Z</time>
      </trkpt>
      <trkpt lat="45.62869" lon="4.58286">
        <ele>749</ele>
        <time>2019-06-29T00:01:51Z</time>
      </trkpt>
      <trkpt lat="45.62856" lon="4.58282">
        <ele>748</ele>
        <time>2019-06-29T00:01:55Z</time>
      </trkpt>
      <trkpt lat="45.6282" lon="4.58262">
        <ele>749</ele>
        <time>2019-06-29T00:02:04Z</time>
      </trkpt>
      <trkpt lat="45.628" lon="4.58263">
        <ele>751</ele>
        <time>2019-06-29T00:02:08Z</time>
      </trkpt>
      <trkpt lat="45.62754" lon="4.58254">
        <ele>757</ele>
        <time>2019-06-29T00:02:19Z</time>
      </trkpt>
      <trkpt lat="45.62701" lon="4.58086">
        <ele>757</ele>
        <time>2019-06-29T00:02:49Z</time>
      </trkpt>
      <trkpt lat="45.6268" lon="4.58001">
        <ele>753</ele>
        <time>2019-06-29T00:03:04Z</time>
      </trkpt>
      <trkpt lat="45.62639" lon="4.57923">
        <ele>751</ele>
        <time>2019-06-29T00:03:20Z</time>
      </trkpt>
      <trkpt lat="45.62633" lon="4.57887">
        <ele>750</ele>
        <time>2019-06-29T00:03:26Z</time>
      </trkpt>
      <trkpt lat="45.62624" lon="4.57856">
        <ele>750</ele>
        <time>2019-06-29T00:03:31Z</time>
      </trkpt>
      <trkpt lat="45.62606" lon="4.57829">
        <ele>751</ele>
        <time>2019-06-29T00:03:37Z</time>
      </trkpt>
      <trkpt lat="45.62605" lon="4.57803">
        <ele>751</ele>
        <time>2019-06-29T00:03:42Z</time>
      </trkpt>
      <trkpt lat="45.626" lon="4.57773">
        <ele>751</ele>
        <time>2019-06-29T00:03:47Z</time>
      </trkpt>
      <trkpt lat="45.62595" lon="4.5776">
        <ele>751</ele>
        <time>2019-06-29T00:03:49Z</time>
      </trkpt>
      <trkpt lat="45.6256" lon="4.57704">
        <ele>758</ele>
        <time>2019-06-29T00:04:01Z</time>
      </trkpt>
      <trkpt lat="45.62541" lon="4.57664">
        <ele>760</ele>
        <time>2019-06-29T00:04:09Z</time>
      </trkpt>
      <trkpt lat="45.62541" lon="4.57646">
        <ele>761</ele>
        <time>2019-06-29T00:04:12Z</time>
      </trkpt>
      <trkpt lat="45.62548" lon="4.57629">
        <ele>760</ele>
        <time>2019-06-29T00:04:16Z</time>
      </trkpt>
      <trkpt lat="45.62572" lon="4.57591">
        <ele>760</ele>
        <time>2019-06-29T00:04:24Z</time>
      </trkpt>
      <trkpt lat="45.62576" lon="4.57581">
        <ele>760</ele>
        <time>2019-06-29T00:04:26Z</time>
      </trkpt>
      <trkpt lat="45.62575" lon="4.57572">
        <ele>761</ele>
        <time>2019-06-29T00:04:27Z</time>
      </trkpt>
      <trkpt lat="45.62572" lon="4.5757">
        <ele>761</ele>
        <time>2019-06-29T00:04:28Z</time>
      </trkpt>
      <trkpt lat="45.62564" lon="4.57578">
        <ele>761</ele>
        <time>2019-06-29T00:04:30Z</time>
      </trkpt>
      <trkpt lat="45.62551" lon="4.57583">
        <ele>762</ele>
        <time>2019-06-29T00:04:33Z</time>
      </trkpt>
      <trkpt lat="45.62517" lon="4.57588">
        <ele>763</ele>
        <time>2019-06-29T00:04:41Z</time>
      </trkpt>
      <trkpt lat="45.62486" lon="4.57605">
        <ele>766</ele>
        <time>2019-06-29T00:04:49Z</time>
      </trkpt>
      <trkpt lat="45.62474" lon="4.57615">
        <ele>767</ele>
        <time>2019-06-29T00:04:52Z</time>
      </trkpt>
      <trkpt lat="45.62458" lon="4.57618">
        <ele>769</ele>
        <time>2019-06-29T00:04:56Z</time>
      </trkpt>
      <trkpt lat="45.6244" lon="4.57605">
        <ele>770</ele>
        <time>2019-06-29T00:05:01Z</time>
      </trkpt>
      <trkpt lat="45.62346" lon="4.57681">
        <ele>787</ele>
        <time>2019-06-29T00:05:26Z</time>
      </trkpt>
      <trkpt lat="45.62286" lon="4.57726">
        <ele>799</ele>
        <time>2019-06-29T00:05:42Z</time>
      </trkpt>
      <trkpt lat="45.62261" lon="4.57742">
        <ele>804</ele>
        <time>2019-06-29T00:05:48Z</time>
      </trkpt>
      <trkpt lat="45.62214" lon="4.57782">
        <ele>815</ele>
        <time>2019-06-29T00:06:01Z</time>
      </trkpt>
      <trkpt lat="45.62134" lon="4.57874">
        <ele>835</ele>
        <time>2019-06-29T00:06:25Z</time>
      </trkpt>
      <trkpt lat="45.62128" lon="4.57878">
        <ele>836</ele>
        <time>2019-06-29T00:06:27Z</time>
      </trkpt>
      <trkpt lat="45.62119" lon="4.57878">
        <ele>837</ele>
        <time>2019-06-29T00:06:29Z</time>
      </trkpt>
      <trkpt lat="45.62087" lon="4.57861">
        <ele>839</ele>
        <time>2019-06-29T00:06:37Z</time>
      </trkpt>
      <trkpt lat="45.6208" lon="4.57861">
        <ele>840</ele>
        <time>2019-06-29T00:06:38Z</time>
      </trkpt>
      <trkpt lat="45.62064" lon="4.57884">
        <ele>843</ele>
        <time>2019-06-29T00:06:44Z</time>
      </trkpt>
      <trkpt lat="45.62025" lon="4.57954">
        <ele>847</ele>
        <time>2019-06-29T00:06:58Z</time>
      </trkpt>
      <trkpt lat="45.6199" lon="4.57985">
        <ele>847</ele>
        <time>2019-06-29T00:07:08Z</time>
      </trkpt>
      <trkpt lat="45.61947" lon="4.58011">
        <ele>844</ele>
        <time>2019-06-29T00:07:19Z</time>
      </trkpt>
      <trkpt lat="45.61937" lon="4.58021">
        <ele>843</ele>
        <time>2019-06-29T00:07:22Z</time>
      </trkpt>
      <trkpt lat="45.61898" lon="4.58084">
        <ele>834</ele>
        <time>2019-06-29T00:07:35Z</time>
      </trkpt>
      <trkpt lat="45.61893" lon="4.5809">
        <ele>833</ele>
        <time>2019-06-29T00:07:37Z</time>
      </trkpt>
      <trkpt lat="45.6188" lon="4.58092">
        <ele>831</ele>
        <time>2019-06-29T00:07:40Z</time>
      </trkpt>
      <trkpt lat="45.61857" lon="4.58081">
        <ele>829</ele>
        <time>2019-06-29T00:07:46Z</time>
      </trkpt>
      <trkpt lat="45.61833" lon="4.58062">
        <ele>828</ele>
        <time>2019-06-29T00:07:52Z</time>
      </trkpt>
      <trkpt lat="45.61824" lon="4.58046">
        <ele>828</ele>
        <time>2019-06-29T00:07:55Z</time>
      </trkpt>
      <trkpt lat="45.61815" lon="4.58036">
        <ele>827</ele>
        <time>2019-06-29T00:07:58Z</time>
      </trkpt>
      <trkpt lat="45.61795" lon="4.58027">
        <ele>824</ele>
        <time>2019-06-29T00:08:03Z</time>
      </trkpt>
      <trkpt lat="45.61758" lon="4.57973">
        <ele>820</ele>
        <time>2019-06-29T00:08:15Z</time>
      </trkpt>
      <trkpt lat="45.61691" lon="4.57865">
        <ele>811</ele>
        <time>2019-06-29T00:08:39Z</time>
      </trkpt>
      <trkpt lat="45.6165" lon="4.57834">
        <ele>806</ele>
        <time>2019-06-29T00:08:50Z</time>
      </trkpt>
      <trkpt lat="45.61576" lon="4.57824">
        <ele>796</ele>
        <time>2019-06-29T00:09:07Z</time>
      </trkpt>
      <trkpt lat="45.61571" lon="4.57825">
        <ele>795</ele>
        <time>2019-06-29T00:09:08Z</time>
      </trkpt>
      <trkpt lat="45.61568" lon="4.57829">
        <ele>794</ele>
        <time>2019-06-29T00:09:09Z</time>
      </trkpt>
      <trkpt lat="45.61566" lon="4.5784">
        <ele>792</ele>
        <time>2019-06-29T00:09:11Z</time>
      </trkpt>
      <trkpt lat="45.61571" lon="4.57846">
        <ele>792</ele>
        <time>2019-06-29T00:09:13Z</time>
      </trkpt>
      <trkpt lat="45.61591" lon="4.57856">
        <ele>794</ele>
        <time>2019-06-29T00:09:17Z</time>
      </trkpt>
      <trkpt lat="45.61594" lon="4.5787">
        <ele>793</ele>
        <time>2019-06-29T00:09:20Z</time>
      </trkpt>
      <trkpt lat="45.61548" lon="4.57849">
        <ele>788</ele>
        <time>2019-06-29T00:09:31Z</time>
      </trkpt>
      <trkpt lat="45.61536" lon="4.57834">
        <ele>787</ele>
        <time>2019-06-29T00:09:35Z</time>
      </trkpt>
      <trkpt lat="45.61519" lon="4.57805">
        <ele>787</ele>
        <time>2019-06-29T00:09:41Z</time>
      </trkpt>
      <trkpt lat="45.615" lon="4.57761">
        <ele>787</ele>
        <time>2019-06-29T00:09:50Z</time>
      </trkpt>
      <trkpt lat="45.61472" lon="4.57627">
        <ele>787</ele>
        <time>2019-06-29T00:10:12Z</time>
      </trkpt>
      <trkpt lat="45.61434" lon="4.57509">
        <ele>781</ele>
        <time>2019-06-29T00:10:34Z</time>
      </trkpt>
      <trkpt lat="45.61394" lon="4.57423">
        <ele>774</ele>
        <time>2019-06-29T00:10:50Z</time>
      </trkpt>
      <trkpt lat="45.61381" lon="4.57407">
        <ele>772</ele>
        <time>2019-06-29T00:10:54Z</time>
      </trkpt>
      <trkpt lat="45.61339" lon="4.57418">
        <ele>766</ele>
        <time>2019-06-29T00:11:04Z</time>
      </trkpt>
      <trkpt lat="45.61286" lon="4.57422">
        <ele>759</ele>
        <time>2019-06-29T00:11:17Z</time>
      </trkpt>
      <trkpt lat="45.61269" lon="4.57429">
        <ele>757</ele>
        <time>2019-06-29T00:11:21Z</time>
      </trkpt>
      <trkpt lat="45.61243" lon="4.57451">
        <ele>753</ele>
        <time>2019-06-29T00:11:28Z</time>
      </trkpt>
      <trkpt lat="45.61224" lon="4.5748">
        <ele>750</ele>
        <time>2019-06-29T00:11:35Z</time>
      </trkpt>
      <trkpt lat="45.61198" lon="4.57494">
        <ele>748</ele>
        <time>2019-06-29T00:11:41Z</time>
      </trkpt>
      <trkpt lat="45.61175" lon="4.57499">
        <ele>746</ele>
        <time>2019-06-29T00:11:46Z</time>
      </trkpt>
      <trkpt lat="45.6117" lon="4.57512">
        <ele>746</ele>
        <time>2019-06-29T00:11:49Z</time>
      </trkpt>
      <trkpt lat="45.61161" lon="4.57526">
        <ele>746</ele>
        <time>2019-06-29T00:11:52Z</time>
      </trkpt>
      <trkpt lat="45.61141" lon="4.57534">
        <ele>746</ele>
        <time>2019-06-29T00:11:57Z</time>
      </trkpt>
      <trkpt lat="45.61047" lon="4.57601">
        <ele>760</ele>
        <time>2019-06-29T00:12:21Z</time>
      </trkpt>
      <trkpt lat="45.60988" lon="4.57618">
        <ele>771</ele>
        <time>2019-06-29T00:12:35Z</time>
      </trkpt>
      <trkpt lat="45.60955" lon="4.57611">
        <ele>775</ele>
        <time>2019-06-29T00:12:43Z</time>
      </trkpt>
      <trkpt lat="45.60843" lon="4.57607">
        <ele>790</ele>
        <time>2019-06-29T00:13:09Z</time>
      </trkpt>
      <trkpt lat="45.60815" lon="4.5762">
        <ele>795</ele>
        <time>2019-06-29T00:13:16Z</time>
      </trkpt>
      <trkpt lat="45.60777" lon="4.57647">
        <ele>802</ele>
        <time>2019-06-29T00:13:26Z</time>
      </trkpt>
      <trkpt lat="45.60741" lon="4.57717">
        <ele>813</ele>
        <time>2019-06-29T00:13:40Z</time>
      </trkpt>
      <trkpt lat="45.6071" lon="4.57798">
        <ele>820</ele>
        <time>2019-06-29T00:13:55Z</time>
      </trkpt>
      <trkpt lat="45.60643" lon="4.57727">
        <ele>816</ele>
        <time>2019-06-29T00:14:15Z</time>
      </trkpt>
      <trkpt lat="45.60635" lon="4.57715">
        <ele>815</ele>
        <time>2019-06-29T00:14:18Z</time>
      </trkpt>
      <trkpt lat="45.60625" lon="4.57677">
        <ele>813</ele>
        <time>2019-06-29T00:14:24Z</time>
      </trkpt>
      <trkpt lat="45.60598" lon="4.576">
        <ele>813</ele>
        <time>2019-06-29T00:14:38Z</time>
      </trkpt>
      <trkpt lat="45.60566" lon="4.57533">
        <ele>810</ele>
        <time>2019-06-29T00:14:52Z</time>
      </trkpt>
      <trkpt lat="45.60555" lon="4.57495">
        <ele>807</ele>
        <time>2019-06-29T00:14:58Z</time>
      </trkpt>
      <trkpt lat="45.60548" lon="4.57382">
        <ele>802</ele>
        <time>2019-06-29T00:15:17Z</time>
      </trkpt>
      <trkpt lat="45.60547" lon="4.57319">
        <ele>803</ele>
        <time>2019-06-29T00:15:27Z</time>
      </trkpt>
      <trkpt lat="45.60549" lon="4.5726">
        <ele>805</ele>
        <time>2019-06-29T00:15:37Z</time>
      </trkpt>
      <trkpt lat="45.60569" lon="4.57167">
        <ele>804</ele>
        <time>2019-06-29T00:15:53Z</time>
      </trkpt>
      <trkpt lat="45.60571" lon="4.57124">
        <ele>802</ele>
        <time>2019-06-29T00:16:00Z</time>
      </trkpt>
      <trkpt lat="45.60571" lon="4.57074">
        <ele>800</ele>
        <time>2019-06-29T00:16:08Z</time>
      </trkpt>
      <trkpt lat="45.6056" lon="4.57031">
        <ele>799</ele>
        <time>2019-06-29T00:16:15Z</time>
      </trkpt>
      <trkpt lat="45.6055" lon="4.57008">
        <ele>799</ele>
        <time>2019-06-29T00:16:20Z</time>
      </trkpt>
      <trkpt lat="45.60518" lon="4.56966">
        <ele>796</ele>
        <time>2019-06-29T00:16:30Z</time>
      </trkpt>
      <trkpt lat="45.60458" lon="4.56927">
        <ele>787</ele>
        <time>2019-06-29T00:16:45Z</time>
      </trkpt>
      <trkpt lat="45.60417" lon="4.56936">
        <ele>784</ele>
        <time>2019-06-29T00:16:55Z</time>
      </trkpt>
      <trkpt lat="45.60357" lon="4.57004">
        <ele>779</ele>
        <time>2019-06-29T00:17:13Z</time>
      </trkpt>
      <trkpt lat="45.6035" lon="4.57003">
        <ele>777</ele>
        <time>2019-06-29T00:17:15Z</time>
      </trkpt>
      <trkpt lat="45.6035" lon="4.5698">
        <ele>775</ele>
        <time>2019-06-29T00:17:18Z</time>
      </trkpt>
      <trkpt lat="45.6032" lon="4.57013">
        <ele>770</ele>
        <time>2019-06-29T00:17:27Z</time>
      </trkpt>
      <trkpt lat="45.60299" lon="4.57076">
        <ele>769</ele>
        <time>2019-06-29T00:17:39Z</time>
      </trkpt>
      <trkpt lat="45.6025" lon="4.57152">
        <ele>765</ele>
        <time>2019-06-29T00:17:55Z</time>
      </trkpt>
      <trkpt lat="45.60226" lon="4.57203">
        <ele>767</ele>
        <time>2019-06-29T00:18:05Z</time>
      </trkpt>
      <trkpt lat="45.60205" lon="4.57262">
        <ele>766</ele>
        <time>2019-06-29T00:18:16Z</time>
      </trkpt>
      <trkpt lat="45.60198" lon="4.57398">
        <ele>766</ele>
        <time>2019-06-29T00:18:39Z</time>
      </trkpt>
      <trkpt lat="45.60199" lon="4.57456">
        <ele>764</ele>
        <time>2019-06-29T00:18:48Z</time>
      </trkpt>
      <trkpt lat="45.60237" lon="4.57587">
        <ele>756</ele>
        <time>2019-06-29T00:19:11Z</time>
      </trkpt>
      <trkpt lat="45.60247" lon="4.57634">
        <ele>756</ele>
        <time>2019-06-29T00:19:19Z</time>
      </trkpt>
      <trkpt lat="45.60202" lon="4.57595">
        <ele>747</ele>
        <time>2019-06-29T00:19:31Z</time>
      </trkpt>
      <trkpt lat="45.60189" lon="4.57581">
        <ele>745</ele>
        <time>2019-06-29T00:19:35Z</time>
      </trkpt>
      <trkpt lat="45.60151" lon="4.57521">
        <ele>743</ele>
        <time>2019-06-29T00:19:49Z</time>
      </trkpt>
      <trkpt lat="45.60107" lon="4.57396">
        <ele>733</ele>
        <time>2019-06-29T00:20:11Z</time>
      </trkpt>
      <trkpt lat="45.60062" lon="4.57293">
        <ele>720</ele>
        <time>2019-06-29T00:20:31Z</time>
      </trkpt>
      <trkpt lat="45.60058" lon="4.5725">
        <ele>720</ele>
        <time>2019-06-29T00:20:38Z</time>
      </trkpt>
      <trkpt lat="45.60048" lon="4.57206">
        <ele>717</ele>
        <time>2019-06-29T00:20:46Z</time>
      </trkpt>
      <trkpt lat="45.60034" lon="4.57162">
        <ele>713</ele>
        <time>2019-06-29T00:20:54Z</time>
      </trkpt>
      <trkpt lat="45.60003" lon="4.57084">
        <ele>706</ele>
        <time>2019-06-29T00:21:08Z</time>
      </trkpt>
      <trkpt lat="45.59989" lon="4.5706">
        <ele>704</ele>
        <time>2019-06-29T00:21:14Z</time>
      </trkpt>
      <trkpt lat="45.59978" lon="4.57052">
        <ele>703</ele>
        <time>2019-06-29T00:21:16Z</time>
      </trkpt>
      <trkpt lat="45.59963" lon="4.57053">
        <ele>701</ele>
        <time>2019-06-29T00:21:20Z</time>
      </trkpt>
      <trkpt lat="45.59954" lon="4.57039">
        <ele>701</ele>
        <time>2019-06-29T00:21:23Z</time>
      </trkpt>
      <trkpt lat="45.5995" lon="4.57019">
        <ele>701</ele>
        <time>2019-06-29T00:21:26Z</time>
      </trkpt>
      <trkpt lat="45.59928" lon="4.57037">
        <ele>699</ele>
        <time>2019-06-29T00:21:32Z</time>
      </trkpt>
      <trkpt lat="45.59913" lon="4.57059">
        <ele>697</ele>
        <time>2019-06-29T00:21:37Z</time>
      </trkpt>
      <trkpt lat="45.59884" lon="4.57079">
        <ele>696</ele>
        <time>2019-06-29T00:21:45Z</time>
      </trkpt>
      <trkpt lat="45.59891" lon="4.57089">
        <ele>695</ele>
        <time>2019-06-29T00:21:47Z</time>
      </trkpt>
      <trkpt lat="45.59933" lon="4.57101">
        <ele>696</ele>
        <time>2019-06-29T00:21:57Z</time>
      </trkpt>
      <trkpt lat="45.59945" lon="4.57125">
        <ele>695</ele>
        <time>2019-06-29T00:22:02Z</time>
      </trkpt>
      <trkpt lat="45.59967" lon="4.57212">
        <ele>693</ele>
        <time>2019-06-29T00:22:17Z</time>
      </trkpt>
      <trkpt lat="45.5997" lon="4.57254">
        <ele>691</ele>
        <time>2019-06-29T00:22:24Z</time>
      </trkpt>
      <trkpt lat="45.5997" lon="4.57299">
        <ele>687</ele>
        <time>2019-06-29T00:22:31Z</time>
      </trkpt>
      <trkpt lat="45.59998" lon="4.57392">
        <ele>694</ele>
        <time>2019-06-29T00:22:48Z</time>
      </trkpt>
      <trkpt lat="45.60004" lon="4.57463">
        <ele>692</ele>
        <time>2019-06-29T00:23:00Z</time>
      </trkpt>
      <trkpt lat="45.60015" lon="4.57531">
        <ele>689</ele>
        <time>2019-06-29T00:23:11Z</time>
      </trkpt>
      <trkpt lat="45.60032" lon="4.57589">
        <ele>687</ele>
        <time>2019-06-29T00:23:21Z</time>
      </trkpt>
      <trkpt lat="45.60052" lon="4.5763">
        <ele>688</ele>
        <time>2019-06-29T00:23:29Z</time>
      </trkpt>
      <trkpt lat="45.60093" lon="4.577">
        <ele>692</ele>
        <time>2019-06-29T00:23:44Z</time>
      </trkpt>
      <trkpt lat="45.60103" lon="4.57743">
        <ele>689</ele>
        <time>2019-06-29T00:23:52Z</time>
      </trkpt>
      <trkpt lat="45.60105" lon="4.57768">
        <ele>690</ele>
        <time>2019-06-29T00:23:56Z</time>
      </trkpt>
      <trkpt lat="45.60101" lon="4.57792">
        <ele>690</ele>
        <time>2019-06-29T00:24:00Z</time>
      </trkpt>
      <trkpt lat="45.60086" lon="4.57812">
        <ele>685</ele>
        <time>2019-06-29T00:24:05Z</time>
      </trkpt>
      <trkpt lat="45.6007" lon="4.57823">
        <ele>680</ele>
        <time>2019-06-29T00:24:09Z</time>
      </trkpt>
      <trkpt lat="45.60054" lon="4.57838">
        <ele>676</ele>
        <time>2019-06-29T00:24:13Z</time>
      </trkpt>
      <trkpt lat="45.60035" lon="4.57873">
        <ele>673</ele>
        <time>2019-06-29T00:24:21Z</time>
      </trkpt>
      <trkpt lat="45.60031" lon="4.57888">
        <ele>673</ele>
        <time>2019-06-29T00:24:23Z</time>
      </trkpt>
      <trkpt lat="45.60028" lon="4.58014">
        <ele>675</ele>
        <time>2019-06-29T00:24:44Z</time>
      </trkpt>
      <trkpt lat="45.60033" lon="4.5806">
        <ele>677</ele>
        <time>2019-06-29T00:24:51Z</time>
      </trkpt>
      <trkpt lat="45.60028" lon="4.58093">
        <ele>674</ele>
        <time>2019-06-29T00:24:57Z</time>
      </trkpt>
      <trkpt lat="45.60028" lon="4.58137">
        <ele>676</ele>
        <time>2019-06-29T00:25:04Z</time>
      </trkpt>
      <trkpt lat="45.60024" lon="4.58173">
        <ele>675</ele>
        <time>2019-06-29T00:25:10Z</time>
      </trkpt>
      <trkpt lat="45.60027" lon="4.58199">
        <ele>676</ele>
        <time>2019-06-29T00:25:14Z</time>
      </trkpt>
      <trkpt lat="45.60021" lon="4.58298">
        <ele>670</ele>
        <time>2019-06-29T00:25:31Z</time>
      </trkpt>
      <trkpt lat="45.60024" lon="4.58356">
        <ele>669</ele>
        <time>2019-06-29T00:25:40Z</time>
      </trkpt>
      <trkpt lat="45.6002" lon="4.58415">
        <ele>665</ele>
        <time>2019-06-29T00:25:50Z</time>
      </trkpt>
      <trkpt lat="45.60023" lon="4.58538">
        <ele>671</ele>
        <time>2019-06-29T00:26:10Z</time>
      </trkpt>
      <trkpt lat="45.60035" lon="4.58576">
        <ele>675</ele>
        <time>2019-06-29T00:26:17Z</time>
      </trkpt>
      <trkpt lat="45.60033" lon="4.58582">
        <ele>676</ele>
        <time>2019-06-29T00:26:18Z</time>
      </trkpt>
      <trkpt lat="45.60013" lon="4.58578">
        <ele>673</ele>
        <time>2019-06-29T00:26:23Z</time>
      </trkpt>
      <trkpt lat="45.59992" lon="4.58579">
        <ele>673</ele>
        <time>2019-06-29T00:26:27Z</time>
      </trkpt>
      <trkpt lat="45.59959" lon="4.58575">
        <ele>680</ele>
        <time>2019-06-29T00:26:35Z</time>
      </trkpt>
      <trkpt lat="45.59874" lon="4.58574">
        <ele>690</ele>
        <time>2019-06-29T00:26:55Z</time>
      </trkpt>
      <trkpt lat="45.59857" lon="4.58581">
        <ele>691</ele>
        <time>2019-06-29T00:26:59Z</time>
      </trkpt>
      <trkpt lat="45.59844" lon="4.58592">
        <ele>694</ele>
        <time>2019-06-29T00:27:03Z</time>
      </trkpt>
      <trkpt lat="45.59831" lon="4.58615">
        <ele>697</ele>
        <time>2019-06-29T00:27:07Z</time>
      </trkpt>
      <trkpt lat="45.59814" lon="4.58669">
        <ele>701</ele>
        <time>2019-06-29T00:27:17Z</time>
      </trkpt>
      <trkpt lat="45.59797" lon="4.5874">
        <ele>708</ele>
        <time>2019-06-29T00:27:29Z</time>
      </trkpt>
      <trkpt lat="45.59794" lon="4.58771">
        <ele>710</ele>
        <time>2019-06-29T00:27:35Z</time>
      </trkpt>
      <trkpt lat="45.59798" lon="4.58785">
        <ele>712</ele>
        <time>2019-06-29T00:27:37Z</time>
      </trkpt>
      <trkpt lat="45.59792" lon="4.58812">
        <ele>712</ele>
        <time>2019-06-29T00:27:42Z</time>
      </trkpt>
      <trkpt lat="45.59782" lon="4.58838">
        <ele>710</ele>
        <time>2019-06-29T00:27:46Z</time>
      </trkpt>
      <trkpt lat="45.59772" lon="4.58856">
        <ele>706</ele>
        <time>2019-06-29T00:27:50Z</time>
      </trkpt>
      <trkpt lat="45.59714" lon="4.58917">
        <ele>693</ele>
        <time>2019-06-29T00:28:07Z</time>
      </trkpt>
      <trkpt lat="45.59723" lon="4.59003">
        <ele>689</ele>
        <time>2019-06-29T00:28:21Z</time>
      </trkpt>
      <trkpt lat="45.59726" lon="4.59073">
        <ele>679</ele>
        <time>2019-06-29T00:28:33Z</time>
      </trkpt>
      <trkpt lat="45.59707" lon="4.59139">
        <ele>668</ele>
        <time>2019-06-29T00:28:44Z</time>
      </trkpt>
      <trkpt lat="45.597" lon="4.59182">
        <ele>661</ele>
        <time>2019-06-29T00:28:52Z</time>
      </trkpt>
      <trkpt lat="45.59694" lon="4.59226">
        <ele>654</ele>
        <time>2019-06-29T00:28:59Z</time>
      </trkpt>
      <trkpt lat="45.59688" lon="4.59295">
        <ele>646</ele>
        <time>2019-06-29T00:29:10Z</time>
      </trkpt>
      <trkpt lat="45.59688" lon="4.59331">
        <ele>642</ele>
        <time>2019-06-29T00:29:16Z</time>
      </trkpt>
      <trkpt lat="45.59674" lon="4.59462">
        <ele>627</ele>
        <time>2019-06-29T00:29:38Z</time>
      </trkpt>
      <trkpt lat="45.59669" lon="4.59497">
        <ele>621</ele>
        <time>2019-06-29T00:29:44Z</time>
      </trkpt>
      <trkpt lat="45.59659" lon="4.59529">
        <ele>617</ele>
        <time>2019-06-29T00:29:49Z</time>
      </trkpt>
      <trkpt lat="45.59653" lon="4.59561">
        <ele>614</ele>
        <time>2019-06-29T00:29:55Z</time>
      </trkpt>
      <trkpt lat="45.59649" lon="4.59569">
        <ele>612</ele>
        <time>2019-06-29T00:29:56Z</time>
      </trkpt>
      <trkpt lat="45.59643" lon="4.59572">
        <ele>611</ele>
        <time>2019-06-29T00:29:58Z</time>
      </trkpt>
      <trkpt lat="45.59608" lon="4.59529">
        <ele>609</ele>
        <time>2019-06-29T00:30:09Z</time>
      </trkpt>
      <trkpt lat="45.596" lon="4.59528">
        <ele>608</ele>
        <time>2019-06-29T00:30:11Z</time>
      </trkpt>
      <trkpt lat="45.59594" lon="4.59524">
        <ele>608</ele>
        <time>2019-06-29T00:30:12Z</time>
      </trkpt>
      <trkpt lat="45.59534" lon="4.59376">
        <ele>608</ele>
        <time>2019-06-29T00:30:40Z</time>
      </trkpt>
      <trkpt lat="45.59523" lon="4.59335">
        <ele>612</ele>
        <time>2019-06-29T00:30:47Z</time>
      </trkpt>
      <trkpt lat="45.59492" lon="4.59299">
        <ele>611</ele>
        <time>2019-06-29T00:30:57Z</time>
      </trkpt>
      <trkpt lat="45.59458" lon="4.59252">
        <ele>611</ele>
        <time>2019-06-29T00:31:08Z</time>
      </trkpt>
      <trkpt lat="45.59449" lon="4.5926">
        <ele>609</ele>
        <time>2019-06-29T00:31:10Z</time>
      </trkpt>
      <trkpt lat="45.59421" lon="4.59272">
        <ele>603</ele>
        <time>2019-06-29T00:31:17Z</time>
      </trkpt>
      <trkpt lat="45.59413" lon="4.59278">
        <ele>602</ele>
        <time>2019-06-29T00:31:19Z</time>
      </trkpt>
      <trkpt lat="45.59392" lon="4.59308">
        <ele>598</ele>
        <time>2019-06-29T00:31:26Z</time>
      </trkpt>
      <trkpt lat="45.59377" lon="4.59342">
        <ele>595</ele>
        <time>2019-06-29T00:31:33Z</time>
      </trkpt>
      <trkpt lat="45.59371" lon="4.59349">
        <ele>594</ele>
        <time>2019-06-29T00:31:34Z</time>
      </trkpt>
      <trkpt lat="45.59344" lon="4.59367">
        <ele>593</ele>
        <time>2019-06-29T00:31:41Z</time>
      </trkpt>
      <trkpt lat="45.59321" lon="4.59397">
        <ele>588</ele>
        <time>2019-06-29T00:31:49Z</time>
      </trkpt>
      <trkpt lat="45.59281" lon="4.59441">
        <ele>579</ele>
        <time>2019-06-29T00:32:00Z</time>
      </trkpt>
      <trkpt lat="45.59235" lon="4.59503">
        <ele>572</ele>
        <time>2019-06-29T00:32:15Z</time>
      </trkpt>
      <trkpt lat="45.59201" lon="4.59561">
        <ele>567</ele>
        <time>2019-06-29T00:32:27Z</time>
      </trkpt>
      <trkpt lat="45.59173" lon="4.59595">
        <ele>565</ele>
        <time>2019-06-29T00:32:36Z</time>
      </trkpt>
      <trkpt lat="45.59158" lon="4.59634">
        <ele>561</ele>
        <time>2019-06-29T00:32:43Z</time>
      </trkpt>
      <trkpt lat="45.59141" lon="4.59653">
        <ele>556</ele>
        <time>2019-06-29T00:32:48Z</time>
      </trkpt>
      <trkpt lat="45.59135" lon="4.59665">
        <ele>554</ele>
        <time>2019-06-29T00:32:51Z</time>
      </trkpt>
      <trkpt lat="45.5912" lon="4.59763">
        <ele>538</ele>
        <time>2019-06-29T00:33:07Z</time>
      </trkpt>
      <trkpt lat="45.59121" lon="4.59772">
        <ele>537</ele>
        <time>2019-06-29T00:33:09Z</time>
      </trkpt>
      <trkpt lat="45.59126" lon="4.59783">
        <ele>536</ele>
        <time>2019-06-29T00:33:11Z</time>
      </trkpt>
      <trkpt lat="45.5909" lon="4.59771">
        <ele>532</ele>
        <time>2019-06-29T00:33:19Z</time>
      </trkpt>
      <trkpt lat="45.59079" lon="4.5977">
        <ele>530</ele>
        <time>2019-06-29T00:33:22Z</time>
      </trkpt>
      <trkpt lat="45.59062" lon="4.59763">
        <ele>526</ele>
        <time>2019-06-29T00:33:26Z</time>
      </trkpt>
      <trkpt lat="45.59057" lon="4.59763">
        <ele>524</ele>
        <time>2019-06-29T00:33:27Z</time>
      </trkpt>
      <trkpt lat="45.59054" lon="4.59766">
        <ele>523</ele>
        <time>2019-06-29T00:33:28Z</time>
      </trkpt>
      <trkpt lat="45.59048" lon="4.59784">
        <ele>519</ele>
        <time>2019-06-29T00:33:31Z</time>
      </trkpt>
      <trkpt lat="45.59068" lon="4.59855">
        <ele>513</ele>
        <time>2019-06-29T00:33:44Z</time>
      </trkpt>
      <trkpt lat="45.59071" lon="4.59881">
        <ele>509</ele>
        <time>2019-06-29T00:33:48Z</time>
      </trkpt>
      <trkpt lat="45.5907" lon="4.59907">
        <ele>503</ele>
        <time>2019-06-29T00:33:52Z</time>
      </trkpt>
      <trkpt lat="45.5906" lon="4.599">
        <ele>503</ele>
        <time>2019-06-29T00:33:55Z</time>
      </trkpt>
      <trkpt lat="45.59039" lon="4.59931">
        <ele>496</ele>
        <time>2019-06-29T00:34:02Z</time>
      </trkpt>
      <trkpt lat="45.59022" lon="4.59964">
        <ele>490</ele>
        <time>2019-06-29T00:34:09Z</time>
      </trkpt>
      <trkpt lat="45.59021" lon="4.59974">
        <ele>489</ele>
        <time>2019-06-29T00:34:10Z</time>
      </trkpt>
      <trkpt lat="45.59038" lon="4.60014">
        <ele>486</ele>
        <time>2019-06-29T00:34:18Z</time>
      </trkpt>
      <trkpt lat="45.59035" lon="4.60023">
        <ele>486</ele>
        <time>2019-06-29T00:34:20Z</time>
      </trkpt>
      <trkpt lat="45.59019" lon="4.60049">
        <ele>483</ele>
        <time>2019-06-29T00:34:25Z</time>
      </trkpt>
      <trkpt lat="45.58995" lon="4.60081">
        <ele>478</ele>
        <time>2019-06-29T00:34:33Z</time>
      </trkpt>
      <trkpt lat="45.58991" lon="4.6012">
        <ele>473</ele>
        <time>2019-06-29T00:34:40Z</time>
      </trkpt>
      <trkpt lat="45.58987" lon="4.60132">
        <ele>471</ele>
        <time>2019-06-29T00:34:42Z</time>
      </trkpt>
      <trkpt lat="45.58971" lon="4.60161">
        <ele>466</ele>
        <time>2019-06-29T00:34:48Z</time>
      </trkpt>
      <trkpt lat="45.58959" lon="4.60176">
        <ele>463</ele>
        <time>2019-06-29T00:34:51Z</time>
      </trkpt>
      <trkpt lat="45.58954" lon="4.60177">
        <ele>463</ele>
        <time>2019-06-29T00:34:53Z</time>
      </trkpt>
      <trkpt lat="45.58944" lon="4.60173">
        <ele>462</ele>
        <time>2019-06-29T00:34:55Z</time>
      </trkpt>
      <trkpt lat="45.58934" lon="4.60166">
        <ele>461</ele>
        <time>2019-06-29T00:34:58Z</time>
      </trkpt>
      <trkpt lat="45.58918" lon="4.60148">
        <ele>460</ele>
        <time>2019-06-29T00:35:02Z</time>
      </trkpt>
      <trkpt lat="45.58903" lon="4.60146">
        <ele>457</ele>
        <time>2019-06-29T00:35:06Z</time>
      </trkpt>
      <trkpt lat="45.58893" lon="4.60142">
        <ele>455</ele>
        <time>2019-06-29T00:35:08Z</time>
      </trkpt>
      <trkpt lat="45.58879" lon="4.60143">
        <ele>451</ele>
        <time>2019-06-29T00:35:12Z</time>
      </trkpt>
      <trkpt lat="45.58843" lon="4.60074">
        <ele>448</ele>
        <time>2019-06-29T00:35:26Z</time>
      </trkpt>
      <trkpt lat="45.58833" lon="4.60049">
        <ele>447</ele>
        <time>2019-06-29T00:35:30Z</time>
      </trkpt>
      <trkpt lat="45.58826" lon="4.60014">
        <ele>447</ele>
        <time>2019-06-29T00:35:36Z</time>
      </trkpt>
      <trkpt lat="45.58817" lon="4.59877">
        <ele>455</ele>
        <time>2019-06-29T00:35:59Z</time>
      </trkpt>
      <trkpt lat="45.58808" lon="4.59823">
        <ele>457</ele>
        <time>2019-06-29T00:36:08Z</time>
      </trkpt>
      <trkpt lat="45.58798" lon="4.59799">
        <ele>455</ele>
        <time>2019-06-29T00:36:12Z</time>
      </trkpt>
      <trkpt lat="45.58787" lon="4.59782">
        <ele>453</ele>
        <time>2019-06-29T00:36:16Z</time>
      </trkpt>
      <trkpt lat="45.5878" lon="4.59777">
        <ele>451</ele>
        <time>2019-06-29T00:36:18Z</time>
      </trkpt>
      <trkpt lat="45.58761" lon="4.59771">
        <ele>447</ele>
        <time>2019-06-29T00:36:23Z</time>
      </trkpt>
      <trkpt lat="45.58732" lon="4.59774">
        <ele>447</ele>
        <time>2019-06-29T00:36:29Z</time>
      </trkpt>
      <trkpt lat="45.58689" lon="4.59797">
        <ele>454</ele>
        <time>2019-06-29T00:36:40Z</time>
      </trkpt>
      <trkpt lat="45.58679" lon="4.5981">
        <ele>455</ele>
        <time>2019-06-29T00:36:43Z</time>
      </trkpt>
      <trkpt lat="45.58671" lon="4.59827">
        <ele>455</ele>
        <time>2019-06-29T00:36:47Z</time>
      </trkpt>
      <trkpt lat="45.5866" lon="4.59866">
        <ele>455</ele>
        <time>2019-06-29T00:36:54Z</time>
      </trkpt>
      <trkpt lat="45.5868" lon="4.59974">
        <ele>448</ele>
        <time>2019-06-29T00:37:12Z</time>
      </trkpt>
      <trkpt lat="45.58675" lon="4.60086">
        <ele>449</ele>
        <time>2019-06-29T00:37:30Z</time>
      </trkpt>
      <trkpt lat="45.58677" lon="4.60152">
        <ele>445</ele>
        <time>2019-06-29T00:37:41Z</time>
      </trkpt>
      <trkpt lat="45.58672" lon="4.60198">
        <ele>442</ele>
        <time>2019-06-29T00:37:49Z</time>
      </trkpt>
      <trkpt lat="45.58666" lon="4.60227">
        <ele>441</ele>
        <time>2019-06-29T00:37:53Z</time>
      </trkpt>
      <trkpt lat="45.58658" lon="4.6024">
        <ele>441</ele>
        <time>2019-06-29T00:37:56Z</time>
      </trkpt>
      <trkpt lat="45.58594" lon="4.60387">
        <ele>434</ele>
        <time>2019-06-29T00:38:25Z</time>
      </trkpt>
      <trkpt lat="45.58583" lon="4.60422">
        <ele>435</ele>
        <time>2019-06-29T00:38:31Z</time>
      </trkpt>
      <trkpt lat="45.58563" lon="4.60503">
        <ele>430</ele>
        <time>2019-06-29T00:38:45Z</time>
      </trkpt>
      <trkpt lat="45.58551" lon="4.60527">
        <ele>426</ele>
        <time>2019-06-29T00:38:50Z</time>
      </trkpt>
      <trkpt lat="45.58526" lon="4.60555">
        <ele>425</ele>
        <time>2019-06-29T00:38:57Z</time>
      </trkpt>
      <trkpt lat="45.58513" lon="4.60565">
        <ele>425</ele>
        <time>2019-06-29T00:39:01Z</time>
      </trkpt>
      <trkpt lat="45.58457" lon="4.60582">
        <ele>425</ele>
        <time>2019-06-29T00:39:14Z</time>
      </trkpt>
      <trkpt lat="45.58361" lon="4.60592">
        <ele>422</ele>
        <time>2019-06-29T00:39:36Z</time>
      </trkpt>
      <trkpt lat="45.58278" lon="4.60604">
        <ele>414</ele>
        <time>2019-06-29T00:39:56Z</time>
      </trkpt>
      <trkpt lat="45.58252" lon="4.60604">
        <ele>412</ele>
        <time>2019-06-29T00:40:02Z</time>
      </trkpt>
      <trkpt lat="45.58244" lon="4.60602">
        <ele>412</ele>
        <time>2019-06-29T00:40:04Z</time>
      </trkpt>
      <trkpt lat="45.58214" lon="4.60587">
        <ele>412</ele>
        <time>2019-06-29T00:40:11Z</time>
      </trkpt>
      <trkpt lat="45.58174" lon="4.60561">
        <ele>410</ele>
        <time>2019-06-29T00:40:22Z</time>
      </trkpt>
      <trkpt lat="45.58152" lon="4.60557">
        <ele>411</ele>
        <time>2019-06-29T00:40:27Z</time>
      </trkpt>
      <trkpt lat="45.58128" lon="4.60558">
        <ele>412</ele>
        <time>2019-06-29T00:40:32Z</time>
      </trkpt>
      <trkpt lat="45.58111" lon="4.6057">
        <ele>412</ele>
        <time>2019-06-29T00:40:37Z</time>
      </trkpt>
      <trkpt lat="45.58097" lon="4.60586">
        <ele>411</ele>
        <time>2019-06-29T00:40:41Z</time>
      </trkpt>
      <trkpt lat="45.58072" lon="4.60635">
        <ele>405</ele>
        <time>2019-06-29T00:40:51Z</time>
      </trkpt>
      <trkpt lat="45.58056" lon="4.60657">
        <ele>403</ele>
        <time>2019-06-29T00:40:56Z</time>
      </trkpt>
      <trkpt lat="45.58036" lon="4.60672">
        <ele>402</ele>
        <time>2019-06-29T00:41:01Z</time>
      </trkpt>
      <trkpt lat="45.58001" lon="4.60693">
        <ele>400</ele>
        <time>2019-06-29T00:41:10Z</time>
      </trkpt>
      <trkpt lat="45.5797" lon="4.60707">
        <ele>399</ele>
        <time>2019-06-29T00:41:18Z</time>
      </trkpt>
      <trkpt lat="45.57909" lon="4.60716">
        <ele>401</ele>
        <time>2019-06-29T00:41:32Z</time>
      </trkpt>
      <trkpt lat="45.57894" lon="4.60724">
        <ele>401</ele>
        <time>2019-06-29T00:41:36Z</time>
      </trkpt>
      <trkpt lat="45.57872" lon="4.60753">
        <ele>401</ele>
        <time>2019-06-29T00:41:43Z</time>
      </trkpt>
      <trkpt lat="45.57851" lon="4.60819">
        <ele>395</ele>
        <time>2019-06-29T00:41:55Z</time>
      </trkpt>
      <trkpt lat="45.57834" lon="4.60862">
        <ele>391</ele>
        <time>2019-06-29T00:42:03Z</time>
      </trkpt>
      <trkpt lat="45.57756" lon="4.60928">
        <ele>390</ele>
        <time>2019-06-29T00:42:24Z</time>
      </trkpt>
      <trkpt lat="45.57685" lon="4.60996">
        <ele>387</ele>
        <time>2019-06-29T00:42:44Z</time>
      </trkpt>
      <trkpt lat="45.57642" lon="4.61046">
        <ele>386</ele>
        <time>2019-06-29T00:42:57Z</time>
      </trkpt>
      <trkpt lat="45.57557" lon="4.61088">
        <ele>383</ele>
        <time>2019-06-29T00:43:18Z</time>
      </trkpt>
      <trkpt lat="45.57554" lon="4.61097">
        <ele>383</ele>
        <time>2019-06-29T00:43:19Z</time>
      </trkpt>
      <trkpt lat="45.57569" lon="4.61241">
        <ele>372</ele>
        <time>2019-06-29T00:43:43Z</time>
      </trkpt>
      <trkpt lat="45.57569" lon="4.6125">
        <ele>371</ele>
        <time>2019-06-29T00:43:45Z</time>
      </trkpt>
      <trkpt lat="45.57561" lon="4.61264">
        <ele>369</ele>
        <time>2019-06-29T00:43:48Z</time>
      </trkpt>
      <trkpt lat="45.57563" lon="4.61274">
        <ele>368</ele>
        <time>2019-06-29T00:43:49Z</time>
      </trkpt>
      <trkpt lat="45.57579" lon="4.61306">
        <ele>366</ele>
        <time>2019-06-29T00:43:56Z</time>
      </trkpt>
      <trkpt lat="45.5758" lon="4.61312">
        <ele>366</ele>
        <time>2019-06-29T00:43:57Z</time>
      </trkpt>
      <trkpt lat="45.57576" lon="4.61321">
        <ele>365</ele>
        <time>2019-06-29T00:43:59Z</time>
      </trkpt>
      <trkpt lat="45.57568" lon="4.61325">
        <ele>364</ele>
        <time>2019-06-29T00:44:01Z</time>
      </trkpt>
      <trkpt lat="45.57555" lon="4.61326">
        <ele>363</ele>
        <time>2019-06-29T00:44:04Z</time>
      </trkpt>
      <trkpt lat="45.57512" lon="4.6132">
        <ele>360</ele>
        <time>2019-06-29T00:44:14Z</time>
      </trkpt>
      <trkpt lat="45.57491" lon="4.61313">
        <ele>361</ele>
        <time>2019-06-29T00:44:19Z</time>
      </trkpt>
      <trkpt lat="45.57489" lon="4.61319">
        <ele>361</ele>
        <time>2019-06-29T00:44:20Z</time>
      </trkpt>
      <trkpt lat="45.57492" lon="4.61325">
        <ele>360</ele>
        <time>2019-06-29T00:44:21Z</time>
      </trkpt>
      <trkpt lat="45.57547" lon="4.6137">
        <ele>358</ele>
        <time>2019-06-29T00:44:36Z</time>
      </trkpt>
      <trkpt lat="45.57548" lon="4.61381">
        <ele>357</ele>
        <time>2019-06-29T00:44:38Z</time>
      </trkpt>
      <trkpt lat="45.57544" lon="4.61386">
        <ele>356</ele>
        <time>2019-06-29T00:44:39Z</time>
      </trkpt>
      <trkpt lat="45.57539" lon="4.61387">
        <ele>356</ele>
        <time>2019-06-29T00:44:40Z</time>
      </trkpt>
      <trkpt lat="45.57528" lon="4.61408">
        <ele>354</ele>
        <time>2019-06-29T00:44:44Z</time>
      </trkpt>
      <trkpt lat="45.5754" lon="4.61417">
        <ele>353</ele>
        <time>2019-06-29T00:44:48Z</time>
      </trkpt>
      <trkpt lat="45.57554" lon="4.61448">
        <ele>354</ele>
        <time>2019-06-29T00:44:54Z</time>
      </trkpt>
      <trkpt lat="45.57552" lon="4.61455">
        <ele>354</ele>
        <time>2019-06-29T00:44:55Z</time>
      </trkpt>
      <trkpt lat="45.57531" lon="4.61466">
        <ele>354</ele>
        <time>2019-06-29T00:45:00Z</time>
      </trkpt>
      <trkpt lat="45.57521" lon="4.61475">
        <ele>354</ele>
        <time>2019-06-29T00:45:03Z</time>
      </trkpt>
      <trkpt lat="45.57519" lon="4.61497">
        <ele>354</ele>
        <time>2019-06-29T00:45:06Z</time>
      </trkpt>
      <trkpt lat="45.57531" lon="4.61518">
        <ele>355</ele>
        <time>2019-06-29T00:45:11Z</time>
      </trkpt>
      <trkpt lat="45.57541" lon="4.61527">
        <ele>356</ele>
        <time>2019-06-29T00:45:14Z</time>
      </trkpt>
      <trkpt lat="45.57571" lon="4.61515">
        <ele>358</ele>
        <time>2019-06-29T00:45:21Z</time>
      </trkpt>
      <trkpt lat="45.57583" lon="4.61515">
        <ele>359</ele>
        <time>2019-06-29T00:45:24Z</time>
      </trkpt>
      <trkpt lat="45.57649" lon="4.61549">
        <ele>371</ele>
        <time>2019-06-29T00:45:40Z</time>
      </trkpt>
      <trkpt lat="45.57651" lon="4.61558">
        <ele>371</ele>
        <time>2019-06-29T00:45:42Z</time>
      </trkpt>
      <trkpt lat="45.57624" lon="4.61567">
        <ele>369</ele>
        <time>2019-06-29T00:45:48Z</time>
      </trkpt>
      <trkpt lat="45.57618" lon="4.61566">
        <ele>368</ele>
        <time>2019-06-29T00:45:49Z</time>
      </trkpt>
      <trkpt lat="45.57586" lon="4.61593">
        <ele>368</ele>
        <time>2019-06-29T00:45:58Z</time>
      </trkpt>
      <trkpt lat="45.57549" lon="4.61646">
        <ele>369</ele>
        <time>2019-06-29T00:46:10Z</time>
      </trkpt>
      <trkpt lat="45.5754" lon="4.61672">
        <ele>371</ele>
        <time>2019-06-29T00:46:15Z</time>
      </trkpt>
      <trkpt lat="45.5754" lon="4.61684">
        <ele>371</ele>
        <time>2019-06-29T00:46:17Z</time>
      </trkpt>
      <trkpt lat="45.57549" lon="4.61701">
        <ele>375</ele>
        <time>2019-06-29T00:46:21Z</time>
      </trkpt>
      <trkpt lat="45.57569" lon="4.61718">
        <ele>380</ele>
        <time>2019-06-29T00:46:26Z</time>
      </trkpt>
      <trkpt lat="45.57594" lon="4.61755">
        <ele>388</ele>
        <time>2019-06-29T00:46:34Z</time>
      </trkpt>
      <trkpt lat="45.5759" lon="4.61781">
        <ele>388</ele>
        <time>2019-06-29T00:46:39Z</time>
      </trkpt>
      <trkpt lat="45.57547" lon="4.61831">
        <ele>380</ele>
        <time>2019-06-29T00:46:52Z</time>
      </trkpt>
      <trkpt lat="45.57549" lon="4.61839">
        <ele>381</ele>
        <time>2019-06-29T00:46:53Z</time>
      </trkpt>
      <trkpt lat="45.57558" lon="4.61853">
        <ele>385</ele>
        <time>2019-06-29T00:46:56Z</time>
      </trkpt>
      <trkpt lat="45.57561" lon="4.61873">
        <ele>387</ele>
        <time>2019-06-29T00:47:00Z</time>
      </trkpt>
      <trkpt lat="45.57564" lon="4.61948">
        <ele>396</ele>
        <time>2019-06-29T00:47:12Z</time>
      </trkpt>
      <trkpt lat="45.57563" lon="4.61979">
        <ele>400</ele>
        <time>2019-06-29T00:47:17Z</time>
      </trkpt>
      <trkpt lat="45.57575" lon="4.62029">
        <ele>407</ele>
        <time>2019-06-29T00:47:26Z</time>
      </trkpt>
      <trkpt lat="45.5758" lon="4.62044">
        <ele>409</ele>
        <time>2019-06-29T00:47:28Z</time>
      </trkpt>
      <trkpt lat="45.57606" lon="4.62076">
        <ele>413</ele>
        <time>2019-06-29T00:47:36Z</time>
      </trkpt>
      <trkpt lat="45.57606" lon="4.62097">
        <ele>415</ele>
        <time>2019-06-29T00:47:40Z</time>
      </trkpt>
      <trkpt lat="45.57593" lon="4.62179">
        <ele>419</ele>
        <time>2019-06-29T00:47:53Z</time>
      </trkpt>
      <trkpt lat="45.57596" lon="4.62192">
        <ele>419</ele>
        <time>2019-06-29T00:47:56Z</time>
      </trkpt>
      <trkpt lat="45.57539" lon="4.62398">
        <ele>421</ele>
        <time>2019-06-29T00:48:32Z</time>
      </trkpt>
      <trkpt lat="45.57537" lon="4.62447">
        <ele>421</ele>
        <time>2019-06-29T00:48:40Z</time>
      </trkpt>
      <trkpt lat="45.57542" lon="4.62477">
        <ele>421</ele>
        <time>2019-06-29T00:48:45Z</time>
      </trkpt>
      <trkpt lat="45.57556" lon="4.62531">
        <ele>420</ele>
        <time>2019-06-29T00:48:54Z</time>
      </trkpt>
      <trkpt lat="45.57569" lon="4.62568">
        <ele>421</ele>
        <time>2019-06-29T00:49:01Z</time>
      </trkpt>
      <trkpt lat="45.57569" lon="4.62594">
        <ele>420</ele>
        <time>2019-06-29T00:49:05Z</time>
      </trkpt>
      <trkpt lat="45.57545" lon="4.62634">
        <ele>416</ele>
        <time>2019-06-29T00:49:14Z</time>
      </trkpt>
      <trkpt lat="45.575" lon="4.62699">
        <ele>408</ele>
        <time>2019-06-29T00:49:29Z</time>
      </trkpt>
      <trkpt lat="45.57462" lon="4.62749">
        <ele>404</ele>
        <time>2019-06-29T00:49:41Z</time>
      </trkpt>
      <trkpt lat="45.57437" lon="4.62776">
        <ele>401</ele>
        <time>2019-06-29T00:49:48Z</time>
      </trkpt>
      <trkpt lat="45.5743" lon="4.62788">
        <ele>400</ele>
        <time>2019-06-29T00:49:51Z</time>
      </trkpt>
      <trkpt lat="45.57422" lon="4.62829">
        <ele>399</ele>
        <time>2019-06-29T00:49:58Z</time>
      </trkpt>
      <trkpt lat="45.57425" lon="4.6287">
        <ele>399</ele>
        <time>2019-06-29T00:50:05Z</time>
      </trkpt>
      <trkpt lat="45.57423" lon="4.62881">
        <ele>399</ele>
        <time>2019-06-29T00:50:06Z</time>
      </trkpt>
      <trkpt lat="45.57417" lon="4.62894">
        <ele>398</ele>
        <time>2019-06-29T00:50:09Z</time>
      </trkpt>
      <trkpt lat="45.57411" lon="4.62903">
        <ele>398</ele>
        <time>2019-06-29T00:50:11Z</time>
      </trkpt>
      <trkpt lat="45.5737" lon="4.62942">
        <ele>396</ele>
        <time>2019-06-29T00:50:23Z</time>
      </trkpt>
      <trkpt lat="45.57312" lon="4.63011">
        <ele>396</ele>
        <time>2019-06-29T00:50:40Z</time>
      </trkpt>
      <trkpt lat="45.57277" lon="4.63062">
        <ele>394</ele>
        <time>2019-06-29T00:50:52Z</time>
      </trkpt>
      <trkpt lat="45.57263" lon="4.63087">
        <ele>394</ele>
        <time>2019-06-29T00:50:57Z</time>
      </trkpt>
      <trkpt lat="45.57259" lon="4.63091">
        <ele>394</ele>
        <time>2019-06-29T00:50:58Z</time>
      </trkpt>
      <trkpt lat="45.57254" lon="4.63089">
        <ele>393</ele>
        <time>2019-06-29T00:50:59Z</time>
      </trkpt>
      <trkpt lat="45.5723" lon="4.63063">
        <ele>391</ele>
        <time>2019-06-29T00:51:06Z</time>
      </trkpt>
      <trkpt lat="45.57198" lon="4.63037">
        <ele>389</ele>
        <time>2019-06-29T00:51:15Z</time>
      </trkpt>
      <trkpt lat="45.57132" lon="4.6299">
        <ele>384</ele>
        <time>2019-06-29T00:51:32Z</time>
      </trkpt>
      <trkpt lat="45.57059" lon="4.62944">
        <ele>378</ele>
        <time>2019-06-29T00:51:51Z</time>
      </trkpt>
      <trkpt lat="45.57053" lon="4.62937">
        <ele>378</ele>
        <time>2019-06-29T00:51:53Z</time>
      </trkpt>
      <trkpt lat="45.57058" lon="4.62907">
        <ele>378</ele>
        <time>2019-06-29T00:51:58Z</time>
      </trkpt>
      <trkpt lat="45.57056" lon="4.62899">
        <ele>377</ele>
        <time>2019-06-29T00:51:59Z</time>
      </trkpt>
      <trkpt lat="45.56943" lon="4.62704">
        <ele>359</ele>
        <time>2019-06-29T00:52:41Z</time>
      </trkpt>
      <trkpt lat="45.56901" lon="4.62699">
        <ele>353</ele>
        <time>2019-06-29T00:52:50Z</time>
      </trkpt>
      <trkpt lat="45.56883" lon="4.6269">
        <ele>348</ele>
        <time>2019-06-29T00:52:55Z</time>
      </trkpt>
      <trkpt lat="45.56854" lon="4.62696">
        <ele>344</ele>
        <time>2019-06-29T00:53:02Z</time>
      </trkpt>
      <trkpt lat="45.5684" lon="4.6271">
        <ele>343</ele>
        <time>2019-06-29T00:53:06Z</time>
      </trkpt>
      <trkpt lat="45.56837" lon="4.6272">
        <ele>344</ele>
        <time>2019-06-29T00:53:07Z</time>
      </trkpt>
      <trkpt lat="45.5683" lon="4.62721">
        <ele>342</ele>
        <time>2019-06-29T00:53:09Z</time>
      </trkpt>
      <trkpt lat="45.56826" lon="4.62708">
        <ele>340</ele>
        <time>2019-06-29T00:53:11Z</time>
      </trkpt>
      <trkpt lat="45.5683" lon="4.62701">
        <ele>340</ele>
        <time>2019-06-29T00:53:13Z</time>
      </trkpt>
      <trkpt lat="45.56829" lon="4.62692">
        <ele>338</ele>
        <time>2019-06-29T00:53:14Z</time>
      </trkpt>
      <trkpt lat="45.56824" lon="4.62689">
        <ele>337</ele>
        <time>2019-06-29T00:53:16Z</time>
      </trkpt>
      <trkpt lat="45.56807" lon="4.62701">
        <ele>334</ele>
        <time>2019-06-29T00:53:20Z</time>
      </trkpt>
      <trkpt lat="45.56803" lon="4.62714">
        <ele>335</ele>
        <time>2019-06-29T00:53:22Z</time>
      </trkpt>
      <trkpt lat="45.56805" lon="4.6274">
        <ele>339</ele>
        <time>2019-06-29T00:53:27Z</time>
      </trkpt>
      <trkpt lat="45.56803" lon="4.62744">
        <ele>340</ele>
        <time>2019-06-29T00:53:27Z</time>
      </trkpt>
      <trkpt lat="45.56791" lon="4.62715">
        <ele>333</ele>
        <time>2019-06-29T00:53:33Z</time>
      </trkpt>
      <trkpt lat="45.56777" lon="4.62695">
        <ele>326</ele>
        <time>2019-06-29T00:53:38Z</time>
      </trkpt>
      <trkpt lat="45.56777" lon="4.62686">
        <ele>325</ele>
        <time>2019-06-29T00:53:39Z</time>
      </trkpt>
      <trkpt lat="45.56781" lon="4.62677">
        <ele>324</ele>
        <time>2019-06-29T00:53:41Z</time>
      </trkpt>
      <trkpt lat="45.56779" lon="4.62673">
        <ele>323</ele>
        <time>2019-06-29T00:53:42Z</time>
      </trkpt>
      <trkpt lat="45.56775" lon="4.62673">
        <ele>322</ele>
        <time>2019-06-29T00:53:43Z</time>
      </trkpt>
      <trkpt lat="45.56767" lon="4.62683">
        <ele>322</ele>
        <time>2019-06-29T00:53:45Z</time>
      </trkpt>
      <trkpt lat="45.56759" lon="4.62705">
        <ele>324</ele>
        <time>2019-06-29T00:53:49Z</time>
      </trkpt>
      <trkpt lat="45.56745" lon="4.6266">
        <ele>315</ele>
        <time>2019-06-29T00:53:57Z</time>
      </trkpt>
      <trkpt lat="45.56741" lon="4.62662">
        <ele>315</ele>
        <time>2019-06-29T00:53:58Z</time>
      </trkpt>
      <trkpt lat="45.56715" lon="4.6271">
        <ele>318</ele>
        <time>2019-06-29T00:54:08Z</time>
      </trkpt>
      <trkpt lat="45.56703" lon="4.6275">
        <ele>321</ele>
        <time>2019-06-29T00:54:15Z</time>
      </trkpt>
      <trkpt lat="45.56692" lon="4.62767">
        <ele>324</ele>
        <time>2019-06-29T00:54:19Z</time>
      </trkpt>
      <trkpt lat="45.56654" lon="4.62806">
        <ele>329</ele>
        <time>2019-06-29T00:54:30Z</time>
      </trkpt>
      <trkpt lat="45.56631" lon="4.6281">
        <ele>329</ele>
        <time>2019-06-29T00:54:35Z</time>
      </trkpt>
      <trkpt lat="45.56616" lon="4.62817">
        <ele>329</ele>
        <time>2019-06-29T00:54:39Z</time>
      </trkpt>
      <trkpt lat="45.56609" lon="4.62827">
        <ele>331</ele>
        <time>2019-06-29T00:54:41Z</time>
      </trkpt>
      <trkpt lat="45.56565" lon="4.62866">
        <ele>333</ele>
        <time>2019-06-29T00:54:53Z</time>
      </trkpt>
      <trkpt lat="45.56568" lon="4.62875">
        <ele>335</ele>
        <time>2019-06-29T00:54:55Z</time>
      </trkpt>
      <trkpt lat="45.56591" lon="4.629">
        <ele>343</ele>
        <time>2019-06-29T00:55:02Z</time>
      </trkpt>
      <trkpt lat="45.56609" lon="4.62915">
        <ele>347</ele>
        <time>2019-06-29T00:55:07Z</time>
      </trkpt>
      <trkpt lat="45.56644" lon="4.62954">
        <ele>354</ele>
        <time>2019-06-29T00:55:17Z</time>
      </trkpt>
      <trkpt lat="45.56699" lon="4.63053">
        <ele>364</ele>
        <time>2019-06-29T00:55:38Z</time>
      </trkpt>
      <trkpt lat="45.56714" lon="4.63093">
        <ele>367</ele>
        <time>2019-06-29T00:55:45Z</time>
      </trkpt>
      <trkpt lat="45.56777" lon="4.63323">
        <ele>374</ele>
        <time>2019-06-29T00:56:25Z</time>
      </trkpt>
      <trkpt lat="45.56814" lon="4.63449">
        <ele>376</ele>
        <time>2019-06-29T00:56:48Z</time>
      </trkpt>
      <trkpt lat="45.56887" lon="4.63594">
        <ele>374</ele>
        <time>2019-06-29T00:57:17Z</time>
      </trkpt>
      <trkpt lat="45.5693" lon="4.63715">
        <ele>374</ele>
        <time>2019-06-29T00:57:39Z</time>
      </trkpt>
      <trkpt lat="45.56959" lon="4.63814">
        <ele>374</ele>
        <time>2019-06-29T00:57:57Z</time>
      </trkpt>
      <trkpt lat="45.56977" lon="4.63859">
        <ele>375</ele>
        <time>2019-06-29T00:58:05Z</time>
      </trkpt>
      <trkpt lat="45.5707" lon="4.64012">
        <ele>382</ele>
        <time>2019-06-29T00:58:38Z</time>
      </trkpt>
      <trkpt lat="45.5712" lon="4.64101">
        <ele>385</ele>
        <time>2019-06-29T00:58:57Z</time>
      </trkpt>
      <trkpt lat="45.57166" lon="4.64238">
        <ele>386</ele>
        <time>2019-06-29T00:59:22Z</time>
      </trkpt>
      <trkpt lat="45.57104" lon="4.64332">
        <ele>383</ele>
        <time>2019-06-29T00:59:43Z</time>
      </trkpt>
      <trkpt lat="45.56914" lon="4.6453">
        <ele>371</ele>
        <time>2019-06-29T01:00:38Z</time>
      </trkpt>
      <trkpt lat="45.56932" lon="4.64597">
        <ele>371</ele>
        <time>2019-06-29T01:00:50Z</time>
      </trkpt>
      <trkpt lat="45.56961" lon="4.64812">
        <ele>369</ele>
        <time>2019-06-29T01:01:25Z</time>
      </trkpt>
      <trkpt lat="45.56965" lon="4.6493">
        <ele>365</ele>
        <time>2019-06-29T01:01:45Z</time>
      </trkpt>
      <trkpt lat="45.56984" lon="4.65024">
        <ele>360</ele>
        <time>2019-06-29T01:02:01Z</time>
      </trkpt>
      <trkpt lat="45.5699" lon="4.65066">
        <ele>358</ele>
        <time>2019-06-29T01:02:08Z</time>
      </trkpt>
      <trkpt lat="45.56989" lon="4.65212">
        <ele>352</ele>
        <time>2019-06-29T01:02:32Z</time>
      </trkpt>
      <trkpt lat="45.57053" lon="4.65264">
        <ele>355</ele>
        <time>2019-06-29T01:02:49Z</time>
      </trkpt>
      <trkpt lat="45.57055" lon="4.65424">
        <ele>355</ele>
        <time>2019-06-29T01:03:15Z</time>
      </trkpt>
      <trkpt lat="45.57066" lon="4.65489">
        <ele>353</ele>
        <time>2019-06-29T01:03:26Z</time>
      </trkpt>
      <trkpt lat="45.57112" lon="4.65669">
        <ele>348</ele>
        <time>2019-06-29T01:03:57Z</time>
      </trkpt>
      <trkpt lat="45.57125" lon="4.65768">
        <ele>344</ele>
        <time>2019-06-29T01:04:14Z</time>
      </trkpt>
      <trkpt lat="45.57114" lon="4.65813">
        <ele>342</ele>
        <time>2019-06-29T01:04:21Z</time>
      </trkpt>
      <trkpt lat="45.57095" lon="4.65818">
        <ele>342</ele>
        <time>2019-06-29T01:04:26Z</time>
      </trkpt>
      <trkpt lat="45.57022" lon="4.6586">
        <ele>341</ele>
        <time>2019-06-29T01:04:44Z</time>
      </trkpt>
      <trkpt lat="45.57011" lon="4.65862">
        <ele>341</ele>
        <time>2019-06-29T01:04:47Z</time>
      </trkpt>
      <trkpt lat="45.57002" lon="4.65877">
        <ele>340</ele>
        <time>2019-06-29T01:04:50Z</time>
      </trkpt>
      <trkpt lat="45.56962" lon="4.65904">
        <ele>341</ele>
        <time>2019-06-29T01:05:00Z</time>
      </trkpt>
      <trkpt lat="45.56911" lon="4.65925">
        <ele>341</ele>
        <time>2019-06-29T01:05:13Z</time>
      </trkpt>
      <trkpt lat="45.56829" lon="4.65997">
        <ele>338</ele>
        <time>2019-06-29T01:05:35Z</time>
      </trkpt>
      <trkpt lat="45.56816" lon="4.66003">
        <ele>338</ele>
        <time>2019-06-29T01:05:39Z</time>
      </trkpt>
      <trkpt lat="45.56794" lon="4.66007">
        <ele>338</ele>
        <time>2019-06-29T01:05:44Z</time>
      </trkpt>
      <trkpt lat="45.56735" lon="4.66042">
        <ele>337</ele>
        <time>2019-06-29T01:05:59Z</time>
      </trkpt>
      <trkpt lat="45.56632" lon="4.66154">
        <ele>332</ele>
        <time>2019-06-29T01:06:29Z</time>
      </trkpt>
      <trkpt lat="45.56606" lon="4.66197">
        <ele>331</ele>
        <time>2019-06-29T01:06:38Z</time>
      </trkpt>
      <trkpt lat="45.56589" lon="4.66217">
        <ele>330</ele>
        <time>2019-06-29T01:06:43Z</time>
      </trkpt>
      <trkpt lat="45.56571" lon="4.66257">
        <ele>329</ele>
        <time>2019-06-29T01:06:51Z</time>
      </trkpt>
      <trkpt lat="45.56523" lon="4.66332">
        <ele>326</ele>
        <time>2019-06-29T01:07:08Z</time>
      </trkpt>
      <trkpt lat="45.56482" lon="4.66386">
        <ele>324</ele>
        <time>2019-06-29T01:07:21Z</time>
      </trkpt>
      <trkpt lat="45.56446" lon="4.66443">
        <ele>322</ele>
        <time>2019-06-29T01:07:33Z</time>
      </trkpt>
      <trkpt lat="45.56471" lon="4.66477">
        <ele>321</ele>
        <time>2019-06-29T01:07:41Z</time>
      </trkpt>
      <trkpt lat="45.56494" lon="4.66498">
        <ele>321</ele>
        <time>2019-06-29T01:07:48Z</time>
      </trkpt>
      <trkpt lat="45.56546" lon="4.66522">
        <ele>320</ele>
        <time>2019-06-29T01:08:00Z</time>
      </trkpt>
      <trkpt lat="45.56575" lon="4.66522">
        <ele>321</ele>
        <time>2019-06-29T01:08:07Z</time>
      </trkpt>
      <trkpt lat="45.56633" lon="4.66514">
        <ele>324</ele>
        <time>2019-06-29T01:08:21Z</time>
      </trkpt>
      <trkpt lat="45.56646" lon="4.66515">
        <ele>325</ele>
        <time>2019-06-29T01:08:24Z</time>
      </trkpt>
      <trkpt lat="45.56696" lon="4.66549">
        <ele>326</ele>
        <time>2019-06-29T01:08:37Z</time>
      </trkpt>
      <trkpt lat="45.56727" lon="4.66563">
        <ele>327</ele>
        <time>2019-06-29T01:08:44Z</time>
      </trkpt>
      <trkpt lat="45.56773" lon="4.66577">
        <ele>327</ele>
        <time>2019-06-29T01:08:55Z</time>
      </trkpt>
      <trkpt lat="45.56795" lon="4.66574">
        <ele>327</ele>
        <time>2019-06-29T01:09:01Z</time>
      </trkpt>
      <trkpt lat="45.56871" lon="4.66526">
        <ele>330</ele>
        <time>2019-06-29T01:09:20Z</time>
      </trkpt>
      <trkpt lat="45.56906" lon="4.66511">
        <ele>330</ele>
        <time>2019-06-29T01:09:28Z</time>
      </trkpt>
      <trkpt lat="45.56934" lon="4.66523">
        <ele>329</ele>
        <time>2019-06-29T01:09:35Z</time>
      </trkpt>
      <trkpt lat="45.56953" lon="4.66534">
        <ele>329</ele>
        <time>2019-06-29T01:09:40Z</time>
      </trkpt>
      <trkpt lat="45.56928" lon="4.66573">
        <ele>326</ele>
        <time>2019-06-29T01:09:49Z</time>
      </trkpt>
      <trkpt lat="45.5689" lon="4.66666">
        <ele>325</ele>
        <time>2019-06-29T01:10:06Z</time>
      </trkpt>
      <trkpt lat="45.56866" lon="4.66705">
        <ele>324</ele>
        <time>2019-06-29T01:10:15Z</time>
      </trkpt>
      <trkpt lat="45.56905" lon="4.66801">
        <ele>321</ele>
        <time>2019-06-29T01:10:33Z</time>
      </trkpt>
      <trkpt lat="45.56942" lon="4.66868">
        <ele>316</ele>
        <time>2019-06-29T01:10:47Z</time>
      </trkpt>
      <trkpt lat="45.56973" lon="4.66912">
        <ele>312</ele>
        <time>2019-06-29T01:10:57Z</time>
      </trkpt>
      <trkpt lat="45.5699" lon="4.66928">
        <ele>310</ele>
        <time>2019-06-29T01:11:02Z</time>
      </trkpt>
      <trkpt lat="45.57005" lon="4.66931">
        <ele>310</ele>
        <time>2019-06-29T01:11:05Z</time>
      </trkpt>
      <trkpt lat="45.57041" lon="4.66918">
        <ele>311</ele>
        <time>2019-06-29T01:11:14Z</time>
      </trkpt>
      <trkpt lat="45.57047" lon="4.66925">
        <ele>312</ele>
        <time>2019-06-29T01:11:16Z</time>
      </trkpt>
      <trkpt lat="45.57049" lon="4.66943">
        <ele>312</ele>
        <time>2019-06-29T01:11:19Z</time>
      </trkpt>
      <trkpt lat="45.57045" lon="4.66985">
        <ele>312</ele>
        <time>2019-06-29T01:11:26Z</time>
      </trkpt>
      <trkpt lat="45.57022" lon="4.67035">
        <ele>311</ele>
        <time>2019-06-29T01:11:36Z</time>
      </trkpt>
      <trkpt lat="45.57021" lon="4.67052">
        <ele>312</ele>
        <time>2019-06-29T01:11:38Z</time>
      </trkpt>
      <trkpt lat="45.57027" lon="4.67074">
        <ele>315</ele>
        <time>2019-06-29T01:11:42Z</time>
      </trkpt>
      <trkpt lat="45.57036" lon="4.67094">
        <ele>318</ele>
        <time>2019-06-29T01:11:46Z</time>
      </trkpt>
      <trkpt lat="45.57046" lon="4.67103">
        <ele>320</ele>
        <time>2019-06-29T01:11:49Z</time>
      </trkpt>
      <trkpt lat="45.57054" lon="4.67096">
        <ele>320</ele>
        <time>2019-06-29T01:11:51Z</time>
      </trkpt>
      <trkpt lat="45.57109" lon="4.67073">
        <ele>325</ele>
        <time>2019-06-29T01:12:04Z</time>
      </trkpt>
      <trkpt lat="45.57124" lon="4.67061">
        <ele>325</ele>
        <time>2019-06-29T01:12:08Z</time>
      </trkpt>
      <trkpt lat="45.57148" lon="4.67014">
        <ele>326</ele>
        <time>2019-06-29T01:12:18Z</time>
      </trkpt>
      <trkpt lat="45.57196" lon="4.66966">
        <ele>327</ele>
        <time>2019-06-29T01:12:32Z</time>
      </trkpt>
      <trkpt lat="45.57213" lon="4.66956">
        <ele>328</ele>
        <time>2019-06-29T01:12:36Z</time>
      </trkpt>
      <trkpt lat="45.57294" lon="4.67065">
        <ele>331</ele>
        <time>2019-06-29T01:13:02Z</time>
      </trkpt>
      <trkpt lat="45.57283" lon="4.67107">
        <ele>330</ele>
        <time>2019-06-29T01:13:09Z</time>
      </trkpt>
      <trkpt lat="45.57294" lon="4.67184">
        <ele>329</ele>
        <time>2019-06-29T01:13:22Z</time>
      </trkpt>
      <trkpt lat="45.57363" lon="4.67171">
        <ele>330</ele>
        <time>2019-06-29T01:13:38Z</time>
      </trkpt>
      <trkpt lat="45.57409" lon="4.67192">
        <ele>330</ele>
        <time>2019-06-29T01:13:50Z</time>
      </trkpt>
      <trkpt lat="45.5749" lon="4.6726">
        <ele>329</ele>
        <time>2019-06-29T01:14:12Z</time>
      </trkpt>
      <trkpt lat="45.57506" lon="4.67264">
        <ele>328</ele>
        <time>2019-06-29T01:14:15Z</time>
      </trkpt>
      <trkpt lat="45.57521" lon="4.67254">
        <ele>328</ele>
        <time>2019-06-29T01:14:19Z</time>
      </trkpt>
      <trkpt lat="45.57527" lon="4.67237">
        <ele>328</ele>
        <time>2019-06-29T01:14:22Z</time>
      </trkpt>
      <trkpt lat="45.57538" lon="4.67234">
        <ele>327</ele>
        <time>2019-06-29T01:14:25Z</time>
      </trkpt>
      <trkpt lat="45.57722" lon="4.6708">
        <ele>323</ele>
        <time>2019-06-29T01:15:15Z</time>
      </trkpt>
      <trkpt lat="45.5793" lon="4.67028">
        <ele>319</ele>
        <time>2019-06-29T01:16:04Z</time>
      </trkpt>
      <trkpt lat="45.57953" lon="4.67019">
        <ele>319</ele>
        <time>2019-06-29T01:16:10Z</time>
      </trkpt>
      <trkpt lat="45.57999" lon="4.66983">
        <ele>318</ele>
        <time>2019-06-29T01:16:22Z</time>
      </trkpt>
      <trkpt lat="45.58007" lon="4.6698">
        <ele>318</ele>
        <time>2019-06-29T01:16:24Z</time>
      </trkpt>
      <trkpt lat="45.58041" lon="4.66983">
        <ele>317</ele>
        <time>2019-06-29T01:16:32Z</time>
      </trkpt>
      <trkpt lat="45.58056" lon="4.66979">
        <ele>317</ele>
        <time>2019-06-29T01:16:35Z</time>
      </trkpt>
      <trkpt lat="45.5808" lon="4.66984">
        <ele>316</ele>
        <time>2019-06-29T01:16:41Z</time>
      </trkpt>
      <trkpt lat="45.58102" lon="4.66917">
        <ele>314</ele>
        <time>2019-06-29T01:16:53Z</time>
      </trkpt>
      <trkpt lat="45.58105" lon="4.66896">
        <ele>313</ele>
        <time>2019-06-29T01:16:57Z</time>
      </trkpt>
      <trkpt lat="45.58132" lon="4.66854">
        <ele>313</ele>
        <time>2019-06-29T01:17:06Z</time>
      </trkpt>
      <trkpt lat="45.58152" lon="4.66857">
        <ele>314</ele>
        <time>2019-06-29T01:17:11Z</time>
      </trkpt>
      <trkpt lat="45.58168" lon="4.6685">
        <ele>314</ele>
        <time>2019-06-29T01:17:15Z</time>
      </trkpt>
      <trkpt lat="45.58216" lon="4.66846">
        <ele>322</ele>
        <time>2019-06-29T01:17:26Z</time>
      </trkpt>
      <trkpt lat="45.58234" lon="4.66857">
        <ele>326</ele>
        <time>2019-06-29T01:17:30Z</time>
      </trkpt>
      <trkpt lat="45.58281" lon="4.66908">
        <ele>337</ele>
        <time>2019-06-29T01:17:44Z</time>
      </trkpt>
      <trkpt lat="45.5831" lon="4.66922">
        <ele>341</ele>
        <time>2019-06-29T01:17:51Z</time>
      </trkpt>
      <trkpt lat="45.58366" lon="4.66942">
        <ele>346</ele>
        <time>2019-06-29T01:18:05Z</time>
      </trkpt>
      <trkpt lat="45.58387" lon="4.66957">
        <ele>346</ele>
        <time>2019-06-29T01:18:10Z</time>
      </trkpt>
      <trkpt lat="45.58413" lon="4.66968">
        <ele>347</ele>
        <time>2019-06-29T01:18:17Z</time>
      </trkpt>
      <trkpt lat="45.58455" lon="4.66976">
        <ele>347</ele>
        <time>2019-06-29T01:18:26Z</time>
      </trkpt>
      <trkpt lat="45.58561" lon="4.67025">
        <ele>346</ele>
        <time>2019-06-29T01:18:52Z</time>
      </trkpt>
      <trkpt lat="45.58583" lon="4.6699">
        <ele>347</ele>
        <time>2019-06-29T01:19:00Z</time>
      </trkpt>
      <trkpt lat="45.58628" lon="4.66989">
        <ele>349</ele>
        <time>2019-06-29T01:19:11Z</time>
      </trkpt>
      <trkpt lat="45.58665" lon="4.66998">
        <ele>350</ele>
        <time>2019-06-29T01:19:19Z</time>
      </trkpt>
      <trkpt lat="45.58713" lon="4.67045">
        <ele>348</ele>
        <time>2019-06-29T01:19:33Z</time>
      </trkpt>
      <trkpt lat="45.58802" lon="4.67105">
        <ele>350</ele>
        <time>2019-06-29T01:19:56Z</time>
      </trkpt>
      <trkpt lat="45.58901" lon="4.67164">
        <ele>351</ele>
        <time>2019-06-29T01:20:21Z</time>
      </trkpt>
      <trkpt lat="45.58922" lon="4.67172">
        <ele>351</ele>
        <time>2019-06-29T01:20:26Z</time>
      </trkpt>
      <trkpt lat="45.58955" lon="4.67173">
        <ele>351</ele>
        <time>2019-06-29T01:20:34Z</time>
      </trkpt>
      <trkpt lat="45.58962" lon="4.67179">
        <ele>351</ele>
        <time>2019-06-29T01:20:36Z</time>
      </trkpt>
      <trkpt lat="45.59019" lon="4.67373">
        <ele>350</ele>
        <time>2019-06-29T01:21:10Z</time>
      </trkpt>
      <trkpt lat="45.59013" lon="4.674">
        <ele>350</ele>
        <time>2019-06-29T01:21:15Z</time>
      </trkpt>
      <trkpt lat="45.59021" lon="4.67527">
        <ele>349</ele>
        <time>2019-06-29T01:21:36Z</time>
      </trkpt>
      <trkpt lat="45.59027" lon="4.67601">
        <ele>349</ele>
        <time>2019-06-29T01:21:48Z</time>
      </trkpt>
      <trkpt lat="45.59047" lon="4.67742">
        <ele>347</ele>
        <time>2019-06-29T01:22:11Z</time>
      </trkpt>
      <trkpt lat="45.59046" lon="4.67894">
        <ele>345</ele>
        <time>2019-06-29T01:22:36Z</time>
      </trkpt>
      <trkpt lat="45.59061" lon="4.68358">
        <ele>334</ele>
        <time>2019-06-29T01:23:52Z</time>
      </trkpt>
      <trkpt lat="45.59059" lon="4.68413">
        <ele>335</ele>
        <time>2019-06-29T01:24:01Z</time>
      </trkpt>
      <trkpt lat="45.59039" lon="4.68491">
        <ele>337</ele>
        <time>2019-06-29T01:24:15Z</time>
      </trkpt>
      <trkpt lat="45.59003" lon="4.68599">
        <ele>340</ele>
        <time>2019-06-29T01:24:34Z</time>
      </trkpt>
      <trkpt lat="45.58998" lon="4.68619">
        <ele>341</ele>
        <time>2019-06-29T01:24:38Z</time>
      </trkpt>
      <trkpt lat="45.58989" lon="4.68684">
        <ele>342</ele>
        <time>2019-06-29T01:24:48Z</time>
      </trkpt>
      <trkpt lat="45.58991" lon="4.68853">
        <ele>341</ele>
        <time>2019-06-29T01:25:16Z</time>
      </trkpt>
      <trkpt lat="45.58995" lon="4.68918">
        <ele>340</ele>
        <time>2019-06-29T01:25:27Z</time>
      </trkpt>
      <trkpt lat="45.59014" lon="4.69037">
        <ele>339</ele>
        <time>2019-06-29T01:25:47Z</time>
      </trkpt>
      <trkpt lat="45.59016" lon="4.69066">
        <ele>339</ele>
        <time>2019-06-29T01:25:51Z</time>
      </trkpt>
      <trkpt lat="45.59014" lon="4.69099">
        <ele>339</ele>
        <time>2019-06-29T01:25:57Z</time>
      </trkpt>
      <trkpt lat="45.58991" lon="4.69293">
        <ele>337</ele>
        <time>2019-06-29T01:26:29Z</time>
      </trkpt>
      <trkpt lat="45.58994" lon="4.69313">
        <ele>338</ele>
        <time>2019-06-29T01:26:32Z</time>
      </trkpt>
      <trkpt lat="45.58873" lon="4.69272">
        <ele>335</ele>
        <time>2019-06-29T01:27:01Z</time>
      </trkpt>
      <trkpt lat="45.58849" lon="4.69274">
        <ele>334</ele>
        <time>2019-06-29T01:27:07Z</time>
      </trkpt>
      <trkpt lat="45.58729" lon="4.69305">
        <ele>329</ele>
        <time>2019-06-29T01:27:36Z</time>
      </trkpt>
      <trkpt lat="45.58712" lon="4.69276">
        <ele>329</ele>
        <time>2019-06-29T01:27:42Z</time>
      </trkpt>
      <trkpt lat="45.58652" lon="4.69303">
        <ele>327</ele>
        <time>2019-06-29T01:27:56Z</time>
      </trkpt>
      <trkpt lat="45.58593" lon="4.69312">
        <ele>325</ele>
        <time>2019-06-29T01:28:10Z</time>
      </trkpt>
      <trkpt lat="45.58428" lon="4.69326">
        <ele>323</ele>
        <time>2019-06-29T01:28:49Z</time>
      </trkpt>
      <trkpt lat="45.58425" lon="4.69364">
        <ele>322</ele>
        <time>2019-06-29T01:28:55Z</time>
      </trkpt>
      <trkpt lat="45.58429" lon="4.69392">
        <ele>321</ele>
        <time>2019-06-29T01:29:00Z</time>
      </trkpt>
      <trkpt lat="45.58365" lon="4.69436">
        <ele>320</ele>
        <time>2019-06-29T01:29:16Z</time>
      </trkpt>
      <trkpt lat="45.58324" lon="4.69449">
        <ele>319</ele>
        <time>2019-06-29T01:29:26Z</time>
      </trkpt>
      <trkpt lat="45.58273" lon="4.69459">
        <ele>317</ele>
        <time>2019-06-29T01:29:38Z</time>
      </trkpt>
      <trkpt lat="45.58159" lon="4.69467">
        <ele>312</ele>
        <time>2019-06-29T01:30:05Z</time>
      </trkpt>
      <trkpt lat="45.58062" lon="4.69483">
        <ele>304</ele>
        <time>2019-06-29T01:30:28Z</time>
      </trkpt>
      <trkpt lat="45.57955" lon="4.69505">
        <ele>293</ele>
        <time>2019-06-29T01:30:53Z</time>
      </trkpt>
      <trkpt lat="45.57922" lon="4.69537">
        <ele>292</ele>
        <time>2019-06-29T01:31:02Z</time>
      </trkpt>
      <trkpt lat="45.57879" lon="4.69549">
        <ele>287</ele>
        <time>2019-06-29T01:31:12Z</time>
      </trkpt>
      <trkpt lat="45.57831" lon="4.69567">
        <ele>280</ele>
        <time>2019-06-29T01:31:24Z</time>
      </trkpt>
      <trkpt lat="45.57795" lon="4.69555">
        <ele>269</ele>
        <time>2019-06-29T01:31:33Z</time>
      </trkpt>
      <trkpt lat="45.57787" lon="4.69567">
        <ele>268</ele>
        <time>2019-06-29T01:31:35Z</time>
      </trkpt>
      <trkpt lat="45.57783" lon="4.6957">
        <ele>267</ele>
        <time>2019-06-29T01:31:36Z</time>
      </trkpt>
      <trkpt lat="45.57778" lon="4.69569">
        <ele>265</ele>
        <time>2019-06-29T01:31:38Z</time>
      </trkpt>
      <trkpt lat="45.5777" lon="4.69565">
        <ele>263</ele>
        <time>2019-06-29T01:31:40Z</time>
      </trkpt>
      <trkpt lat="45.57756" lon="4.6955">
        <ele>259</ele>
        <time>2019-06-29T01:31:44Z</time>
      </trkpt>
      <trkpt lat="45.5775" lon="4.6953">
        <ele>257</ele>
        <time>2019-06-29T01:31:47Z</time>
      </trkpt>
      <trkpt lat="45.57745" lon="4.69531">
        <ele>257</ele>
        <time>2019-06-29T01:31:48Z</time>
      </trkpt>
      <trkpt lat="45.5774" lon="4.69535">
        <ele>258</ele>
        <time>2019-06-29T01:31:50Z</time>
      </trkpt>
      <trkpt lat="45.57733" lon="4.69547">
        <ele>258</ele>
        <time>2019-06-29T01:31:52Z</time>
      </trkpt>
      <trkpt lat="45.5773" lon="4.69558">
        <ele>258</ele>
        <time>2019-06-29T01:31:54Z</time>
      </trkpt>
      <trkpt lat="45.57729" lon="4.69587">
        <ele>257</ele>
        <time>2019-06-29T01:31:59Z</time>
      </trkpt>
      <trkpt lat="45.57726" lon="4.69595">
        <ele>256</ele>
        <time>2019-06-29T01:32:00Z</time>
      </trkpt>
      <trkpt lat="45.57715" lon="4.69595">
        <ele>256</ele>
        <time>2019-06-29T01:32:03Z</time>
      </trkpt>
      <trkpt lat="45.57708" lon="4.69589">
        <ele>257</ele>
        <time>2019-06-29T01:32:05Z</time>
      </trkpt>
      <trkpt lat="45.57698" lon="4.69566">
        <ele>258</ele>
        <time>2019-06-29T01:32:09Z</time>
      </trkpt>
      <trkpt lat="45.57678" lon="4.69568">
        <ele>258</ele>
        <time>2019-06-29T01:32:14Z</time>
      </trkpt>
      <trkpt lat="45.57673" lon="4.69581">
        <ele>257</ele>
        <time>2019-06-29T01:32:16Z</time>
      </trkpt>
      <trkpt lat="45.57672" lon="4.69647">
        <ele>256</ele>
        <time>2019-06-29T01:32:27Z</time>
      </trkpt>
      <trkpt lat="45.57668" lon="4.69692">
        <ele>256</ele>
        <time>2019-06-29T01:32:35Z</time>
      </trkpt>
      <trkpt lat="45.57665" lon="4.69698">
        <ele>256</ele>
        <time>2019-06-29T01:32:36Z</time>
      </trkpt>
      <trkpt lat="45.57662" lon="4.697">
        <ele>257</ele>
        <time>2019-06-29T01:32:37Z</time>
      </trkpt>
      <trkpt lat="45.57658" lon="4.69696">
        <ele>258</ele>
        <time>2019-06-29T01:32:38Z</time>
      </trkpt>
      <trkpt lat="45.57613" lon="4.69707">
        <ele>268</ele>
        <time>2019-06-29T01:32:48Z</time>
      </trkpt>
      <trkpt lat="45.57543" lon="4.69655">
        <ele>279</ele>
        <time>2019-06-29T01:33:07Z</time>
      </trkpt>
      <trkpt lat="45.57537" lon="4.69654">
        <ele>279</ele>
        <time>2019-06-29T01:33:08Z</time>
      </trkpt>
      <trkpt lat="45.57533" lon="4.69657">
        <ele>280</ele>
        <time>2019-06-29T01:33:09Z</time>
      </trkpt>
      <trkpt lat="45.57526" lon="4.69675">
        <ele>280</ele>
        <time>2019-06-29T01:33:13Z</time>
      </trkpt>
      <trkpt lat="45.57506" lon="4.69662">
        <ele>282</ele>
        <time>2019-06-29T01:33:18Z</time>
      </trkpt>
      <trkpt lat="45.57489" lon="4.69643">
        <ele>283</ele>
        <time>2019-06-29T01:33:23Z</time>
      </trkpt>
      <trkpt lat="45.57531" lon="4.69513">
        <ele>279</ele>
        <time>2019-06-29T01:33:46Z</time>
      </trkpt>
      <trkpt lat="45.57493" lon="4.69513">
        <ele>279</ele>
        <time>2019-06-29T01:33:55Z</time>
      </trkpt>
      <trkpt lat="45.57428" lon="4.69519">
        <ele>280</ele>
        <time>2019-06-29T01:34:10Z</time>
      </trkpt>
      <trkpt lat="45.57365" lon="4.69503">
        <ele>277</ele>
        <time>2019-06-29T01:34:25Z</time>
      </trkpt>
      <trkpt lat="45.57326" lon="4.69487">
        <ele>272</ele>
        <time>2019-06-29T01:34:35Z</time>
      </trkpt>
      <trkpt lat="45.57303" lon="4.69483">
        <ele>267</ele>
        <time>2019-06-29T01:34:40Z</time>
      </trkpt>
      <trkpt lat="45.57296" lon="4.69491">
        <ele>268</ele>
        <time>2019-06-29T01:34:42Z</time>
      </trkpt>
      <trkpt lat="45.5729" lon="4.69513">
        <ele>270</ele>
        <time>2019-06-29T01:34:46Z</time>
      </trkpt>
      <trkpt lat="45.5729" lon="4.69531">
        <ele>270</ele>
        <time>2019-06-29T01:34:49Z</time>
      </trkpt>
      <trkpt lat="45.57293" lon="4.69546">
        <ele>271</ele>
        <time>2019-06-29T01:34:52Z</time>
      </trkpt>
      <trkpt lat="45.57307" lon="4.6958">
        <ele>274</ele>
        <time>2019-06-29T01:34:58Z</time>
      </trkpt>
      <trkpt lat="45.57309" lon="4.69608">
        <ele>275</ele>
        <time>2019-06-29T01:35:03Z</time>
      </trkpt>
      <trkpt lat="45.573" lon="4.69636">
        <ele>274</ele>
        <time>2019-06-29T01:35:08Z</time>
      </trkpt>
      <trkpt lat="45.5729" lon="4.69652">
        <ele>272</ele>
        <time>2019-06-29T01:35:11Z</time>
      </trkpt>
      <trkpt lat="45.57263" lon="4.69673">
        <ele>267</ele>
        <time>2019-06-29T01:35:18Z</time>
      </trkpt>
      <trkpt lat="45.57256" lon="4.69686">
        <ele>265</ele>
        <time>2019-06-29T01:35:21Z</time>
      </trkpt>
      <trkpt lat="45.57198" lon="4.69874">
        <ele>245</ele>
        <time>2019-06-29T01:35:55Z</time>
      </trkpt>
      <trkpt lat="45.57179" lon="4.69903">
        <ele>240</ele>
        <time>2019-06-29T01:36:01Z</time>
      </trkpt>
      <trkpt lat="45.5712" lon="4.69955">
        <ele>233</ele>
        <time>2019-06-29T01:36:17Z</time>
      </trkpt>
      <trkpt lat="45.57078" lon="4.6995">
        <ele>218</ele>
        <time>2019-06-29T01:36:27Z</time>
      </trkpt>
      <trkpt lat="45.57067" lon="4.6996">
        <ele>217</ele>
        <time>2019-06-29T01:36:30Z</time>
      </trkpt>
      <trkpt lat="45.57062" lon="4.69982">
        <ele>220</ele>
        <time>2019-06-29T01:36:34Z</time>
      </trkpt>
      <trkpt lat="45.57064" lon="4.70026">
        <ele>230</ele>
        <time>2019-06-29T01:36:41Z</time>
      </trkpt>
      <trkpt lat="45.57069" lon="4.70057">
        <ele>237</ele>
        <time>2019-06-29T01:36:46Z</time>
      </trkpt>
      <trkpt lat="45.5708" lon="4.70089">
        <ele>246</ele>
        <time>2019-06-29T01:36:52Z</time>
      </trkpt>
      <trkpt lat="45.57073" lon="4.70092">
        <ele>244</ele>
        <time>2019-06-29T01:36:54Z</time>
      </trkpt>
      <trkpt lat="45.57067" lon="4.70087">
        <ele>242</ele>
        <time>2019-06-29T01:36:56Z</time>
      </trkpt>
      <trkpt lat="45.57054" lon="4.70089">
        <ele>239</ele>
        <time>2019-06-29T01:36:59Z</time>
      </trkpt>
      <trkpt lat="45.57022" lon="4.7008">
        <ele>228</ele>
        <time>2019-06-29T01:37:06Z</time>
      </trkpt>
      <trkpt lat="45.57012" lon="4.70082">
        <ele>226</ele>
        <time>2019-06-29T01:37:09Z</time>
      </trkpt>
      <trkpt lat="45.57001" lon="4.70089">
        <ele>225</ele>
        <time>2019-06-29T01:37:11Z</time>
      </trkpt>
      <trkpt lat="45.56988" lon="4.70103">
        <ele>225</ele>
        <time>2019-06-29T01:37:15Z</time>
      </trkpt>
      <trkpt lat="45.56973" lon="4.70103">
        <ele>222</ele>
        <time>2019-06-29T01:37:19Z</time>
      </trkpt>
      <trkpt lat="45.5693" lon="4.70091">
        <ele>211</ele>
        <time>2019-06-29T01:37:29Z</time>
      </trkpt>
      <trkpt lat="45.56922" lon="4.70095">
        <ele>210</ele>
        <time>2019-06-29T01:37:31Z</time>
      </trkpt>
      <trkpt lat="45.56906" lon="4.70117">
        <ele>211</ele>
        <time>2019-06-29T01:37:36Z</time>
      </trkpt>
      <trkpt lat="45.56877" lon="4.70169">
        <ele>211</ele>
        <time>2019-06-29T01:37:47Z</time>
      </trkpt>
      <trkpt lat="45.56865" lon="4.70212">
        <ele>212</ele>
        <time>2019-06-29T01:37:55Z</time>
      </trkpt>
      <trkpt lat="45.56847" lon="4.70255">
        <ele>211</ele>
        <time>2019-06-29T01:38:03Z</time>
      </trkpt>
      <trkpt lat="45.56825" lon="4.70278">
        <ele>210</ele>
        <time>2019-06-29T01:38:09Z</time>
      </trkpt>
      <trkpt lat="45.56802" lon="4.70297">
        <ele>208</ele>
        <time>2019-06-29T01:38:15Z</time>
      </trkpt>
      <trkpt lat="45.56784" lon="4.70308">
        <ele>204</ele>
        <time>2019-06-29T01:38:20Z</time>
      </trkpt>
      <trkpt lat="45.56769" lon="4.70324">
        <ele>201</ele>
        <time>2019-06-29T01:38:24Z</time>
      </trkpt>
      <trkpt lat="45.56757" lon="4.70389">
        <ele>202</ele>
        <time>2019-06-29T01:38:35Z</time>
      </trkpt>
      <trkpt lat="45.5674" lon="4.70407">
        <ele>199</ele>
        <time>2019-06-29T01:38:40Z</time>
      </trkpt>
      <trkpt lat="45.56717" lon="4.70419">
        <ele>195</ele>
        <time>2019-06-29T01:38:46Z</time>
      </trkpt>
      <trkpt lat="45.56709" lon="4.70411">
        <ele>194</ele>
        <time>2019-06-29T01:38:48Z</time>
      </trkpt>
      <trkpt lat="45.5668" lon="4.70433">
        <ele>187</ele>
        <time>2019-06-29T01:38:56Z</time>
      </trkpt>
      <trkpt lat="45.56663" lon="4.70522">
        <ele>182</ele>
        <time>2019-06-29T01:39:11Z</time>
      </trkpt>
      <trkpt lat="45.5657" lon="4.70513">
        <ele>181</ele>
        <time>2019-06-29T01:39:33Z</time>
      </trkpt>
      <trkpt lat="45.56527" lon="4.70496">
        <ele>182</ele>
        <time>2019-06-29T01:39:43Z</time>
      </trkpt>
      <trkpt lat="45.56517" lon="4.7061">
        <ele>187</ele>
        <time>2019-06-29T01:40:02Z</time>
      </trkpt>
      <trkpt lat="45.56531" lon="4.70676">
        <ele>191</ele>
        <time>2019-06-29T01:40:13Z</time>
      </trkpt>
      <trkpt lat="45.56531" lon="4.70689">
        <ele>192</ele>
        <time>2019-06-29T01:40:15Z</time>
      </trkpt>
      <trkpt lat="45.56513" lon="4.70729">
        <ele>198</ele>
        <time>2019-06-29T01:40:23Z</time>
      </trkpt>
      <trkpt lat="45.56513" lon="4.70742">
        <ele>199</ele>
        <time>2019-06-29T01:40:25Z</time>
      </trkpt>
      <trkpt lat="45.56523" lon="4.70763">
        <ele>200</ele>
        <time>2019-06-29T01:40:29Z</time>
      </trkpt>
      <trkpt lat="45.56547" lon="4.70801">
        <ele>200</ele>
        <time>2019-06-29T01:40:38Z</time>
      </trkpt>
      <trkpt lat="45.56565" lon="4.70841">
        <ele>200</ele>
        <time>2019-06-29T01:40:46Z</time>
      </trkpt>
      <trkpt lat="45.56577" lon="4.70938">
        <ele>203</ele>
        <time>2019-06-29T01:41:02Z</time>
      </trkpt>
      <trkpt lat="45.56571" lon="4.70961">
        <ele>206</ele>
        <time>2019-06-29T01:41:06Z</time>
      </trkpt>
      <trkpt lat="45.56554" lon="4.70983">
        <ele>211</ele>
        <time>2019-06-29T01:41:11Z</time>
      </trkpt>
      <trkpt lat="45.56525" lon="4.71007">
        <ele>219</ele>
        <time>2019-06-29T01:41:19Z</time>
      </trkpt>
      <trkpt lat="45.56463" lon="4.71033">
        <ele>231</ele>
        <time>2019-06-29T01:41:34Z</time>
      </trkpt>
      <trkpt lat="45.56447" lon="4.71049">
        <ele>232</ele>
        <time>2019-06-29T01:41:38Z</time>
      </trkpt>
      <trkpt lat="45.56472" lon="4.71099">
        <ele>226</ele>
        <time>2019-06-29T01:41:49Z</time>
      </trkpt>
      <trkpt lat="45.56481" lon="4.71102">
        <ele>226</ele>
        <time>2019-06-29T01:41:51Z</time>
      </trkpt>
      <trkpt lat="45.56527" lon="4.7109">
        <ele>219</ele>
        <time>2019-06-29T01:42:02Z</time>
      </trkpt>
      <trkpt lat="45.56541" lon="4.7109">
        <ele>218</ele>
        <time>2019-06-29T01:42:05Z</time>
      </trkpt>
      <trkpt lat="45.56559" lon="4.71108">
        <ele>218</ele>
        <time>2019-06-29T01:42:10Z</time>
      </trkpt>
      <trkpt lat="45.56576" lon="4.71171">
        <ele>221</ele>
        <time>2019-06-29T01:42:21Z</time>
      </trkpt>
      <trkpt lat="45.56581" lon="4.71182">
        <ele>221</ele>
        <time>2019-06-29T01:42:23Z</time>
      </trkpt>
      <trkpt lat="45.56632" lon="4.71249">
        <ele>218</ele>
        <time>2019-06-29T01:42:39Z</time>
      </trkpt>
      <trkpt lat="45.56654" lon="4.71282">
        <ele>218</ele>
        <time>2019-06-29T01:42:47Z</time>
      </trkpt>
      <trkpt lat="45.56658" lon="4.71304">
        <ele>219</ele>
        <time>2019-06-29T01:42:51Z</time>
      </trkpt>
      <trkpt lat="45.56652" lon="4.71329">
        <ele>223</ele>
        <time>2019-06-29T01:42:55Z</time>
      </trkpt>
      <trkpt lat="45.56663" lon="4.71334">
        <ele>222</ele>
        <time>2019-06-29T01:42:58Z</time>
      </trkpt>
      <trkpt lat="45.56677" lon="4.71335">
        <ele>220</ele>
        <time>2019-06-29T01:43:01Z</time>
      </trkpt>
      <trkpt lat="45.56738" lon="4.71381">
        <ele>219</ele>
        <time>2019-06-29T01:43:17Z</time>
      </trkpt>
      <trkpt lat="45.56758" lon="4.71411">
        <ele>222</ele>
        <time>2019-06-29T01:43:24Z</time>
      </trkpt>
      <trkpt lat="45.56819" lon="4.7145">
        <ele>217</ele>
        <time>2019-06-29T01:43:39Z</time>
      </trkpt>
      <trkpt lat="45.56837" lon="4.71481">
        <ele>218</ele>
        <time>2019-06-29T01:43:46Z</time>
      </trkpt>
      <trkpt lat="45.56843" lon="4.71503">
        <ele>220</ele>
        <time>2019-06-29T01:43:50Z</time>
      </trkpt>
      <trkpt lat="45.56868" lon="4.71533">
        <ele>219</ele>
        <time>2019-06-29T01:43:57Z</time>
      </trkpt>
      <trkpt lat="45.5691" lon="4.71595">
        <ele>220</ele>
        <time>2019-06-29T01:44:11Z</time>
      </trkpt>
      <trkpt lat="45.56946" lon="4.71642">
        <ele>218</ele>
        <time>2019-06-29T01:44:23Z</time>
      </trkpt>
      <trkpt lat="45.56968" lon="4.71677">
        <ele>217</ele>
        <time>2019-06-29T01:44:31Z</time>
      </trkpt>
      <trkpt lat="45.56978" lon="4.7171">
        <ele>218</ele>
        <time>2019-06-29T01:44:36Z</time>
      </trkpt>
      <trkpt lat="45.56976" lon="4.71742">
        <ele>223</ele>
        <time>2019-06-29T01:44:42Z</time>
      </trkpt>
      <trkpt lat="45.56968" lon="4.71761">
        <ele>227</ele>
        <time>2019-06-29T01:44:45Z</time>
      </trkpt>
      <trkpt lat="45.56978" lon="4.71773">
        <ele>224</ele>
        <time>2019-06-29T01:44:48Z</time>
      </trkpt>
      <trkpt lat="45.56988" lon="4.7178">
        <ele>220</ele>
        <time>2019-06-29T01:44:51Z</time>
      </trkpt>
      <trkpt lat="45.56993" lon="4.71775">
        <ele>219</ele>
        <time>2019-06-29T01:44:52Z</time>
      </trkpt>
      <trkpt lat="45.56999" lon="4.71724">
        <ele>213</ele>
        <time>2019-06-29T01:45:01Z</time>
      </trkpt>
      <trkpt lat="45.57004" lon="4.71725">
        <ele>211</ele>
        <time>2019-06-29T01:45:02Z</time>
      </trkpt>
      <trkpt lat="45.57012" lon="4.71729">
        <ele>209</ele>
        <time>2019-06-29T01:45:04Z</time>
      </trkpt>
      <trkpt lat="45.57023" lon="4.71749">
        <ele>208</ele>
        <time>2019-06-29T01:45:08Z</time>
      </trkpt>
      <trkpt lat="45.57026" lon="4.71793">
        <ele>208</ele>
        <time>2019-06-29T01:45:15Z</time>
      </trkpt>
      <trkpt lat="45.57028" lon="4.71795">
        <ele>208</ele>
        <time>2019-06-29T01:45:16Z</time>
      </trkpt>
      <trkpt lat="45.57033" lon="4.71794">
        <ele>206</ele>
        <time>2019-06-29T01:45:17Z</time>
      </trkpt>
      <trkpt lat="45.5704" lon="4.71779">
        <ele>203</ele>
        <time>2019-06-29T01:45:20Z</time>
      </trkpt>
      <trkpt lat="45.57051" lon="4.71728">
        <ele>195</ele>
        <time>2019-06-29T01:45:29Z</time>
      </trkpt>
      <trkpt lat="45.57051" lon="4.717">
        <ele>192</ele>
        <time>2019-06-29T01:45:33Z</time>
      </trkpt>
      <trkpt lat="45.57062" lon="4.71712">
        <ele>190</ele>
        <time>2019-06-29T01:45:37Z</time>
      </trkpt>
      <trkpt lat="45.5707" lon="4.71726">
        <ele>188</ele>
        <time>2019-06-29T01:45:40Z</time>
      </trkpt>
      <trkpt lat="45.5708" lon="4.71754">
        <ele>188</ele>
        <time>2019-06-29T01:45:45Z</time>
      </trkpt>
      <trkpt lat="45.57081" lon="4.71786">
        <ele>190</ele>
        <time>2019-06-29T01:45:50Z</time>
      </trkpt>
      <trkpt lat="45.57095" lon="4.71776">
        <ele>187</ele>
        <time>2019-06-29T01:45:54Z</time>
      </trkpt>
      <trkpt lat="45.57098" lon="4.71799">
        <ele>189</ele>
        <time>2019-06-29T01:45:57Z</time>
      </trkpt>
      <trkpt lat="45.57097" lon="4.71807">
        <ele>190</ele>
        <time>2019-06-29T01:45:59Z</time>
      </trkpt>
      <trkpt lat="45.57077" lon="4.71861">
        <ele>198</ele>
        <time>2019-06-29T01:46:09Z</time>
      </trkpt>
      <trkpt lat="45.57046" lon="4.71893">
        <ele>206</ele>
        <time>2019-06-29T01:46:18Z</time>
      </trkpt>
      <trkpt lat="45.57035" lon="4.71913">
        <ele>208</ele>
        <time>2019-06-29T01:46:22Z</time>
      </trkpt>
      <trkpt lat="45.5703" lon="4.71942">
        <ele>210</ele>
        <time>2019-06-29T01:46:27Z</time>
      </trkpt>
      <trkpt lat="45.57036" lon="4.71945">
        <ele>210</ele>
        <time>2019-06-29T01:46:28Z</time>
      </trkpt>
      <trkpt lat="45.57042" lon="4.71943">
        <ele>209</ele>
        <time>2019-06-29T01:46:30Z</time>
      </trkpt>
      <trkpt lat="45.57076" lon="4.71949">
        <ele>207</ele>
        <time>2019-06-29T01:46:38Z</time>
      </trkpt>
      <trkpt lat="45.57083" lon="4.71935">
        <ele>205</ele>
        <time>2019-06-29T01:46:40Z</time>
      </trkpt>
      <trkpt lat="45.5717" lon="4.71981">
        <ele>205</ele>
        <time>2019-06-29T01:47:02Z</time>
      </trkpt>
      <trkpt lat="45.57172" lon="4.72031">
        <ele>211</ele>
        <time>2019-06-29T01:47:10Z</time>
      </trkpt>
      <trkpt lat="45.57195" lon="4.72144">
        <ele>221</ele>
        <time>2019-06-29T01:47:30Z</time>
      </trkpt>
      <trkpt lat="45.57186" lon="4.72226">
        <ele>234</ele>
        <time>2019-06-29T01:47:43Z</time>
      </trkpt>
      <trkpt lat="45.57186" lon="4.72259">
        <ele>238</ele>
        <time>2019-06-29T01:47:49Z</time>
      </trkpt>
      <trkpt lat="45.57197" lon="4.72349">
        <ele>241</ele>
        <time>2019-06-29T01:48:03Z</time>
      </trkpt>
      <trkpt lat="45.57198" lon="4.72377">
        <ele>243</ele>
        <time>2019-06-29T01:48:08Z</time>
      </trkpt>
      <trkpt lat="45.57204" lon="4.72404">
        <ele>244</ele>
        <time>2019-06-29T01:48:13Z</time>
      </trkpt>
      <trkpt lat="45.57234" lon="4.72435">
        <ele>239</ele>
        <time>2019-06-29T01:48:21Z</time>
      </trkpt>
      <trkpt lat="45.5725" lon="4.72458">
        <ele>237</ele>
        <time>2019-06-29T01:48:27Z</time>
      </trkpt>
      <trkpt lat="45.57248" lon="4.72479">
        <ele>239</ele>
        <time>2019-06-29T01:48:30Z</time>
      </trkpt>
      <trkpt lat="45.57231" lon="4.72501">
        <ele>243</ele>
        <time>2019-06-29T01:48:35Z</time>
      </trkpt>
      <trkpt lat="45.57216" lon="4.725">
        <ele>246</ele>
        <time>2019-06-29T01:48:39Z</time>
      </trkpt>
      <trkpt lat="45.5718" lon="4.72465">
        <ele>252</ele>
        <time>2019-06-29T01:48:49Z</time>
      </trkpt>
      <trkpt lat="45.57163" lon="4.7244">
        <ele>255</ele>
        <time>2019-06-29T01:48:55Z</time>
      </trkpt>
      <trkpt lat="45.57147" lon="4.72434">
        <ele>258</ele>
        <time>2019-06-29T01:48:59Z</time>
      </trkpt>
      <trkpt lat="45.57135" lon="4.72444">
        <ele>261</ele>
        <time>2019-06-29T01:49:02Z</time>
      </trkpt>
      <trkpt lat="45.56924" lon="4.72719">
        <ele>273</ele>
        <time>2019-06-29T01:50:09Z</time>
      </trkpt>
      <trkpt lat="45.56923" lon="4.7275">
        <ele>272</ele>
        <time>2019-06-29T01:50:14Z</time>
      </trkpt>
      <trkpt lat="45.56933" lon="4.7275">
        <ele>272</ele>
        <time>2019-06-29T01:50:16Z</time>
      </trkpt>
      <trkpt lat="45.57008" lon="4.72722">
        <ele>268</ele>
        <time>2019-06-29T01:50:34Z</time>
      </trkpt>
      <trkpt lat="45.57063" lon="4.72719">
        <ele>269</ele>
        <time>2019-06-29T01:50:47Z</time>
      </trkpt>
      <trkpt lat="45.57078" lon="4.72708">
        <ele>267</ele>
        <time>2019-06-29T01:50:51Z</time>
      </trkpt>
      <trkpt lat="45.57122" lon="4.727">
        <ele>265</ele>
        <time>2019-06-29T01:51:01Z</time>
      </trkpt>
      <trkpt lat="45.57192" lon="4.72752">
        <ele>272</ele>
        <time>2019-06-29T01:51:20Z</time>
      </trkpt>
      <trkpt lat="45.57111" lon="4.72808">
        <ele>281</ele>
        <time>2019-06-29T01:51:41Z</time>
      </trkpt>
      <trkpt lat="45.57024" lon="4.72926">
        <ele>297</ele>
        <time>2019-06-29T01:52:09Z</time>
      </trkpt>
      <trkpt lat="45.5698" lon="4.72978">
        <ele>305</ele>
        <time>2019-06-29T01:52:22Z</time>
      </trkpt>
      <trkpt lat="45.56999" lon="4.73037">
        <ele>308</ele>
        <time>2019-06-29T01:52:33Z</time>
      </trkpt>
      <trkpt lat="45.57005" lon="4.73105">
        <ele>312</ele>
        <time>2019-06-29T01:52:44Z</time>
      </trkpt>
      <trkpt lat="45.57023" lon="4.73158">
        <ele>313</ele>
        <time>2019-06-29T01:52:54Z</time>
      </trkpt>
      <trkpt lat="45.57056" lon="4.73229">
        <ele>311</ele>
        <time>2019-06-29T01:53:07Z</time>
      </trkpt>
      <trkpt lat="45.57052" lon="4.73309">
        <ele>312</ele>
        <time>2019-06-29T01:53:21Z</time>
      </trkpt>
      <trkpt lat="45.57038" lon="4.73359">
        <ele>314</ele>
        <time>2019-06-29T01:53:29Z</time>
      </trkpt>
      <trkpt lat="45.57034" lon="4.73405">
        <ele>313</ele>
        <time>2019-06-29T01:53:37Z</time>
      </trkpt>
      <trkpt lat="45.57043" lon="4.73415">
        <ele>313</ele>
        <time>2019-06-29T01:53:40Z</time>
      </trkpt>
      <trkpt lat="45.57068" lon="4.7342">
        <ele>312</ele>
        <time>2019-06-29T01:53:46Z</time>
      </trkpt>
      <trkpt lat="45.57106" lon="4.73444">
        <ele>312</ele>
        <time>2019-06-29T01:53:55Z</time>
      </trkpt>
      <trkpt lat="45.57008" lon="4.73558">
        <ele>321</ele>
        <time>2019-06-29T01:54:25Z</time>
      </trkpt>
      <trkpt lat="45.56961" lon="4.73605">
        <ele>326</ele>
        <time>2019-06-29T01:54:38Z</time>
      </trkpt>
      <trkpt lat="45.56929" lon="4.73624">
        <ele>329</ele>
        <time>2019-06-29T01:54:46Z</time>
      </trkpt>
      <trkpt lat="45.56884" lon="4.73637">
        <ele>333</ele>
        <time>2019-06-29T01:54:57Z</time>
      </trkpt>
      <trkpt lat="45.56889" lon="4.73678">
        <ele>333</ele>
        <time>2019-06-29T01:55:04Z</time>
      </trkpt>
      <trkpt lat="45.56881" lon="4.73761">
        <ele>332</ele>
        <time>2019-06-29T01:55:17Z</time>
      </trkpt>
      <trkpt lat="45.56871" lon="4.73799">
        <ele>333</ele>
        <time>2019-06-29T01:55:24Z</time>
      </trkpt>
      <trkpt lat="45.56836" lon="4.73873">
        <ele>333</ele>
        <time>2019-06-29T01:55:39Z</time>
      </trkpt>
      <trkpt lat="45.56918" lon="4.73975">
        <ele>328</ele>
        <time>2019-06-29T01:56:04Z</time>
      </trkpt>
      <trkpt lat="45.56978" lon="4.74056">
        <ele>323</ele>
        <time>2019-06-29T01:56:23Z</time>
      </trkpt>
      <trkpt lat="45.56954" lon="4.7407">
        <ele>324</ele>
        <time>2019-06-29T01:56:29Z</time>
      </trkpt>
      <trkpt lat="45.56923" lon="4.74075">
        <ele>325</ele>
        <time>2019-06-29T01:56:37Z</time>
      </trkpt>
      <trkpt lat="45.56887" lon="4.7407">
        <ele>326</ele>
        <time>2019-06-29T01:56:45Z</time>
      </trkpt>
      <trkpt lat="45.5686" lon="4.74062">
        <ele>326</ele>
        <time>2019-06-29T01:56:52Z</time>
      </trkpt>
      <trkpt lat="45.56823" lon="4.74038">
        <ele>328</ele>
        <time>2019-06-29T01:57:01Z</time>
      </trkpt>
      <trkpt lat="45.56804" lon="4.74036">
        <ele>328</ele>
        <time>2019-06-29T01:57:06Z</time>
      </trkpt>
      <trkpt lat="45.56788" lon="4.7404">
        <ele>327</ele>
        <time>2019-06-29T01:57:09Z</time>
      </trkpt>
      <trkpt lat="45.56772" lon="4.7408">
        <ele>326</ele>
        <time>2019-06-29T01:57:17Z</time>
      </trkpt>
      <trkpt lat="45.56733" lon="4.74153">
        <ele>328</ele>
        <time>2019-06-29T01:57:32Z</time>
      </trkpt>
      <trkpt lat="45.56693" lon="4.74195">
        <ele>329</ele>
        <time>2019-06-29T01:57:43Z</time>
      </trkpt>
      <trkpt lat="45.56642" lon="4.74237">
        <ele>331</ele>
        <time>2019-06-29T01:57:57Z</time>
      </trkpt>
      <trkpt lat="45.56565" lon="4.74289">
        <ele>333</ele>
        <time>2019-06-29T01:58:17Z</time>
      </trkpt>
      <trkpt lat="45.56547" lon="4.74297">
        <ele>333</ele>
        <time>2019-06-29T01:58:21Z</time>
      </trkpt>
      <trkpt lat="45.56533" lon="4.74299">
        <ele>333</ele>
        <time>2019-06-29T01:58:25Z</time>
      </trkpt>
      <trkpt lat="45.56504" lon="4.7429">
        <ele>333</ele>
        <time>2019-06-29T01:58:32Z</time>
      </trkpt>
      <trkpt lat="45.5646" lon="4.74265">
        <ele>335</ele>
        <time>2019-06-29T01:58:43Z</time>
      </trkpt>
      <trkpt lat="45.56446" lon="4.7426">
        <ele>335</ele>
        <time>2019-06-29T01:58:46Z</time>
      </trkpt>
      <trkpt lat="45.56375" lon="4.74257">
        <ele>337</ele>
        <time>2019-06-29T01:59:03Z</time>
      </trkpt>
      <trkpt lat="45.56375" lon="4.74315">
        <ele>336</ele>
        <time>2019-06-29T01:59:12Z</time>
      </trkpt>
      <trkpt lat="45.56357" lon="4.74344">
        <ele>337</ele>
        <time>2019-06-29T01:59:19Z</time>
      </trkpt>
      <trkpt lat="45.56302" lon="4.74388">
        <ele>339</ele>
        <time>2019-06-29T01:59:33Z</time>
      </trkpt>
      <trkpt lat="45.56249" lon="4.74412">
        <ele>342</ele>
        <time>2019-06-29T01:59:46Z</time>
      </trkpt>
      <trkpt lat="45.5611" lon="4.74504">
        <ele>348</ele>
        <time>2019-06-29T02:00:22Z</time>
      </trkpt>
      <trkpt lat="45.56075" lon="4.74544">
        <ele>350</ele>
        <time>2019-06-29T02:00:32Z</time>
      </trkpt>
      <trkpt lat="45.56052" lon="4.74572">
        <ele>351</ele>
        <time>2019-06-29T02:00:40Z</time>
      </trkpt>
      <trkpt lat="45.56004" lon="4.74639">
        <ele>351</ele>
        <time>2019-06-29T02:00:55Z</time>
      </trkpt>
      <trkpt lat="45.55996" lon="4.74668">
        <ele>351</ele>
        <time>2019-06-29T02:01:00Z</time>
      </trkpt>
      <trkpt lat="45.55993" lon="4.74709">
        <ele>351</ele>
        <time>2019-06-29T02:01:07Z</time>
      </trkpt>
      <trkpt lat="45.55982" lon="4.74706">
        <ele>351</ele>
        <time>2019-06-29T02:01:10Z</time>
      </trkpt>
      <trkpt lat="45.55972" lon="4.74679">
        <ele>352</ele>
        <time>2019-06-29T02:01:15Z</time>
      </trkpt>
      <trkpt lat="45.55943" lon="4.74516">
        <ele>359</ele>
        <time>2019-06-29T02:01:42Z</time>
      </trkpt>
      <trkpt lat="45.55922" lon="4.7443">
        <ele>362</ele>
        <time>2019-06-29T02:01:57Z</time>
      </trkpt>
      <trkpt lat="45.55903" lon="4.74324">
        <ele>366</ele>
        <time>2019-06-29T02:02:15Z</time>
      </trkpt>
      <trkpt lat="45.55875" lon="4.74218">
        <ele>370</ele>
        <time>2019-06-29T02:02:33Z</time>
      </trkpt>
      <trkpt lat="45.55835" lon="4.74108">
        <ele>372</ele>
        <time>2019-06-29T02:02:54Z</time>
      </trkpt>
      <trkpt lat="45.5582" lon="4.74091">
        <ele>372</ele>
        <time>2019-06-29T02:02:58Z</time>
      </trkpt>
      <trkpt lat="45.55815" lon="4.74106">
        <ele>373</ele>
        <time>2019-06-29T02:03:01Z</time>
      </trkpt>
      <trkpt lat="45.55745" lon="4.74192">
        <ele>378</ele>
        <time>2019-06-29T02:03:22Z</time>
      </trkpt>
      <trkpt lat="45.55693" lon="4.74247">
        <ele>383</ele>
        <time>2019-06-29T02:03:38Z</time>
      </trkpt>
      <trkpt lat="45.55661" lon="4.74273">
        <ele>386</ele>
        <time>2019-06-29T02:03:46Z</time>
      </trkpt>
      <trkpt lat="45.5563" lon="4.74294">
        <ele>388</ele>
        <time>2019-06-29T02:03:54Z</time>
      </trkpt>
      <trkpt lat="45.55585" lon="4.74314">
        <ele>391</ele>
        <time>2019-06-29T02:04:05Z</time>
      </trkpt>
      <trkpt lat="45.55509" lon="4.74339">
        <ele>392</ele>
        <time>2019-06-29T02:04:23Z</time>
      </trkpt>
      <trkpt lat="45.55474" lon="4.74346">
        <ele>391</ele>
        <time>2019-06-29T02:04:32Z</time>
      </trkpt>
      <trkpt lat="45.55419" lon="4.74347">
        <ele>391</ele>
        <time>2019-06-29T02:04:45Z</time>
      </trkpt>
      <trkpt lat="45.55317" lon="4.74359">
        <ele>396</ele>
        <time>2019-06-29T02:05:08Z</time>
      </trkpt>
      <trkpt lat="45.55291" lon="4.74367">
        <ele>397</ele>
        <time>2019-06-29T02:05:15Z</time>
      </trkpt>
      <trkpt lat="45.55259" lon="4.74381">
        <ele>399</ele>
        <time>2019-06-29T02:05:22Z</time>
      </trkpt>
      <trkpt lat="45.55252" lon="4.74392">
        <ele>400</ele>
        <time>2019-06-29T02:05:25Z</time>
      </trkpt>
      <trkpt lat="45.5523" lon="4.74402">
        <ele>402</ele>
        <time>2019-06-29T02:05:30Z</time>
      </trkpt>
      <trkpt lat="45.55212" lon="4.74398">
        <ele>404</ele>
        <time>2019-06-29T02:05:35Z</time>
      </trkpt>
      <trkpt lat="45.55182" lon="4.74397">
        <ele>407</ele>
        <time>2019-06-29T02:05:42Z</time>
      </trkpt>
      <trkpt lat="45.55154" lon="4.74392">
        <ele>410</ele>
        <time>2019-06-29T02:05:48Z</time>
      </trkpt>
      <trkpt lat="45.55002" lon="4.7436">
        <ele>437</ele>
        <time>2019-06-29T02:06:24Z</time>
      </trkpt>
      <trkpt lat="45.54963" lon="4.74364">
        <ele>444</ele>
        <time>2019-06-29T02:06:33Z</time>
      </trkpt>
      <trkpt lat="45.54932" lon="4.74377">
        <ele>449</ele>
        <time>2019-06-29T02:06:41Z</time>
      </trkpt>
      <trkpt lat="45.54914" lon="4.74378">
        <ele>453</ele>
        <time>2019-06-29T02:06:45Z</time>
      </trkpt>
      <trkpt lat="45.54878" lon="4.74368">
        <ele>458</ele>
        <time>2019-06-29T02:06:53Z</time>
      </trkpt>
      <trkpt lat="45.54862" lon="4.7437">
        <ele>461</ele>
        <time>2019-06-29T02:06:57Z</time>
      </trkpt>
      <trkpt lat="45.54843" lon="4.74368">
        <ele>464</ele>
        <time>2019-06-29T02:07:02Z</time>
      </trkpt>
      <trkpt lat="45.54736" lon="4.74378">
        <ele>473</ele>
        <time>2019-06-29T02:07:27Z</time>
      </trkpt>
      <trkpt lat="45.54708" lon="4.74378">
        <ele>473</ele>
        <time>2019-06-29T02:07:33Z</time>
      </trkpt>
      <trkpt lat="45.54711" lon="4.74406">
        <ele>473</ele>
        <time>2019-06-29T02:07:38Z</time>
      </trkpt>
      <trkpt lat="45.54709" lon="4.74435">
        <ele>473</ele>
        <time>2019-06-29T02:07:43Z</time>
      </trkpt>
      <trkpt lat="45.54713" lon="4.74471">
        <ele>472</ele>
        <time>2019-06-29T02:07:49Z</time>
      </trkpt>
      <trkpt lat="45.54733" lon="4.74539">
        <ele>472</ele>
        <time>2019-06-29T02:08:01Z</time>
      </trkpt>
      <trkpt lat="45.54749" lon="4.74699">
        <ele>470</ele>
        <time>2019-06-29T02:08:27Z</time>
      </trkpt>
      <trkpt lat="45.54756" lon="4.74801">
        <ele>467</ele>
        <time>2019-06-29T02:08:44Z</time>
      </trkpt>
      <trkpt lat="45.54763" lon="4.74842">
        <ele>464</ele>
        <time>2019-06-29T02:08:51Z</time>
      </trkpt>
      <trkpt lat="45.54785" lon="4.74916">
        <ele>461</ele>
        <time>2019-06-29T02:09:04Z</time>
      </trkpt>
      <trkpt lat="45.54801" lon="4.74952">
        <ele>459</ele>
        <time>2019-06-29T02:09:11Z</time>
      </trkpt>
      <trkpt lat="45.54827" lon="4.7505">
        <ele>455</ele>
        <time>2019-06-29T02:09:28Z</time>
      </trkpt>
      <trkpt lat="45.54832" lon="4.7508">
        <ele>453</ele>
        <time>2019-06-29T02:09:33Z</time>
      </trkpt>
      <trkpt lat="45.54871" lon="4.75147">
        <ele>445</ele>
        <time>2019-06-29T02:09:47Z</time>
      </trkpt>
      <trkpt lat="45.54892" lon="4.75172">
        <ele>440</ele>
        <time>2019-06-29T02:09:54Z</time>
      </trkpt>
      <trkpt lat="45.54908" lon="4.75205">
        <ele>434</ele>
        <time>2019-06-29T02:10:00Z</time>
      </trkpt>
      <trkpt lat="45.54959" lon="4.75285">
        <ele>421</ele>
        <time>2019-06-29T02:10:18Z</time>
      </trkpt>
      <trkpt lat="45.54994" lon="4.75349">
        <ele>415</ele>
        <time>2019-06-29T02:10:31Z</time>
      </trkpt>
      <trkpt lat="45.55018" lon="4.75375">
        <ele>413</ele>
        <time>2019-06-29T02:10:38Z</time>
      </trkpt>
      <trkpt lat="45.55047" lon="4.75446">
        <ele>411</ele>
        <time>2019-06-29T02:10:52Z</time>
      </trkpt>
      <trkpt lat="45.55039" lon="4.7544">
        <ele>411</ele>
        <time>2019-06-29T02:10:54Z</time>
      </trkpt>
      <trkpt lat="45.54956" lon="4.75414">
        <ele>410</ele>
        <time>2019-06-29T02:11:14Z</time>
      </trkpt>
      <trkpt lat="45.54924" lon="4.75414">
        <ele>409</ele>
        <time>2019-06-29T02:11:21Z</time>
      </trkpt>
      <trkpt lat="45.54891" lon="4.75419">
        <ele>408</ele>
        <time>2019-06-29T02:11:29Z</time>
      </trkpt>
      <trkpt lat="45.54855" lon="4.75411">
        <ele>410</ele>
        <time>2019-06-29T02:11:37Z</time>
      </trkpt>
      <trkpt lat="45.54831" lon="4.75403">
        <ele>411</ele>
        <time>2019-06-29T02:11:43Z</time>
      </trkpt>
      <trkpt lat="45.54763" lon="4.7541">
        <ele>405</ele>
        <time>2019-06-29T02:11:59Z</time>
      </trkpt>
      <trkpt lat="45.54732" lon="4.754">
        <ele>402</ele>
        <time>2019-06-29T02:12:06Z</time>
      </trkpt>
      <trkpt lat="45.54666" lon="4.7536">
        <ele>396</ele>
        <time>2019-06-29T02:12:23Z</time>
      </trkpt>
      <trkpt lat="45.54593" lon="4.7525">
        <ele>397</ele>
        <time>2019-06-29T02:12:48Z</time>
      </trkpt>
      <trkpt lat="45.54563" lon="4.75243">
        <ele>394</ele>
        <time>2019-06-29T02:12:55Z</time>
      </trkpt>
      <trkpt lat="45.54522" lon="4.75243">
        <ele>390</ele>
        <time>2019-06-29T02:13:05Z</time>
      </trkpt>
      <trkpt lat="45.54492" lon="4.75239">
        <ele>387</ele>
        <time>2019-06-29T02:13:12Z</time>
      </trkpt>
      <trkpt lat="45.54463" lon="4.75227">
        <ele>383</ele>
        <time>2019-06-29T02:13:19Z</time>
      </trkpt>
      <trkpt lat="45.54414" lon="4.75196">
        <ele>377</ele>
        <time>2019-06-29T02:13:31Z</time>
      </trkpt>
      <trkpt lat="45.54391" lon="4.75154">
        <ele>379</ele>
        <time>2019-06-29T02:13:40Z</time>
      </trkpt>
      <trkpt lat="45.54383" lon="4.75129">
        <ele>380</ele>
        <time>2019-06-29T02:13:45Z</time>
      </trkpt>
      <trkpt lat="45.54379" lon="4.75091">
        <ele>383</ele>
        <time>2019-06-29T02:13:51Z</time>
      </trkpt>
      <trkpt lat="45.54371" lon="4.7509">
        <ele>382</ele>
        <time>2019-06-29T02:13:53Z</time>
      </trkpt>
      <trkpt lat="45.54355" lon="4.75108">
        <ele>379</ele>
        <time>2019-06-29T02:13:57Z</time>
      </trkpt>
      <trkpt lat="45.54335" lon="4.75155">
        <ele>372</ele>
        <time>2019-06-29T02:14:06Z</time>
      </trkpt>
      <trkpt lat="45.54327" lon="4.75168">
        <ele>372</ele>
        <time>2019-06-29T02:14:09Z</time>
      </trkpt>
      <trkpt lat="45.54319" lon="4.75169">
        <ele>372</ele>
        <time>2019-06-29T02:14:11Z</time>
      </trkpt>
      <trkpt lat="45.54304" lon="4.75145">
        <ele>375</ele>
        <time>2019-06-29T02:14:16Z</time>
      </trkpt>
      <trkpt lat="45.54292" lon="4.75145">
        <ele>376</ele>
        <time>2019-06-29T02:14:19Z</time>
      </trkpt>
      <trkpt lat="45.54282" lon="4.75174">
        <ele>377</ele>
        <time>2019-06-29T02:14:24Z</time>
      </trkpt>
      <trkpt lat="45.54275" lon="4.75183">
        <ele>378</ele>
        <time>2019-06-29T02:14:27Z</time>
      </trkpt>
      <trkpt lat="45.54275" lon="4.75198">
        <ele>378</ele>
        <time>2019-06-29T02:14:29Z</time>
      </trkpt>
      <trkpt lat="45.54282" lon="4.75211">
        <ele>377</ele>
        <time>2019-06-29T02:14:32Z</time>
      </trkpt>
      <trkpt lat="45.54282" lon="4.75231">
        <ele>377</ele>
        <time>2019-06-29T02:14:35Z</time>
      </trkpt>
      <trkpt lat="45.54286" lon="4.75234">
        <ele>376</ele>
        <time>2019-06-29T02:14:36Z</time>
      </trkpt>
      <trkpt lat="45.54287" lon="4.75303">
        <ele>381</ele>
        <time>2019-06-29T02:14:47Z</time>
      </trkpt>
      <trkpt lat="45.54293" lon="4.75335">
        <ele>382</ele>
        <time>2019-06-29T02:14:53Z</time>
      </trkpt>
      <trkpt lat="45.54305" lon="4.7537">
        <ele>384</ele>
        <time>2019-06-29T02:14:59Z</time>
      </trkpt>
      <trkpt lat="45.54338" lon="4.75448">
        <ele>384</ele>
        <time>2019-06-29T02:15:14Z</time>
      </trkpt>
      <trkpt lat="45.54359" lon="4.75481">
        <ele>384</ele>
        <time>2019-06-29T02:15:21Z</time>
      </trkpt>
      <trkpt lat="45.54366" lon="4.75518">
        <ele>387</ele>
        <time>2019-06-29T02:15:28Z</time>
      </trkpt>
      <trkpt lat="45.54361" lon="4.75572">
        <ele>394</ele>
        <time>2019-06-29T02:15:37Z</time>
      </trkpt>
      <trkpt lat="45.54352" lon="4.75598">
        <ele>399</ele>
        <time>2019-06-29T02:15:41Z</time>
      </trkpt>
      <trkpt lat="45.54349" lon="4.7563">
        <ele>405</ele>
        <time>2019-06-29T02:15:47Z</time>
      </trkpt>
      <trkpt lat="45.54391" lon="4.75669">
        <ele>400</ele>
        <time>2019-06-29T02:15:58Z</time>
      </trkpt>
      <trkpt lat="45.54405" lon="4.75697">
        <ele>400</ele>
        <time>2019-06-29T02:16:04Z</time>
      </trkpt>
      <trkpt lat="45.54414" lon="4.75725">
        <ele>401</ele>
        <time>2019-06-29T02:16:09Z</time>
      </trkpt>
      <trkpt lat="45.54424" lon="4.75778">
        <ele>402</ele>
        <time>2019-06-29T02:16:18Z</time>
      </trkpt>
      <trkpt lat="45.54422" lon="4.75804">
        <ele>404</ele>
        <time>2019-06-29T02:16:22Z</time>
      </trkpt>
      <trkpt lat="45.54415" lon="4.75812">
        <ele>406</ele>
        <time>2019-06-29T02:16:24Z</time>
      </trkpt>
      <trkpt lat="45.54406" lon="4.75813">
        <ele>408</ele>
        <time>2019-06-29T02:16:26Z</time>
      </trkpt>
      <trkpt lat="45.54382" lon="4.75841">
        <ele>414</ele>
        <time>2019-06-29T02:16:34Z</time>
      </trkpt>
      <trkpt lat="45.54348" lon="4.75899">
        <ele>422</ele>
        <time>2019-06-29T02:16:46Z</time>
      </trkpt>
      <trkpt lat="45.54345" lon="4.75911">
        <ele>422</ele>
        <time>2019-06-29T02:16:48Z</time>
      </trkpt>
      <trkpt lat="45.54353" lon="4.75929">
        <ele>421</ele>
        <time>2019-06-29T02:16:52Z</time>
      </trkpt>
      <trkpt lat="45.5437" lon="4.7595">
        <ele>419</ele>
        <time>2019-06-29T02:16:57Z</time>
      </trkpt>
      <trkpt lat="45.54397" lon="4.75975">
        <ele>414</ele>
        <time>2019-06-29T02:17:04Z</time>
      </trkpt>
      <trkpt lat="45.54419" lon="4.76017">
        <ele>412</ele>
        <time>2019-06-29T02:17:13Z</time>
      </trkpt>
      <trkpt lat="45.54424" lon="4.76077">
        <ele>414</ele>
        <time>2019-06-29T02:17:23Z</time>
      </trkpt>
      <trkpt lat="45.54437" lon="4.76155">
        <ele>415</ele>
        <time>2019-06-29T02:17:36Z</time>
      </trkpt>
      <trkpt lat="45.54433" lon="4.7618">
        <ele>415</ele>
        <time>2019-06-29T02:17:40Z</time>
      </trkpt>
      <trkpt lat="45.54402" lon="4.7623">
        <ele>418</ele>
        <time>2019-06-29T02:17:51Z</time>
      </trkpt>
      <trkpt lat="45.54382" lon="4.76279">
        <ele>420</ele>
        <time>2019-06-29T02:18:00Z</time>
      </trkpt>
      <trkpt lat="45.54382" lon="4.76306">
        <ele>420</ele>
        <time>2019-06-29T02:18:05Z</time>
      </trkpt>
      <trkpt lat="45.54398" lon="4.76363">
        <ele>418</ele>
        <time>2019-06-29T02:18:15Z</time>
      </trkpt>
      <trkpt lat="45.544" lon="4.76393">
        <ele>419</ele>
        <time>2019-06-29T02:18:20Z</time>
      </trkpt>
      <trkpt lat="45.54396" lon="4.76463">
        <ele>419</ele>
        <time>2019-06-29T02:18:31Z</time>
      </trkpt>
      <trkpt lat="45.5439" lon="4.76516">
        <ele>418</ele>
        <time>2019-06-29T02:18:40Z</time>
      </trkpt>
      <trkpt lat="45.54382" lon="4.76537">
        <ele>417</ele>
        <time>2019-06-29T02:18:44Z</time>
      </trkpt>
      <trkpt lat="45.54343" lon="4.766">
        <ele>419</ele>
        <time>2019-06-29T02:18:58Z</time>
      </trkpt>
      <trkpt lat="45.5433" lon="4.76542">
        <ele>423</ele>
        <time>2019-06-29T02:19:08Z</time>
      </trkpt>
      <trkpt lat="45.54245" lon="4.76283">
        <ele>432</ele>
        <time>2019-06-29T02:19:54Z</time>
      </trkpt>
      <trkpt lat="45.5426" lon="4.7625">
        <ele>434</ele>
        <time>2019-06-29T02:20:01Z</time>
      </trkpt>
      <trkpt lat="45.54267" lon="4.76223">
        <ele>435</ele>
        <time>2019-06-29T02:20:06Z</time>
      </trkpt>
      <trkpt lat="45.54276" lon="4.76145">
        <ele>441</ele>
        <time>2019-06-29T02:20:18Z</time>
      </trkpt>
      <trkpt lat="45.54265" lon="4.76127">
        <ele>443</ele>
        <time>2019-06-29T02:20:22Z</time>
      </trkpt>
      <trkpt lat="45.54247" lon="4.76078">
        <ele>448</ele>
        <time>2019-06-29T02:20:31Z</time>
      </trkpt>
      <trkpt lat="45.54233" lon="4.76049">
        <ele>450</ele>
        <time>2019-06-29T02:20:37Z</time>
      </trkpt>
      <trkpt lat="45.5422" lon="4.76029">
        <ele>452</ele>
        <time>2019-06-29T02:20:42Z</time>
      </trkpt>
      <trkpt lat="45.54192" lon="4.76024">
        <ele>454</ele>
        <time>2019-06-29T02:20:48Z</time>
      </trkpt>
      <trkpt lat="45.54176" lon="4.76007">
        <ele>457</ele>
        <time>2019-06-29T02:20:53Z</time>
      </trkpt>
      <trkpt lat="45.54154" lon="4.75992">
        <ele>459</ele>
        <time>2019-06-29T02:20:59Z</time>
      </trkpt>
      <trkpt lat="45.54134" lon="4.75963">
        <ele>462</ele>
        <time>2019-06-29T02:21:05Z</time>
      </trkpt>
      <trkpt lat="45.5411" lon="4.75935">
        <ele>465</ele>
        <time>2019-06-29T02:21:13Z</time>
      </trkpt>
      <trkpt lat="45.54094" lon="4.75903">
        <ele>467</ele>
        <time>2019-06-29T02:21:19Z</time>
      </trkpt>
      <trkpt lat="45.54064" lon="4.7587">
        <ele>465</ele>
        <time>2019-06-29T02:21:28Z</time>
      </trkpt>
      <trkpt lat="45.54009" lon="4.75753">
        <ele>460</ele>
        <time>2019-06-29T02:21:51Z</time>
      </trkpt>
      <trkpt lat="45.54003" lon="4.75749">
        <ele>460</ele>
        <time>2019-06-29T02:21:52Z</time>
      </trkpt>
      <trkpt lat="45.53996" lon="4.75739">
        <ele>460</ele>
        <time>2019-06-29T02:21:55Z</time>
      </trkpt>
      <trkpt lat="45.53971" lon="4.7569">
        <ele>459</ele>
        <time>2019-06-29T02:22:05Z</time>
      </trkpt>
      <trkpt lat="45.53916" lon="4.7562">
        <ele>460</ele>
        <time>2019-06-29T02:22:22Z</time>
      </trkpt>
      <trkpt lat="45.53886" lon="4.7559">
        <ele>461</ele>
        <time>2019-06-29T02:22:30Z</time>
      </trkpt>
      <trkpt lat="45.53856" lon="4.75566">
        <ele>462</ele>
        <time>2019-06-29T02:22:38Z</time>
      </trkpt>
      <trkpt lat="45.53827" lon="4.75548">
        <ele>463</ele>
        <time>2019-06-29T02:22:46Z</time>
      </trkpt>
      <trkpt lat="45.53813" lon="4.75542">
        <ele>464</ele>
        <time>2019-06-29T02:22:49Z</time>
      </trkpt>
      <trkpt lat="45.53767" lon="4.75549">
        <ele>465</ele>
        <time>2019-06-29T02:23:00Z</time>
      </trkpt>
      <trkpt lat="45.53665" lon="4.75577">
        <ele>471</ele>
        <time>2019-06-29T02:23:24Z</time>
      </trkpt>
      <trkpt lat="45.53658" lon="4.75577">
        <ele>471</ele>
        <time>2019-06-29T02:23:26Z</time>
      </trkpt>
      <trkpt lat="45.53623" lon="4.75541">
        <ele>473</ele>
        <time>2019-06-29T02:23:36Z</time>
      </trkpt>
      <trkpt lat="45.536" lon="4.75508">
        <ele>476</ele>
        <time>2019-06-29T02:23:44Z</time>
      </trkpt>
      <trkpt lat="45.53577" lon="4.75465">
        <ele>478</ele>
        <time>2019-06-29T02:23:52Z</time>
      </trkpt>
      <trkpt lat="45.53554" lon="4.7543">
        <ele>481</ele>
        <time>2019-06-29T02:24:00Z</time>
      </trkpt>
      <trkpt lat="45.53508" lon="4.75406">
        <ele>487</ele>
        <time>2019-06-29T02:24:12Z</time>
      </trkpt>
      <trkpt lat="45.53461" lon="4.75378">
        <ele>487</ele>
        <time>2019-06-29T02:24:24Z</time>
      </trkpt>
      <trkpt lat="45.53417" lon="4.75346">
        <ele>490</ele>
        <time>2019-06-29T02:24:35Z</time>
      </trkpt>
      <trkpt lat="45.5338" lon="4.75306">
        <ele>492</ele>
        <time>2019-06-29T02:24:46Z</time>
      </trkpt>
      <trkpt lat="45.53338" lon="4.75248">
        <ele>499</ele>
        <time>2019-06-29T02:25:00Z</time>
      </trkpt>
      <trkpt lat="45.53317" lon="4.75226">
        <ele>502</ele>
        <time>2019-06-29T02:25:06Z</time>
      </trkpt>
      <trkpt lat="45.53264" lon="4.7518">
        <ele>511</ele>
        <time>2019-06-29T02:25:20Z</time>
      </trkpt>
      <trkpt lat="45.53247" lon="4.75116">
        <ele>517</ele>
        <time>2019-06-29T02:25:31Z</time>
      </trkpt>
      <trkpt lat="45.53239" lon="4.75095">
        <ele>519</ele>
        <time>2019-06-29T02:25:35Z</time>
      </trkpt>
      <trkpt lat="45.53232" lon="4.75089">
        <ele>520</ele>
        <time>2019-06-29T02:25:37Z</time>
      </trkpt>
      <trkpt lat="45.53167" lon="4.75062">
        <ele>528</ele>
        <time>2019-06-29T02:25:53Z</time>
      </trkpt>
      <trkpt lat="45.53133" lon="4.75035">
        <ele>532</ele>
        <time>2019-06-29T02:26:02Z</time>
      </trkpt>
      <trkpt lat="45.53121" lon="4.7502">
        <ele>534</ele>
        <time>2019-06-29T02:26:06Z</time>
      </trkpt>
      <trkpt lat="45.53103" lon="4.75011">
        <ele>536</ele>
        <time>2019-06-29T02:26:10Z</time>
      </trkpt>
      <trkpt lat="45.53082" lon="4.75005">
        <ele>539</ele>
        <time>2019-06-29T02:26:15Z</time>
      </trkpt>
      <trkpt lat="45.53023" lon="4.75005">
        <ele>545</ele>
        <time>2019-06-29T02:26:29Z</time>
      </trkpt>
      <trkpt lat="45.52961" lon="4.74965">
        <ele>551</ele>
        <time>2019-06-29T02:26:45Z</time>
      </trkpt>
      <trkpt lat="45.52899" lon="4.74933">
        <ele>555</ele>
        <time>2019-06-29T02:27:00Z</time>
      </trkpt>
      <trkpt lat="45.52872" lon="4.74916">
        <ele>555</ele>
        <time>2019-06-29T02:27:07Z</time>
      </trkpt>
      <trkpt lat="45.52858" lon="4.749">
        <ele>555</ele>
        <time>2019-06-29T02:27:11Z</time>
      </trkpt>
      <trkpt lat="45.52845" lon="4.74878">
        <ele>555</ele>
        <time>2019-06-29T02:27:16Z</time>
      </trkpt>
      <trkpt lat="45.52824" lon="4.74821">
        <ele>554</ele>
        <time>2019-06-29T02:27:27Z</time>
      </trkpt>
      <trkpt lat="45.52808" lon="4.748">
        <ele>553</ele>
        <time>2019-06-29T02:27:32Z</time>
      </trkpt>
      <trkpt lat="45.52795" lon="4.74763">
        <ele>554</ele>
        <time>2019-06-29T02:27:39Z</time>
      </trkpt>
      <trkpt lat="45.52775" lon="4.74742">
        <ele>554</ele>
        <time>2019-06-29T02:27:44Z</time>
      </trkpt>
      <trkpt lat="45.52742" lon="4.74683">
        <ele>557</ele>
        <time>2019-06-29T02:27:57Z</time>
      </trkpt>
      <trkpt lat="45.52726" lon="4.74666">
        <ele>558</ele>
        <time>2019-06-29T02:28:01Z</time>
      </trkpt>
      <trkpt lat="45.52704" lon="4.7465">
        <ele>557</ele>
        <time>2019-06-29T02:28:07Z</time>
      </trkpt>
      <trkpt lat="45.52694" lon="4.74632">
        <ele>557</ele>
        <time>2019-06-29T02:28:11Z</time>
      </trkpt>
      <trkpt lat="45.52681" lon="4.74615">
        <ele>556</ele>
        <time>2019-06-29T02:28:15Z</time>
      </trkpt>
      <trkpt lat="45.52624" lon="4.74587">
        <ele>551</ele>
        <time>2019-06-29T02:28:29Z</time>
      </trkpt>
      <trkpt lat="45.52612" lon="4.74578">
        <ele>550</ele>
        <time>2019-06-29T02:28:32Z</time>
      </trkpt>
      <trkpt lat="45.52584" lon="4.74569">
        <ele>547</ele>
        <time>2019-06-29T02:28:39Z</time>
      </trkpt>
      <trkpt lat="45.52549" lon="4.74545">
        <ele>543</ele>
        <time>2019-06-29T02:28:48Z</time>
      </trkpt>
      <trkpt lat="45.52529" lon="4.74536">
        <ele>541</ele>
        <time>2019-06-29T02:28:53Z</time>
      </trkpt>
      <trkpt lat="45.52517" lon="4.74536">
        <ele>540</ele>
        <time>2019-06-29T02:28:56Z</time>
      </trkpt>
      <trkpt lat="45.525" lon="4.74549">
        <ele>538</ele>
        <time>2019-06-29T02:29:00Z</time>
      </trkpt>
      <trkpt lat="45.52466" lon="4.74562">
        <ele>532</ele>
        <time>2019-06-29T02:29:08Z</time>
      </trkpt>
      <trkpt lat="45.52442" lon="4.74567">
        <ele>529</ele>
        <time>2019-06-29T02:29:14Z</time>
      </trkpt>
      <trkpt lat="45.5241" lon="4.74567">
        <ele>524</ele>
        <time>2019-06-29T02:29:22Z</time>
      </trkpt>
      <trkpt lat="45.52343" lon="4.74553">
        <ele>516</ele>
        <time>2019-06-29T02:29:37Z</time>
      </trkpt>
      <trkpt lat="45.52317" lon="4.74543">
        <ele>513</ele>
        <time>2019-06-29T02:29:44Z</time>
      </trkpt>
      <trkpt lat="45.52293" lon="4.74524">
        <ele>509</ele>
        <time>2019-06-29T02:29:50Z</time>
      </trkpt>
      <trkpt lat="45.52253" lon="4.7448">
        <ele>503</ele>
        <time>2019-06-29T02:30:02Z</time>
      </trkpt>
      <trkpt lat="45.52231" lon="4.74349">
        <ele>500</ele>
        <time>2019-06-29T02:30:24Z</time>
      </trkpt>
      <trkpt lat="45.52164" lon="4.74348">
        <ele>499</ele>
        <time>2019-06-29T02:30:40Z</time>
      </trkpt>
      <trkpt lat="45.52046" lon="4.74331">
        <ele>495</ele>
        <time>2019-06-29T02:31:07Z</time>
      </trkpt>
      <trkpt lat="45.51984" lon="4.74327">
        <ele>493</ele>
        <time>2019-06-29T02:31:22Z</time>
      </trkpt>
      <trkpt lat="45.51917" lon="4.74348">
        <ele>488</ele>
        <time>2019-06-29T02:31:38Z</time>
      </trkpt>
      <trkpt lat="45.5188" lon="4.74337">
        <ele>492</ele>
        <time>2019-06-29T02:31:47Z</time>
      </trkpt>
      <trkpt lat="45.51863" lon="4.74342">
        <ele>491</ele>
        <time>2019-06-29T02:31:51Z</time>
      </trkpt>
      <trkpt lat="45.51851" lon="4.7436">
        <ele>488</ele>
        <time>2019-06-29T02:31:55Z</time>
      </trkpt>
      <trkpt lat="45.51831" lon="4.7441">
        <ele>479</ele>
        <time>2019-06-29T02:32:04Z</time>
      </trkpt>
      <trkpt lat="45.51817" lon="4.74427">
        <ele>476</ele>
        <time>2019-06-29T02:32:08Z</time>
      </trkpt>
      <trkpt lat="45.51803" lon="4.74432">
        <ele>477</ele>
        <time>2019-06-29T02:32:12Z</time>
      </trkpt>
      <trkpt lat="45.5176" lon="4.74432">
        <ele>481</ele>
        <time>2019-06-29T02:32:22Z</time>
      </trkpt>
      <trkpt lat="45.51752" lon="4.74436">
        <ele>481</ele>
        <time>2019-06-29T02:32:24Z</time>
      </trkpt>
      <trkpt lat="45.51735" lon="4.74455">
        <ele>479</ele>
        <time>2019-06-29T02:32:29Z</time>
      </trkpt>
      <trkpt lat="45.51711" lon="4.74503">
        <ele>472</ele>
        <time>2019-06-29T02:32:38Z</time>
      </trkpt>
      <trkpt lat="45.51694" lon="4.7452">
        <ele>471</ele>
        <time>2019-06-29T02:32:43Z</time>
      </trkpt>
      <trkpt lat="45.51688" lon="4.74537">
        <ele>469</ele>
        <time>2019-06-29T02:32:46Z</time>
      </trkpt>
      <trkpt lat="45.51684" lon="4.74541">
        <ele>469</ele>
        <time>2019-06-29T02:32:48Z</time>
      </trkpt>
      <trkpt lat="45.51679" lon="4.7462">
        <ele>458</ele>
        <time>2019-06-29T02:33:01Z</time>
      </trkpt>
      <trkpt lat="45.51679" lon="4.74657">
        <ele>453</ele>
        <time>2019-06-29T02:33:07Z</time>
      </trkpt>
      <trkpt lat="45.51667" lon="4.74758">
        <ele>444</ele>
        <time>2019-06-29T02:33:23Z</time>
      </trkpt>
      <trkpt lat="45.51644" lon="4.74845">
        <ele>436</ele>
        <time>2019-06-29T02:33:39Z</time>
      </trkpt>
      <trkpt lat="45.51636" lon="4.74862">
        <ele>435</ele>
        <time>2019-06-29T02:33:42Z</time>
      </trkpt>
      <trkpt lat="45.51586" lon="4.74902">
        <ele>433</ele>
        <time>2019-06-29T02:33:55Z</time>
      </trkpt>
      <trkpt lat="45.51532" lon="4.74968">
        <ele>427</ele>
        <time>2019-06-29T02:34:12Z</time>
      </trkpt>
      <trkpt lat="45.51436" lon="4.75052">
        <ele>420</ele>
        <time>2019-06-29T02:34:38Z</time>
      </trkpt>
      <trkpt lat="45.51321" lon="4.75184">
        <ele>408</ele>
        <time>2019-06-29T02:35:13Z</time>
      </trkpt>
      <trkpt lat="45.51289" lon="4.75224">
        <ele>402</ele>
        <time>2019-06-29T02:35:23Z</time>
      </trkpt>
      <trkpt lat="45.51281" lon="4.7523">
        <ele>401</ele>
        <time>2019-06-29T02:35:25Z</time>
      </trkpt>
      <trkpt lat="45.51261" lon="4.75239">
        <ele>401</ele>
        <time>2019-06-29T02:35:30Z</time>
      </trkpt>
      <trkpt lat="45.51252" lon="4.75248">
        <ele>400</ele>
        <time>2019-06-29T02:35:32Z</time>
      </trkpt>
      <trkpt lat="45.51256" lon="4.75257">
        <ele>399</ele>
        <time>2019-06-29T02:35:34Z</time>
      </trkpt>
      <trkpt lat="45.51279" lon="4.75285">
        <ele>395</ele>
        <time>2019-06-29T02:35:41Z</time>
      </trkpt>
      <trkpt lat="45.51289" lon="4.75292">
        <ele>394</ele>
        <time>2019-06-29T02:35:44Z</time>
      </trkpt>
      <trkpt lat="45.51309" lon="4.75303">
        <ele>393</ele>
        <time>2019-06-29T02:35:49Z</time>
      </trkpt>
      <trkpt lat="45.51346" lon="4.75308">
        <ele>392</ele>
        <time>2019-06-29T02:35:57Z</time>
      </trkpt>
      <trkpt lat="45.51416" lon="4.75325">
        <ele>390</ele>
        <time>2019-06-29T02:36:14Z</time>
      </trkpt>
      <trkpt lat="45.51437" lon="4.75359">
        <ele>386</ele>
        <time>2019-06-29T02:36:21Z</time>
      </trkpt>
      <trkpt lat="45.51448" lon="4.75365">
        <ele>385</ele>
        <time>2019-06-29T02:36:24Z</time>
      </trkpt>
      <trkpt lat="45.51494" lon="4.75371">
        <ele>386</ele>
        <time>2019-06-29T02:36:35Z</time>
      </trkpt>
      <trkpt lat="45.51521" lon="4.75379">
        <ele>385</ele>
        <time>2019-06-29T02:36:41Z</time>
      </trkpt>
      <trkpt lat="45.5156" lon="4.7538">
        <ele>385</ele>
        <time>2019-06-29T02:36:50Z</time>
      </trkpt>
      <trkpt lat="45.51568" lon="4.75385">
        <ele>385</ele>
        <time>2019-06-29T02:36:52Z</time>
      </trkpt>
      <trkpt lat="45.51573" lon="4.75392">
        <ele>384</ele>
        <time>2019-06-29T02:36:54Z</time>
      </trkpt>
      <trkpt lat="45.51574" lon="4.75402">
        <ele>384</ele>
        <time>2019-06-29T02:36:56Z</time>
      </trkpt>
      <trkpt lat="45.5157" lon="4.75411">
        <ele>384</ele>
        <time>2019-06-29T02:36:57Z</time>
      </trkpt>
      <trkpt lat="45.515" lon="4.75469">
        <ele>388</ele>
        <time>2019-06-29T02:37:16Z</time>
      </trkpt>
      <trkpt lat="45.51475" lon="4.75486">
        <ele>388</ele>
        <time>2019-06-29T02:37:23Z</time>
      </trkpt>
      <trkpt lat="45.51429" lon="4.75535">
        <ele>391</ele>
        <time>2019-06-29T02:37:36Z</time>
      </trkpt>
      <trkpt lat="45.51415" lon="4.75545">
        <ele>392</ele>
        <time>2019-06-29T02:37:40Z</time>
      </trkpt>
      <trkpt lat="45.51349" lon="4.75572">
        <ele>393</ele>
        <time>2019-06-29T02:37:56Z</time>
      </trkpt>
      <trkpt lat="45.51329" lon="4.75584">
        <ele>394</ele>
        <time>2019-06-29T02:38:01Z</time>
      </trkpt>
      <trkpt lat="45.51306" lon="4.75605">
        <ele>396</ele>
        <time>2019-06-29T02:38:07Z</time>
      </trkpt>
      <trkpt lat="45.51277" lon="4.75655">
        <ele>400</ele>
        <time>2019-06-29T02:38:18Z</time>
      </trkpt>
      <trkpt lat="45.51237" lon="4.75702">
        <ele>400</ele>
        <time>2019-06-29T02:38:30Z</time>
      </trkpt>
      <trkpt lat="45.51234" lon="4.75711">
        <ele>400</ele>
        <time>2019-06-29T02:38:32Z</time>
      </trkpt>
      <trkpt lat="45.51235" lon="4.75726">
        <ele>401</ele>
        <time>2019-06-29T02:38:34Z</time>
      </trkpt>
      <trkpt lat="45.51213" lon="4.75742">
        <ele>400</ele>
        <time>2019-06-29T02:38:40Z</time>
      </trkpt>
      <trkpt lat="45.51188" lon="4.75781">
        <ele>399</ele>
        <time>2019-06-29T02:38:49Z</time>
      </trkpt>
      <trkpt lat="45.51172" lon="4.75816">
        <ele>398</ele>
        <time>2019-06-29T02:38:55Z</time>
      </trkpt>
      <trkpt lat="45.51122" lon="4.75867">
        <ele>397</ele>
        <time>2019-06-29T02:39:10Z</time>
      </trkpt>
      <trkpt lat="45.5111" lon="4.75883">
        <ele>398</ele>
        <time>2019-06-29T02:39:14Z</time>
      </trkpt>
      <trkpt lat="45.5107" lon="4.7595">
        <ele>400</ele>
        <time>2019-06-29T02:39:28Z</time>
      </trkpt>
      <trkpt lat="45.51063" lon="4.75958">
        <ele>401</ele>
        <time>2019-06-29T02:39:30Z</time>
      </trkpt>
      <trkpt lat="45.51057" lon="4.75961">
        <ele>401</ele>
        <time>2019-06-29T02:39:32Z</time>
      </trkpt>
      <trkpt lat="45.51048" lon="4.75957">
        <ele>402</ele>
        <time>2019-06-29T02:39:34Z</time>
      </trkpt>
      <trkpt lat="45.51042" lon="4.75949">
        <ele>403</ele>
        <time>2019-06-29T02:39:36Z</time>
      </trkpt>
      <trkpt lat="45.5103" lon="4.75922">
        <ele>404</ele>
        <time>2019-06-29T02:39:41Z</time>
      </trkpt>
      <trkpt lat="45.50993" lon="4.75866">
        <ele>402</ele>
        <time>2019-06-29T02:39:54Z</time>
      </trkpt>
      <trkpt lat="45.50939" lon="4.758">
        <ele>399</ele>
        <time>2019-06-29T02:40:10Z</time>
      </trkpt>
      <trkpt lat="45.50907" lon="4.75767">
        <ele>397</ele>
        <time>2019-06-29T02:40:19Z</time>
      </trkpt>
      <trkpt lat="45.50879" lon="4.75726">
        <ele>391</ele>
        <time>2019-06-29T02:40:29Z</time>
      </trkpt>
      <trkpt lat="45.50851" lon="4.75706">
        <ele>389</ele>
        <time>2019-06-29T02:40:36Z</time>
      </trkpt>
      <trkpt lat="45.5073" lon="4.75665">
        <ele>381</ele>
        <time>2019-06-29T02:41:05Z</time>
      </trkpt>
      <trkpt lat="45.5071" lon="4.75653">
        <ele>378</ele>
        <time>2019-06-29T02:41:10Z</time>
      </trkpt>
      <trkpt lat="45.50672" lon="4.75642">
        <ele>376</ele>
        <time>2019-06-29T02:41:19Z</time>
      </trkpt>
      <trkpt lat="45.50657" lon="4.75643">
        <ele>375</ele>
        <time>2019-06-29T02:41:23Z</time>
      </trkpt>
      <trkpt lat="45.5063" lon="4.7566">
        <ele>375</ele>
        <time>2019-06-29T02:41:30Z</time>
      </trkpt>
      <trkpt lat="45.50609" lon="4.75667">
        <ele>374</ele>
        <time>2019-06-29T02:41:35Z</time>
      </trkpt>
      <trkpt lat="45.50563" lon="4.7567">
        <ele>368</ele>
        <time>2019-06-29T02:41:45Z</time>
      </trkpt>
      <trkpt lat="45.50543" lon="4.75667">
        <ele>365</ele>
        <time>2019-06-29T02:41:50Z</time>
      </trkpt>
      <trkpt lat="45.50536" lon="4.75661">
        <ele>363</ele>
        <time>2019-06-29T02:41:52Z</time>
      </trkpt>
      <trkpt lat="45.50529" lon="4.75646">
        <ele>362</ele>
        <time>2019-06-29T02:41:55Z</time>
      </trkpt>
      <trkpt lat="45.50526" lon="4.75629">
        <ele>361</ele>
        <time>2019-06-29T02:41:58Z</time>
      </trkpt>
      <trkpt lat="45.50529" lon="4.75612">
        <ele>360</ele>
        <time>2019-06-29T02:42:01Z</time>
      </trkpt>
      <trkpt lat="45.50546" lon="4.75585">
        <ele>362</ele>
        <time>2019-06-29T02:42:07Z</time>
      </trkpt>
      <trkpt lat="45.5056" lon="4.75571">
        <ele>361</ele>
        <time>2019-06-29T02:42:11Z</time>
      </trkpt>
      <trkpt lat="45.50598" lon="4.75544">
        <ele>359</ele>
        <time>2019-06-29T02:42:21Z</time>
      </trkpt>
      <trkpt lat="45.50659" lon="4.75518">
        <ele>355</ele>
        <time>2019-06-29T02:42:35Z</time>
      </trkpt>
      <trkpt lat="45.50708" lon="4.75503">
        <ele>351</ele>
        <time>2019-06-29T02:42:47Z</time>
      </trkpt>
      <trkpt lat="45.50736" lon="4.75506">
        <ele>351</ele>
        <time>2019-06-29T02:42:54Z</time>
      </trkpt>
      <trkpt lat="45.5074" lon="4.75502">
        <ele>350</ele>
        <time>2019-06-29T02:42:55Z</time>
      </trkpt>
      <trkpt lat="45.50741" lon="4.75493">
        <ele>349</ele>
        <time>2019-06-29T02:42:56Z</time>
      </trkpt>
      <trkpt lat="45.50737" lon="4.75487">
        <ele>350</ele>
        <time>2019-06-29T02:42:58Z</time>
      </trkpt>
      <trkpt lat="45.50719" lon="4.75481">
        <ele>350</ele>
        <time>2019-06-29T02:43:02Z</time>
      </trkpt>
      <trkpt lat="45.50691" lon="4.7548">
        <ele>351</ele>
        <time>2019-06-29T02:43:09Z</time>
      </trkpt>
      <trkpt lat="45.50708" lon="4.75474">
        <ele>351</ele>
        <time>2019-06-29T02:43:13Z</time>
      </trkpt>
      <trkpt lat="45.50754" lon="4.75479">
        <ele>349</ele>
        <time>2019-06-29T02:43:23Z</time>
      </trkpt>
      <trkpt lat="45.5076" lon="4.75476">
        <ele>350</ele>
        <time>2019-06-29T02:43:25Z</time>
      </trkpt>
      <trkpt lat="45.50767" lon="4.75458">
        <ele>351</ele>
        <time>2019-06-29T02:43:28Z</time>
      </trkpt>
      <trkpt lat="45.50767" lon="4.75452">
        <ele>351</ele>
        <time>2019-06-29T02:43:29Z</time>
      </trkpt>
      <trkpt lat="45.50755" lon="4.75428">
        <ele>350</ele>
        <time>2019-06-29T02:43:34Z</time>
      </trkpt>
      <trkpt lat="45.50724" lon="4.75417">
        <ele>352</ele>
        <time>2019-06-29T02:43:42Z</time>
      </trkpt>
      <trkpt lat="45.50706" lon="4.75402">
        <ele>355</ele>
        <time>2019-06-29T02:43:46Z</time>
      </trkpt>
      <trkpt lat="45.50622" lon="4.75368">
        <ele>358</ele>
        <time>2019-06-29T02:44:07Z</time>
      </trkpt>
      <trkpt lat="45.50624" lon="4.75357">
        <ele>360</ele>
        <time>2019-06-29T02:44:09Z</time>
      </trkpt>
      <trkpt lat="45.5064" lon="4.75358">
        <ele>361</ele>
        <time>2019-06-29T02:44:12Z</time>
      </trkpt>
      <trkpt lat="45.50649" lon="4.75355">
        <ele>363</ele>
        <time>2019-06-29T02:44:15Z</time>
      </trkpt>
      <trkpt lat="45.50664" lon="4.75341">
        <ele>366</ele>
        <time>2019-06-29T02:44:19Z</time>
      </trkpt>
      <trkpt lat="45.50667" lon="4.75323">
        <ele>369</ele>
        <time>2019-06-29T02:44:22Z</time>
      </trkpt>
      <trkpt lat="45.50661" lon="4.75291">
        <ele>370</ele>
        <time>2019-06-29T02:44:27Z</time>
      </trkpt>
      <trkpt lat="45.5066" lon="4.75271">
        <ele>372</ele>
        <time>2019-06-29T02:44:30Z</time>
      </trkpt>
      <trkpt lat="45.50669" lon="4.75253">
        <ele>374</ele>
        <time>2019-06-29T02:44:34Z</time>
      </trkpt>
      <trkpt lat="45.50671" lon="4.7524">
        <ele>375</ele>
        <time>2019-06-29T02:44:36Z</time>
      </trkpt>
      <trkpt lat="45.50644" lon="4.75191">
        <ele>375</ele>
        <time>2019-06-29T02:44:46Z</time>
      </trkpt>
      <trkpt lat="45.5063" lon="4.75183">
        <ele>375</ele>
        <time>2019-06-29T02:44:50Z</time>
      </trkpt>
      <trkpt lat="45.50614" lon="4.75168">
        <ele>374</ele>
        <time>2019-06-29T02:44:54Z</time>
      </trkpt>
      <trkpt lat="45.5061" lon="4.75159">
        <ele>374</ele>
        <time>2019-06-29T02:44:56Z</time>
      </trkpt>
      <trkpt lat="45.5061" lon="4.75143">
        <ele>374</ele>
        <time>2019-06-29T02:44:59Z</time>
      </trkpt>
      <trkpt lat="45.50604" lon="4.75143">
        <ele>374</ele>
        <time>2019-06-29T02:45:00Z</time>
      </trkpt>
      <trkpt lat="45.50596" lon="4.7513">
        <ele>373</ele>
        <time>2019-06-29T02:45:03Z</time>
      </trkpt>
      <trkpt lat="45.50584" lon="4.75101">
        <ele>373</ele>
        <time>2019-06-29T02:45:09Z</time>
      </trkpt>
      <trkpt lat="45.50578" lon="4.7508">
        <ele>372</ele>
        <time>2019-06-29T02:45:12Z</time>
      </trkpt>
      <trkpt lat="45.50576" lon="4.75058">
        <ele>371</ele>
        <time>2019-06-29T02:45:16Z</time>
      </trkpt>
      <trkpt lat="45.50582" lon="4.75019">
        <ele>370</ele>
        <time>2019-06-29T02:45:22Z</time>
      </trkpt>
      <trkpt lat="45.50594" lon="4.74987">
        <ele>369</ele>
        <time>2019-06-29T02:45:28Z</time>
      </trkpt>
      <trkpt lat="45.50619" lon="4.74959">
        <ele>369</ele>
        <time>2019-06-29T02:45:36Z</time>
      </trkpt>
      <trkpt lat="45.50645" lon="4.74946">
        <ele>370</ele>
        <time>2019-06-29T02:45:42Z</time>
      </trkpt>
      <trkpt lat="45.50658" lon="4.74937">
        <ele>371</ele>
        <time>2019-06-29T02:45:46Z</time>
      </trkpt>
      <trkpt lat="45.50661" lon="4.74931">
        <ele>370</ele>
        <time>2019-06-29T02:45:47Z</time>
      </trkpt>
      <trkpt lat="45.50663" lon="4.74918">
        <ele>370</ele>
        <time>2019-06-29T02:45:49Z</time>
      </trkpt>
      <trkpt lat="45.50656" lon="4.74888">
        <ele>370</ele>
        <time>2019-06-29T02:45:54Z</time>
      </trkpt>
      <trkpt lat="45.5066" lon="4.74854">
        <ele>371</ele>
        <time>2019-06-29T02:46:00Z</time>
      </trkpt>
      <trkpt lat="45.50658" lon="4.74841">
        <ele>371</ele>
        <time>2019-06-29T02:46:02Z</time>
      </trkpt>
      <trkpt lat="45.5065" lon="4.74836">
        <ele>371</ele>
        <time>2019-06-29T02:46:04Z</time>
      </trkpt>
      <trkpt lat="45.50625" lon="4.74847">
        <ele>370</ele>
        <time>2019-06-29T02:46:10Z</time>
      </trkpt>
      <trkpt lat="45.50589" lon="4.74854">
        <ele>369</ele>
        <time>2019-06-29T02:46:19Z</time>
      </trkpt>
      <trkpt lat="45.50554" lon="4.74878">
        <ele>368</ele>
        <time>2019-06-29T02:46:28Z</time>
      </trkpt>
      <trkpt lat="45.50542" lon="4.74882">
        <ele>369</ele>
        <time>2019-06-29T02:46:31Z</time>
      </trkpt>
      <trkpt lat="45.50524" lon="4.74881">
        <ele>370</ele>
        <time>2019-06-29T02:46:35Z</time>
      </trkpt>
      <trkpt lat="45.50506" lon="4.74884">
        <ele>371</ele>
        <time>2019-06-29T02:46:39Z</time>
      </trkpt>
      <trkpt lat="45.50495" lon="4.74891">
        <ele>372</ele>
        <time>2019-06-29T02:46:42Z</time>
      </trkpt>
      <trkpt lat="45.50458" lon="4.74925">
        <ele>372</ele>
        <time>2019-06-29T02:46:52Z</time>
      </trkpt>
      <trkpt lat="45.50439" lon="4.74936">
        <ele>373</ele>
        <time>2019-06-29T02:46:57Z</time>
      </trkpt>
      <trkpt lat="45.5043" lon="4.74933">
        <ele>374</ele>
        <time>2019-06-29T02:46:59Z</time>
      </trkpt>
      <trkpt lat="45.50426" lon="4.74923">
        <ele>375</ele>
        <time>2019-06-29T02:47:01Z</time>
      </trkpt>
      <trkpt lat="45.50419" lon="4.74882">
        <ele>378</ele>
        <time>2019-06-29T02:47:08Z</time>
      </trkpt>
      <trkpt lat="45.504" lon="4.74817">
        <ele>380</ele>
        <time>2019-06-29T02:47:19Z</time>
      </trkpt>
      <trkpt lat="45.50391" lon="4.748">
        <ele>380</ele>
        <time>2019-06-29T02:47:23Z</time>
      </trkpt>
      <trkpt lat="45.50375" lon="4.7478">
        <ele>378</ele>
        <time>2019-06-29T02:47:28Z</time>
      </trkpt>
      <trkpt lat="45.50381" lon="4.74771">
        <ele>379</ele>
        <time>2019-06-29T02:47:30Z</time>
      </trkpt>
      <trkpt lat="45.50378" lon="4.74751">
        <ele>378</ele>
        <time>2019-06-29T02:47:33Z</time>
      </trkpt>
      <trkpt lat="45.5038" lon="4.74723">
        <ele>377</ele>
        <time>2019-06-29T02:47:38Z</time>
      </trkpt>
      <trkpt lat="45.50389" lon="4.74664">
        <ele>378</ele>
        <time>2019-06-29T02:47:48Z</time>
      </trkpt>
      <trkpt lat="45.50388" lon="4.74576">
        <ele>380</ele>
        <time>2019-06-29T02:48:02Z</time>
      </trkpt>
      <trkpt lat="45.50382" lon="4.74549">
        <ele>380</ele>
        <time>2019-06-29T02:48:07Z</time>
      </trkpt>
      <trkpt lat="45.50376" lon="4.74537">
        <ele>380</ele>
        <time>2019-06-29T02:48:09Z</time>
      </trkpt>
      <trkpt lat="45.50337" lon="4.74501">
        <ele>376</ele>
        <time>2019-06-29T02:48:20Z</time>
      </trkpt>
      <trkpt lat="45.50314" lon="4.74472">
        <ele>374</ele>
        <time>2019-06-29T02:48:27Z</time>
      </trkpt>
      <trkpt lat="45.50286" lon="4.74455">
        <ele>371</ele>
        <time>2019-06-29T02:48:34Z</time>
      </trkpt>
      <trkpt lat="45.50219" lon="4.7443">
        <ele>358</ele>
        <time>2019-06-29T02:48:50Z</time>
      </trkpt>
      <trkpt lat="45.50201" lon="4.7442">
        <ele>354</ele>
        <time>2019-06-29T02:48:55Z</time>
      </trkpt>
      <trkpt lat="45.50175" lon="4.74424">
        <ele>349</ele>
        <time>2019-06-29T02:49:01Z</time>
      </trkpt>
      <trkpt lat="45.50172" lon="4.74417">
        <ele>348</ele>
        <time>2019-06-29T02:49:02Z</time>
      </trkpt>
      <trkpt lat="45.50183" lon="4.74386">
        <ele>349</ele>
        <time>2019-06-29T02:49:08Z</time>
      </trkpt>
      <trkpt lat="45.5018" lon="4.74377">
        <ele>348</ele>
        <time>2019-06-29T02:49:10Z</time>
      </trkpt>
      <trkpt lat="45.50173" lon="4.7437">
        <ele>347</ele>
        <time>2019-06-29T02:49:12Z</time>
      </trkpt>
      <trkpt lat="45.50133" lon="4.74365">
        <ele>342</ele>
        <time>2019-06-29T02:49:21Z</time>
      </trkpt>
      <trkpt lat="45.50121" lon="4.74374">
        <ele>340</ele>
        <time>2019-06-29T02:49:24Z</time>
      </trkpt>
      <trkpt lat="45.501" lon="4.74383">
        <ele>337</ele>
        <time>2019-06-29T02:49:29Z</time>
      </trkpt>
      <trkpt lat="45.50101" lon="4.74363">
        <ele>337</ele>
        <time>2019-06-29T02:49:33Z</time>
      </trkpt>
      <trkpt lat="45.50091" lon="4.74273">
        <ele>339</ele>
        <time>2019-06-29T02:49:48Z</time>
      </trkpt>
      <trkpt lat="45.50092" lon="4.74239">
        <ele>340</ele>
        <time>2019-06-29T02:49:53Z</time>
      </trkpt>
      <trkpt lat="45.50067" lon="4.74233">
        <ele>342</ele>
        <time>2019-06-29T02:49:59Z</time>
      </trkpt>
      <trkpt lat="45.50062" lon="4.74216">
        <ele>343</ele>
        <time>2019-06-29T02:50:02Z</time>
      </trkpt>
      <trkpt lat="45.50063" lon="4.74208">
        <ele>343</ele>
        <time>2019-06-29T02:50:03Z</time>
      </trkpt>
      <trkpt lat="45.5006" lon="4.74186">
        <ele>345</ele>
        <time>2019-06-29T02:50:07Z</time>
      </trkpt>
      <trkpt lat="45.50053" lon="4.74162">
        <ele>347</ele>
        <time>2019-06-29T02:50:11Z</time>
      </trkpt>
      <trkpt lat="45.50045" lon="4.74163">
        <ele>349</ele>
        <time>2019-06-29T02:50:13Z</time>
      </trkpt>
      <trkpt lat="45.50038" lon="4.74182">
        <ele>350</ele>
        <time>2019-06-29T02:50:17Z</time>
      </trkpt>
      <trkpt lat="45.50029" lon="4.74244">
        <ele>349</ele>
        <time>2019-06-29T02:50:27Z</time>
      </trkpt>
      <trkpt lat="45.5002" lon="4.74277">
        <ele>350</ele>
        <time>2019-06-29T02:50:33Z</time>
      </trkpt>
      <trkpt lat="45.5001" lon="4.74298">
        <ele>351</ele>
        <time>2019-06-29T02:50:37Z</time>
      </trkpt>
      <trkpt lat="45.49985" lon="4.74381">
        <ele>353</ele>
        <time>2019-06-29T02:50:52Z</time>
      </trkpt>
      <trkpt lat="45.49975" lon="4.74438">
        <ele>352</ele>
        <time>2019-06-29T02:51:01Z</time>
      </trkpt>
      <trkpt lat="45.4996" lon="4.74479">
        <ele>353</ele>
        <time>2019-06-29T02:51:09Z</time>
      </trkpt>
      <trkpt lat="45.49933" lon="4.7452">
        <ele>356</ele>
        <time>2019-06-29T02:51:18Z</time>
      </trkpt>
      <trkpt lat="45.49922" lon="4.74546">
        <ele>357</ele>
        <time>2019-06-29T02:51:23Z</time>
      </trkpt>
      <trkpt lat="45.49917" lon="4.74566">
        <ele>357</ele>
        <time>2019-06-29T02:51:27Z</time>
      </trkpt>
      <trkpt lat="45.49916" lon="4.74607">
        <ele>354</ele>
        <time>2019-06-29T02:51:33Z</time>
      </trkpt>
      <trkpt lat="45.49912" lon="4.74633">
        <ele>353</ele>
        <time>2019-06-29T02:51:38Z</time>
      </trkpt>
      <trkpt lat="45.49907" lon="4.74643">
        <ele>353</ele>
        <time>2019-06-29T02:51:40Z</time>
      </trkpt>
      <trkpt lat="45.49901" lon="4.74649">
        <ele>353</ele>
        <time>2019-06-29T02:51:41Z</time>
      </trkpt>
      <trkpt lat="45.49898" lon="4.74649">
        <ele>353</ele>
        <time>2019-06-29T02:51:42Z</time>
      </trkpt>
      <trkpt lat="45.49892" lon="4.74639">
        <ele>354</ele>
        <time>2019-06-29T02:51:44Z</time>
      </trkpt>
      <trkpt lat="45.4989" lon="4.74621">
        <ele>356</ele>
        <time>2019-06-29T02:51:47Z</time>
      </trkpt>
      <trkpt lat="45.49883" lon="4.74603">
        <ele>358</ele>
        <time>2019-06-29T02:51:51Z</time>
      </trkpt>
      <trkpt lat="45.49874" lon="4.74538">
        <ele>364</ele>
        <time>2019-06-29T02:52:02Z</time>
      </trkpt>
      <trkpt lat="45.49867" lon="4.74511">
        <ele>367</ele>
        <time>2019-06-29T02:52:06Z</time>
      </trkpt>
      <trkpt lat="45.49858" lon="4.74498">
        <ele>370</ele>
        <time>2019-06-29T02:52:09Z</time>
      </trkpt>
      <trkpt lat="45.49846" lon="4.74463">
        <ele>374</ele>
        <time>2019-06-29T02:52:16Z</time>
      </trkpt>
      <trkpt lat="45.49827" lon="4.74385">
        <ele>378</ele>
        <time>2019-06-29T02:52:29Z</time>
      </trkpt>
      <trkpt lat="45.4979" lon="4.74278">
        <ele>379</ele>
        <time>2019-06-29T02:52:49Z</time>
      </trkpt>
      <trkpt lat="45.49776" lon="4.74205">
        <ele>382</ele>
        <time>2019-06-29T02:53:01Z</time>
      </trkpt>
      <trkpt lat="45.49728" lon="4.74111">
        <ele>389</ele>
        <time>2019-06-29T02:53:20Z</time>
      </trkpt>
      <trkpt lat="45.49711" lon="4.74069">
        <ele>391</ele>
        <time>2019-06-29T02:53:28Z</time>
      </trkpt>
      <trkpt lat="45.49695" lon="4.7402">
        <ele>392</ele>
        <time>2019-06-29T02:53:37Z</time>
      </trkpt>
      <trkpt lat="45.49655" lon="4.7392">
        <ele>397</ele>
        <time>2019-06-29T02:53:56Z</time>
      </trkpt>
      <trkpt lat="45.49617" lon="4.73915">
        <ele>397</ele>
        <time>2019-06-29T02:54:05Z</time>
      </trkpt>
      <trkpt lat="45.4957" lon="4.739">
        <ele>397</ele>
        <time>2019-06-29T02:54:16Z</time>
      </trkpt>
      <trkpt lat="45.49557" lon="4.7389">
        <ele>396</ele>
        <time>2019-06-29T02:54:19Z</time>
      </trkpt>
      <trkpt lat="45.4953" lon="4.73887">
        <ele>395</ele>
        <time>2019-06-29T02:54:26Z</time>
      </trkpt>
      <trkpt lat="45.49499" lon="4.73897">
        <ele>393</ele>
        <time>2019-06-29T02:54:33Z</time>
      </trkpt>
      <trkpt lat="45.49448" lon="4.73928">
        <ele>391</ele>
        <time>2019-06-29T02:54:46Z</time>
      </trkpt>
      <trkpt lat="45.49421" lon="4.73949">
        <ele>389</ele>
        <time>2019-06-29T02:54:53Z</time>
      </trkpt>
      <trkpt lat="45.49403" lon="4.73967">
        <ele>389</ele>
        <time>2019-06-29T02:54:58Z</time>
      </trkpt>
      <trkpt lat="45.49385" lon="4.7399">
        <ele>389</ele>
        <time>2019-06-29T02:55:04Z</time>
      </trkpt>
      <trkpt lat="45.49325" lon="4.74048">
        <ele>388</ele>
        <time>2019-06-29T02:55:21Z</time>
      </trkpt>
      <trkpt lat="45.49299" lon="4.74068">
        <ele>388</ele>
        <time>2019-06-29T02:55:28Z</time>
      </trkpt>
      <trkpt lat="45.49265" lon="4.74079">
        <ele>390</ele>
        <time>2019-06-29T02:55:36Z</time>
      </trkpt>
      <trkpt lat="45.49201" lon="4.74095">
        <ele>389</ele>
        <time>2019-06-29T02:55:51Z</time>
      </trkpt>
      <trkpt lat="45.49185" lon="4.74106">
        <ele>388</ele>
        <time>2019-06-29T02:55:55Z</time>
      </trkpt>
      <trkpt lat="45.4916" lon="4.74143">
        <ele>386</ele>
        <time>2019-06-29T02:56:04Z</time>
      </trkpt>
      <trkpt lat="45.49097" lon="4.74268">
        <ele>383</ele>
        <time>2019-06-29T02:56:29Z</time>
      </trkpt>
      <trkpt lat="45.49" lon="4.74386">
        <ele>377</ele>
        <time>2019-06-29T02:56:59Z</time>
      </trkpt>
      <trkpt lat="45.48925" lon="4.74469">
        <ele>372</ele>
        <time>2019-06-29T02:57:21Z</time>
      </trkpt>
      <trkpt lat="45.48917" lon="4.74469">
        <ele>372</ele>
        <time>2019-06-29T02:57:23Z</time>
      </trkpt>
      <trkpt lat="45.48876" lon="4.74617">
        <ele>371</ele>
        <time>2019-06-29T02:57:49Z</time>
      </trkpt>
      <trkpt lat="45.48868" lon="4.74655">
        <ele>371</ele>
        <time>2019-06-29T02:57:55Z</time>
      </trkpt>
      <trkpt lat="45.48833" lon="4.74953">
        <ele>363</ele>
        <time>2019-06-29T02:58:45Z</time>
      </trkpt>
      <trkpt lat="45.48822" lon="4.74985">
        <ele>362</ele>
        <time>2019-06-29T02:58:51Z</time>
      </trkpt>
      <trkpt lat="45.48799" lon="4.75022">
        <ele>359</ele>
        <time>2019-06-29T02:58:59Z</time>
      </trkpt>
      <trkpt lat="45.48766" lon="4.75065">
        <ele>356</ele>
        <time>2019-06-29T02:59:09Z</time>
      </trkpt>
      <trkpt lat="45.48712" lon="4.75101">
        <ele>355</ele>
        <time>2019-06-29T02:59:23Z</time>
      </trkpt>
      <trkpt lat="45.4867" lon="4.75125">
        <ele>355</ele>
        <time>2019-06-29T02:59:34Z</time>
      </trkpt>
      <trkpt lat="45.48629" lon="4.75161">
        <ele>354</ele>
        <time>2019-06-29T02:59:45Z</time>
      </trkpt>
      <trkpt lat="45.48504" lon="4.75286">
        <ele>354</ele>
        <time>2019-06-29T03:00:20Z</time>
      </trkpt>
      <trkpt lat="45.4848" lon="4.75323">
        <ele>352</ele>
        <time>2019-06-29T03:00:29Z</time>
      </trkpt>
      <trkpt lat="45.48453" lon="4.75348">
        <ele>350</ele>
        <time>2019-06-29T03:00:36Z</time>
      </trkpt>
      <trkpt lat="45.48428" lon="4.75366">
        <ele>348</ele>
        <time>2019-06-29T03:00:43Z</time>
      </trkpt>
      <trkpt lat="45.48358" lon="4.75436">
        <ele>341</ele>
        <time>2019-06-29T03:01:03Z</time>
      </trkpt>
      <trkpt lat="45.48318" lon="4.75459">
        <ele>340</ele>
        <time>2019-06-29T03:01:13Z</time>
      </trkpt>
      <trkpt lat="45.48235" lon="4.75499">
        <ele>340</ele>
        <time>2019-06-29T03:01:33Z</time>
      </trkpt>
      <trkpt lat="45.48205" lon="4.75523">
        <ele>341</ele>
        <time>2019-06-29T03:01:41Z</time>
      </trkpt>
      <trkpt lat="45.48152" lon="4.75575">
        <ele>343</ele>
        <time>2019-06-29T03:01:56Z</time>
      </trkpt>
      <trkpt lat="45.48136" lon="4.75597">
        <ele>343</ele>
        <time>2019-06-29T03:02:01Z</time>
      </trkpt>
      <trkpt lat="45.48072" lon="4.75703">
        <ele>344</ele>
        <time>2019-06-29T03:02:24Z</time>
      </trkpt>
      <trkpt lat="45.47991" lon="4.75791">
        <ele>340</ele>
        <time>2019-06-29T03:02:48Z</time>
      </trkpt>
      <trkpt lat="45.47952" lon="4.75822">
        <ele>340</ele>
        <time>2019-06-29T03:02:59Z</time>
      </trkpt>
      <trkpt lat="45.47899" lon="4.75859">
        <ele>338</ele>
        <time>2019-06-29T03:03:12Z</time>
      </trkpt>
      <trkpt lat="45.47819" lon="4.75913">
        <ele>337</ele>
        <time>2019-06-29T03:03:33Z</time>
      </trkpt>
      <trkpt lat="45.47792" lon="4.75928">
        <ele>335</ele>
        <time>2019-06-29T03:03:40Z</time>
      </trkpt>
      <trkpt lat="45.47764" lon="4.75958">
        <ele>334</ele>
        <time>2019-06-29T03:03:48Z</time>
      </trkpt>
      <trkpt lat="45.47744" lon="4.7599">
        <ele>333</ele>
        <time>2019-06-29T03:03:55Z</time>
      </trkpt>
      <trkpt lat="45.47739" lon="4.75988">
        <ele>332</ele>
        <time>2019-06-29T03:03:56Z</time>
      </trkpt>
      <trkpt lat="45.47734" lon="4.75932">
        <ele>332</ele>
        <time>2019-06-29T03:04:05Z</time>
      </trkpt>
      <trkpt lat="45.4773" lon="4.75762">
        <ele>330</ele>
        <time>2019-06-29T03:04:33Z</time>
      </trkpt>
      <trkpt lat="45.47725" lon="4.75703">
        <ele>329</ele>
        <time>2019-06-29T03:04:43Z</time>
      </trkpt>
      <trkpt lat="45.47706" lon="4.75681">
        <ele>329</ele>
        <time>2019-06-29T03:04:49Z</time>
      </trkpt>
      <trkpt lat="45.47665" lon="4.75647">
        <ele>327</ele>
        <time>2019-06-29T03:05:00Z</time>
      </trkpt>
      <trkpt lat="45.47675" lon="4.75629">
        <ele>326</ele>
        <time>2019-06-29T03:05:04Z</time>
      </trkpt>
      <trkpt lat="45.47696" lon="4.75608">
        <ele>326</ele>
        <time>2019-06-29T03:05:10Z</time>
      </trkpt>
      <trkpt lat="45.47713" lon="4.75559">
        <ele>326</ele>
        <time>2019-06-29T03:05:19Z</time>
      </trkpt>
      <trkpt lat="45.47714" lon="4.75538">
        <ele>326</ele>
        <time>2019-06-29T03:05:22Z</time>
      </trkpt>
      <trkpt lat="45.47709" lon="4.75507">
        <ele>325</ele>
        <time>2019-06-29T03:05:27Z</time>
      </trkpt>
      <trkpt lat="45.47703" lon="4.75484">
        <ele>325</ele>
        <time>2019-06-29T03:05:31Z</time>
      </trkpt>
      <trkpt lat="45.47684" lon="4.75434">
        <ele>324</ele>
        <time>2019-06-29T03:05:41Z</time>
      </trkpt>
      <trkpt lat="45.4768" lon="4.75405">
        <ele>322</ele>
        <time>2019-06-29T03:05:45Z</time>
      </trkpt>
      <trkpt lat="45.47681" lon="4.75378">
        <ele>319</ele>
        <time>2019-06-29T03:05:50Z</time>
      </trkpt>
      <trkpt lat="45.47688" lon="4.75354">
        <ele>317</ele>
        <time>2019-06-29T03:05:54Z</time>
      </trkpt>
      <trkpt lat="45.47753" lon="4.75277">
        <ele>316</ele>
        <time>2019-06-29T03:06:14Z</time>
      </trkpt>
      <trkpt lat="45.47783" lon="4.75249">
        <ele>316</ele>
        <time>2019-06-29T03:06:22Z</time>
      </trkpt>
      <trkpt lat="45.47811" lon="4.75234">
        <ele>318</ele>
        <time>2019-06-29T03:06:29Z</time>
      </trkpt>
      <trkpt lat="45.4783" lon="4.75236">
        <ele>321</ele>
        <time>2019-06-29T03:06:34Z</time>
      </trkpt>
      <trkpt lat="45.47875" lon="4.75256">
        <ele>326</ele>
        <time>2019-06-29T03:06:45Z</time>
      </trkpt>
      <trkpt lat="45.4792" lon="4.75214">
        <ele>321</ele>
        <time>2019-06-29T03:06:57Z</time>
      </trkpt>
      <trkpt lat="45.47928" lon="4.75187">
        <ele>317</ele>
        <time>2019-06-29T03:07:02Z</time>
      </trkpt>
      <trkpt lat="45.47955" lon="4.75161">
        <ele>314</ele>
        <time>2019-06-29T03:07:10Z</time>
      </trkpt>
      <trkpt lat="45.47967" lon="4.75143">
        <ele>312</ele>
        <time>2019-06-29T03:07:14Z</time>
      </trkpt>
      <trkpt lat="45.47979" lon="4.75133">
        <ele>311</ele>
        <time>2019-06-29T03:07:17Z</time>
      </trkpt>
      <trkpt lat="45.47982" lon="4.75127">
        <ele>310</ele>
        <time>2019-06-29T03:07:18Z</time>
      </trkpt>
      <trkpt lat="45.47996" lon="4.75113">
        <ele>307</ele>
        <time>2019-06-29T03:07:22Z</time>
      </trkpt>
      <trkpt lat="45.48009" lon="4.75106">
        <ele>307</ele>
        <time>2019-06-29T03:07:25Z</time>
      </trkpt>
      <trkpt lat="45.48012" lon="4.75102">
        <ele>306</ele>
        <time>2019-06-29T03:07:26Z</time>
      </trkpt>
      <trkpt lat="45.48028" lon="4.75097">
        <ele>306</ele>
        <time>2019-06-29T03:07:30Z</time>
      </trkpt>
      <trkpt lat="45.48063" lon="4.75073">
        <ele>305</ele>
        <time>2019-06-29T03:07:39Z</time>
      </trkpt>
      <trkpt lat="45.48073" lon="4.7507">
        <ele>306</ele>
        <time>2019-06-29T03:07:42Z</time>
      </trkpt>
      <trkpt lat="45.48078" lon="4.75034">
        <ele>302</ele>
        <time>2019-06-29T03:07:48Z</time>
      </trkpt>
      <trkpt lat="45.48088" lon="4.75024">
        <ele>303</ele>
        <time>2019-06-29T03:07:50Z</time>
      </trkpt>
      <trkpt lat="45.48056" lon="4.74866">
        <ele>316</ele>
        <time>2019-06-29T03:08:17Z</time>
      </trkpt>
      <trkpt lat="45.48075" lon="4.74752">
        <ele>323</ele>
        <time>2019-06-29T03:08:37Z</time>
      </trkpt>
      <trkpt lat="45.48064" lon="4.74716">
        <ele>324</ele>
        <time>2019-06-29T03:08:43Z</time>
      </trkpt>
      <trkpt lat="45.48055" lon="4.74716">
        <ele>324</ele>
        <time>2019-06-29T03:08:45Z</time>
      </trkpt>
      <trkpt lat="45.48038" lon="4.74762">
        <ele>323</ele>
        <time>2019-06-29T03:08:54Z</time>
      </trkpt>
      <trkpt lat="45.47917" lon="4.74752">
        <ele>326</ele>
        <time>2019-06-29T03:09:22Z</time>
      </trkpt>
      <trkpt lat="45.4787" lon="4.74733">
        <ele>329</ele>
        <time>2019-06-29T03:09:33Z</time>
      </trkpt>
      <trkpt lat="45.47822" lon="4.74703">
        <ele>331</ele>
        <time>2019-06-29T03:09:46Z</time>
      </trkpt>
      <trkpt lat="45.47794" lon="4.74683">
        <ele>332</ele>
        <time>2019-06-29T03:09:53Z</time>
      </trkpt>
      <trkpt lat="45.47738" lon="4.74626">
        <ele>334</ele>
        <time>2019-06-29T03:10:09Z</time>
      </trkpt>
      <trkpt lat="45.47727" lon="4.7462">
        <ele>335</ele>
        <time>2019-06-29T03:10:12Z</time>
      </trkpt>
      <trkpt lat="45.47691" lon="4.74582">
        <ele>336</ele>
        <time>2019-06-29T03:10:22Z</time>
      </trkpt>
      <trkpt lat="45.47607" lon="4.74503">
        <ele>334</ele>
        <time>2019-06-29T03:10:46Z</time>
      </trkpt>
      <trkpt lat="45.47583" lon="4.74469">
        <ele>332</ele>
        <time>2019-06-29T03:10:54Z</time>
      </trkpt>
      <trkpt lat="45.47563" lon="4.74453">
        <ele>331</ele>
        <time>2019-06-29T03:10:59Z</time>
      </trkpt>
      <trkpt lat="45.47546" lon="4.74457">
        <ele>330</ele>
        <time>2019-06-29T03:11:03Z</time>
      </trkpt>
      <trkpt lat="45.47536" lon="4.74451">
        <ele>329</ele>
        <time>2019-06-29T03:11:05Z</time>
      </trkpt>
      <trkpt lat="45.47495" lon="4.74415">
        <ele>325</ele>
        <time>2019-06-29T03:11:17Z</time>
      </trkpt>
      <trkpt lat="45.47479" lon="4.74405">
        <ele>323</ele>
        <time>2019-06-29T03:11:21Z</time>
      </trkpt>
      <trkpt lat="45.47457" lon="4.74371">
        <ele>319</ele>
        <time>2019-06-29T03:11:28Z</time>
      </trkpt>
      <trkpt lat="45.47449" lon="4.74365">
        <ele>318</ele>
        <time>2019-06-29T03:11:30Z</time>
      </trkpt>
      <trkpt lat="45.47421" lon="4.74364">
        <ele>316</ele>
        <time>2019-06-29T03:11:37Z</time>
      </trkpt>
      <trkpt lat="45.47412" lon="4.74357">
        <ele>316</ele>
        <time>2019-06-29T03:11:39Z</time>
      </trkpt>
      <trkpt lat="45.47407" lon="4.74341">
        <ele>316</ele>
        <time>2019-06-29T03:11:42Z</time>
      </trkpt>
      <trkpt lat="45.47397" lon="4.74327">
        <ele>316</ele>
        <time>2019-06-29T03:11:46Z</time>
      </trkpt>
      <trkpt lat="45.47375" lon="4.74311">
        <ele>318</ele>
        <time>2019-06-29T03:11:51Z</time>
      </trkpt>
      <trkpt lat="45.47367" lon="4.74309">
        <ele>319</ele>
        <time>2019-06-29T03:11:53Z</time>
      </trkpt>
      <trkpt lat="45.47361" lon="4.74313">
        <ele>319</ele>
        <time>2019-06-29T03:11:55Z</time>
      </trkpt>
      <trkpt lat="45.47351" lon="4.74326">
        <ele>318</ele>
        <time>2019-06-29T03:11:58Z</time>
      </trkpt>
      <trkpt lat="45.47334" lon="4.74328">
        <ele>319</ele>
        <time>2019-06-29T03:12:02Z</time>
      </trkpt>
      <trkpt lat="45.47333" lon="4.74342">
        <ele>319</ele>
        <time>2019-06-29T03:12:04Z</time>
      </trkpt>
      <trkpt lat="45.47338" lon="4.74361">
        <ele>320</ele>
        <time>2019-06-29T03:12:08Z</time>
      </trkpt>
      <trkpt lat="45.47335" lon="4.74373">
        <ele>321</ele>
        <time>2019-06-29T03:12:10Z</time>
      </trkpt>
      <trkpt lat="45.47327" lon="4.74373">
        <ele>322</ele>
        <time>2019-06-29T03:12:11Z</time>
      </trkpt>
      <trkpt lat="45.47319" lon="4.74369">
        <ele>322</ele>
        <time>2019-06-29T03:12:13Z</time>
      </trkpt>
      <trkpt lat="45.4731" lon="4.7437">
        <ele>324</ele>
        <time>2019-06-29T03:12:16Z</time>
      </trkpt>
      <trkpt lat="45.47281" lon="4.74408">
        <ele>328</ele>
        <time>2019-06-29T03:12:25Z</time>
      </trkpt>
      <trkpt lat="45.47266" lon="4.74417">
        <ele>329</ele>
        <time>2019-06-29T03:12:29Z</time>
      </trkpt>
      <trkpt lat="45.4724" lon="4.74442">
        <ele>331</ele>
        <time>2019-06-29T03:12:36Z</time>
      </trkpt>
      <trkpt lat="45.47188" lon="4.74479">
        <ele>331</ele>
        <time>2019-06-29T03:12:49Z</time>
      </trkpt>
      <trkpt lat="45.4717" lon="4.74496">
        <ele>331</ele>
        <time>2019-06-29T03:12:54Z</time>
      </trkpt>
      <trkpt lat="45.47165" lon="4.74504">
        <ele>331</ele>
        <time>2019-06-29T03:12:56Z</time>
      </trkpt>
      <trkpt lat="45.47095" lon="4.74688">
        <ele>330</ele>
        <time>2019-06-29T03:13:31Z</time>
      </trkpt>
      <trkpt lat="45.47091" lon="4.74717">
        <ele>330</ele>
        <time>2019-06-29T03:13:35Z</time>
      </trkpt>
      <trkpt lat="45.471" lon="4.74768">
        <ele>329</ele>
        <time>2019-06-29T03:13:44Z</time>
      </trkpt>
      <trkpt lat="45.47101" lon="4.74789">
        <ele>329</ele>
        <time>2019-06-29T03:13:47Z</time>
      </trkpt>
      <trkpt lat="45.47089" lon="4.74849">
        <ele>328</ele>
        <time>2019-06-29T03:13:58Z</time>
      </trkpt>
      <trkpt lat="45.47047" lon="4.75026">
        <ele>325</ele>
        <time>2019-06-29T03:14:28Z</time>
      </trkpt>
      <trkpt lat="45.46961" lon="4.7499">
        <ele>326</ele>
        <time>2019-06-29T03:14:49Z</time>
      </trkpt>
      <trkpt lat="45.46792" lon="4.74909">
        <ele>326</ele>
        <time>2019-06-29T03:15:31Z</time>
      </trkpt>
      <trkpt lat="45.46743" lon="4.74888">
        <ele>326</ele>
        <time>2019-06-29T03:15:43Z</time>
      </trkpt>
      <trkpt lat="45.46724" lon="4.74877">
        <ele>325</ele>
        <time>2019-06-29T03:15:48Z</time>
      </trkpt>
      <trkpt lat="45.46737" lon="4.74787">
        <ele>324</ele>
        <time>2019-06-29T03:16:03Z</time>
      </trkpt>
      <trkpt lat="45.46753" lon="4.74713">
        <ele>323</ele>
        <time>2019-06-29T03:16:15Z</time>
      </trkpt>
      <trkpt lat="45.46718" lon="4.74711">
        <ele>320</ele>
        <time>2019-06-29T03:16:23Z</time>
      </trkpt>
      <trkpt lat="45.46666" lon="4.74722">
        <ele>316</ele>
        <time>2019-06-29T03:16:36Z</time>
      </trkpt>
      <trkpt lat="45.4666" lon="4.74721">
        <ele>315</ele>
        <time>2019-06-29T03:16:37Z</time>
      </trkpt>
      <trkpt lat="45.46653" lon="4.74715">
        <ele>314</ele>
        <time>2019-06-29T03:16:39Z</time>
      </trkpt>
      <trkpt lat="45.46646" lon="4.74715">
        <ele>313</ele>
        <time>2019-06-29T03:16:41Z</time>
      </trkpt>
      <trkpt lat="45.46607" lon="4.74728">
        <ele>310</ele>
        <time>2019-06-29T03:16:50Z</time>
      </trkpt>
      <trkpt lat="45.4654" lon="4.74759">
        <ele>304</ele>
        <time>2019-06-29T03:17:07Z</time>
      </trkpt>
      <trkpt lat="45.46527" lon="4.74758">
        <ele>303</ele>
        <time>2019-06-29T03:17:10Z</time>
      </trkpt>
      <trkpt lat="45.46527" lon="4.7475">
        <ele>302</ele>
        <time>2019-06-29T03:17:11Z</time>
      </trkpt>
      <trkpt lat="45.46533" lon="4.74736">
        <ele>302</ele>
        <time>2019-06-29T03:17:14Z</time>
      </trkpt>
      <trkpt lat="45.46542" lon="4.74699">
        <ele>302</ele>
        <time>2019-06-29T03:17:20Z</time>
      </trkpt>
      <trkpt lat="45.46545" lon="4.74645">
        <ele>301</ele>
        <time>2019-06-29T03:17:29Z</time>
      </trkpt>
      <trkpt lat="45.46542" lon="4.74628">
        <ele>302</ele>
        <time>2019-06-29T03:17:32Z</time>
      </trkpt>
      <trkpt lat="45.46522" lon="4.74621">
        <ele>302</ele>
        <time>2019-06-29T03:17:37Z</time>
      </trkpt>
      <trkpt lat="45.46501" lon="4.74622">
        <ele>301</ele>
        <time>2019-06-29T03:17:41Z</time>
      </trkpt>
      <trkpt lat="45.46486" lon="4.74628">
        <ele>302</ele>
        <time>2019-06-29T03:17:45Z</time>
      </trkpt>
      <trkpt lat="45.46477" lon="4.7465">
        <ele>301</ele>
        <time>2019-06-29T03:17:49Z</time>
      </trkpt>
      <trkpt lat="45.46458" lon="4.74681">
        <ele>302</ele>
        <time>2019-06-29T03:17:56Z</time>
      </trkpt>
      <trkpt lat="45.46447" lon="4.74689">
        <ele>302</ele>
        <time>2019-06-29T03:17:59Z</time>
      </trkpt>
      <trkpt lat="45.46441" lon="4.74697">
        <ele>302</ele>
        <time>2019-06-29T03:18:01Z</time>
      </trkpt>
      <trkpt lat="45.46381" lon="4.74732">
        <ele>304</ele>
        <time>2019-06-29T03:18:16Z</time>
      </trkpt>
      <trkpt lat="45.46363" lon="4.74748">
        <ele>305</ele>
        <time>2019-06-29T03:18:21Z</time>
      </trkpt>
      <trkpt lat="45.46311" lon="4.74802">
        <ele>303</ele>
        <time>2019-06-29T03:18:36Z</time>
      </trkpt>
      <trkpt lat="45.46264" lon="4.74871">
        <ele>299</ele>
        <time>2019-06-29T03:18:52Z</time>
      </trkpt>
      <trkpt lat="45.46253" lon="4.74874">
        <ele>299</ele>
        <time>2019-06-29T03:18:54Z</time>
      </trkpt>
      <trkpt lat="45.46241" lon="4.74869">
        <ele>299</ele>
        <time>2019-06-29T03:18:57Z</time>
      </trkpt>
      <trkpt lat="45.46222" lon="4.74938">
        <ele>294</ele>
        <time>2019-06-29T03:19:09Z</time>
      </trkpt>
      <trkpt lat="45.46196" lon="4.75">
        <ele>290</ele>
        <time>2019-06-29T03:19:21Z</time>
      </trkpt>
      <trkpt lat="45.46181" lon="4.75021">
        <ele>288</ele>
        <time>2019-06-29T03:19:26Z</time>
      </trkpt>
      <trkpt lat="45.46146" lon="4.75058">
        <ele>279</ele>
        <time>2019-06-29T03:19:36Z</time>
      </trkpt>
      <trkpt lat="45.46127" lon="4.75071">
        <ele>273</ele>
        <time>2019-06-29T03:19:41Z</time>
      </trkpt>
      <trkpt lat="45.46121" lon="4.75071">
        <ele>272</ele>
        <time>2019-06-29T03:19:43Z</time>
      </trkpt>
      <trkpt lat="45.46135" lon="4.75153">
        <ele>263</ele>
        <time>2019-06-29T03:19:56Z</time>
      </trkpt>
      <trkpt lat="45.46133" lon="4.75229">
        <ele>254</ele>
        <time>2019-06-29T03:20:09Z</time>
      </trkpt>
      <trkpt lat="45.46106" lon="4.75286">
        <ele>248</ele>
        <time>2019-06-29T03:20:20Z</time>
      </trkpt>
      <trkpt lat="45.46105" lon="4.75316">
        <ele>247</ele>
        <time>2019-06-29T03:20:25Z</time>
      </trkpt>
      <trkpt lat="45.46097" lon="4.75342">
        <ele>246</ele>
        <time>2019-06-29T03:20:30Z</time>
      </trkpt>
      <trkpt lat="45.46072" lon="4.75386">
        <ele>238</ele>
        <time>2019-06-29T03:20:39Z</time>
      </trkpt>
      <trkpt lat="45.46062" lon="4.75399">
        <ele>234</ele>
        <time>2019-06-29T03:20:42Z</time>
      </trkpt>
      <trkpt lat="45.46051" lon="4.75424">
        <ele>230</ele>
        <time>2019-06-29T03:20:47Z</time>
      </trkpt>
      <trkpt lat="45.46039" lon="4.75464">
        <ele>227</ele>
        <time>2019-06-29T03:20:54Z</time>
      </trkpt>
      <trkpt lat="45.46031" lon="4.75547">
        <ele>225</ele>
        <time>2019-06-29T03:21:08Z</time>
      </trkpt>
      <trkpt lat="45.46032" lon="4.75605">
        <ele>221</ele>
        <time>2019-06-29T03:21:17Z</time>
      </trkpt>
      <trkpt lat="45.46028" lon="4.75648">
        <ele>215</ele>
        <time>2019-06-29T03:21:24Z</time>
      </trkpt>
      <trkpt lat="45.46037" lon="4.75713">
        <ele>203</ele>
        <time>2019-06-29T03:21:35Z</time>
      </trkpt>
      <trkpt lat="45.46048" lon="4.75735">
        <ele>198</ele>
        <time>2019-06-29T03:21:40Z</time>
      </trkpt>
      <trkpt lat="45.46059" lon="4.7575">
        <ele>194</ele>
        <time>2019-06-29T03:21:43Z</time>
      </trkpt>
      <trkpt lat="45.46061" lon="4.75768">
        <ele>190</ele>
        <time>2019-06-29T03:21:46Z</time>
      </trkpt>
      <trkpt lat="45.46064" lon="4.75769">
        <ele>189</ele>
        <time>2019-06-29T03:21:47Z</time>
      </trkpt>
      <trkpt lat="45.46066" lon="4.75767">
        <ele>189</ele>
        <time>2019-06-29T03:21:48Z</time>
      </trkpt>
      <trkpt lat="45.46068" lon="4.75748">
        <ele>193</ele>
        <time>2019-06-29T03:21:51Z</time>
      </trkpt>
      <trkpt lat="45.46052" lon="4.75698">
        <ele>203</ele>
        <time>2019-06-29T03:22:00Z</time>
      </trkpt>
      <trkpt lat="45.46049" lon="4.75675">
        <ele>207</ele>
        <time>2019-06-29T03:22:03Z</time>
      </trkpt>
      <trkpt lat="45.46051" lon="4.75662">
        <ele>209</ele>
        <time>2019-06-29T03:22:06Z</time>
      </trkpt>
      <trkpt lat="45.46052" lon="4.75676">
        <ele>207</ele>
        <time>2019-06-29T03:22:08Z</time>
      </trkpt>
      <trkpt lat="45.4606" lon="4.75703">
        <ele>201</ele>
        <time>2019-06-29T03:22:13Z</time>
      </trkpt>
      <trkpt lat="45.46067" lon="4.75715">
        <ele>198</ele>
        <time>2019-06-29T03:22:15Z</time>
      </trkpt>
      <trkpt lat="45.46075" lon="4.75723">
        <ele>195</ele>
        <time>2019-06-29T03:22:18Z</time>
      </trkpt>
      <trkpt lat="45.46091" lon="4.75752">
        <ele>191</ele>
        <time>2019-06-29T03:22:24Z</time>
      </trkpt>
      <trkpt lat="45.46094" lon="4.75765">
        <ele>190</ele>
        <time>2019-06-29T03:22:26Z</time>
      </trkpt>
      <trkpt lat="45.46095" lon="4.75792">
        <ele>186</ele>
        <time>2019-06-29T03:22:30Z</time>
      </trkpt>
      <trkpt lat="45.46086" lon="4.75895">
        <ele>168</ele>
        <time>2019-06-29T03:22:47Z</time>
      </trkpt>
      <trkpt lat="45.4609" lon="4.75904">
        <ele>167</ele>
        <time>2019-06-29T03:22:49Z</time>
      </trkpt>
      <trkpt lat="45.46083" lon="4.75912">
        <ele>164</ele>
        <time>2019-06-29T03:22:51Z</time>
      </trkpt>
      <trkpt lat="45.46053" lon="4.75922">
        <ele>160</ele>
        <time>2019-06-29T03:22:58Z</time>
      </trkpt>
      <trkpt lat="45.46022" lon="4.75928">
        <ele>157</ele>
        <time>2019-06-29T03:23:06Z</time>
      </trkpt>
      <trkpt lat="45.4601" lon="4.75938">
        <ele>155</ele>
        <time>2019-06-29T03:23:09Z</time>
      </trkpt>
      <trkpt lat="45.46007" lon="4.75928">
        <ele>156</ele>
        <time>2019-06-29T03:23:11Z</time>
      </trkpt>
      <trkpt lat="45.45964" lon="4.75949">
        <ele>151</ele>
        <time>2019-06-29T03:23:21Z</time>
      </trkpt>
      <trkpt lat="45.45956" lon="4.75948">
        <ele>151</ele>
        <time>2019-06-29T03:23:23Z</time>
      </trkpt>
      <trkpt lat="45.45939" lon="4.75926">
        <ele>151</ele>
        <time>2019-06-29T03:23:29Z</time>
      </trkpt>
      <trkpt lat="45.45904" lon="4.75893">
        <ele>151</ele>
        <time>2019-06-29T03:23:38Z</time>
      </trkpt>
      <trkpt lat="45.45895" lon="4.7589">
        <ele>151</ele>
        <time>2019-06-29T03:23:41Z</time>
      </trkpt>
      <trkpt lat="45.45876" lon="4.75897">
        <ele>149</ele>
        <time>2019-06-29T03:23:45Z</time>
      </trkpt>
      <trkpt lat="45.45862" lon="4.75908">
        <ele>148</ele>
        <time>2019-06-29T03:23:49Z</time>
      </trkpt>
      <trkpt lat="45.45852" lon="4.7592">
        <ele>147</ele>
        <time>2019-06-29T03:23:52Z</time>
      </trkpt>
      <trkpt lat="45.45839" lon="4.75945">
        <ele>146</ele>
        <time>2019-06-29T03:23:57Z</time>
      </trkpt>
      <trkpt lat="45.4583" lon="4.75969">
        <ele>146</ele>
        <time>2019-06-29T03:24:01Z</time>
      </trkpt>
      <trkpt lat="45.45876" lon="4.7608">
        <ele>146</ele>
        <time>2019-06-29T03:24:23Z</time>
      </trkpt>
      <trkpt lat="45.45849" lon="4.76124">
        <ele>146</ele>
        <time>2019-06-29T03:24:32Z</time>
      </trkpt>
      <trkpt lat="45.4582" lon="4.76163">
        <ele>145</ele>
        <time>2019-06-29T03:24:41Z</time>
      </trkpt>
      <trkpt lat="45.45811" lon="4.7615">
        <ele>145</ele>
        <time>2019-06-29T03:24:44Z</time>
      </trkpt>
      <trkpt lat="45.4579" lon="4.76156">
        <ele>145</ele>
        <time>2019-06-29T03:24:49Z</time>
      </trkpt>
      <trkpt lat="45.4581" lon="4.76318">
        <ele>146</ele>
        <time>2019-06-29T03:25:16Z</time>
      </trkpt>
      <trkpt lat="45.45827" lon="4.76491">
        <ele>147</ele>
        <time>2019-06-29T03:25:45Z</time>
      </trkpt>
      <trkpt lat="45.45828" lon="4.7653">
        <ele>147</ele>
        <time>2019-06-29T03:25:51Z</time>
      </trkpt>
      <trkpt lat="45.4578" lon="4.76816">
        <ele>145</ele>
        <time>2019-06-29T03:26:40Z</time>
      </trkpt>
    </trkseg>
  </trk>
</gpx>